<?xml version="1.0" encoding="UTF-8"?>
<gpx version="1.1" creator="https://www.youtrack.es" xsi:schemaLocation="http://www.topografix.com/GPX/1/1 http://www.topografix.com/GPX/1/1/gpx.xsd http://www.garmin.com/xmlschemas/GpxExtensions/v3 http://www.garmin.com/xmlschemas/GpxExtensionsv3.xsd http://www.garmin.com/xmlschemas/TrackPointExtension/v1 http://www.garmin.com/xmlschemas/TrackPointExtensionv1.xsd" xmlns:gpxtpx="http://www.garmin.com/xmlschemas/TrackPointExtension/v1" xmlns:gpxx="http://www.garmin.com/xmlschemas/GpxExtensions/v3" xmlns:xsi="http://www.w3.org/2001/XMLSchema-instance">
  <metadata>
    <link href="https://www.youtrack.es">
      <text>YouTrack.es</text>
    </link>
    <time>2026-05-11T01:30:22Z</time>
  </metadata>
  <trk>
    <src>https://www.youtrack.es</src>
    <link href="https://www.youtrack.es/ruta/39496-fuerteventura-2-stages">
      <text>YouTrack.es</text>
    </link>
    <trkseg>
      <trkpt lat="28.741019" lon="-13.863380">
        <ele>4.359715</ele>
        <time>2023-01-08T17:35:56.310Z</time>
      </trkpt>
      <trkpt lat="28.741019" lon="-13.863380">
        <ele>4.359715</ele>
        <time>2023-01-08T17:35:56.320Z</time>
      </trkpt>
      <trkpt lat="28.741007" lon="-13.863365">
        <ele>4.359715</ele>
        <time>2023-01-08T17:35:56.780Z</time>
      </trkpt>
      <trkpt lat="28.741019" lon="-13.863380">
        <ele>4.359715</ele>
        <time>2023-01-08T17:35:57.244Z</time>
      </trkpt>
      <trkpt lat="28.741111" lon="-13.863491">
        <ele>4.359715</ele>
        <time>2023-01-08T17:36:00.202Z</time>
      </trkpt>
      <trkpt lat="28.741934" lon="-13.864342">
        <ele>4.491886</ele>
        <time>2023-01-08T17:36:25.241Z</time>
      </trkpt>
      <trkpt lat="28.742106" lon="-13.864520">
        <ele>4.572434</ele>
        <time>2023-01-08T17:36:30.376Z</time>
      </trkpt>
      <trkpt lat="28.742134" lon="-13.864473">
        <ele>4.589713</ele>
        <time>2023-01-08T17:36:33.879Z</time>
      </trkpt>
      <trkpt lat="28.742311" lon="-13.864624">
        <ele>4.666371</ele>
        <time>2023-01-08T17:36:39.447Z</time>
      </trkpt>
      <trkpt lat="28.742577" lon="-13.864501">
        <ele>4.765916</ele>
        <time>2023-01-08T17:36:46.497Z</time>
      </trkpt>
      <trkpt lat="28.743177" lon="-13.864439">
        <ele>4.974855</ele>
        <time>2023-01-08T17:37:02.255Z</time>
      </trkpt>
      <trkpt lat="28.743587" lon="-13.864540">
        <ele>5.306367</ele>
        <time>2023-01-08T17:37:14.221Z</time>
      </trkpt>
      <trkpt lat="28.745018" lon="-13.865532">
        <ele>6.628015</ele>
        <time>2023-01-08T17:37:59.827Z</time>
      </trkpt>
      <trkpt lat="28.745337" lon="-13.865856">
        <ele>6.900516</ele>
        <time>2023-01-08T17:38:11.091Z</time>
      </trkpt>
      <trkpt lat="28.745477" lon="-13.866116">
        <ele>7.071179</ele>
        <time>2023-01-08T17:38:18.016Z</time>
      </trkpt>
      <trkpt lat="28.745562" lon="-13.866442">
        <ele>7.261413</ele>
        <time>2023-01-08T17:38:25.596Z</time>
      </trkpt>
      <trkpt lat="28.745576" lon="-13.866701">
        <ele>7.406555</ele>
        <time>2023-01-08T17:38:31.449Z</time>
      </trkpt>
      <trkpt lat="28.745519" lon="-13.867249">
        <ele>7.738939</ele>
        <time>2023-01-08T17:38:44.135Z</time>
      </trkpt>
      <trkpt lat="28.745413" lon="-13.867597">
        <ele>7.988523</ele>
        <time>2023-01-08T17:38:52.881Z</time>
      </trkpt>
      <trkpt lat="28.745178" lon="-13.868094">
        <ele>8.371072</ele>
        <time>2023-01-08T17:39:06.950Z</time>
      </trkpt>
      <trkpt lat="28.744850" lon="-13.868545">
        <ele>8.768050</ele>
        <time>2023-01-08T17:39:21.737Z</time>
      </trkpt>
      <trkpt lat="28.744111" lon="-13.869364">
        <ele>8.797125</ele>
        <time>2023-01-08T17:40:33.323Z</time>
      </trkpt>
      <trkpt lat="28.744116" lon="-13.869553">
        <ele>8.753280</ele>
        <time>2023-01-08T17:40:44.869Z</time>
      </trkpt>
      <trkpt lat="28.744054" lon="-13.870155">
        <ele>8.612731</ele>
        <time>2023-01-08T17:41:21.776Z</time>
      </trkpt>
      <trkpt lat="28.744033" lon="-13.870455">
        <ele>8.542947</ele>
        <time>2023-01-08T17:41:30.895Z</time>
      </trkpt>
      <trkpt lat="28.743958" lon="-13.870589">
        <ele>8.477884</ele>
        <time>2023-01-08T17:41:35.769Z</time>
      </trkpt>
      <trkpt lat="28.743397" lon="-13.870922">
        <ele>7.880731</ele>
        <time>2023-01-08T17:41:56.962Z</time>
      </trkpt>
      <trkpt lat="28.743113" lon="-13.871254">
        <ele>7.496733</ele>
        <time>2023-01-08T17:42:10.752Z</time>
      </trkpt>
      <trkpt lat="28.742876" lon="-13.871629">
        <ele>7.114032</ele>
        <time>2023-01-08T17:42:25.235Z</time>
      </trkpt>
      <trkpt lat="28.742747" lon="-13.871832">
        <ele>6.906473</ele>
        <time>2023-01-08T17:42:33.100Z</time>
      </trkpt>
      <trkpt lat="28.742729" lon="-13.872047">
        <ele>6.769552</ele>
        <time>2023-01-08T17:42:39.775Z</time>
      </trkpt>
      <trkpt lat="28.742677" lon="-13.872127">
        <ele>6.725024</ele>
        <time>2023-01-08T17:42:42.797Z</time>
      </trkpt>
      <trkpt lat="28.742550" lon="-13.872225">
        <ele>6.646827</ele>
        <time>2023-01-08T17:42:48.312Z</time>
      </trkpt>
      <trkpt lat="28.742346" lon="-13.872159">
        <ele>6.538689</ele>
        <time>2023-01-08T17:42:55.718Z</time>
      </trkpt>
      <trkpt lat="28.741857" lon="-13.872154">
        <ele>6.289304</ele>
        <time>2023-01-08T17:43:13.101Z</time>
      </trkpt>
      <trkpt lat="28.741775" lon="-13.872871">
        <ele>5.965990</ele>
        <time>2023-01-08T17:43:35.672Z</time>
      </trkpt>
      <trkpt lat="28.741794" lon="-13.873129">
        <ele>5.922933</ele>
        <time>2023-01-08T17:43:43.950Z</time>
      </trkpt>
      <trkpt lat="28.742079" lon="-13.873760">
        <ele>6.055712</ele>
        <time>2023-01-08T17:44:06.792Z</time>
      </trkpt>
      <trkpt lat="28.742248" lon="-13.874292">
        <ele>6.161561</ele>
        <time>2023-01-08T17:44:25.063Z</time>
      </trkpt>
      <trkpt lat="28.742433" lon="-13.874710">
        <ele>6.249151</ele>
        <time>2023-01-08T17:44:41.839Z</time>
      </trkpt>
      <trkpt lat="28.742609" lon="-13.874902">
        <ele>6.376676</ele>
        <time>2023-01-08T17:44:52.100Z</time>
      </trkpt>
      <trkpt lat="28.742762" lon="-13.874970">
        <ele>6.578379</ele>
        <time>2023-01-08T17:44:59.068Z</time>
      </trkpt>
      <trkpt lat="28.743021" lon="-13.874912">
        <ele>6.902597</ele>
        <time>2023-01-08T17:45:10.516Z</time>
      </trkpt>
      <trkpt lat="28.743459" lon="-13.874722">
        <ele>7.478217</ele>
        <time>2023-01-08T17:45:31.302Z</time>
      </trkpt>
      <trkpt lat="28.743659" lon="-13.874731">
        <ele>7.724079</ele>
        <time>2023-01-08T17:45:40.199Z</time>
      </trkpt>
      <trkpt lat="28.743849" lon="-13.874783">
        <ele>7.964091</ele>
        <time>2023-01-08T17:45:48.773Z</time>
      </trkpt>
      <trkpt lat="28.744154" lon="-13.874996">
        <ele>8.403392</ele>
        <time>2023-01-08T17:46:04.269Z</time>
      </trkpt>
      <trkpt lat="28.744752" lon="-13.875303">
        <ele>8.973062</ele>
        <time>2023-01-08T17:46:32.103Z</time>
      </trkpt>
      <trkpt lat="28.745112" lon="-13.875403">
        <ele>9.277913</ele>
        <time>2023-01-08T17:46:47.179Z</time>
      </trkpt>
      <trkpt lat="28.745427" lon="-13.875603">
        <ele>9.574533</ele>
        <time>2023-01-08T17:47:01.754Z</time>
      </trkpt>
      <trkpt lat="28.745690" lon="-13.875632">
        <ele>9.791928</ele>
        <time>2023-01-08T17:47:12.361Z</time>
      </trkpt>
      <trkpt lat="28.746238" lon="-13.875905">
        <ele>10.256584</ele>
        <time>2023-01-08T17:47:36.566Z</time>
      </trkpt>
      <trkpt lat="28.746379" lon="-13.876124">
        <ele>10.435262</ele>
        <time>2023-01-08T17:47:46.193Z</time>
      </trkpt>
      <trkpt lat="28.746737" lon="-13.877153">
        <ele>11.163277</ele>
        <time>2023-01-08T17:48:25.609Z</time>
      </trkpt>
      <trkpt lat="28.747326" lon="-13.878191">
        <ele>12.408632</ele>
        <time>2023-01-08T17:49:11.084Z</time>
      </trkpt>
      <trkpt lat="28.747561" lon="-13.878464">
        <ele>12.826812</ele>
        <time>2023-01-08T17:49:25.874Z</time>
      </trkpt>
      <trkpt lat="28.747803" lon="-13.878552">
        <ele>13.143473</ele>
        <time>2023-01-08T17:49:37.052Z</time>
      </trkpt>
      <trkpt lat="28.748967" lon="-13.878951">
        <ele>14.646170</ele>
        <time>2023-01-08T17:50:32.429Z</time>
      </trkpt>
      <trkpt lat="28.749370" lon="-13.879389">
        <ele>15.332174</ele>
        <time>2023-01-08T17:50:56.688Z</time>
      </trkpt>
      <trkpt lat="28.749553" lon="-13.879830">
        <ele>15.724903</ele>
        <time>2023-01-08T17:51:14.153Z</time>
      </trkpt>
      <trkpt lat="28.749586" lon="-13.879910">
        <ele>15.653407</ele>
        <time>2023-01-08T17:51:17.092Z</time>
      </trkpt>
      <trkpt lat="28.749792" lon="-13.880419">
        <ele>15.200056</ele>
        <time>2023-01-08T17:51:34.892Z</time>
      </trkpt>
      <trkpt lat="28.750061" lon="-13.881082">
        <ele>14.609282</ele>
        <time>2023-01-08T17:51:56.738Z</time>
      </trkpt>
      <trkpt lat="28.750204" lon="-13.881780">
        <ele>13.929854</ele>
        <time>2023-01-08T17:52:17.244Z</time>
      </trkpt>
      <trkpt lat="28.750184" lon="-13.882110">
        <ele>13.377841</ele>
        <time>2023-01-08T17:52:26.634Z</time>
      </trkpt>
      <trkpt lat="28.749973" lon="-13.882732">
        <ele>12.264865</ele>
        <time>2023-01-08T17:52:45.578Z</time>
      </trkpt>
      <trkpt lat="28.750044" lon="-13.883000">
        <ele>11.797657</ele>
        <time>2023-01-08T17:52:53.549Z</time>
      </trkpt>
      <trkpt lat="28.750570" lon="-13.883354">
        <ele>10.665368</ele>
        <time>2023-01-08T17:53:13.620Z</time>
      </trkpt>
      <trkpt lat="28.751240" lon="-13.883411">
        <ele>9.983776</ele>
        <time>2023-01-08T17:53:36.410Z</time>
      </trkpt>
      <trkpt lat="28.752702" lon="-13.884071">
        <ele>8.593297</ele>
        <time>2023-01-08T17:54:31.590Z</time>
      </trkpt>
      <trkpt lat="28.752812" lon="-13.884221">
        <ele>8.492530</ele>
        <time>2023-01-08T17:54:37.676Z</time>
      </trkpt>
      <trkpt lat="28.752980" lon="-13.884798">
        <ele>8.179246</ele>
        <time>2023-01-08T17:54:56.627Z</time>
      </trkpt>
      <trkpt lat="28.753065" lon="-13.884944">
        <ele>8.088938</ele>
        <time>2023-01-08T17:55:02.101Z</time>
      </trkpt>
      <trkpt lat="28.753491" lon="-13.885210">
        <ele>7.808228</ele>
        <time>2023-01-08T17:55:19.382Z</time>
      </trkpt>
      <trkpt lat="28.753796" lon="-13.885495">
        <ele>7.652113</ele>
        <time>2023-01-08T17:55:33.419Z</time>
      </trkpt>
      <trkpt lat="28.754656" lon="-13.886396">
        <ele>7.189754</ele>
        <time>2023-01-08T17:56:15.075Z</time>
      </trkpt>
      <trkpt lat="28.755326" lon="-13.887014">
        <ele>7.343883</ele>
        <time>2023-01-08T17:56:47.313Z</time>
      </trkpt>
      <trkpt lat="28.755452" lon="-13.887170">
        <ele>7.412027</ele>
        <time>2023-01-08T17:56:54.489Z</time>
      </trkpt>
      <trkpt lat="28.755565" lon="-13.887666">
        <ele>7.576664</ele>
        <time>2023-01-08T17:57:12.155Z</time>
      </trkpt>
      <trkpt lat="28.755703" lon="-13.888408">
        <ele>7.947521</ele>
        <time>2023-01-08T17:57:39.283Z</time>
      </trkpt>
      <trkpt lat="28.755978" lon="-13.888896">
        <ele>8.561602</ele>
        <time>2023-01-08T17:58:00.922Z</time>
      </trkpt>
      <trkpt lat="28.756002" lon="-13.889010">
        <ele>8.685706</ele>
        <time>2023-01-08T17:58:05.491Z</time>
      </trkpt>
      <trkpt lat="28.755828" lon="-13.889337">
        <ele>9.090618</ele>
        <time>2023-01-08T17:58:20.139Z</time>
      </trkpt>
      <trkpt lat="28.755620" lon="-13.889560">
        <ele>9.435287</ele>
        <time>2023-01-08T17:58:32.632Z</time>
      </trkpt>
      <trkpt lat="28.755456" lon="-13.889899">
        <ele>9.845144</ele>
        <time>2023-01-08T17:58:47.574Z</time>
      </trkpt>
      <trkpt lat="28.755088" lon="-13.890282">
        <ele>10.516571</ele>
        <time>2023-01-08T17:59:09.510Z</time>
      </trkpt>
      <trkpt lat="28.754994" lon="-13.891140">
        <ele>11.557375</ele>
        <time>2023-01-08T17:59:42.929Z</time>
      </trkpt>
      <trkpt lat="28.755074" lon="-13.891399">
        <ele>11.887916</ele>
        <time>2023-01-08T17:59:53.558Z</time>
      </trkpt>
      <trkpt lat="28.755024" lon="-13.891796">
        <ele>12.370689</ele>
        <time>2023-01-08T18:00:09.130Z</time>
      </trkpt>
      <trkpt lat="28.754622" lon="-13.892191">
        <ele>12.887486</ele>
        <time>2023-01-08T18:00:32.187Z</time>
      </trkpt>
      <trkpt lat="28.754229" lon="-13.892327">
        <ele>13.279095</ele>
        <time>2023-01-08T18:00:49.593Z</time>
      </trkpt>
      <trkpt lat="28.754024" lon="-13.892490">
        <ele>13.517376</ele>
        <time>2023-01-08T18:01:00.051Z</time>
      </trkpt>
      <trkpt lat="28.753698" lon="-13.893310">
        <ele>14.064837</ele>
        <time>2023-01-08T18:01:31.833Z</time>
      </trkpt>
      <trkpt lat="28.753460" lon="-13.893496">
        <ele>13.960365</ele>
        <time>2023-01-08T18:01:42.883Z</time>
      </trkpt>
      <trkpt lat="28.753180" lon="-13.893537">
        <ele>13.858140</ele>
        <time>2023-01-08T18:01:53.340Z</time>
      </trkpt>
      <trkpt lat="28.753038" lon="-13.893652">
        <ele>13.795077</ele>
        <time>2023-01-08T18:01:59.685Z</time>
      </trkpt>
      <trkpt lat="28.752842" lon="-13.894044">
        <ele>13.651813</ele>
        <time>2023-01-08T18:02:13.675Z</time>
      </trkpt>
      <trkpt lat="28.752652" lon="-13.894243">
        <ele>13.558405</ele>
        <time>2023-01-08T18:02:22.638Z</time>
      </trkpt>
      <trkpt lat="28.751826" lon="-13.895855">
        <ele>11.636142</ele>
        <time>2023-01-08T18:03:17.847Z</time>
      </trkpt>
      <trkpt lat="28.751892" lon="-13.896304">
        <ele>11.110612</ele>
        <time>2023-01-08T18:03:31.334Z</time>
      </trkpt>
      <trkpt lat="28.751657" lon="-13.896965">
        <ele>10.467095</ele>
        <time>2023-01-08T18:03:52.532Z</time>
      </trkpt>
      <trkpt lat="28.751631" lon="-13.897193">
        <ele>10.260290</ele>
        <time>2023-01-08T18:03:59.459Z</time>
      </trkpt>
      <trkpt lat="28.751742" lon="-13.897654">
        <ele>9.830284</ele>
        <time>2023-01-08T18:04:13.856Z</time>
      </trkpt>
      <trkpt lat="28.751694" lon="-13.897984">
        <ele>9.529403</ele>
        <time>2023-01-08T18:04:24.014Z</time>
      </trkpt>
      <trkpt lat="28.751713" lon="-13.898167">
        <ele>9.363651</ele>
        <time>2023-01-08T18:04:29.642Z</time>
      </trkpt>
      <trkpt lat="28.751807" lon="-13.898440">
        <ele>9.219308</ele>
        <time>2023-01-08T18:04:38.761Z</time>
      </trkpt>
      <trkpt lat="28.751803" lon="-13.898636">
        <ele>9.177463</ele>
        <time>2023-01-08T18:04:44.849Z</time>
      </trkpt>
      <trkpt lat="28.751998" lon="-13.899660">
        <ele>8.953809</ele>
        <time>2023-01-08T18:05:18.047Z</time>
      </trkpt>
      <trkpt lat="28.751976" lon="-13.899870">
        <ele>8.908669</ele>
        <time>2023-01-08T18:05:24.837Z</time>
      </trkpt>
      <trkpt lat="28.751868" lon="-13.900172">
        <ele>8.839055</ele>
        <time>2023-01-08T18:05:35.523Z</time>
      </trkpt>
      <trkpt lat="28.751491" lon="-13.900871">
        <ele>9.223392</ele>
        <time>2023-01-08T18:06:03.715Z</time>
      </trkpt>
      <trkpt lat="28.750940" lon="-13.901702">
        <ele>9.805263</ele>
        <time>2023-01-08T18:06:41.834Z</time>
      </trkpt>
      <trkpt lat="28.749671" lon="-13.902639">
        <ele>10.597046</ele>
        <time>2023-01-08T18:07:43.513Z</time>
      </trkpt>
      <trkpt lat="28.748709" lon="-13.903530">
        <ele>10.518353</ele>
        <time>2023-01-08T18:08:29.288Z</time>
      </trkpt>
      <trkpt lat="28.748538" lon="-13.903997">
        <ele>10.298709</ele>
        <time>2023-01-08T18:08:44.824Z</time>
      </trkpt>
      <trkpt lat="28.748263" lon="-13.904418">
        <ele>10.070860</ele>
        <time>2023-01-08T18:09:00.870Z</time>
      </trkpt>
      <trkpt lat="28.748202" lon="-13.904737">
        <ele>9.899554</ele>
        <time>2023-01-08T18:09:10.741Z</time>
      </trkpt>
      <trkpt lat="28.748213" lon="-13.905193">
        <ele>9.575816</ele>
        <time>2023-01-08T18:09:24.475Z</time>
      </trkpt>
      <trkpt lat="28.748006" lon="-13.906009">
        <ele>8.972962</ele>
        <time>2023-01-08T18:09:50.154Z</time>
      </trkpt>
      <trkpt lat="28.747677" lon="-13.906747">
        <ele>8.651882</ele>
        <time>2023-01-08T18:10:15.770Z</time>
      </trkpt>
      <trkpt lat="28.747511" lon="-13.907056">
        <ele>8.904453</ele>
        <time>2023-01-08T18:10:28.121Z</time>
      </trkpt>
      <trkpt lat="28.747374" lon="-13.907169">
        <ele>9.038851</ele>
        <time>2023-01-08T18:10:35.308Z</time>
      </trkpt>
      <trkpt lat="28.746970" lon="-13.907450">
        <ele>9.415008</ele>
        <time>2023-01-08T18:10:55.892Z</time>
      </trkpt>
      <trkpt lat="28.746559" lon="-13.907474">
        <ele>9.742152</ele>
        <time>2023-01-08T18:11:13.769Z</time>
      </trkpt>
      <trkpt lat="28.745819" lon="-13.907689">
        <ele>9.938499</ele>
        <time>2023-01-08T18:11:46.566Z</time>
      </trkpt>
      <trkpt lat="28.745629" lon="-13.907787">
        <ele>9.933877</ele>
        <time>2023-01-08T18:11:54.965Z</time>
      </trkpt>
      <trkpt lat="28.745410" lon="-13.908046">
        <ele>9.926884</ele>
        <time>2023-01-08T18:12:07.459Z</time>
      </trkpt>
      <trkpt lat="28.745330" lon="-13.908276">
        <ele>9.922075</ele>
        <time>2023-01-08T18:12:15.960Z</time>
      </trkpt>
      <trkpt lat="28.744860" lon="-13.910715">
        <ele>7.098206</ele>
        <time>2023-01-08T18:13:27.903Z</time>
      </trkpt>
      <trkpt lat="28.744752" lon="-13.911626">
        <ele>6.103801</ele>
        <time>2023-01-08T18:13:54.894Z</time>
      </trkpt>
      <trkpt lat="28.744651" lon="-13.913137">
        <ele>4.848756</ele>
        <time>2023-01-08T18:14:40.926Z</time>
      </trkpt>
      <trkpt lat="28.744580" lon="-13.913368">
        <ele>4.884000</ele>
        <time>2023-01-08T18:14:48.665Z</time>
      </trkpt>
      <trkpt lat="28.744134" lon="-13.914206">
        <ele>5.025148</ele>
        <time>2023-01-08T18:15:21.367Z</time>
      </trkpt>
      <trkpt lat="28.744045" lon="-13.914367">
        <ele>5.052552</ele>
        <time>2023-01-08T18:15:27.542Z</time>
      </trkpt>
      <trkpt lat="28.743787" lon="-13.914986">
        <ele>5.557174</ele>
        <time>2023-01-08T18:15:51.889Z</time>
      </trkpt>
      <trkpt lat="28.743709" lon="-13.915969">
        <ele>7.332823</ele>
        <time>2023-01-08T18:16:33.530Z</time>
      </trkpt>
      <trkpt lat="28.743690" lon="-13.916381">
        <ele>8.075038</ele>
        <time>2023-01-08T18:16:51.702Z</time>
      </trkpt>
      <trkpt lat="28.743615" lon="-13.917028">
        <ele>9.284718</ele>
        <time>2023-01-08T18:17:20.420Z</time>
      </trkpt>
      <trkpt lat="28.743607" lon="-13.917673">
        <ele>10.538503</ele>
        <time>2023-01-08T18:17:48.044Z</time>
      </trkpt>
      <trkpt lat="28.743473" lon="-13.917931">
        <ele>11.121347</ele>
        <time>2023-01-08T18:18:01.059Z</time>
      </trkpt>
      <trkpt lat="28.743133" lon="-13.918285">
        <ele>12.141892</ele>
        <time>2023-01-08T18:18:23.030Z</time>
      </trkpt>
      <trkpt lat="28.743048" lon="-13.918496">
        <ele>12.593222</ele>
        <time>2023-01-08T18:18:32.534Z</time>
      </trkpt>
      <trkpt lat="28.742965" lon="-13.918991">
        <ele>13.260349</ele>
        <time>2023-01-08T18:18:51.904Z</time>
      </trkpt>
      <trkpt lat="28.743045" lon="-13.919457">
        <ele>13.813178</ele>
        <time>2023-01-08T18:19:10.263Z</time>
      </trkpt>
      <trkpt lat="28.742949" lon="-13.919860">
        <ele>14.299368</ele>
        <time>2023-01-08T18:19:26.251Z</time>
      </trkpt>
      <trkpt lat="28.742261" lon="-13.921055">
        <ele>15.583908</ele>
        <time>2023-01-08T18:20:20.134Z</time>
      </trkpt>
      <trkpt lat="28.741791" lon="-13.922192">
        <ele>16.336314</ele>
        <time>2023-01-08T18:21:04.188Z</time>
      </trkpt>
      <trkpt lat="28.741698" lon="-13.922753">
        <ele>16.275598</ele>
        <time>2023-01-08T18:21:22.563Z</time>
      </trkpt>
      <trkpt lat="28.741582" lon="-13.924704">
        <ele>15.837555</ele>
        <time>2023-01-08T18:22:23.665Z</time>
      </trkpt>
      <trkpt lat="28.741486" lon="-13.925172">
        <ele>15.895458</ele>
        <time>2023-01-08T18:22:39.029Z</time>
      </trkpt>
      <trkpt lat="28.741053" lon="-13.926463">
        <ele>16.149110</ele>
        <time>2023-01-08T18:23:26.317Z</time>
      </trkpt>
      <trkpt lat="28.740782" lon="-13.926918">
        <ele>16.508241</ele>
        <time>2023-01-08T18:23:46.775Z</time>
      </trkpt>
      <trkpt lat="28.740658" lon="-13.927289">
        <ele>16.767472</ele>
        <time>2023-01-08T18:24:01.492Z</time>
      </trkpt>
      <trkpt lat="28.740579" lon="-13.927707">
        <ele>17.046655</ele>
        <time>2023-01-08T18:24:17.264Z</time>
      </trkpt>
      <trkpt lat="28.740389" lon="-13.928167">
        <ele>17.378650</ele>
        <time>2023-01-08T18:24:35.650Z</time>
      </trkpt>
      <trkpt lat="28.739740" lon="-13.929008">
        <ele>16.644287</ele>
        <time>2023-01-08T18:25:11.331Z</time>
      </trkpt>
      <trkpt lat="28.739679" lon="-13.929496">
        <ele>16.318552</ele>
        <time>2023-01-08T18:25:25.924Z</time>
      </trkpt>
      <trkpt lat="28.739798" lon="-13.930459">
        <ele>15.162426</ele>
        <time>2023-01-08T18:25:53.828Z</time>
      </trkpt>
      <trkpt lat="28.739811" lon="-13.931076">
        <ele>14.156540</ele>
        <time>2023-01-08T18:26:11.365Z</time>
      </trkpt>
      <trkpt lat="28.740179" lon="-13.931987">
        <ele>12.562686</ele>
        <time>2023-01-08T18:26:40.216Z</time>
      </trkpt>
      <trkpt lat="28.740250" lon="-13.933294">
        <ele>10.970687</ele>
        <time>2023-01-08T18:27:19.036Z</time>
      </trkpt>
      <trkpt lat="28.740151" lon="-13.933615">
        <ele>10.557002</ele>
        <time>2023-01-08T18:27:29.183Z</time>
      </trkpt>
      <trkpt lat="28.740108" lon="-13.934043">
        <ele>10.036279</ele>
        <time>2023-01-08T18:27:41.946Z</time>
      </trkpt>
      <trkpt lat="28.739971" lon="-13.934448">
        <ele>9.518756</ele>
        <time>2023-01-08T18:27:54.744Z</time>
      </trkpt>
      <trkpt lat="28.739994" lon="-13.934868">
        <ele>9.017061</ele>
        <time>2023-01-08T18:28:07.092Z</time>
      </trkpt>
      <trkpt lat="28.739931" lon="-13.935099">
        <ele>8.728650</ele>
        <time>2023-01-08T18:28:14.150Z</time>
      </trkpt>
      <trkpt lat="28.739635" lon="-13.935679">
        <ele>7.928580</ele>
        <time>2023-01-08T18:28:33.986Z</time>
      </trkpt>
      <trkpt lat="28.739564" lon="-13.935891">
        <ele>7.697170</ele>
        <time>2023-01-08T18:28:40.835Z</time>
      </trkpt>
      <trkpt lat="28.739516" lon="-13.936353">
        <ele>7.397163</ele>
        <time>2023-01-08T18:28:54.938Z</time>
      </trkpt>
      <trkpt lat="28.739450" lon="-13.936548">
        <ele>7.262373</ele>
        <time>2023-01-08T18:29:01.486Z</time>
      </trkpt>
      <trkpt lat="28.739326" lon="-13.936705">
        <ele>7.126113</ele>
        <time>2023-01-08T18:29:07.806Z</time>
      </trkpt>
      <trkpt lat="28.738826" lon="-13.937004">
        <ele>6.710904</ele>
        <time>2023-01-08T18:29:27.683Z</time>
      </trkpt>
      <trkpt lat="28.738649" lon="-13.937216">
        <ele>6.522131</ele>
        <time>2023-01-08T18:29:36.573Z</time>
      </trkpt>
      <trkpt lat="28.738587" lon="-13.937403">
        <ele>6.421367</ele>
        <time>2023-01-08T18:29:42.992Z</time>
      </trkpt>
      <trkpt lat="28.738609" lon="-13.938697">
        <ele>6.448711</ele>
        <time>2023-01-08T18:30:25.233Z</time>
      </trkpt>
      <trkpt lat="28.738677" lon="-13.938806">
        <ele>6.451538</ele>
        <time>2023-01-08T18:30:29.367Z</time>
      </trkpt>
      <trkpt lat="28.738625" lon="-13.938869">
        <ele>6.453366</ele>
        <time>2023-01-08T18:30:32.519Z</time>
      </trkpt>
      <trkpt lat="28.738659" lon="-13.939482">
        <ele>6.523636</ele>
        <time>2023-01-08T18:30:53.052Z</time>
      </trkpt>
      <trkpt lat="28.738781" lon="-13.939650">
        <ele>6.632634</ele>
        <time>2023-01-08T18:31:00.588Z</time>
      </trkpt>
      <trkpt lat="28.739172" lon="-13.939863">
        <ele>6.879569</ele>
        <time>2023-01-08T18:31:18.121Z</time>
      </trkpt>
      <trkpt lat="28.739405" lon="-13.939915">
        <ele>7.014868</ele>
        <time>2023-01-08T18:31:27.792Z</time>
      </trkpt>
      <trkpt lat="28.739659" lon="-13.939835">
        <ele>7.165034</ele>
        <time>2023-01-08T18:31:38.953Z</time>
      </trkpt>
      <trkpt lat="28.740011" lon="-13.939948">
        <ele>7.373425</ele>
        <time>2023-01-08T18:31:53.710Z</time>
      </trkpt>
      <trkpt lat="28.740658" lon="-13.940386">
        <ele>7.440284</ele>
        <time>2023-01-08T18:32:22.613Z</time>
      </trkpt>
      <trkpt lat="28.740823" lon="-13.940655">
        <ele>7.414882</ele>
        <time>2023-01-08T18:32:33.214Z</time>
      </trkpt>
      <trkpt lat="28.740894" lon="-13.940957">
        <ele>7.390689</ele>
        <time>2023-01-08T18:32:43.284Z</time>
      </trkpt>
      <trkpt lat="28.741085" lon="-13.941286">
        <ele>7.360158</ele>
        <time>2023-01-08T18:32:55.739Z</time>
      </trkpt>
      <trkpt lat="28.741316" lon="-13.941516">
        <ele>7.333097</ele>
        <time>2023-01-08T18:33:06.695Z</time>
      </trkpt>
      <trkpt lat="28.741519" lon="-13.942040">
        <ele>7.221231</ele>
        <time>2023-01-08T18:33:24.542Z</time>
      </trkpt>
      <trkpt lat="28.741981" lon="-13.942661">
        <ele>7.055198</ele>
        <time>2023-01-08T18:33:50.178Z</time>
      </trkpt>
      <trkpt lat="28.742238" lon="-13.944772">
        <ele>7.130993</ele>
        <time>2023-01-08T18:35:01.124Z</time>
      </trkpt>
      <trkpt lat="28.742180" lon="-13.945062">
        <ele>7.176626</ele>
        <time>2023-01-08T18:35:11.169Z</time>
      </trkpt>
      <trkpt lat="28.742177" lon="-13.945074">
        <ele>7.178541</ele>
        <time>2023-01-08T18:35:11.605Z</time>
      </trkpt>
      <trkpt lat="28.742065" lon="-13.945296">
        <ele>7.217834</ele>
        <time>2023-01-08T18:35:20.225Z</time>
      </trkpt>
      <trkpt lat="28.741957" lon="-13.945427">
        <ele>7.214569</ele>
        <time>2023-01-08T18:35:26.203Z</time>
      </trkpt>
      <trkpt lat="28.741717" lon="-13.945717">
        <ele>7.175498</ele>
        <time>2023-01-08T18:35:39.328Z</time>
      </trkpt>
      <trkpt lat="28.741632" lon="-13.945913">
        <ele>7.154074</ele>
        <time>2023-01-08T18:35:46.483Z</time>
      </trkpt>
      <trkpt lat="28.741599" lon="-13.946147">
        <ele>7.130852</ele>
        <time>2023-01-08T18:35:54.156Z</time>
      </trkpt>
      <trkpt lat="28.741655" lon="-13.946447">
        <ele>7.100800</ele>
        <time>2023-01-08T18:36:03.979Z</time>
      </trkpt>
      <trkpt lat="28.741612" lon="-13.946653">
        <ele>7.080053</ele>
        <time>2023-01-08T18:36:10.746Z</time>
      </trkpt>
      <trkpt lat="28.741461" lon="-13.946883">
        <ele>7.051901</ele>
        <time>2023-01-08T18:36:19.818Z</time>
      </trkpt>
      <trkpt lat="28.740785" lon="-13.947383">
        <ele>6.981680</ele>
        <time>2023-01-08T18:36:48.796Z</time>
      </trkpt>
      <trkpt lat="28.739926" lon="-13.948149">
        <ele>6.897711</ele>
        <time>2023-01-08T18:37:29.196Z</time>
      </trkpt>
      <trkpt lat="28.739705" lon="-13.948351">
        <ele>6.926384</ele>
        <time>2023-01-08T18:37:40.075Z</time>
      </trkpt>
      <trkpt lat="28.739539" lon="-13.948669">
        <ele>7.014097</ele>
        <time>2023-01-08T18:37:52.415Z</time>
      </trkpt>
      <trkpt lat="28.739536" lon="-13.948986">
        <ele>7.089232</ele>
        <time>2023-01-08T18:38:03.004Z</time>
      </trkpt>
      <trkpt lat="28.739534" lon="-13.949151">
        <ele>7.128341</ele>
        <time>2023-01-08T18:38:08.566Z</time>
      </trkpt>
      <trkpt lat="28.739460" lon="-13.949513">
        <ele>7.216437</ele>
        <time>2023-01-08T18:38:21.295Z</time>
      </trkpt>
      <trkpt lat="28.739387" lon="-13.949867">
        <ele>7.302626</ele>
        <time>2023-01-08T18:38:33.854Z</time>
      </trkpt>
      <trkpt lat="28.739241" lon="-13.950246">
        <ele>7.400796</ele>
        <time>2023-01-08T18:38:47.811Z</time>
      </trkpt>
      <trkpt lat="28.739121" lon="-13.950409">
        <ele>7.451347</ele>
        <time>2023-01-08T18:38:54.910Z</time>
      </trkpt>
      <trkpt lat="28.738964" lon="-13.950516">
        <ele>7.500890</ele>
        <time>2023-01-08T18:39:01.924Z</time>
      </trkpt>
      <trkpt lat="28.738299" lon="-13.950686">
        <ele>7.685495</ele>
        <time>2023-01-08T18:39:27.803Z</time>
      </trkpt>
      <trkpt lat="28.738034" lon="-13.950847">
        <ele>7.766828</ele>
        <time>2023-01-08T18:39:39.206Z</time>
      </trkpt>
      <trkpt lat="28.737909" lon="-13.951052">
        <ele>7.826135</ele>
        <time>2023-01-08T18:39:47.569Z</time>
      </trkpt>
      <trkpt lat="28.737822" lon="-13.951276">
        <ele>7.962104</ele>
        <time>2023-01-08T18:39:55.916Z</time>
      </trkpt>
      <trkpt lat="28.737789" lon="-13.951556">
        <ele>8.248146</ele>
        <time>2023-01-08T18:40:05.654Z</time>
      </trkpt>
      <trkpt lat="28.737849" lon="-13.951764">
        <ele>8.469843</ele>
        <time>2023-01-08T18:40:13.260Z</time>
      </trkpt>
      <trkpt lat="28.737969" lon="-13.951943">
        <ele>8.697977</ele>
        <time>2023-01-08T18:40:21.373Z</time>
      </trkpt>
      <trkpt lat="28.738003" lon="-13.952179">
        <ele>8.940123</ele>
        <time>2023-01-08T18:40:30.254Z</time>
      </trkpt>
      <trkpt lat="28.737875" lon="-13.952375">
        <ele>9.187561</ele>
        <time>2023-01-08T18:40:39.841Z</time>
      </trkpt>
      <trkpt lat="28.737489" lon="-13.952655">
        <ele>9.715791</ele>
        <time>2023-01-08T18:41:00.693Z</time>
      </trkpt>
      <trkpt lat="28.737122" lon="-13.952723">
        <ele>10.249738</ele>
        <time>2023-01-08T18:41:17.930Z</time>
      </trkpt>
      <trkpt lat="28.737022" lon="-13.952820">
        <ele>10.477660</ele>
        <time>2023-01-08T18:41:24.054Z</time>
      </trkpt>
      <trkpt lat="28.736967" lon="-13.953152">
        <ele>10.992017</ele>
        <time>2023-01-08T18:41:38.002Z</time>
      </trkpt>
      <trkpt lat="28.736878" lon="-13.953281">
        <ele>11.241901</ele>
        <time>2023-01-08T18:41:44.925Z</time>
      </trkpt>
      <trkpt lat="28.736734" lon="-13.953377">
        <ele>11.531491</ele>
        <time>2023-01-08T18:41:52.642Z</time>
      </trkpt>
      <trkpt lat="28.736674" lon="-13.953417">
        <ele>11.652154</ele>
        <time>2023-01-08T18:41:55.885Z</time>
      </trkpt>
      <trkpt lat="28.736475" lon="-13.953611">
        <ele>12.106677</ele>
        <time>2023-01-08T18:42:08.159Z</time>
      </trkpt>
      <trkpt lat="28.735909" lon="-13.954163">
        <ele>13.073726</ele>
        <time>2023-01-08T18:42:41.958Z</time>
      </trkpt>
      <trkpt lat="28.735274" lon="-13.954873">
        <ele>13.135586</ele>
        <time>2023-01-08T18:43:16.679Z</time>
      </trkpt>
      <trkpt lat="28.735136" lon="-13.955113">
        <ele>13.153092</ele>
        <time>2023-01-08T18:43:25.692Z</time>
      </trkpt>
      <trkpt lat="28.734968" lon="-13.955641">
        <ele>13.125733</ele>
        <time>2023-01-08T18:43:42.784Z</time>
      </trkpt>
      <trkpt lat="28.734477" lon="-13.956239">
        <ele>11.718274</ele>
        <time>2023-01-08T18:44:06.514Z</time>
      </trkpt>
      <trkpt lat="28.734393" lon="-13.956513">
        <ele>11.219597</ele>
        <time>2023-01-08T18:44:14.712Z</time>
      </trkpt>
      <trkpt lat="28.734368" lon="-13.956778">
        <ele>10.761697</ele>
        <time>2023-01-08T18:44:22.182Z</time>
      </trkpt>
      <trkpt lat="28.734412" lon="-13.957049">
        <ele>10.288201</ele>
        <time>2023-01-08T18:44:29.807Z</time>
      </trkpt>
      <trkpt lat="28.734486" lon="-13.957238">
        <ele>9.932598</ele>
        <time>2023-01-08T18:44:35.580Z</time>
      </trkpt>
      <trkpt lat="28.734620" lon="-13.957400">
        <ele>9.586535</ele>
        <time>2023-01-08T18:44:41.696Z</time>
      </trkpt>
      <trkpt lat="28.734798" lon="-13.957555">
        <ele>9.291953</ele>
        <time>2023-01-08T18:44:48.896Z</time>
      </trkpt>
      <trkpt lat="28.735323" lon="-13.957820">
        <ele>8.536774</ele>
        <time>2023-01-08T18:45:07.703Z</time>
      </trkpt>
      <trkpt lat="28.735589" lon="-13.957885">
        <ele>8.178947</ele>
        <time>2023-01-08T18:45:16.783Z</time>
      </trkpt>
      <trkpt lat="28.735753" lon="-13.958060">
        <ele>7.883526</ele>
        <time>2023-01-08T18:45:24.573Z</time>
      </trkpt>
      <trkpt lat="28.735768" lon="-13.958212">
        <ele>7.707108</ele>
        <time>2023-01-08T18:45:29.253Z</time>
      </trkpt>
      <trkpt lat="28.735723" lon="-13.958419">
        <ele>7.461133</ele>
        <time>2023-01-08T18:45:36.069Z</time>
      </trkpt>
      <trkpt lat="28.735510" lon="-13.958716">
        <ele>7.474692</ele>
        <time>2023-01-08T18:45:48.827Z</time>
      </trkpt>
      <trkpt lat="28.735456" lon="-13.958944">
        <ele>7.651241</ele>
        <time>2023-01-08T18:45:56.933Z</time>
      </trkpt>
      <trkpt lat="28.735622" lon="-13.960107">
        <ele>8.532080</ele>
        <time>2023-01-08T18:46:41.314Z</time>
      </trkpt>
      <trkpt lat="28.735310" lon="-13.960536">
        <ele>8.917315</ele>
        <time>2023-01-08T18:47:02.919Z</time>
      </trkpt>
      <trkpt lat="28.734373" lon="-13.961087">
        <ele>9.580762</ele>
        <time>2023-01-08T18:47:46.560Z</time>
      </trkpt>
      <trkpt lat="28.733777" lon="-13.961240">
        <ele>9.957565</ele>
        <time>2023-01-08T18:48:09.300Z</time>
      </trkpt>
      <trkpt lat="28.733752" lon="-13.961294">
        <ele>9.934658</ele>
        <time>2023-01-08T18:48:11.237Z</time>
      </trkpt>
      <trkpt lat="28.733613" lon="-13.961587">
        <ele>9.809694</ele>
        <time>2023-01-08T18:48:21.853Z</time>
      </trkpt>
      <trkpt lat="28.733558" lon="-13.961743">
        <ele>9.746622</ele>
        <time>2023-01-08T18:48:27.158Z</time>
      </trkpt>
      <trkpt lat="28.733503" lon="-13.961901">
        <ele>9.682854</ele>
        <time>2023-01-08T18:48:32.514Z</time>
      </trkpt>
      <trkpt lat="28.733389" lon="-13.962624">
        <ele>9.407293</ele>
        <time>2023-01-08T18:48:55.453Z</time>
      </trkpt>
      <trkpt lat="28.732992" lon="-13.963631">
        <ele>8.943527</ele>
        <time>2023-01-08T18:49:29.573Z</time>
      </trkpt>
      <trkpt lat="28.732478" lon="-13.964753">
        <ele>8.349767</ele>
        <time>2023-01-08T18:50:09.059Z</time>
      </trkpt>
      <trkpt lat="28.732647" lon="-13.966182">
        <ele>7.936241</ele>
        <time>2023-01-08T18:50:54.528Z</time>
      </trkpt>
      <trkpt lat="28.732740" lon="-13.966494">
        <ele>7.854777</ele>
        <time>2023-01-08T18:51:05.098Z</time>
      </trkpt>
      <trkpt lat="28.733209" lon="-13.967236">
        <ele>7.844365</ele>
        <time>2023-01-08T18:51:34.737Z</time>
      </trkpt>
      <trkpt lat="28.733244" lon="-13.967440">
        <ele>7.911692</ele>
        <time>2023-01-08T18:51:41.590Z</time>
      </trkpt>
      <trkpt lat="28.733223" lon="-13.967649">
        <ele>7.979828</ele>
        <time>2023-01-08T18:51:48.503Z</time>
      </trkpt>
      <trkpt lat="28.733128" lon="-13.967943">
        <ele>8.081312</ele>
        <time>2023-01-08T18:51:59.001Z</time>
      </trkpt>
      <trkpt lat="28.732346" lon="-13.969007">
        <ele>8.861715</ele>
        <time>2023-01-08T18:52:48.310Z</time>
      </trkpt>
      <trkpt lat="28.731925" lon="-13.969421">
        <ele>9.536792</ele>
        <time>2023-01-08T18:53:12.194Z</time>
      </trkpt>
      <trkpt lat="28.731026" lon="-13.970034">
        <ele>10.709642</ele>
        <time>2023-01-08T18:53:58.926Z</time>
      </trkpt>
      <trkpt lat="28.730889" lon="-13.970177">
        <ele>10.841289</ele>
        <time>2023-01-08T18:54:06.847Z</time>
      </trkpt>
      <trkpt lat="28.730802" lon="-13.970330">
        <ele>10.954635</ele>
        <time>2023-01-08T18:54:14.512Z</time>
      </trkpt>
      <trkpt lat="28.730600" lon="-13.971017">
        <ele>11.405023</ele>
        <time>2023-01-08T18:54:41.355Z</time>
      </trkpt>
      <trkpt lat="28.730600" lon="-13.971033">
        <ele>11.414968</ele>
        <time>2023-01-08T18:54:42.259Z</time>
      </trkpt>
      <trkpt lat="28.730620" lon="-13.971521">
        <ele>11.718627</ele>
        <time>2023-01-08T18:54:58.453Z</time>
      </trkpt>
      <trkpt lat="28.730646" lon="-13.972175">
        <ele>11.370912</ele>
        <time>2023-01-08T18:55:18.475Z</time>
      </trkpt>
      <trkpt lat="28.730724" lon="-13.972399">
        <ele>11.116923</ele>
        <time>2023-01-08T18:55:25.662Z</time>
      </trkpt>
      <trkpt lat="28.731123" lon="-13.973034">
        <ele>10.293680</ele>
        <time>2023-01-08T18:55:48.518Z</time>
      </trkpt>
      <trkpt lat="28.731241" lon="-13.973695">
        <ele>9.635927</ele>
        <time>2023-01-08T18:56:08.241Z</time>
      </trkpt>
      <trkpt lat="28.731412" lon="-13.974235">
        <ele>9.348447</ele>
        <time>2023-01-08T18:56:25.260Z</time>
      </trkpt>
      <trkpt lat="28.731211" lon="-13.975183">
        <ele>8.860085</ele>
        <time>2023-01-08T18:56:55.957Z</time>
      </trkpt>
      <trkpt lat="28.731118" lon="-13.975319">
        <ele>8.773729</ele>
        <time>2023-01-08T18:57:01.630Z</time>
      </trkpt>
      <trkpt lat="28.731109" lon="-13.975331">
        <ele>8.765822</ele>
        <time>2023-01-08T18:57:02.224Z</time>
      </trkpt>
      <trkpt lat="28.730789" lon="-13.975541">
        <ele>8.627392</ele>
        <time>2023-01-08T18:57:16.595Z</time>
      </trkpt>
      <trkpt lat="28.730396" lon="-13.975800">
        <ele>8.552258</ele>
        <time>2023-01-08T18:57:34.125Z</time>
      </trkpt>
      <trkpt lat="28.730300" lon="-13.976003">
        <ele>8.518781</ele>
        <time>2023-01-08T18:57:41.619Z</time>
      </trkpt>
      <trkpt lat="28.730284" lon="-13.976218">
        <ele>8.487461</ele>
        <time>2023-01-08T18:57:48.560Z</time>
      </trkpt>
      <trkpt lat="28.730380" lon="-13.976813">
        <ele>8.399647</ele>
        <time>2023-01-08T18:58:07.705Z</time>
      </trkpt>
      <trkpt lat="28.730555" lon="-13.977258">
        <ele>8.234465</ele>
        <time>2023-01-08T18:58:22.826Z</time>
      </trkpt>
      <trkpt lat="28.730606" lon="-13.977873">
        <ele>7.866023</ele>
        <time>2023-01-08T18:58:41.655Z</time>
      </trkpt>
      <trkpt lat="28.730752" lon="-13.978193">
        <ele>7.650877</ele>
        <time>2023-01-08T18:58:52.664Z</time>
      </trkpt>
      <trkpt lat="28.730957" lon="-13.979081">
        <ele>7.138252</ele>
        <time>2023-01-08T18:59:20.955Z</time>
      </trkpt>
      <trkpt lat="28.730949" lon="-13.979195">
        <ele>7.143290</ele>
        <time>2023-01-08T18:59:24.584Z</time>
      </trkpt>
      <trkpt lat="28.730899" lon="-13.979294">
        <ele>7.148323</ele>
        <time>2023-01-08T18:59:28.168Z</time>
      </trkpt>
      <trkpt lat="28.730579" lon="-13.979496">
        <ele>7.166700</ele>
        <time>2023-01-08T18:59:41.563Z</time>
      </trkpt>
      <trkpt lat="28.730572" lon="-13.979504">
        <ele>7.167197</ele>
        <time>2023-01-08T18:59:41.963Z</time>
      </trkpt>
      <trkpt lat="28.730211" lon="-13.979901">
        <ele>7.192394</ele>
        <time>2023-01-08T19:00:00.689Z</time>
      </trkpt>
      <trkpt lat="28.729526" lon="-13.980306">
        <ele>7.291653</ele>
        <time>2023-01-08T19:00:30.946Z</time>
      </trkpt>
      <trkpt lat="28.729377" lon="-13.980349">
        <ele>7.393695</ele>
        <time>2023-01-08T19:00:37.167Z</time>
      </trkpt>
      <trkpt lat="28.729276" lon="-13.980360">
        <ele>7.461055</ele>
        <time>2023-01-08T19:00:41.307Z</time>
      </trkpt>
      <trkpt lat="28.729143" lon="-13.980298">
        <ele>7.556448</ele>
        <time>2023-01-08T19:00:47.129Z</time>
      </trkpt>
      <trkpt lat="28.728567" lon="-13.979688">
        <ele>8.078330</ele>
        <time>2023-01-08T19:01:18.838Z</time>
      </trkpt>
      <trkpt lat="28.727997" lon="-13.979323">
        <ele>8.491185</ele>
        <time>2023-01-08T19:01:45.664Z</time>
      </trkpt>
      <trkpt lat="28.727839" lon="-13.979273">
        <ele>8.575012</ele>
        <time>2023-01-08T19:01:52.376Z</time>
      </trkpt>
      <trkpt lat="28.727685" lon="-13.979273">
        <ele>8.653742</ele>
        <time>2023-01-08T19:01:58.830Z</time>
      </trkpt>
      <trkpt lat="28.727568" lon="-13.979336">
        <ele>8.719889</ele>
        <time>2023-01-08T19:02:04.187Z</time>
      </trkpt>
      <trkpt lat="28.727253" lon="-13.979683">
        <ele>8.943793</ele>
        <time>2023-01-08T19:02:21.937Z</time>
      </trkpt>
      <trkpt lat="28.726907" lon="-13.979976">
        <ele>9.164117</ele>
        <time>2023-01-08T19:02:38.748Z</time>
      </trkpt>
      <trkpt lat="28.726792" lon="-13.980866">
        <ele>9.100901</ele>
        <time>2023-01-08T19:03:08.069Z</time>
      </trkpt>
      <trkpt lat="28.726842" lon="-13.981233">
        <ele>8.926038</ele>
        <time>2023-01-08T19:03:19.864Z</time>
      </trkpt>
      <trkpt lat="28.726843" lon="-13.981730">
        <ele>8.692042</ele>
        <time>2023-01-08T19:03:35.228Z</time>
      </trkpt>
      <trkpt lat="28.726646" lon="-13.982406">
        <ele>8.344718</ele>
        <time>2023-01-08T19:03:56.789Z</time>
      </trkpt>
      <trkpt lat="28.726871" lon="-13.983517">
        <ele>7.442331</ele>
        <time>2023-01-08T19:04:30.966Z</time>
      </trkpt>
      <trkpt lat="28.726889" lon="-13.984145">
        <ele>6.945067</ele>
        <time>2023-01-08T19:04:50.288Z</time>
      </trkpt>
      <trkpt lat="28.726891" lon="-13.984195">
        <ele>6.905456</ele>
        <time>2023-01-08T19:04:51.758Z</time>
      </trkpt>
      <trkpt lat="28.726766" lon="-13.984434">
        <ele>6.734599</ele>
        <time>2023-01-08T19:05:00.440Z</time>
      </trkpt>
      <trkpt lat="28.726641" lon="-13.984515">
        <ele>6.702309</ele>
        <time>2023-01-08T19:05:05.514Z</time>
      </trkpt>
      <trkpt lat="28.726592" lon="-13.984546">
        <ele>6.689724</ele>
        <time>2023-01-08T19:05:07.520Z</time>
      </trkpt>
      <trkpt lat="28.726454" lon="-13.984714">
        <ele>6.644387</ele>
        <time>2023-01-08T19:05:14.828Z</time>
      </trkpt>
      <trkpt lat="28.726046" lon="-13.985333">
        <ele>6.491875</ele>
        <time>2023-01-08T19:05:39.389Z</time>
      </trkpt>
      <trkpt lat="28.725310" lon="-13.986012">
        <ele>6.436178</ele>
        <time>2023-01-08T19:06:14.782Z</time>
      </trkpt>
      <trkpt lat="28.725153" lon="-13.986103">
        <ele>6.488254</ele>
        <time>2023-01-08T19:06:21.500Z</time>
      </trkpt>
      <trkpt lat="28.724788" lon="-13.986191">
        <ele>6.598566</ele>
        <time>2023-01-08T19:06:36.079Z</time>
      </trkpt>
      <trkpt lat="28.724633" lon="-13.986369">
        <ele>6.663611</ele>
        <time>2023-01-08T19:06:44.728Z</time>
      </trkpt>
      <trkpt lat="28.724540" lon="-13.986596">
        <ele>6.728580</ele>
        <time>2023-01-08T19:06:53.233Z</time>
      </trkpt>
      <trkpt lat="28.724293" lon="-13.986886">
        <ele>6.833407</ele>
        <time>2023-01-08T19:07:06.976Z</time>
      </trkpt>
      <trkpt lat="28.723914" lon="-13.987555">
        <ele>7.057133</ele>
        <time>2023-01-08T19:07:34.111Z</time>
      </trkpt>
      <trkpt lat="28.723528" lon="-13.988411">
        <ele>7.333375</ele>
        <time>2023-01-08T19:08:07.014Z</time>
      </trkpt>
      <trkpt lat="28.723456" lon="-13.989524">
        <ele>7.502017</ele>
        <time>2023-01-08T19:08:44.559Z</time>
      </trkpt>
      <trkpt lat="28.723193" lon="-13.990661">
        <ele>7.564640</ele>
        <time>2023-01-08T19:09:22.728Z</time>
      </trkpt>
      <trkpt lat="28.722728" lon="-13.992212">
        <ele>7.451817</ele>
        <time>2023-01-08T19:10:15.557Z</time>
      </trkpt>
      <trkpt lat="28.722664" lon="-13.992650">
        <ele>7.412568</ele>
        <time>2023-01-08T19:10:29.594Z</time>
      </trkpt>
      <trkpt lat="28.722403" lon="-13.993152">
        <ele>7.512827</ele>
        <time>2023-01-08T19:10:48.404Z</time>
      </trkpt>
      <trkpt lat="28.722020" lon="-13.994236">
        <ele>7.865206</ele>
        <time>2023-01-08T19:11:28.558Z</time>
      </trkpt>
      <trkpt lat="28.721727" lon="-13.994592">
        <ele>8.012417</ele>
        <time>2023-01-08T19:11:45.955Z</time>
      </trkpt>
      <trkpt lat="28.721346" lon="-13.994836">
        <ele>8.278053</ele>
        <time>2023-01-08T19:12:03.666Z</time>
      </trkpt>
      <trkpt lat="28.721050" lon="-13.995027">
        <ele>8.485652</ele>
        <time>2023-01-08T19:12:17.445Z</time>
      </trkpt>
      <trkpt lat="28.720654" lon="-13.995281">
        <ele>8.762985</ele>
        <time>2023-01-08T19:12:36.033Z</time>
      </trkpt>
      <trkpt lat="28.720513" lon="-13.995473">
        <ele>8.897039</ele>
        <time>2023-01-08T19:12:44.944Z</time>
      </trkpt>
      <trkpt lat="28.720410" lon="-13.995759">
        <ele>9.062542</ele>
        <time>2023-01-08T19:12:55.703Z</time>
      </trkpt>
      <trkpt lat="28.720424" lon="-13.996021">
        <ele>9.121617</ele>
        <time>2023-01-08T19:13:04.498Z</time>
      </trkpt>
      <trkpt lat="28.720358" lon="-13.996135">
        <ele>9.129550</ele>
        <time>2023-01-08T19:13:09.110Z</time>
      </trkpt>
      <trkpt lat="28.719956" lon="-13.996104">
        <ele>9.156230</ele>
        <time>2023-01-08T19:13:24.305Z</time>
      </trkpt>
      <trkpt lat="28.719884" lon="-13.996172">
        <ele>9.162421</ele>
        <time>2023-01-08T19:13:27.787Z</time>
      </trkpt>
      <trkpt lat="28.719814" lon="-13.996490">
        <ele>9.181461</ele>
        <time>2023-01-08T19:13:38.437Z</time>
      </trkpt>
      <trkpt lat="28.719702" lon="-13.996692">
        <ele>9.195339</ele>
        <time>2023-01-08T19:13:46.067Z</time>
      </trkpt>
      <trkpt lat="28.719606" lon="-13.996969">
        <ele>9.212636</ele>
        <time>2023-01-08T19:13:55.631Z</time>
      </trkpt>
      <trkpt lat="28.719538" lon="-13.997097">
        <ele>9.221326</ele>
        <time>2023-01-08T19:14:00.467Z</time>
      </trkpt>
      <trkpt lat="28.719447" lon="-13.997144">
        <ele>9.227942</ele>
        <time>2023-01-08T19:14:04.144Z</time>
      </trkpt>
      <trkpt lat="28.719223" lon="-13.997155">
        <ele>9.243204</ele>
        <time>2023-01-08T19:14:12.445Z</time>
      </trkpt>
      <trkpt lat="28.719044" lon="-13.997436">
        <ele>9.264074</ele>
        <time>2023-01-08T19:14:23.753Z</time>
      </trkpt>
      <trkpt lat="28.718848" lon="-13.997577">
        <ele>9.279953</ele>
        <time>2023-01-08T19:14:32.403Z</time>
      </trkpt>
      <trkpt lat="28.718792" lon="-13.997886">
        <ele>9.298913</ele>
        <time>2023-01-08T19:14:42.827Z</time>
      </trkpt>
      <trkpt lat="28.718733" lon="-13.997967">
        <ele>9.305240</ele>
        <time>2023-01-08T19:14:46.373Z</time>
      </trkpt>
      <trkpt lat="28.718526" lon="-13.998088">
        <ele>9.321179</ele>
        <time>2023-01-08T19:14:55.255Z</time>
      </trkpt>
      <trkpt lat="28.718418" lon="-13.998208">
        <ele>9.331511</ele>
        <time>2023-01-08T19:15:01.056Z</time>
      </trkpt>
      <trkpt lat="28.718276" lon="-13.998258">
        <ele>9.341694</ele>
        <time>2023-01-08T19:15:06.792Z</time>
      </trkpt>
      <trkpt lat="28.718006" lon="-13.998713">
        <ele>9.235013</ele>
        <time>2023-01-08T19:15:24.696Z</time>
      </trkpt>
      <trkpt lat="28.717491" lon="-13.998989">
        <ele>9.010298</ele>
        <time>2023-01-08T19:15:45.412Z</time>
      </trkpt>
      <trkpt lat="28.717336" lon="-13.999152">
        <ele>8.927031</ele>
        <time>2023-01-08T19:15:52.920Z</time>
      </trkpt>
      <trkpt lat="28.717121" lon="-13.999185">
        <ele>8.841363</ele>
        <time>2023-01-08T19:16:00.611Z</time>
      </trkpt>
      <trkpt lat="28.716779" lon="-13.999324">
        <ele>8.697985</ele>
        <time>2023-01-08T19:16:13.381Z</time>
      </trkpt>
      <trkpt lat="28.715693" lon="-13.999909">
        <ele>7.992434</ele>
        <time>2023-01-08T19:16:55.057Z</time>
      </trkpt>
      <trkpt lat="28.715675" lon="-14.000019">
        <ele>7.932347</ele>
        <time>2023-01-08T19:16:58.483Z</time>
      </trkpt>
      <trkpt lat="28.715757" lon="-14.000335">
        <ele>7.755393</ele>
        <time>2023-01-08T19:17:08.670Z</time>
      </trkpt>
      <trkpt lat="28.715589" lon="-14.000877">
        <ele>7.594119</ele>
        <time>2023-01-08T19:17:27.084Z</time>
      </trkpt>
      <trkpt lat="28.715500" lon="-14.001023">
        <ele>7.645548</ele>
        <time>2023-01-08T19:17:33.034Z</time>
      </trkpt>
      <trkpt lat="28.715311" lon="-14.001152">
        <ele>7.718195</ele>
        <time>2023-01-08T19:17:41.667Z</time>
      </trkpt>
      <trkpt lat="28.715200" lon="-14.001359">
        <ele>7.788374</ele>
        <time>2023-01-08T19:17:50.208Z</time>
      </trkpt>
      <trkpt lat="28.715000" lon="-14.001583">
        <ele>7.880833</ele>
        <time>2023-01-08T19:18:01.592Z</time>
      </trkpt>
      <trkpt lat="28.714841" lon="-14.001981">
        <ele>8.007334</ele>
        <time>2023-01-08T19:18:16.920Z</time>
      </trkpt>
      <trkpt lat="28.714647" lon="-14.002190">
        <ele>8.095358</ele>
        <time>2023-01-08T19:18:27.459Z</time>
      </trkpt>
      <trkpt lat="28.714093" lon="-14.002510">
        <ele>8.085291</ele>
        <time>2023-01-08T19:18:51.106Z</time>
      </trkpt>
      <trkpt lat="28.712681" lon="-14.003134">
        <ele>7.938771</ele>
        <time>2023-01-08T19:19:46.184Z</time>
      </trkpt>
      <trkpt lat="28.712422" lon="-14.003395">
        <ele>7.914480</ele>
        <time>2023-01-08T19:19:58.587Z</time>
      </trkpt>
      <trkpt lat="28.712359" lon="-14.003406">
        <ele>7.910001</ele>
        <time>2023-01-08T19:20:00.893Z</time>
      </trkpt>
      <trkpt lat="28.712145" lon="-14.003293">
        <ele>7.893428</ele>
        <time>2023-01-08T19:20:09.554Z</time>
      </trkpt>
      <trkpt lat="28.711773" lon="-14.003369">
        <ele>7.866870</ele>
        <time>2023-01-08T19:20:23.490Z</time>
      </trkpt>
      <trkpt lat="28.711037" lon="-14.004167">
        <ele>7.864538</ele>
        <time>2023-01-08T19:21:02.227Z</time>
      </trkpt>
      <trkpt lat="28.710598" lon="-14.004466">
        <ele>7.906277</ele>
        <time>2023-01-08T19:21:21.982Z</time>
      </trkpt>
      <trkpt lat="28.710532" lon="-14.004572">
        <ele>7.915583</ele>
        <time>2023-01-08T19:21:26.367Z</time>
      </trkpt>
      <trkpt lat="28.710363" lon="-14.005211">
        <ele>7.963362</ele>
        <time>2023-01-08T19:21:48.606Z</time>
      </trkpt>
      <trkpt lat="28.710414" lon="-14.005453">
        <ele>7.925626</ele>
        <time>2023-01-08T19:21:56.444Z</time>
      </trkpt>
      <trkpt lat="28.710398" lon="-14.005740">
        <ele>7.781189</ele>
        <time>2023-01-08T19:22:05.096Z</time>
      </trkpt>
      <trkpt lat="28.710287" lon="-14.006136">
        <ele>7.572386</ele>
        <time>2023-01-08T19:22:17.791Z</time>
      </trkpt>
      <trkpt lat="28.710250" lon="-14.006454">
        <ele>7.411270</ele>
        <time>2023-01-08T19:22:27.693Z</time>
      </trkpt>
      <trkpt lat="28.710277" lon="-14.006723">
        <ele>7.275282</ele>
        <time>2023-01-08T19:22:36.142Z</time>
      </trkpt>
      <trkpt lat="28.710531" lon="-14.007269">
        <ele>6.964865</ele>
        <time>2023-01-08T19:22:55.209Z</time>
      </trkpt>
      <trkpt lat="28.710644" lon="-14.007777">
        <ele>6.920201</ele>
        <time>2023-01-08T19:23:11.729Z</time>
      </trkpt>
      <trkpt lat="28.710698" lon="-14.009432">
        <ele>6.894267</ele>
        <time>2023-01-08T19:24:05.575Z</time>
      </trkpt>
      <trkpt lat="28.710768" lon="-14.009992">
        <ele>7.227677</ele>
        <time>2023-01-08T19:24:25.942Z</time>
      </trkpt>
      <trkpt lat="28.710749" lon="-14.010453">
        <ele>7.499699</ele>
        <time>2023-01-08T19:24:41.970Z</time>
      </trkpt>
      <trkpt lat="28.710881" lon="-14.010777">
        <ele>7.710268</ele>
        <time>2023-01-08T19:24:54.880Z</time>
      </trkpt>
      <trkpt lat="28.710797" lon="-14.011342">
        <ele>8.048040</ele>
        <time>2023-01-08T19:25:15.257Z</time>
      </trkpt>
      <trkpt lat="28.711032" lon="-14.011592">
        <ele>8.250500</ele>
        <time>2023-01-08T19:25:29.591Z</time>
      </trkpt>
      <trkpt lat="28.711122" lon="-14.011778">
        <ele>8.367756</ele>
        <time>2023-01-08T19:25:38.095Z</time>
      </trkpt>
      <trkpt lat="28.711060" lon="-14.012108">
        <ele>8.554040</ele>
        <time>2023-01-08T19:25:50.135Z</time>
      </trkpt>
      <trkpt lat="28.710967" lon="-14.012244">
        <ele>8.649229</ele>
        <time>2023-01-08T19:25:57.080Z</time>
      </trkpt>
      <trkpt lat="28.710694" lon="-14.012208">
        <ele>8.822188</ele>
        <time>2023-01-08T19:26:07.486Z</time>
      </trkpt>
      <trkpt lat="28.710585" lon="-14.012245">
        <ele>8.893763</ele>
        <time>2023-01-08T19:26:11.701Z</time>
      </trkpt>
      <trkpt lat="28.710537" lon="-14.012951">
        <ele>9.138582</ele>
        <time>2023-01-08T19:26:34.573Z</time>
      </trkpt>
      <trkpt lat="28.709577" lon="-14.012819">
        <ele>8.873447</ele>
        <time>2023-01-08T19:26:55.988Z</time>
      </trkpt>
      <trkpt lat="28.708813" lon="-14.012743">
        <ele>8.688788</ele>
        <time>2023-01-08T19:27:11.655Z</time>
      </trkpt>
      <trkpt lat="28.708261" lon="-14.012704">
        <ele>8.683452</ele>
        <time>2023-01-08T19:27:31.385Z</time>
      </trkpt>
      <trkpt lat="28.704895" lon="-14.012213">
        <ele>9.512938</ele>
        <time>2023-01-08T19:29:42.799Z</time>
      </trkpt>
      <trkpt lat="28.703798" lon="-14.012145">
        <ele>10.115994</ele>
        <time>2023-01-08T19:30:26.397Z</time>
      </trkpt>
      <trkpt lat="28.703243" lon="-14.012185">
        <ele>10.450845</ele>
        <time>2023-01-08T19:30:49.312Z</time>
      </trkpt>
      <trkpt lat="28.702873" lon="-14.012272">
        <ele>10.695220</ele>
        <time>2023-01-08T19:31:04.743Z</time>
      </trkpt>
      <trkpt lat="28.702535" lon="-14.012444">
        <ele>10.934649</ele>
        <time>2023-01-08T19:31:19.827Z</time>
      </trkpt>
      <trkpt lat="28.702534" lon="-14.012588">
        <ele>11.016353</ele>
        <time>2023-01-08T19:31:23.045Z</time>
      </trkpt>
      <trkpt lat="28.702389" lon="-14.012948">
        <ele>11.241114</ele>
        <time>2023-01-08T19:31:31.998Z</time>
      </trkpt>
      <trkpt lat="28.701385" lon="-14.014585">
        <ele>11.664324</ele>
        <time>2023-01-08T19:32:13.786Z</time>
      </trkpt>
      <trkpt lat="28.701169" lon="-14.014783">
        <ele>11.710376</ele>
        <time>2023-01-08T19:32:19.738Z</time>
      </trkpt>
      <trkpt lat="28.700802" lon="-14.014938">
        <ele>11.395462</ele>
        <time>2023-01-08T19:32:27.930Z</time>
      </trkpt>
      <trkpt lat="28.700222" lon="-14.015011">
        <ele>10.853789</ele>
        <time>2023-01-08T19:32:39.846Z</time>
      </trkpt>
      <trkpt lat="28.698639" lon="-14.015039">
        <ele>9.247392</ele>
        <time>2023-01-08T19:33:10.369Z</time>
      </trkpt>
      <trkpt lat="28.698062" lon="-14.014972">
        <ele>8.598108</ele>
        <time>2023-01-08T19:33:21.502Z</time>
      </trkpt>
      <trkpt lat="28.696938" lon="-14.014815">
        <ele>7.826652</ele>
        <time>2023-01-08T19:33:44.968Z</time>
      </trkpt>
      <trkpt lat="28.696668" lon="-14.014785">
        <ele>7.736994</ele>
        <time>2023-01-08T19:33:50.817Z</time>
      </trkpt>
      <trkpt lat="28.695951" lon="-14.014724">
        <ele>7.499368</ele>
        <time>2023-01-08T19:34:06.309Z</time>
      </trkpt>
      <trkpt lat="28.695201" lon="-14.014641">
        <ele>7.464137</ele>
        <time>2023-01-08T19:34:23.161Z</time>
      </trkpt>
      <trkpt lat="28.694962" lon="-14.014540">
        <ele>7.474818</ele>
        <time>2023-01-08T19:34:28.799Z</time>
      </trkpt>
      <trkpt lat="28.694760" lon="-14.014355">
        <ele>7.485676</ele>
        <time>2023-01-08T19:34:34.516Z</time>
      </trkpt>
      <trkpt lat="28.694272" lon="-14.013787">
        <ele>7.514900</ele>
        <time>2023-01-08T19:34:49.928Z</time>
      </trkpt>
      <trkpt lat="28.692867" lon="-14.011977">
        <ele>8.945071</ele>
        <time>2023-01-08T19:35:47.289Z</time>
      </trkpt>
      <trkpt lat="28.692274" lon="-14.011242">
        <ele>9.492200</ele>
        <time>2023-01-08T19:36:11.344Z</time>
      </trkpt>
      <trkpt lat="28.691179" lon="-14.009847">
        <ele>9.814552</ele>
        <time>2023-01-08T19:36:51.591Z</time>
      </trkpt>
      <trkpt lat="28.690985" lon="-14.009706">
        <ele>9.800828</ele>
        <time>2023-01-08T19:36:56.595Z</time>
      </trkpt>
      <trkpt lat="28.690864" lon="-14.009702">
        <ele>9.793607</ele>
        <time>2023-01-08T19:36:59.102Z</time>
      </trkpt>
      <trkpt lat="28.690538" lon="-14.009961">
        <ele>9.769903</ele>
        <time>2023-01-08T19:37:07.351Z</time>
      </trkpt>
      <trkpt lat="28.690181" lon="-14.010267">
        <ele>9.574779</ele>
        <time>2023-01-08T19:37:16.640Z</time>
      </trkpt>
      <trkpt lat="28.689770" lon="-14.010562">
        <ele>9.352969</ele>
        <time>2023-01-08T19:37:26.754Z</time>
      </trkpt>
      <trkpt lat="28.689416" lon="-14.010674">
        <ele>9.185189</ele>
        <time>2023-01-08T19:37:34.183Z</time>
      </trkpt>
      <trkpt lat="28.689146" lon="-14.010711">
        <ele>9.060993</ele>
        <time>2023-01-08T19:37:39.688Z</time>
      </trkpt>
      <trkpt lat="28.688679" lon="-14.010656">
        <ele>9.189080</ele>
        <time>2023-01-08T19:37:50.125Z</time>
      </trkpt>
      <trkpt lat="28.687791" lon="-14.010531">
        <ele>10.172183</ele>
        <time>2023-01-08T19:38:14.443Z</time>
      </trkpt>
      <trkpt lat="28.686887" lon="-14.010401">
        <ele>11.368482</ele>
        <time>2023-01-08T19:38:43.122Z</time>
      </trkpt>
      <trkpt lat="28.685828" lon="-14.010264">
        <ele>13.453958</ele>
        <time>2023-01-08T19:39:18.148Z</time>
      </trkpt>
      <trkpt lat="28.685691" lon="-14.010243">
        <ele>13.724443</ele>
        <time>2023-01-08T19:39:22.364Z</time>
      </trkpt>
      <trkpt lat="28.685779" lon="-14.009758">
        <ele>14.595437</ele>
        <time>2023-01-08T19:39:35.423Z</time>
      </trkpt>
      <trkpt lat="28.685354" lon="-14.009696">
        <ele>15.566443</ele>
        <time>2023-01-08T19:39:49.294Z</time>
      </trkpt>
      <trkpt lat="28.684707" lon="-14.009616">
        <ele>17.041299</ele>
        <time>2023-01-08T19:40:10.950Z</time>
      </trkpt>
      <trkpt lat="28.684150" lon="-14.009536">
        <ele>18.313574</ele>
        <time>2023-01-08T19:40:30.743Z</time>
      </trkpt>
      <trkpt lat="28.683200" lon="-14.009411">
        <ele>20.455756</ele>
        <time>2023-01-08T19:41:05.383Z</time>
      </trkpt>
      <trkpt lat="28.682749" lon="-14.009337">
        <ele>21.475183</ele>
        <time>2023-01-08T19:41:21.346Z</time>
      </trkpt>
      <trkpt lat="28.682605" lon="-14.009307">
        <ele>21.802693</ele>
        <time>2023-01-08T19:41:25.995Z</time>
      </trkpt>
      <trkpt lat="28.682521" lon="-14.009173">
        <ele>22.125949</ele>
        <time>2023-01-08T19:41:30.032Z</time>
      </trkpt>
      <trkpt lat="28.682364" lon="-14.008982">
        <ele>22.565056</ele>
        <time>2023-01-08T19:41:36.627Z</time>
      </trkpt>
      <trkpt lat="28.682370" lon="-14.008880">
        <ele>22.610607</ele>
        <time>2023-01-08T19:41:38.843Z</time>
      </trkpt>
      <trkpt lat="28.682112" lon="-14.008742">
        <ele>22.755355</ele>
        <time>2023-01-08T19:41:46.190Z</time>
      </trkpt>
      <trkpt lat="28.681742" lon="-14.008531">
        <ele>22.965486</ele>
        <time>2023-01-08T19:41:55.832Z</time>
      </trkpt>
      <trkpt lat="28.681365" lon="-14.008325">
        <ele>23.177829</ele>
        <time>2023-01-08T19:42:05.303Z</time>
      </trkpt>
      <trkpt lat="28.680999" lon="-14.008124">
        <ele>23.384172</ele>
        <time>2023-01-08T19:42:14.668Z</time>
      </trkpt>
      <trkpt lat="28.680939" lon="-14.008092">
        <ele>23.417817</ele>
        <time>2023-01-08T19:42:16.284Z</time>
      </trkpt>
      <trkpt lat="28.680773" lon="-14.008028">
        <ele>23.540429</ele>
        <time>2023-01-08T19:42:20.436Z</time>
      </trkpt>
      <trkpt lat="28.679352" lon="-14.007151">
        <ele>24.911207</ele>
        <time>2023-01-08T19:43:28.696Z</time>
      </trkpt>
      <trkpt lat="28.676053" lon="-14.005378">
        <ele>26.998681</ele>
        <time>2023-01-08T19:45:55.951Z</time>
      </trkpt>
      <trkpt lat="28.675644" lon="-14.005182">
        <ele>26.505935</ele>
        <time>2023-01-08T19:46:11.259Z</time>
      </trkpt>
      <trkpt lat="28.675398" lon="-14.005238">
        <ele>26.195314</ele>
        <time>2023-01-08T19:46:19.769Z</time>
      </trkpt>
      <trkpt lat="28.675127" lon="-14.005407">
        <ele>25.812810</ele>
        <time>2023-01-08T19:46:30.013Z</time>
      </trkpt>
      <trkpt lat="28.674433" lon="-14.005955">
        <ele>24.776801</ele>
        <time>2023-01-08T19:46:57.630Z</time>
      </trkpt>
      <trkpt lat="28.673740" lon="-14.006502">
        <ele>24.256258</ele>
        <time>2023-01-08T19:47:27.275Z</time>
      </trkpt>
      <trkpt lat="28.672363" lon="-14.007587">
        <ele>23.472690</ele>
        <time>2023-01-08T19:48:28.158Z</time>
      </trkpt>
      <trkpt lat="28.671515" lon="-14.008031">
        <ele>23.214719</ele>
        <time>2023-01-08T19:49:02.116Z</time>
      </trkpt>
      <trkpt lat="28.671166" lon="-14.008214">
        <ele>23.083062</ele>
        <time>2023-01-08T19:49:15.852Z</time>
      </trkpt>
      <trkpt lat="28.670433" lon="-14.008216">
        <ele>22.806434</ele>
        <time>2023-01-08T19:49:41.859Z</time>
      </trkpt>
      <trkpt lat="28.667605" lon="-14.008353">
        <ele>22.111293</ele>
        <time>2023-01-08T19:51:24.777Z</time>
      </trkpt>
      <trkpt lat="28.666893" lon="-14.008440">
        <ele>22.194549</ele>
        <time>2023-01-08T19:51:51.244Z</time>
      </trkpt>
      <trkpt lat="28.666694" lon="-14.008464">
        <ele>22.217815</ele>
        <time>2023-01-08T19:51:58.754Z</time>
      </trkpt>
      <trkpt lat="28.666397" lon="-14.008667">
        <ele>22.258079</ele>
        <time>2023-01-08T19:52:12.035Z</time>
      </trkpt>
      <trkpt lat="28.665783" lon="-14.009125">
        <ele>22.480027</ele>
        <time>2023-01-08T19:52:41.024Z</time>
      </trkpt>
      <trkpt lat="28.664117" lon="-14.010461">
        <ele>22.917144</ele>
        <time>2023-01-08T19:54:00.885Z</time>
      </trkpt>
      <trkpt lat="28.664216" lon="-14.010641">
        <ele>22.866588</ele>
        <time>2023-01-08T19:54:07.571Z</time>
      </trkpt>
      <trkpt lat="28.664258" lon="-14.010955">
        <ele>22.791000</ele>
        <time>2023-01-08T19:54:17.721Z</time>
      </trkpt>
      <trkpt lat="28.664346" lon="-14.011068">
        <ele>22.755045</ele>
        <time>2023-01-08T19:54:22.340Z</time>
      </trkpt>
      <trkpt lat="28.664746" lon="-14.011904">
        <ele>22.415429</ele>
        <time>2023-01-08T19:54:51.563Z</time>
      </trkpt>
      <trkpt lat="28.664719" lon="-14.012140">
        <ele>22.277169</ele>
        <time>2023-01-08T19:54:58.573Z</time>
      </trkpt>
      <trkpt lat="28.664613" lon="-14.012309">
        <ele>22.156488</ele>
        <time>2023-01-08T19:55:04.909Z</time>
      </trkpt>
      <trkpt lat="28.664655" lon="-14.012678">
        <ele>21.940328</ele>
        <time>2023-01-08T19:55:16.205Z</time>
      </trkpt>
      <trkpt lat="28.664735" lon="-14.012812">
        <ele>21.846173</ele>
        <time>2023-01-08T19:55:21.175Z</time>
      </trkpt>
      <trkpt lat="28.664724" lon="-14.013011">
        <ele>21.730338</ele>
        <time>2023-01-08T19:55:27.371Z</time>
      </trkpt>
      <trkpt lat="28.664247" lon="-14.013550">
        <ele>21.515215</ele>
        <time>2023-01-08T19:55:51.785Z</time>
      </trkpt>
      <trkpt lat="28.663944" lon="-14.013641">
        <ele>21.673005</ele>
        <time>2023-01-08T19:56:03.577Z</time>
      </trkpt>
      <trkpt lat="28.663413" lon="-14.013532">
        <ele>21.944703</ele>
        <time>2023-01-08T19:56:24.794Z</time>
      </trkpt>
      <trkpt lat="28.663100" lon="-14.013393">
        <ele>22.113864</ele>
        <time>2023-01-08T19:56:38.557Z</time>
      </trkpt>
      <trkpt lat="28.662553" lon="-14.013411">
        <ele>22.481889</ele>
        <time>2023-01-08T19:57:01.760Z</time>
      </trkpt>
      <trkpt lat="28.662053" lon="-14.013599">
        <ele>23.109300</ele>
        <time>2023-01-08T19:57:24.671Z</time>
      </trkpt>
      <trkpt lat="28.660890" lon="-14.014518">
        <ele>24.686692</ele>
        <time>2023-01-08T19:58:25.571Z</time>
      </trkpt>
      <trkpt lat="28.660582" lon="-14.014821">
        <ele>25.011647</ele>
        <time>2023-01-08T19:58:43.043Z</time>
      </trkpt>
      <trkpt lat="28.660248" lon="-14.014914">
        <ele>25.286240</ele>
        <time>2023-01-08T19:58:57.551Z</time>
      </trkpt>
      <trkpt lat="28.659176" lon="-14.015359">
        <ele>25.952915</ele>
        <time>2023-01-08T19:59:42.300Z</time>
      </trkpt>
      <trkpt lat="28.659091" lon="-14.015489">
        <ele>25.972630</ele>
        <time>2023-01-08T19:59:47.642Z</time>
      </trkpt>
      <trkpt lat="28.659016" lon="-14.016002">
        <ele>26.035875</ele>
        <time>2023-01-08T20:00:04.649Z</time>
      </trkpt>
      <trkpt lat="28.658733" lon="-14.016307">
        <ele>26.089856</ele>
        <time>2023-01-08T20:00:19.144Z</time>
      </trkpt>
      <trkpt lat="28.658403" lon="-14.016504">
        <ele>26.141485</ele>
        <time>2023-01-08T20:00:33.080Z</time>
      </trkpt>
      <trkpt lat="28.658341" lon="-14.016653">
        <ele>26.147827</ele>
        <time>2023-01-08T20:00:38.395Z</time>
      </trkpt>
      <trkpt lat="28.658011" lon="-14.016699">
        <ele>26.134808</ele>
        <time>2023-01-08T20:00:50.802Z</time>
      </trkpt>
      <trkpt lat="28.657911" lon="-14.016935">
        <ele>26.125802</ele>
        <time>2023-01-08T20:00:59.556Z</time>
      </trkpt>
      <trkpt lat="28.657906" lon="-14.017100">
        <ele>26.120129</ele>
        <time>2023-01-08T20:01:04.887Z</time>
      </trkpt>
      <trkpt lat="28.657784" lon="-14.017100">
        <ele>26.115351</ele>
        <time>2023-01-08T20:01:09.638Z</time>
      </trkpt>
      <trkpt lat="28.657341" lon="-14.017268">
        <ele>26.097068</ele>
        <time>2023-01-08T20:01:27.035Z</time>
      </trkpt>
      <trkpt lat="28.657110" lon="-14.017449">
        <ele>26.086090</ele>
        <time>2023-01-08T20:01:37.363Z</time>
      </trkpt>
      <trkpt lat="28.656880" lon="-14.017862">
        <ele>25.859444</ele>
        <time>2023-01-08T20:01:52.801Z</time>
      </trkpt>
      <trkpt lat="28.656442" lon="-14.018003">
        <ele>25.505638</ele>
        <time>2023-01-08T20:02:08.734Z</time>
      </trkpt>
      <trkpt lat="28.656301" lon="-14.018124">
        <ele>25.368429</ele>
        <time>2023-01-08T20:02:14.766Z</time>
      </trkpt>
      <trkpt lat="28.656199" lon="-14.018295">
        <ele>25.227385</ele>
        <time>2023-01-08T20:02:20.960Z</time>
      </trkpt>
      <trkpt lat="28.656029" lon="-14.018311">
        <ele>25.094785</ele>
        <time>2023-01-08T20:02:26.738Z</time>
      </trkpt>
      <trkpt lat="28.655806" lon="-14.018438">
        <ele>24.900992</ele>
        <time>2023-01-08T20:02:35.183Z</time>
      </trkpt>
      <trkpt lat="28.655604" lon="-14.018756">
        <ele>24.722243</ele>
        <time>2023-01-08T20:02:47.121Z</time>
      </trkpt>
      <trkpt lat="28.655392" lon="-14.018872">
        <ele>24.871472</ele>
        <time>2023-01-08T20:02:55.464Z</time>
      </trkpt>
      <trkpt lat="28.655297" lon="-14.018883">
        <ele>24.932065</ele>
        <time>2023-01-08T20:02:58.925Z</time>
      </trkpt>
      <trkpt lat="28.655082" lon="-14.018736">
        <ele>25.091165</ele>
        <time>2023-01-08T20:03:08.152Z</time>
      </trkpt>
      <trkpt lat="28.654697" lon="-14.018629">
        <ele>25.342629</ele>
        <time>2023-01-08T20:03:23.728Z</time>
      </trkpt>
      <trkpt lat="28.654094" lon="-14.018257">
        <ele>25.777736</ele>
        <time>2023-01-08T20:03:54.069Z</time>
      </trkpt>
      <trkpt lat="28.653787" lon="-14.018191">
        <ele>26.416236</ele>
        <time>2023-01-08T20:04:09.417Z</time>
      </trkpt>
      <trkpt lat="28.653674" lon="-14.018095">
        <ele>26.764009</ele>
        <time>2023-01-08T20:04:16.596Z</time>
      </trkpt>
      <trkpt lat="28.653005" lon="-14.018127">
        <ele>28.416160</ele>
        <time>2023-01-08T20:04:50.636Z</time>
      </trkpt>
      <trkpt lat="28.652645" lon="-14.018195">
        <ele>29.316548</ele>
        <time>2023-01-08T20:05:09.141Z</time>
      </trkpt>
      <trkpt lat="28.652640" lon="-14.018196">
        <ele>29.329073</ele>
        <time>2023-01-08T20:05:09.736Z</time>
      </trkpt>
      <trkpt lat="28.651201" lon="-14.018860">
        <ele>32.544359</ele>
        <time>2023-01-08T20:06:24.210Z</time>
      </trkpt>
      <trkpt lat="28.651102" lon="-14.018703">
        <ele>32.874088</ele>
        <time>2023-01-08T20:06:31.909Z</time>
      </trkpt>
      <trkpt lat="28.650852" lon="-14.018529">
        <ele>33.443426</ele>
        <time>2023-01-08T20:06:44.942Z</time>
      </trkpt>
      <trkpt lat="28.650175" lon="-14.018413">
        <ele>34.330239</ele>
        <time>2023-01-08T20:07:14.905Z</time>
      </trkpt>
      <trkpt lat="28.649797" lon="-14.018586">
        <ele>34.776413</ele>
        <time>2023-01-08T20:07:32.373Z</time>
      </trkpt>
      <trkpt lat="28.649661" lon="-14.018704">
        <ele>34.963641</ele>
        <time>2023-01-08T20:07:39.591Z</time>
      </trkpt>
      <trkpt lat="28.649550" lon="-14.018862">
        <ele>35.158183</ele>
        <time>2023-01-08T20:07:47.007Z</time>
      </trkpt>
      <trkpt lat="28.649357" lon="-14.019307">
        <ele>35.635309</ele>
        <time>2023-01-08T20:08:04.907Z</time>
      </trkpt>
      <trkpt lat="28.648903" lon="-14.019952">
        <ele>36.252978</ele>
        <time>2023-01-08T20:08:34.605Z</time>
      </trkpt>
      <trkpt lat="28.647627" lon="-14.020602">
        <ele>37.278506</ele>
        <time>2023-01-08T20:09:32.683Z</time>
      </trkpt>
      <trkpt lat="28.647356" lon="-14.020919">
        <ele>37.403708</ele>
        <time>2023-01-08T20:09:47.645Z</time>
      </trkpt>
      <trkpt lat="28.647224" lon="-14.020975">
        <ele>37.449116</ele>
        <time>2023-01-08T20:09:53.388Z</time>
      </trkpt>
      <trkpt lat="28.647099" lon="-14.020959">
        <ele>37.489666</ele>
        <time>2023-01-08T20:09:58.062Z</time>
      </trkpt>
      <trkpt lat="28.646970" lon="-14.020782">
        <ele>37.554759</ele>
        <time>2023-01-08T20:10:06.114Z</time>
      </trkpt>
      <trkpt lat="28.646596" lon="-14.020856">
        <ele>37.677132</ele>
        <time>2023-01-08T20:10:20.739Z</time>
      </trkpt>
      <trkpt lat="28.646461" lon="-14.020843">
        <ele>37.720808</ele>
        <time>2023-01-08T20:10:25.659Z</time>
      </trkpt>
      <trkpt lat="28.646299" lon="-14.021315">
        <ele>37.530415</ele>
        <time>2023-01-08T20:10:41.920Z</time>
      </trkpt>
      <trkpt lat="28.646268" lon="-14.021598">
        <ele>37.288320</ele>
        <time>2023-01-08T20:10:51.074Z</time>
      </trkpt>
      <trkpt lat="28.646313" lon="-14.021779">
        <ele>37.128627</ele>
        <time>2023-01-08T20:10:56.723Z</time>
      </trkpt>
      <trkpt lat="28.646306" lon="-14.021886">
        <ele>37.037545</ele>
        <time>2023-01-08T20:11:00.094Z</time>
      </trkpt>
      <trkpt lat="28.646184" lon="-14.021969">
        <ele>36.900105</ele>
        <time>2023-01-08T20:11:04.862Z</time>
      </trkpt>
      <trkpt lat="28.646172" lon="-14.022280">
        <ele>36.635850</ele>
        <time>2023-01-08T20:11:14.082Z</time>
      </trkpt>
      <trkpt lat="28.646000" lon="-14.022755">
        <ele>36.199659</ele>
        <time>2023-01-08T20:11:29.087Z</time>
      </trkpt>
      <trkpt lat="28.645809" lon="-14.023002">
        <ele>35.945868</ele>
        <time>2023-01-08T20:11:38.915Z</time>
      </trkpt>
      <trkpt lat="28.645593" lon="-14.023450">
        <ele>35.604159</ele>
        <time>2023-01-08T20:11:53.845Z</time>
      </trkpt>
      <trkpt lat="28.645553" lon="-14.023817">
        <ele>35.356935</ele>
        <time>2023-01-08T20:12:04.374Z</time>
      </trkpt>
      <trkpt lat="28.645559" lon="-14.024140">
        <ele>35.140961</ele>
        <time>2023-01-08T20:12:14.669Z</time>
      </trkpt>
      <trkpt lat="28.645562" lon="-14.024321">
        <ele>35.019941</ele>
        <time>2023-01-08T20:12:20.217Z</time>
      </trkpt>
      <trkpt lat="28.645336" lon="-14.024539">
        <ele>34.794387</ele>
        <time>2023-01-08T20:12:31.314Z</time>
      </trkpt>
      <trkpt lat="28.645270" lon="-14.024662">
        <ele>34.698009</ele>
        <time>2023-01-08T20:12:36.571Z</time>
      </trkpt>
      <trkpt lat="28.645124" lon="-14.024756">
        <ele>34.828497</ele>
        <time>2023-01-08T20:12:43.548Z</time>
      </trkpt>
      <trkpt lat="28.644727" lon="-14.024608">
        <ele>35.326888</ele>
        <time>2023-01-08T20:13:01.020Z</time>
      </trkpt>
      <trkpt lat="28.644468" lon="-14.024496">
        <ele>35.657422</ele>
        <time>2023-01-08T20:13:13.716Z</time>
      </trkpt>
      <trkpt lat="28.644206" lon="-14.024287">
        <ele>36.039023</ele>
        <time>2023-01-08T20:13:27.646Z</time>
      </trkpt>
      <trkpt lat="28.644042" lon="-14.023986">
        <ele>36.410013</ele>
        <time>2023-01-08T20:13:41.268Z</time>
      </trkpt>
      <trkpt lat="28.643957" lon="-14.023927">
        <ele>36.528767</ele>
        <time>2023-01-08T20:13:45.629Z</time>
      </trkpt>
      <trkpt lat="28.643712" lon="-14.023906">
        <ele>36.818472</ele>
        <time>2023-01-08T20:13:56.552Z</time>
      </trkpt>
      <trkpt lat="28.643462" lon="-14.023697">
        <ele>36.931392</ele>
        <time>2023-01-08T20:14:10.534Z</time>
      </trkpt>
      <trkpt lat="28.643305" lon="-14.023844">
        <ele>37.005394</ele>
        <time>2023-01-08T20:14:19.766Z</time>
      </trkpt>
      <trkpt lat="28.642975" lon="-14.023780">
        <ele>37.127300</ele>
        <time>2023-01-08T20:14:32.996Z</time>
      </trkpt>
      <trkpt lat="28.642837" lon="-14.023841">
        <ele>37.181205</ele>
        <time>2023-01-08T20:14:38.738Z</time>
      </trkpt>
      <trkpt lat="28.642698" lon="-14.024126">
        <ele>37.285413</ele>
        <time>2023-01-08T20:14:49.189Z</time>
      </trkpt>
      <trkpt lat="28.642643" lon="-14.024155">
        <ele>37.307483</ele>
        <time>2023-01-08T20:14:51.451Z</time>
      </trkpt>
      <trkpt lat="28.642502" lon="-14.024093">
        <ele>37.362523</ele>
        <time>2023-01-08T20:14:56.893Z</time>
      </trkpt>
      <trkpt lat="28.642380" lon="-14.024136">
        <ele>37.409029</ele>
        <time>2023-01-08T20:15:01.423Z</time>
      </trkpt>
      <trkpt lat="28.642392" lon="-14.024930">
        <ele>36.964009</ele>
        <time>2023-01-08T20:15:25.812Z</time>
      </trkpt>
      <trkpt lat="28.641965" lon="-14.024783">
        <ele>36.531666</ele>
        <time>2023-01-08T20:15:41.182Z</time>
      </trkpt>
      <trkpt lat="28.641876" lon="-14.024804">
        <ele>36.443574</ele>
        <time>2023-01-08T20:15:44.321Z</time>
      </trkpt>
      <trkpt lat="28.641335" lon="-14.025064">
        <ele>35.874481</ele>
        <time>2023-01-08T20:16:04.282Z</time>
      </trkpt>
      <trkpt lat="28.641160" lon="-14.025330">
        <ele>35.618789</ele>
        <time>2023-01-08T20:16:14.183Z</time>
      </trkpt>
      <trkpt lat="28.641036" lon="-14.025343">
        <ele>35.521972</ele>
        <time>2023-01-08T20:16:18.399Z</time>
      </trkpt>
      <trkpt lat="28.640972" lon="-14.025512">
        <ele>35.396375</ele>
        <time>2023-01-08T20:16:24.021Z</time>
      </trkpt>
      <trkpt lat="28.640847" lon="-14.025558">
        <ele>35.294245</ele>
        <time>2023-01-08T20:16:28.562Z</time>
      </trkpt>
      <trkpt lat="28.640741" lon="-14.025874">
        <ele>35.063405</ele>
        <time>2023-01-08T20:16:38.821Z</time>
      </trkpt>
      <trkpt lat="28.640767" lon="-14.026269">
        <ele>34.793114</ele>
        <time>2023-01-08T20:16:50.831Z</time>
      </trkpt>
      <trkpt lat="28.640746" lon="-14.026427">
        <ele>34.684071</ele>
        <time>2023-01-08T20:16:55.656Z</time>
      </trkpt>
      <trkpt lat="28.640694" lon="-14.026486">
        <ele>34.627014</ele>
        <time>2023-01-08T20:16:58.256Z</time>
      </trkpt>
      <trkpt lat="28.640299" lon="-14.026518">
        <ele>34.325802</ele>
        <time>2023-01-08T20:17:12.581Z</time>
      </trkpt>
      <trkpt lat="28.640108" lon="-14.026274">
        <ele>34.236967</ele>
        <time>2023-01-08T20:17:23.434Z</time>
      </trkpt>
      <trkpt lat="28.639873" lon="-14.026242">
        <ele>34.163696</ele>
        <time>2023-01-08T20:17:32.512Z</time>
      </trkpt>
      <trkpt lat="28.639689" lon="-14.026317">
        <ele>34.103197</ele>
        <time>2023-01-08T20:17:39.779Z</time>
      </trkpt>
      <trkpt lat="28.639548" lon="-14.026698">
        <ele>33.990849</ele>
        <time>2023-01-08T20:17:53.230Z</time>
      </trkpt>
      <trkpt lat="28.639491" lon="-14.026709">
        <ele>33.972951</ele>
        <time>2023-01-08T20:17:55.387Z</time>
      </trkpt>
      <trkpt lat="28.639376" lon="-14.026240">
        <ele>33.840639</ele>
        <time>2023-01-08T20:18:10.938Z</time>
      </trkpt>
      <trkpt lat="28.639298" lon="-14.026121">
        <ele>33.800284</ele>
        <time>2023-01-08T20:18:15.536Z</time>
      </trkpt>
      <trkpt lat="28.639082" lon="-14.025953">
        <ele>33.513516</ele>
        <time>2023-01-08T20:18:24.558Z</time>
      </trkpt>
      <trkpt lat="28.638943" lon="-14.025764">
        <ele>33.191473</ele>
        <time>2023-01-08T20:18:31.638Z</time>
      </trkpt>
      <trkpt lat="28.638764" lon="-14.025705">
        <ele>32.914187</ele>
        <time>2023-01-08T20:18:37.905Z</time>
      </trkpt>
      <trkpt lat="28.638653" lon="-14.025743">
        <ele>32.741716</ele>
        <time>2023-01-08T20:18:41.661Z</time>
      </trkpt>
      <trkpt lat="28.638592" lon="-14.025829">
        <ele>32.597304</ele>
        <time>2023-01-08T20:18:44.816Z</time>
      </trkpt>
      <trkpt lat="28.638314" lon="-14.026357">
        <ele>31.793156</ele>
        <time>2023-01-08T20:19:02.360Z</time>
      </trkpt>
      <trkpt lat="28.638107" lon="-14.026518">
        <ele>31.420200</ele>
        <time>2023-01-08T20:19:10.115Z</time>
      </trkpt>
      <trkpt lat="28.637850" lon="-14.026634">
        <ele>31.147262</ele>
        <time>2023-01-08T20:19:19.335Z</time>
      </trkpt>
      <trkpt lat="28.637526" lon="-14.026620">
        <ele>31.423444</ele>
        <time>2023-01-08T20:19:31.949Z</time>
      </trkpt>
      <trkpt lat="28.637272" lon="-14.026400">
        <ele>31.695219</ele>
        <time>2023-01-08T20:19:45.582Z</time>
      </trkpt>
      <trkpt lat="28.636710" lon="-14.026083">
        <ele>32.229382</ele>
        <time>2023-01-08T20:20:12.043Z</time>
      </trkpt>
      <trkpt lat="28.636768" lon="-14.025797">
        <ele>32.448830</ele>
        <time>2023-01-08T20:20:25.002Z</time>
      </trkpt>
      <trkpt lat="28.636747" lon="-14.025438">
        <ele>32.775070</ele>
        <time>2023-01-08T20:20:40.214Z</time>
      </trkpt>
      <trkpt lat="28.636419" lon="-14.025169">
        <ele>33.341129</ele>
        <time>2023-01-08T20:20:58.693Z</time>
      </trkpt>
      <trkpt lat="28.636316" lon="-14.025073">
        <ele>33.527519</ele>
        <time>2023-01-08T20:21:03.937Z</time>
      </trkpt>
      <trkpt lat="28.636198" lon="-14.025019">
        <ele>33.705632</ele>
        <time>2023-01-08T20:21:10.518Z</time>
      </trkpt>
      <trkpt lat="28.635891" lon="-14.024879">
        <ele>34.168801</ele>
        <time>2023-01-08T20:21:26.520Z</time>
      </trkpt>
      <trkpt lat="28.635870" lon="-14.024861">
        <ele>34.205609</ele>
        <time>2023-01-08T20:21:27.874Z</time>
      </trkpt>
      <trkpt lat="28.635752" lon="-14.024761">
        <ele>34.411594</ele>
        <time>2023-01-08T20:21:35.086Z</time>
      </trkpt>
      <trkpt lat="28.635632" lon="-14.024496">
        <ele>34.778175</ele>
        <time>2023-01-08T20:21:45.788Z</time>
      </trkpt>
      <trkpt lat="28.635429" lon="-14.024352">
        <ele>35.113115</ele>
        <time>2023-01-08T20:21:54.371Z</time>
      </trkpt>
      <trkpt lat="28.635311" lon="-14.024346">
        <ele>35.173865</ele>
        <time>2023-01-08T20:21:58.320Z</time>
      </trkpt>
      <trkpt lat="28.634962" lon="-14.023377">
        <ele>35.426863</ele>
        <time>2023-01-08T20:22:31.726Z</time>
      </trkpt>
      <trkpt lat="28.634941" lon="-14.023085">
        <ele>35.497631</ele>
        <time>2023-01-08T20:22:41.281Z</time>
      </trkpt>
      <trkpt lat="28.634778" lon="-14.022490">
        <ele>35.677590</ele>
        <time>2023-01-08T20:23:03.430Z</time>
      </trkpt>
      <trkpt lat="28.634877" lon="-14.021567">
        <ele>37.242616</ele>
        <time>2023-01-08T20:23:41.798Z</time>
      </trkpt>
      <trkpt lat="28.634828" lon="-14.020966">
        <ele>38.258492</ele>
        <time>2023-01-08T20:24:07.113Z</time>
      </trkpt>
      <trkpt lat="28.634870" lon="-14.020298">
        <ele>39.411531</ele>
        <time>2023-01-08T20:24:35.793Z</time>
      </trkpt>
      <trkpt lat="28.634880" lon="-14.020006">
        <ele>39.946739</ele>
        <time>2023-01-08T20:24:47.900Z</time>
      </trkpt>
      <trkpt lat="28.634788" lon="-14.019512">
        <ele>40.871650</ele>
        <time>2023-01-08T20:25:08.973Z</time>
      </trkpt>
      <trkpt lat="28.634835" lon="-14.019333">
        <ele>41.213846</ele>
        <time>2023-01-08T20:25:16.497Z</time>
      </trkpt>
      <trkpt lat="28.634734" lon="-14.019185">
        <ele>41.557206</ele>
        <time>2023-01-08T20:25:24.282Z</time>
      </trkpt>
      <trkpt lat="28.634694" lon="-14.019016">
        <ele>41.877789</ele>
        <time>2023-01-08T20:25:31.317Z</time>
      </trkpt>
      <trkpt lat="28.634795" lon="-14.018147">
        <ele>43.681109</ele>
        <time>2023-01-08T20:26:07.788Z</time>
      </trkpt>
      <trkpt lat="28.634748" lon="-14.017873">
        <ele>44.351092</ele>
        <time>2023-01-08T20:26:20.142Z</time>
      </trkpt>
      <trkpt lat="28.634781" lon="-14.017246">
        <ele>45.858464</ele>
        <time>2023-01-08T20:26:48.351Z</time>
      </trkpt>
      <trkpt lat="28.634705" lon="-14.016929">
        <ele>46.647069</ele>
        <time>2023-01-08T20:27:03.434Z</time>
      </trkpt>
      <trkpt lat="28.634729" lon="-14.016490">
        <ele>47.702620</ele>
        <time>2023-01-08T20:27:23.806Z</time>
      </trkpt>
      <trkpt lat="28.634616" lon="-14.014973">
        <ele>51.302370</ele>
        <time>2023-01-08T20:28:34.062Z</time>
      </trkpt>
      <trkpt lat="28.634669" lon="-14.014662">
        <ele>52.051255</ele>
        <time>2023-01-08T20:28:47.309Z</time>
      </trkpt>
      <trkpt lat="28.634896" lon="-14.014214">
        <ele>52.944805</ele>
        <time>2023-01-08T20:29:07.749Z</time>
      </trkpt>
      <trkpt lat="28.634836" lon="-14.013774">
        <ele>53.477299</ele>
        <time>2023-01-08T20:29:24.870Z</time>
      </trkpt>
      <trkpt lat="28.635122" lon="-14.013258">
        <ele>54.207107</ele>
        <time>2023-01-08T20:29:47.624Z</time>
      </trkpt>
      <trkpt lat="28.635189" lon="-14.012189">
        <ele>55.530830</ele>
        <time>2023-01-08T20:30:28.206Z</time>
      </trkpt>
      <trkpt lat="28.635335" lon="-14.011824">
        <ele>56.057423</ele>
        <time>2023-01-08T20:30:43.903Z</time>
      </trkpt>
      <trkpt lat="28.635835" lon="-14.010087">
        <ele>58.602936</ele>
        <time>2023-01-08T20:31:56.446Z</time>
      </trkpt>
      <trkpt lat="28.636008" lon="-14.009662">
        <ele>59.344391</ele>
        <time>2023-01-08T20:32:15.622Z</time>
      </trkpt>
      <trkpt lat="28.636031" lon="-14.009031">
        <ele>60.343914</ele>
        <time>2023-01-08T20:32:41.502Z</time>
      </trkpt>
      <trkpt lat="28.635841" lon="-14.008540">
        <ele>61.184323</ele>
        <time>2023-01-08T20:33:03.000Z</time>
      </trkpt>
      <trkpt lat="28.635630" lon="-14.008291">
        <ele>61.707981</ele>
        <time>2023-01-08T20:33:16.607Z</time>
      </trkpt>
      <trkpt lat="28.634937" lon="-14.007708">
        <ele>63.192936</ele>
        <time>2023-01-08T20:33:56.840Z</time>
      </trkpt>
      <trkpt lat="28.634741" lon="-14.007450">
        <ele>63.709196</ele>
        <time>2023-01-08T20:34:10.369Z</time>
      </trkpt>
      <trkpt lat="28.634604" lon="-14.007135">
        <ele>64.194885</ele>
        <time>2023-01-08T20:34:24.142Z</time>
      </trkpt>
      <trkpt lat="28.634451" lon="-14.006973">
        <ele>64.442909</ele>
        <time>2023-01-08T20:34:33.601Z</time>
      </trkpt>
      <trkpt lat="28.633084" lon="-14.006403">
        <ele>66.171468</ele>
        <time>2023-01-08T20:35:36.357Z</time>
      </trkpt>
      <trkpt lat="28.632918" lon="-14.006317">
        <ele>66.256683</ele>
        <time>2023-01-08T20:35:43.735Z</time>
      </trkpt>
      <trkpt lat="28.632600" lon="-14.006021">
        <ele>66.343037</ele>
        <time>2023-01-08T20:35:59.427Z</time>
      </trkpt>
      <trkpt lat="28.632424" lon="-14.005953">
        <ele>66.382118</ele>
        <time>2023-01-08T20:36:06.321Z</time>
      </trkpt>
      <trkpt lat="28.631732" lon="-14.005979">
        <ele>66.527720</ele>
        <time>2023-01-08T20:36:31.769Z</time>
      </trkpt>
      <trkpt lat="28.631586" lon="-14.005926">
        <ele>66.559943</ele>
        <time>2023-01-08T20:36:37.407Z</time>
      </trkpt>
      <trkpt lat="28.631474" lon="-14.005811">
        <ele>66.591649</ele>
        <time>2023-01-08T20:36:42.993Z</time>
      </trkpt>
      <trkpt lat="28.631120" lon="-14.005805">
        <ele>66.824419</ele>
        <time>2023-01-08T20:36:56.613Z</time>
      </trkpt>
      <trkpt lat="28.630773" lon="-14.005485">
        <ele>67.168352</ele>
        <time>2023-01-08T20:37:14.199Z</time>
      </trkpt>
      <trkpt lat="28.630462" lon="-14.005468">
        <ele>67.408225</ele>
        <time>2023-01-08T20:37:26.998Z</time>
      </trkpt>
      <trkpt lat="28.630311" lon="-14.005372">
        <ele>67.541444</ele>
        <time>2023-01-08T20:37:34.090Z</time>
      </trkpt>
      <trkpt lat="28.629839" lon="-14.005215">
        <ele>67.920259</ele>
        <time>2023-01-08T20:37:55.372Z</time>
      </trkpt>
      <trkpt lat="28.629174" lon="-14.004807">
        <ele>68.779946</ele>
        <time>2023-01-08T20:38:28.559Z</time>
      </trkpt>
      <trkpt lat="28.628820" lon="-14.004487">
        <ele>69.317802</ele>
        <time>2023-01-08T20:38:48.375Z</time>
      </trkpt>
      <trkpt lat="28.628547" lon="-14.004103">
        <ele>69.834057</ele>
        <time>2023-01-08T20:39:06.669Z</time>
      </trkpt>
      <trkpt lat="28.628412" lon="-14.003738">
        <ele>70.252201</ele>
        <time>2023-01-08T20:39:20.882Z</time>
      </trkpt>
      <trkpt lat="28.628217" lon="-14.003445">
        <ele>70.650918</ele>
        <time>2023-01-08T20:39:34.292Z</time>
      </trkpt>
      <trkpt lat="28.627144" lon="-14.003192">
        <ele>72.004575</ele>
        <time>2023-01-08T20:40:21.538Z</time>
      </trkpt>
      <trkpt lat="28.626583" lon="-14.002710">
        <ele>73.099881</ele>
        <time>2023-01-08T20:40:53.711Z</time>
      </trkpt>
      <trkpt lat="28.626428" lon="-14.002627">
        <ele>73.404388</ele>
        <time>2023-01-08T20:41:01.682Z</time>
      </trkpt>
      <trkpt lat="28.626356" lon="-14.002526">
        <ele>73.607446</ele>
        <time>2023-01-08T20:41:06.948Z</time>
      </trkpt>
      <trkpt lat="28.626338" lon="-14.002248">
        <ele>74.042479</ele>
        <time>2023-01-08T20:41:18.278Z</time>
      </trkpt>
      <trkpt lat="28.626405" lon="-14.001726">
        <ele>74.865789</ele>
        <time>2023-01-08T20:41:39.723Z</time>
      </trkpt>
      <trkpt lat="28.626288" lon="-14.001376">
        <ele>75.450279</ele>
        <time>2023-01-08T20:41:54.820Z</time>
      </trkpt>
      <trkpt lat="28.625952" lon="-14.000811">
        <ele>76.948335</ele>
        <time>2023-01-08T20:42:22.448Z</time>
      </trkpt>
      <trkpt lat="28.625833" lon="-14.000721">
        <ele>77.316560</ele>
        <time>2023-01-08T20:42:29.182Z</time>
      </trkpt>
      <trkpt lat="28.625279" lon="-14.000515">
        <ele>78.818906</ele>
        <time>2023-01-08T20:42:57.991Z</time>
      </trkpt>
      <trkpt lat="28.624889" lon="-14.000168">
        <ele>80.094609</ele>
        <time>2023-01-08T20:43:24.797Z</time>
      </trkpt>
      <trkpt lat="28.624572" lon="-14.000024">
        <ele>81.458320</ele>
        <time>2023-01-08T20:43:43.569Z</time>
      </trkpt>
      <trkpt lat="28.624505" lon="-14.000065">
        <ele>81.775335</ele>
        <time>2023-01-08T20:43:47.781Z</time>
      </trkpt>
      <trkpt lat="28.624689" lon="-14.000271">
        <ele>82.850661</ele>
        <time>2023-01-08T20:44:01.982Z</time>
      </trkpt>
      <trkpt lat="28.624849" lon="-14.000392">
        <ele>83.651154</ele>
        <time>2023-01-08T20:44:13.295Z</time>
      </trkpt>
      <trkpt lat="28.624907" lon="-14.000568">
        <ele>84.338993</ele>
        <time>2023-01-08T20:44:22.448Z</time>
      </trkpt>
      <trkpt lat="28.624983" lon="-14.001522">
        <ele>87.874181</ele>
        <time>2023-01-08T20:45:13.439Z</time>
      </trkpt>
      <trkpt lat="28.624958" lon="-14.001774">
        <ele>88.981726</ele>
        <time>2023-01-08T20:45:26.818Z</time>
      </trkpt>
      <trkpt lat="28.624852" lon="-14.001971">
        <ele>89.990847</ele>
        <time>2023-01-08T20:45:40.303Z</time>
      </trkpt>
      <trkpt lat="28.624664" lon="-14.002061">
        <ele>91.005436</ele>
        <time>2023-01-08T20:45:53.323Z</time>
      </trkpt>
      <trkpt lat="28.624416" lon="-14.001992">
        <ele>92.275582</ele>
        <time>2023-01-08T20:46:08.345Z</time>
      </trkpt>
      <trkpt lat="28.623269" lon="-14.001304">
        <ele>98.571161</ele>
        <time>2023-01-08T20:47:29.448Z</time>
      </trkpt>
      <trkpt lat="28.621816" lon="-14.001017">
        <ele>105.206952</ele>
        <time>2023-01-08T20:48:58.524Z</time>
      </trkpt>
      <trkpt lat="28.620564" lon="-14.000901">
        <ele>108.887427</ele>
        <time>2023-01-08T20:50:03.437Z</time>
      </trkpt>
      <trkpt lat="28.620004" lon="-14.000946">
        <ele>110.434379</ele>
        <time>2023-01-08T20:50:29.827Z</time>
      </trkpt>
      <trkpt lat="28.618839" lon="-14.001145">
        <ele>112.880889</ele>
        <time>2023-01-08T20:51:25.881Z</time>
      </trkpt>
      <trkpt lat="28.617697" lon="-14.001408">
        <ele>114.832178</ele>
        <time>2023-01-08T20:52:20.900Z</time>
      </trkpt>
      <trkpt lat="28.617030" lon="-14.001500">
        <ele>115.750166</ele>
        <time>2023-01-08T20:52:50.556Z</time>
      </trkpt>
      <trkpt lat="28.615880" lon="-14.001428">
        <ele>116.343051</ele>
        <time>2023-01-08T20:53:36.054Z</time>
      </trkpt>
      <trkpt lat="28.614473" lon="-14.001415">
        <ele>115.989262</ele>
        <time>2023-01-08T20:54:26.594Z</time>
      </trkpt>
      <trkpt lat="28.612960" lon="-14.001698">
        <ele>114.506934</ele>
        <time>2023-01-08T20:55:19.533Z</time>
      </trkpt>
      <trkpt lat="28.611413" lon="-14.001891">
        <ele>111.869500</ele>
        <time>2023-01-08T20:56:10.702Z</time>
      </trkpt>
      <trkpt lat="28.609712" lon="-14.001899">
        <ele>108.942901</ele>
        <time>2023-01-08T20:57:06.452Z</time>
      </trkpt>
      <trkpt lat="28.609179" lon="-14.002019">
        <ele>108.095808</ele>
        <time>2023-01-08T20:57:24.808Z</time>
      </trkpt>
      <trkpt lat="28.608037" lon="-14.002042">
        <ele>106.570861</ele>
        <time>2023-01-08T20:58:03.568Z</time>
      </trkpt>
      <trkpt lat="28.606249" lon="-14.002366">
        <ele>104.274613</ele>
        <time>2023-01-08T20:59:04.592Z</time>
      </trkpt>
      <trkpt lat="28.602835" lon="-14.002824">
        <ele>100.875608</ele>
        <time>2023-01-08T21:01:03.894Z</time>
      </trkpt>
      <trkpt lat="28.599856" lon="-14.003096">
        <ele>97.518860</ele>
        <time>2023-01-08T21:02:45.558Z</time>
      </trkpt>
      <trkpt lat="28.597472" lon="-14.003246">
        <ele>95.721665</ele>
        <time>2023-01-08T21:04:08.308Z</time>
      </trkpt>
      <trkpt lat="28.595982" lon="-14.003184">
        <ele>96.442452</ele>
        <time>2023-01-08T21:05:06.289Z</time>
      </trkpt>
      <trkpt lat="28.595556" lon="-14.003080">
        <ele>96.933114</ele>
        <time>2023-01-08T21:05:25.562Z</time>
      </trkpt>
      <trkpt lat="28.595165" lon="-14.003104">
        <ele>97.374100</ele>
        <time>2023-01-08T21:05:43.427Z</time>
      </trkpt>
      <trkpt lat="28.592517" lon="-14.002938">
        <ele>104.863700</ele>
        <time>2023-01-08T21:08:00.677Z</time>
      </trkpt>
      <trkpt lat="28.591442" lon="-14.002832">
        <ele>108.078176</ele>
        <time>2023-01-08T21:08:57.698Z</time>
      </trkpt>
      <trkpt lat="28.590515" lon="-14.002855">
        <ele>110.165072</ele>
        <time>2023-01-08T21:09:44.866Z</time>
      </trkpt>
      <trkpt lat="28.588307" lon="-14.003298">
        <ele>113.634608</ele>
        <time>2023-01-08T21:11:24.586Z</time>
      </trkpt>
      <trkpt lat="28.587801" lon="-14.003488">
        <ele>114.024843</ele>
        <time>2023-01-08T21:11:45.407Z</time>
      </trkpt>
      <trkpt lat="28.586640" lon="-14.003681">
        <ele>113.791657</ele>
        <time>2023-01-08T21:12:27.997Z</time>
      </trkpt>
      <trkpt lat="28.586447" lon="-14.003647">
        <ele>113.752843</ele>
        <time>2023-01-08T21:12:35.039Z</time>
      </trkpt>
      <trkpt lat="28.586327" lon="-14.003740">
        <ele>113.723995</ele>
        <time>2023-01-08T21:12:40.053Z</time>
      </trkpt>
      <trkpt lat="28.586125" lon="-14.003794">
        <ele>113.640388</ele>
        <time>2023-01-08T21:12:47.528Z</time>
      </trkpt>
      <trkpt lat="28.583620" lon="-14.003824">
        <ele>111.450838</ele>
        <time>2023-01-08T21:14:15.644Z</time>
      </trkpt>
      <trkpt lat="28.583118" lon="-14.003775">
        <ele>110.804991</ele>
        <time>2023-01-08T21:14:32.592Z</time>
      </trkpt>
      <trkpt lat="28.582538" lon="-14.005759">
        <ele>107.494207</ele>
        <time>2023-01-08T21:15:32.270Z</time>
      </trkpt>
      <trkpt lat="28.582152" lon="-14.006800">
        <ele>105.527158</ele>
        <time>2023-01-08T21:16:04.434Z</time>
      </trkpt>
      <trkpt lat="28.581730" lon="-14.008594">
        <ele>102.386280</ele>
        <time>2023-01-08T21:16:57.700Z</time>
      </trkpt>
      <trkpt lat="28.580709" lon="-14.010903">
        <ele>98.602792</ele>
        <time>2023-01-08T21:18:12.749Z</time>
      </trkpt>
      <trkpt lat="28.580126" lon="-14.011958">
        <ele>97.015444</ele>
        <time>2023-01-08T21:18:49.687Z</time>
      </trkpt>
      <trkpt lat="28.579744" lon="-14.013216">
        <ele>95.538812</ele>
        <time>2023-01-08T21:19:29.503Z</time>
      </trkpt>
      <trkpt lat="28.578756" lon="-14.015441">
        <ele>92.602750</ele>
        <time>2023-01-08T21:20:43.351Z</time>
      </trkpt>
      <trkpt lat="28.578586" lon="-14.015938">
        <ele>91.959029</ele>
        <time>2023-01-08T21:20:59.137Z</time>
      </trkpt>
      <trkpt lat="28.578444" lon="-14.016176">
        <ele>91.610962</ele>
        <time>2023-01-08T21:21:07.645Z</time>
      </trkpt>
      <trkpt lat="28.578370" lon="-14.016635">
        <ele>91.046438</ele>
        <time>2023-01-08T21:21:21.379Z</time>
      </trkpt>
      <trkpt lat="28.578246" lon="-14.016893">
        <ele>90.690655</ele>
        <time>2023-01-08T21:21:30.089Z</time>
      </trkpt>
      <trkpt lat="28.578223" lon="-14.017099">
        <ele>90.439454</ele>
        <time>2023-01-08T21:21:36.253Z</time>
      </trkpt>
      <trkpt lat="28.578455" lon="-14.017738">
        <ele>89.685134</ele>
        <time>2023-01-08T21:21:56.694Z</time>
      </trkpt>
      <trkpt lat="28.578535" lon="-14.018652">
        <ele>88.819665</ele>
        <time>2023-01-08T21:22:24.042Z</time>
      </trkpt>
      <trkpt lat="28.578463" lon="-14.018862">
        <ele>88.607250</ele>
        <time>2023-01-08T21:22:30.854Z</time>
      </trkpt>
      <trkpt lat="28.578276" lon="-14.019116">
        <ele>88.294944</ele>
        <time>2023-01-08T21:22:40.883Z</time>
      </trkpt>
      <trkpt lat="28.577425" lon="-14.020171">
        <ele>87.773199</ele>
        <time>2023-01-08T21:23:25.949Z</time>
      </trkpt>
      <trkpt lat="28.577225" lon="-14.020646">
        <ele>87.650673</ele>
        <time>2023-01-08T21:23:43.075Z</time>
      </trkpt>
      <trkpt lat="28.577068" lon="-14.020828">
        <ele>87.591332</ele>
        <time>2023-01-08T21:23:51.570Z</time>
      </trkpt>
      <trkpt lat="28.575049" lon="-14.022420">
        <ele>87.717863</ele>
        <time>2023-01-08T21:25:25.417Z</time>
      </trkpt>
      <trkpt lat="28.574981" lon="-14.022516">
        <ele>87.674030</ele>
        <time>2023-01-08T21:25:29.385Z</time>
      </trkpt>
      <trkpt lat="28.574732" lon="-14.022649">
        <ele>87.562727</ele>
        <time>2023-01-08T21:25:39.276Z</time>
      </trkpt>
      <trkpt lat="28.574380" lon="-14.022954">
        <ele>87.383725</ele>
        <time>2023-01-08T21:25:54.960Z</time>
      </trkpt>
      <trkpt lat="28.573875" lon="-14.023109">
        <ele>87.065327</ele>
        <time>2023-01-08T21:26:12.987Z</time>
      </trkpt>
      <trkpt lat="28.572120" lon="-14.023807">
        <ele>84.689830</ele>
        <time>2023-01-08T21:27:15.571Z</time>
      </trkpt>
      <trkpt lat="28.571439" lon="-14.024282">
        <ele>83.797905</ele>
        <time>2023-01-08T21:27:42.982Z</time>
      </trkpt>
      <trkpt lat="28.570918" lon="-14.024711">
        <ele>83.079827</ele>
        <time>2023-01-08T21:28:05.346Z</time>
      </trkpt>
      <trkpt lat="28.570153" lon="-14.025523">
        <ele>81.396907</ele>
        <time>2023-01-08T21:28:40.676Z</time>
      </trkpt>
      <trkpt lat="28.569856" lon="-14.025596">
        <ele>80.877528</ele>
        <time>2023-01-08T21:28:50.624Z</time>
      </trkpt>
      <trkpt lat="28.569712" lon="-14.025719">
        <ele>80.569815</ele>
        <time>2023-01-08T21:28:56.390Z</time>
      </trkpt>
      <trkpt lat="28.569051" lon="-14.027006">
        <ele>77.892512</ele>
        <time>2023-01-08T21:29:38.479Z</time>
      </trkpt>
      <trkpt lat="28.568935" lon="-14.027380">
        <ele>77.119944</ele>
        <time>2023-01-08T21:29:49.588Z</time>
      </trkpt>
      <trkpt lat="28.568794" lon="-14.027622">
        <ele>76.554280</ele>
        <time>2023-01-08T21:29:57.801Z</time>
      </trkpt>
      <trkpt lat="28.568549" lon="-14.027820">
        <ele>75.887957</ele>
        <time>2023-01-08T21:30:07.537Z</time>
      </trkpt>
      <trkpt lat="28.568434" lon="-14.028018">
        <ele>75.420332</ele>
        <time>2023-01-08T21:30:14.292Z</time>
      </trkpt>
      <trkpt lat="28.568382" lon="-14.028356">
        <ele>74.743016</ele>
        <time>2023-01-08T21:30:24.060Z</time>
      </trkpt>
      <trkpt lat="28.568282" lon="-14.028580">
        <ele>74.247033</ele>
        <time>2023-01-08T21:30:31.305Z</time>
      </trkpt>
      <trkpt lat="28.567885" lon="-14.028853">
        <ele>73.204692</ele>
        <time>2023-01-08T21:30:46.337Z</time>
      </trkpt>
      <trkpt lat="28.567717" lon="-14.029396">
        <ele>72.068330</ele>
        <time>2023-01-08T21:31:02.447Z</time>
      </trkpt>
      <trkpt lat="28.567588" lon="-14.029629">
        <ele>71.461748</ele>
        <time>2023-01-08T21:31:10.028Z</time>
      </trkpt>
      <trkpt lat="28.567562" lon="-14.029891">
        <ele>70.811138</ele>
        <time>2023-01-08T21:31:17.286Z</time>
      </trkpt>
      <trkpt lat="28.567556" lon="-14.029953">
        <ele>70.657224</ele>
        <time>2023-01-08T21:31:18.988Z</time>
      </trkpt>
      <trkpt lat="28.567636" lon="-14.030719">
        <ele>68.753769</ele>
        <time>2023-01-08T21:31:39.973Z</time>
      </trkpt>
      <trkpt lat="28.567106" lon="-14.031978">
        <ele>65.621059</ele>
        <time>2023-01-08T21:32:18.426Z</time>
      </trkpt>
      <trkpt lat="28.566977" lon="-14.032944">
        <ele>63.742617</ele>
        <time>2023-01-08T21:32:46.084Z</time>
      </trkpt>
      <trkpt lat="28.567053" lon="-14.033749">
        <ele>62.319620</ele>
        <time>2023-01-08T21:33:09.630Z</time>
      </trkpt>
      <trkpt lat="28.566993" lon="-14.034314">
        <ele>61.469158</ele>
        <time>2023-01-08T21:33:27.080Z</time>
      </trkpt>
      <trkpt lat="28.567070" lon="-14.035459">
        <ele>59.753110</ele>
        <time>2023-01-08T21:34:00.226Z</time>
      </trkpt>
      <trkpt lat="28.567189" lon="-14.035864">
        <ele>58.772223</ele>
        <time>2023-01-08T21:34:11.851Z</time>
      </trkpt>
      <trkpt lat="28.567233" lon="-14.037532">
        <ele>54.859302</ele>
        <time>2023-01-08T21:34:58.120Z</time>
      </trkpt>
      <trkpt lat="28.567099" lon="-14.038896">
        <ele>50.766597</ele>
        <time>2023-01-08T21:35:35.080Z</time>
      </trkpt>
      <trkpt lat="28.566935" lon="-14.041603">
        <ele>41.622431</ele>
        <time>2023-01-08T21:36:46.268Z</time>
      </trkpt>
      <trkpt lat="28.566840" lon="-14.043163">
        <ele>36.085631</ele>
        <time>2023-01-08T21:37:26.775Z</time>
      </trkpt>
      <trkpt lat="28.566907" lon="-14.044236">
        <ele>32.700892</ele>
        <time>2023-01-08T21:37:55.388Z</time>
      </trkpt>
      <trkpt lat="28.567023" lon="-14.044979">
        <ele>30.552913</ele>
        <time>2023-01-08T21:38:15.903Z</time>
      </trkpt>
      <trkpt lat="28.567620" lon="-14.046385">
        <ele>26.027694</ele>
        <time>2023-01-08T21:38:58.479Z</time>
      </trkpt>
      <trkpt lat="28.567912" lon="-14.046862">
        <ele>24.319746</ele>
        <time>2023-01-08T21:39:13.942Z</time>
      </trkpt>
      <trkpt lat="28.568402" lon="-14.047366">
        <ele>22.248274</ele>
        <time>2023-01-08T21:39:33.772Z</time>
      </trkpt>
      <trkpt lat="28.568180" lon="-14.047573">
        <ele>21.561012</ele>
        <time>2023-01-08T21:39:42.348Z</time>
      </trkpt>
      <trkpt lat="28.568132" lon="-14.047731">
        <ele>21.209331</ele>
        <time>2023-01-08T21:39:46.986Z</time>
      </trkpt>
      <trkpt lat="28.568180" lon="-14.047844">
        <ele>20.945289</ele>
        <time>2023-01-08T21:39:50.407Z</time>
      </trkpt>
      <trkpt lat="28.568467" lon="-14.048131">
        <ele>20.030413</ele>
        <time>2023-01-08T21:40:02.309Z</time>
      </trkpt>
      <trkpt lat="28.568453" lon="-14.048266">
        <ele>19.744464</ele>
        <time>2023-01-08T21:40:06.082Z</time>
      </trkpt>
      <trkpt lat="28.568012" lon="-14.048495">
        <ele>18.583548</ele>
        <time>2023-01-08T21:40:21.675Z</time>
      </trkpt>
      <trkpt lat="28.567433" lon="-14.048500">
        <ele>19.039764</ele>
        <time>2023-01-08T21:40:44.552Z</time>
      </trkpt>
      <trkpt lat="28.567193" lon="-14.048647">
        <ele>19.491382</ele>
        <time>2023-01-08T21:40:56.525Z</time>
      </trkpt>
      <trkpt lat="28.567151" lon="-14.048724">
        <ele>19.623305</ele>
        <time>2023-01-08T21:40:59.935Z</time>
      </trkpt>
      <trkpt lat="28.567186" lon="-14.048851">
        <ele>19.817032</ele>
        <time>2023-01-08T21:41:04.406Z</time>
      </trkpt>
      <trkpt lat="28.567495" lon="-14.049177">
        <ele>20.515129</ele>
        <time>2023-01-08T21:41:24.934Z</time>
      </trkpt>
      <trkpt lat="28.567616" lon="-14.049551">
        <ele>21.095219</ele>
        <time>2023-01-08T21:41:44.338Z</time>
      </trkpt>
      <trkpt lat="28.567619" lon="-14.049657">
        <ele>21.249574</ele>
        <time>2023-01-08T21:41:50.316Z</time>
      </trkpt>
      <trkpt lat="28.567551" lon="-14.049802">
        <ele>21.752656</ele>
        <time>2023-01-08T21:41:57.960Z</time>
      </trkpt>
      <trkpt lat="28.567452" lon="-14.049859">
        <ele>22.154926</ele>
        <time>2023-01-08T21:42:03.851Z</time>
      </trkpt>
      <trkpt lat="28.565980" lon="-14.050092">
        <ele>27.543873</ele>
        <time>2023-01-08T21:43:27.058Z</time>
      </trkpt>
      <trkpt lat="28.565584" lon="-14.050072">
        <ele>28.902783</ele>
        <time>2023-01-08T21:43:47.987Z</time>
      </trkpt>
      <trkpt lat="28.565181" lon="-14.050208">
        <ele>30.326677</ele>
        <time>2023-01-08T21:44:10.427Z</time>
      </trkpt>
      <trkpt lat="28.564871" lon="-14.050212">
        <ele>31.376892</ele>
        <time>2023-01-08T21:44:26.949Z</time>
      </trkpt>
      <trkpt lat="28.564270" lon="-14.050464">
        <ele>33.546490</ele>
        <time>2023-01-08T21:45:01.639Z</time>
      </trkpt>
      <trkpt lat="28.563274" lon="-14.051228">
        <ele>37.513848</ele>
        <time>2023-01-08T21:46:07.515Z</time>
      </trkpt>
      <trkpt lat="28.562840" lon="-14.051621">
        <ele>39.341548</ele>
        <time>2023-01-08T21:46:36.807Z</time>
      </trkpt>
      <trkpt lat="28.562320" lon="-14.051850">
        <ele>40.830311</ele>
        <time>2023-01-08T21:47:04.922Z</time>
      </trkpt>
      <trkpt lat="28.561899" lon="-14.052162">
        <ele>42.064055</ele>
        <time>2023-01-08T21:47:30.085Z</time>
      </trkpt>
      <trkpt lat="28.561629" lon="-14.052277">
        <ele>42.772072</ele>
        <time>2023-01-08T21:47:44.292Z</time>
      </trkpt>
      <trkpt lat="28.561429" lon="-14.052477">
        <ele>43.425848</ele>
        <time>2023-01-08T21:47:57.073Z</time>
      </trkpt>
      <trkpt lat="28.561213" lon="-14.052607">
        <ele>44.025915</ele>
        <time>2023-01-08T21:48:08.528Z</time>
      </trkpt>
      <trkpt lat="28.560741" lon="-14.053072">
        <ele>45.404551</ele>
        <time>2023-01-08T21:48:38.038Z</time>
      </trkpt>
      <trkpt lat="28.560527" lon="-14.053220">
        <ele>45.948209</ele>
        <time>2023-01-08T21:48:50.016Z</time>
      </trkpt>
      <trkpt lat="28.558677" lon="-14.053876">
        <ele>50.242880</ele>
        <time>2023-01-08T21:50:23.494Z</time>
      </trkpt>
      <trkpt lat="28.558482" lon="-14.054037">
        <ele>50.788521</ele>
        <time>2023-01-08T21:50:35.098Z</time>
      </trkpt>
      <trkpt lat="28.557922" lon="-14.054312">
        <ele>52.170014</ele>
        <time>2023-01-08T21:51:04.807Z</time>
      </trkpt>
      <trkpt lat="28.557720" lon="-14.054338">
        <ele>52.652289</ele>
        <time>2023-01-08T21:51:14.711Z</time>
      </trkpt>
      <trkpt lat="28.556769" lon="-14.054830">
        <ele>55.140320</ele>
        <time>2023-01-08T21:52:06.192Z</time>
      </trkpt>
      <trkpt lat="28.556408" lon="-14.054960">
        <ele>56.042155</ele>
        <time>2023-01-08T21:52:24.855Z</time>
      </trkpt>
      <trkpt lat="28.555064" lon="-14.055154">
        <ele>58.949875</ele>
        <time>2023-01-08T21:53:29.961Z</time>
      </trkpt>
      <trkpt lat="28.554544" lon="-14.055090">
        <ele>60.052525</ele>
        <time>2023-01-08T21:53:54.213Z</time>
      </trkpt>
      <trkpt lat="28.553311" lon="-14.055318">
        <ele>62.564530</ele>
        <time>2023-01-08T21:54:51.988Z</time>
      </trkpt>
      <trkpt lat="28.552936" lon="-14.055324">
        <ele>63.315210</ele>
        <time>2023-01-08T21:55:09.919Z</time>
      </trkpt>
      <trkpt lat="28.552760" lon="-14.055388">
        <ele>63.685029</ele>
        <time>2023-01-08T21:55:18.833Z</time>
      </trkpt>
      <trkpt lat="28.552061" lon="-14.055438">
        <ele>65.051287</ele>
        <time>2023-01-08T21:55:53.201Z</time>
      </trkpt>
      <trkpt lat="28.551145" lon="-14.055587">
        <ele>66.848550</ele>
        <time>2023-01-08T21:56:36.925Z</time>
      </trkpt>
      <trkpt lat="28.550496" lon="-14.055498">
        <ele>67.587973</ele>
        <time>2023-01-08T21:57:05.978Z</time>
      </trkpt>
      <trkpt lat="28.548694" lon="-14.055086">
        <ele>67.567392</ele>
        <time>2023-01-08T21:58:16.537Z</time>
      </trkpt>
      <trkpt lat="28.547967" lon="-14.054747">
        <ele>66.067391</ele>
        <time>2023-01-08T21:58:42.780Z</time>
      </trkpt>
      <trkpt lat="28.547849" lon="-14.054751">
        <ele>65.841992</ele>
        <time>2023-01-08T21:58:46.312Z</time>
      </trkpt>
      <trkpt lat="28.547517" lon="-14.055221">
        <ele>64.674544</ele>
        <time>2023-01-08T21:59:02.330Z</time>
      </trkpt>
      <trkpt lat="28.547422" lon="-14.055462">
        <ele>63.582074</ele>
        <time>2023-01-08T21:59:09.122Z</time>
      </trkpt>
      <trkpt lat="28.547406" lon="-14.055867">
        <ele>61.905405</ele>
        <time>2023-01-08T21:59:19.414Z</time>
      </trkpt>
      <trkpt lat="28.547166" lon="-14.056357">
        <ele>59.585154</ele>
        <time>2023-01-08T21:59:33.456Z</time>
      </trkpt>
      <trkpt lat="28.546802" lon="-14.056598">
        <ele>57.602620</ele>
        <time>2023-01-08T21:59:45.710Z</time>
      </trkpt>
      <trkpt lat="28.546684" lon="-14.056801">
        <ele>56.595887</ele>
        <time>2023-01-08T21:59:51.915Z</time>
      </trkpt>
      <trkpt lat="28.546234" lon="-14.057247">
        <ele>54.107819</ele>
        <time>2023-01-08T22:00:09.151Z</time>
      </trkpt>
      <trkpt lat="28.546251" lon="-14.057852">
        <ele>51.904086</ele>
        <time>2023-01-08T22:00:24.977Z</time>
      </trkpt>
      <trkpt lat="28.546042" lon="-14.059061">
        <ele>47.408806</ele>
        <time>2023-01-08T22:00:57.830Z</time>
      </trkpt>
      <trkpt lat="28.545769" lon="-14.059769">
        <ele>44.577434</ele>
        <time>2023-01-08T22:01:17.959Z</time>
      </trkpt>
      <trkpt lat="28.545834" lon="-14.060301">
        <ele>42.610570</ele>
        <time>2023-01-08T22:01:31.763Z</time>
      </trkpt>
      <trkpt lat="28.545804" lon="-14.060488">
        <ele>41.914476</ele>
        <time>2023-01-08T22:01:36.747Z</time>
      </trkpt>
      <trkpt lat="28.545684" lon="-14.060775">
        <ele>40.426155</ele>
        <time>2023-01-08T22:01:44.995Z</time>
      </trkpt>
      <trkpt lat="28.545566" lon="-14.061170">
        <ele>38.251075</ele>
        <time>2023-01-08T22:01:55.594Z</time>
      </trkpt>
      <trkpt lat="28.545535" lon="-14.061438">
        <ele>36.841844</ele>
        <time>2023-01-08T22:02:01.908Z</time>
      </trkpt>
      <trkpt lat="28.545457" lon="-14.061607">
        <ele>35.846585</ele>
        <time>2023-01-08T22:02:06.771Z</time>
      </trkpt>
      <trkpt lat="28.545158" lon="-14.061972">
        <ele>33.244714</ele>
        <time>2023-01-08T22:02:18.808Z</time>
      </trkpt>
      <trkpt lat="28.544990" lon="-14.062076">
        <ele>32.109787</ele>
        <time>2023-01-08T22:02:24.064Z</time>
      </trkpt>
      <trkpt lat="28.544524" lon="-14.062200">
        <ele>29.302915</ele>
        <time>2023-01-08T22:02:37.583Z</time>
      </trkpt>
      <trkpt lat="28.544365" lon="-14.062127">
        <ele>28.306971</ele>
        <time>2023-01-08T22:02:42.085Z</time>
      </trkpt>
      <trkpt lat="28.543711" lon="-14.062020">
        <ele>24.468760</ele>
        <time>2023-01-08T22:03:00.385Z</time>
      </trkpt>
      <trkpt lat="28.543577" lon="-14.061945">
        <ele>23.601335</ele>
        <time>2023-01-08T22:03:04.539Z</time>
      </trkpt>
      <trkpt lat="28.543464" lon="-14.062027">
        <ele>22.822872</ele>
        <time>2023-01-08T22:03:08.343Z</time>
      </trkpt>
      <trkpt lat="28.543434" lon="-14.062132">
        <ele>22.259422</ele>
        <time>2023-01-08T22:03:10.931Z</time>
      </trkpt>
      <trkpt lat="28.543461" lon="-14.062323">
        <ele>21.272198</ele>
        <time>2023-01-08T22:03:15.741Z</time>
      </trkpt>
      <trkpt lat="28.543489" lon="-14.062520">
        <ele>20.442105</ele>
        <time>2023-01-08T22:03:20.647Z</time>
      </trkpt>
      <trkpt lat="28.543476" lon="-14.062735">
        <ele>20.829016</ele>
        <time>2023-01-08T22:03:26.288Z</time>
      </trkpt>
      <trkpt lat="28.543354" lon="-14.062806">
        <ele>21.109048</ele>
        <time>2023-01-08T22:03:31.049Z</time>
      </trkpt>
      <trkpt lat="28.543229" lon="-14.062723">
        <ele>21.404799</ele>
        <time>2023-01-08T22:03:37.180Z</time>
      </trkpt>
      <trkpt lat="28.543016" lon="-14.062295">
        <ele>22.287949</ele>
        <time>2023-01-08T22:03:55.585Z</time>
      </trkpt>
      <trkpt lat="28.542965" lon="-14.062310">
        <ele>22.395603</ele>
        <time>2023-01-08T22:03:58.490Z</time>
      </trkpt>
      <trkpt lat="28.543022" lon="-14.062711">
        <ele>23.124902</ele>
        <time>2023-01-08T22:04:19.009Z</time>
      </trkpt>
      <trkpt lat="28.543051" lon="-14.062916">
        <ele>23.497689</ele>
        <time>2023-01-08T22:04:31.758Z</time>
      </trkpt>
      <trkpt lat="28.542800" lon="-14.062762">
        <ele>24.115723</ele>
        <time>2023-01-08T22:04:46.384Z</time>
      </trkpt>
      <trkpt lat="28.542711" lon="-14.062741">
        <ele>24.878580</ele>
        <time>2023-01-08T22:04:54.105Z</time>
      </trkpt>
      <trkpt lat="28.542579" lon="-14.062878">
        <ele>26.377809</ele>
        <time>2023-01-08T22:05:03.831Z</time>
      </trkpt>
      <trkpt lat="28.542530" lon="-14.062969">
        <ele>27.164761</ele>
        <time>2023-01-08T22:05:09.480Z</time>
      </trkpt>
      <trkpt lat="28.542527" lon="-14.063156">
        <ele>28.543734</ele>
        <time>2023-01-08T22:05:21.282Z</time>
      </trkpt>
      <trkpt lat="28.542500" lon="-14.063159">
        <ele>28.771422</ele>
        <time>2023-01-08T22:05:22.813Z</time>
      </trkpt>
      <trkpt lat="28.542298" lon="-14.063075">
        <ele>30.576393</ele>
        <time>2023-01-08T22:05:37.427Z</time>
      </trkpt>
      <trkpt lat="28.542116" lon="-14.062877">
        <ele>32.689333</ele>
        <time>2023-01-08T22:05:52.770Z</time>
      </trkpt>
      <trkpt lat="28.542002" lon="-14.062347">
        <ele>36.712451</ele>
        <time>2023-01-08T22:06:29.646Z</time>
      </trkpt>
      <trkpt lat="28.541968" lon="-14.061805">
        <ele>40.117502</ele>
        <time>2023-01-08T22:07:00.532Z</time>
      </trkpt>
      <trkpt lat="28.541989" lon="-14.061158">
        <ele>43.043638</ele>
        <time>2023-01-08T22:07:30.513Z</time>
      </trkpt>
      <trkpt lat="28.542067" lon="-14.060816">
        <ele>44.640562</ele>
        <time>2023-01-08T22:07:44.295Z</time>
      </trkpt>
      <trkpt lat="28.542200" lon="-14.060529">
        <ele>46.107085</ele>
        <time>2023-01-08T22:07:54.912Z</time>
      </trkpt>
      <trkpt lat="28.542355" lon="-14.060333">
        <ele>47.298977</ele>
        <time>2023-01-08T22:08:02.836Z</time>
      </trkpt>
      <trkpt lat="28.542540" lon="-14.060181">
        <ele>48.455445</ele>
        <time>2023-01-08T22:08:11.387Z</time>
      </trkpt>
      <trkpt lat="28.542773" lon="-14.060076">
        <ele>49.330681</ele>
        <time>2023-01-08T22:08:21.173Z</time>
      </trkpt>
      <trkpt lat="28.543271" lon="-14.060051">
        <ele>51.071714</ele>
        <time>2023-01-08T22:08:42.456Z</time>
      </trkpt>
      <trkpt lat="28.543393" lon="-14.059916">
        <ele>51.665958</ele>
        <time>2023-01-08T22:08:48.558Z</time>
      </trkpt>
      <trkpt lat="28.543303" lon="-14.059510">
        <ele>52.950674</ele>
        <time>2023-01-08T22:09:02.745Z</time>
      </trkpt>
      <trkpt lat="28.542899" lon="-14.058656">
        <ele>56.068805</ele>
        <time>2023-01-08T22:09:37.398Z</time>
      </trkpt>
      <trkpt lat="28.542399" lon="-14.057752">
        <ele>59.726476</ele>
        <time>2023-01-08T22:10:18.640Z</time>
      </trkpt>
      <trkpt lat="28.538928" lon="-14.051397">
        <ele>81.999733</ele>
        <time>2023-01-08T22:14:37.959Z</time>
      </trkpt>
      <trkpt lat="28.538236" lon="-14.050646">
        <ele>84.454615</ele>
        <time>2023-01-08T22:15:09.414Z</time>
      </trkpt>
      <trkpt lat="28.534312" lon="-14.047300">
        <ele>92.006446</ele>
        <time>2023-01-08T22:17:38.789Z</time>
      </trkpt>
      <trkpt lat="28.533859" lon="-14.046766">
        <ele>92.670881</ele>
        <time>2023-01-08T22:17:54.864Z</time>
      </trkpt>
      <trkpt lat="28.533477" lon="-14.046030">
        <ele>91.626096</ele>
        <time>2023-01-08T22:18:09.915Z</time>
      </trkpt>
      <trkpt lat="28.533420" lon="-14.045894">
        <ele>91.435518</ele>
        <time>2023-01-08T22:18:12.336Z</time>
      </trkpt>
      <trkpt lat="28.533144" lon="-14.045223">
        <ele>90.498454</ele>
        <time>2023-01-08T22:18:24.146Z</time>
      </trkpt>
      <trkpt lat="28.532793" lon="-14.044373">
        <ele>89.871712</ele>
        <time>2023-01-08T22:18:38.995Z</time>
      </trkpt>
      <trkpt lat="28.532546" lon="-14.043975">
        <ele>89.695381</ele>
        <time>2023-01-08T22:18:47.702Z</time>
      </trkpt>
      <trkpt lat="28.532204" lon="-14.043775">
        <ele>89.537012</ele>
        <time>2023-01-08T22:18:57.320Z</time>
      </trkpt>
      <trkpt lat="28.531403" lon="-14.043722">
        <ele>90.258391</ele>
        <time>2023-01-08T22:19:19.695Z</time>
      </trkpt>
      <trkpt lat="28.530922" lon="-14.043650">
        <ele>91.467034</ele>
        <time>2023-01-08T22:19:37.084Z</time>
      </trkpt>
      <trkpt lat="28.530148" lon="-14.043351">
        <ele>93.503348</ele>
        <time>2023-01-08T22:20:06.623Z</time>
      </trkpt>
      <trkpt lat="28.530010" lon="-14.043279">
        <ele>93.906359</ele>
        <time>2023-01-08T22:20:12.098Z</time>
      </trkpt>
      <trkpt lat="28.529925" lon="-14.043186">
        <ele>94.362813</ele>
        <time>2023-01-08T22:20:17.548Z</time>
      </trkpt>
      <trkpt lat="28.529910" lon="-14.043091">
        <ele>94.691116</ele>
        <time>2023-01-08T22:20:21.093Z</time>
      </trkpt>
      <trkpt lat="28.529949" lon="-14.043000">
        <ele>95.035499</ele>
        <time>2023-01-08T22:20:25.132Z</time>
      </trkpt>
      <trkpt lat="28.530081" lon="-14.042951">
        <ele>95.573021</ele>
        <time>2023-01-08T22:20:30.924Z</time>
      </trkpt>
      <trkpt lat="28.530647" lon="-14.042861">
        <ele>97.785540</ele>
        <time>2023-01-08T22:20:53.817Z</time>
      </trkpt>
      <trkpt lat="28.531128" lon="-14.042652">
        <ele>99.778778</ele>
        <time>2023-01-08T22:21:15.208Z</time>
      </trkpt>
      <trkpt lat="28.531257" lon="-14.042476">
        <ele>100.558375</ele>
        <time>2023-01-08T22:21:24.871Z</time>
      </trkpt>
      <trkpt lat="28.531237" lon="-14.042213">
        <ele>101.435871</ele>
        <time>2023-01-08T22:21:35.422Z</time>
      </trkpt>
      <trkpt lat="28.531164" lon="-14.042052">
        <ele>102.032959</ele>
        <time>2023-01-08T22:21:42.643Z</time>
      </trkpt>
      <trkpt lat="28.530793" lon="-14.041544">
        <ele>104.210026</ele>
        <time>2023-01-08T22:22:07.423Z</time>
      </trkpt>
      <trkpt lat="28.530501" lon="-14.041117">
        <ele>105.993299</ele>
        <time>2023-01-08T22:22:27.886Z</time>
      </trkpt>
      <trkpt lat="28.530480" lon="-14.041003">
        <ele>106.377171</ele>
        <time>2023-01-08T22:22:31.978Z</time>
      </trkpt>
      <trkpt lat="28.530621" lon="-14.040614">
        <ele>107.654996</ele>
        <time>2023-01-08T22:22:44.764Z</time>
      </trkpt>
      <trkpt lat="28.531136" lon="-14.039588">
        <ele>109.592201</ele>
        <time>2023-01-08T22:23:18.004Z</time>
      </trkpt>
      <trkpt lat="28.531678" lon="-14.038509">
        <ele>111.335502</ele>
        <time>2023-01-08T22:23:49.671Z</time>
      </trkpt>
      <trkpt lat="28.531940" lon="-14.037856">
        <ele>112.035531</ele>
        <time>2023-01-08T22:24:08.252Z</time>
      </trkpt>
      <trkpt lat="28.532003" lon="-14.037143">
        <ele>112.734314</ele>
        <time>2023-01-08T22:24:25.336Z</time>
      </trkpt>
      <trkpt lat="28.531805" lon="-14.036255">
        <ele>113.090496</ele>
        <time>2023-01-08T22:24:44.456Z</time>
      </trkpt>
      <trkpt lat="28.530960" lon="-14.033499">
        <ele>114.023631</ele>
        <time>2023-01-08T22:25:44.073Z</time>
      </trkpt>
      <trkpt lat="28.530882" lon="-14.033105">
        <ele>114.173588</ele>
        <time>2023-01-08T22:25:53.273Z</time>
      </trkpt>
      <trkpt lat="28.530595" lon="-14.029703">
        <ele>118.186110</ele>
        <time>2023-01-08T22:27:20.334Z</time>
      </trkpt>
      <trkpt lat="28.530575" lon="-14.028968">
        <ele>119.175628</ele>
        <time>2023-01-08T22:27:40.087Z</time>
      </trkpt>
      <trkpt lat="28.530602" lon="-14.028536">
        <ele>120.095566</ele>
        <time>2023-01-08T22:27:52.095Z</time>
      </trkpt>
      <trkpt lat="28.530721" lon="-14.028067">
        <ele>121.132491</ele>
        <time>2023-01-08T22:28:05.925Z</time>
      </trkpt>
      <trkpt lat="28.533284" lon="-14.021136">
        <ele>137.047804</ele>
        <time>2023-01-08T22:31:56.097Z</time>
      </trkpt>
      <trkpt lat="28.533358" lon="-14.020803">
        <ele>137.588002</ele>
        <time>2023-01-08T22:32:05.581Z</time>
      </trkpt>
      <trkpt lat="28.533364" lon="-14.019998">
        <ele>138.854059</ele>
        <time>2023-01-08T22:32:27.374Z</time>
      </trkpt>
      <trkpt lat="28.533303" lon="-14.019694">
        <ele>139.344467</ele>
        <time>2023-01-08T22:32:35.332Z</time>
      </trkpt>
      <trkpt lat="28.533068" lon="-14.019099">
        <ele>140.374727</ele>
        <time>2023-01-08T22:32:51.816Z</time>
      </trkpt>
      <trkpt lat="28.532716" lon="-14.018565">
        <ele>141.432837</ele>
        <time>2023-01-08T22:33:09.427Z</time>
      </trkpt>
      <trkpt lat="28.532206" lon="-14.018019">
        <ele>142.695940</ele>
        <time>2023-01-08T22:33:31.648Z</time>
      </trkpt>
      <trkpt lat="28.527975" lon="-14.013760">
        <ele>156.876399</ele>
        <time>2023-01-08T22:36:46.972Z</time>
      </trkpt>
      <trkpt lat="28.527185" lon="-14.012957">
        <ele>161.201543</ele>
        <time>2023-01-08T22:37:33.888Z</time>
      </trkpt>
      <trkpt lat="28.526963" lon="-14.012652">
        <ele>162.622541</ele>
        <time>2023-01-08T22:37:49.529Z</time>
      </trkpt>
      <trkpt lat="28.526623" lon="-14.011911">
        <ele>165.243582</ele>
        <time>2023-01-08T22:38:22.007Z</time>
      </trkpt>
      <trkpt lat="28.525308" lon="-14.008395">
        <ele>174.515245</ele>
        <time>2023-01-08T22:40:21.363Z</time>
      </trkpt>
      <trkpt lat="28.523782" lon="-14.008787">
        <ele>177.309448</ele>
        <time>2023-01-08T22:41:32.293Z</time>
      </trkpt>
      <trkpt lat="28.521894" lon="-14.009472">
        <ele>179.980670</ele>
        <time>2023-01-08T22:42:59.171Z</time>
      </trkpt>
      <trkpt lat="28.520088" lon="-14.010058">
        <ele>181.821899</ele>
        <time>2023-01-08T22:44:17.524Z</time>
      </trkpt>
      <trkpt lat="28.517557" lon="-14.010959">
        <ele>184.034518</ele>
        <time>2023-01-08T22:46:08.785Z</time>
      </trkpt>
      <trkpt lat="28.516374" lon="-14.011567">
        <ele>184.933610</ele>
        <time>2023-01-08T22:46:57.754Z</time>
      </trkpt>
      <trkpt lat="28.515779" lon="-14.011681">
        <ele>185.408919</ele>
        <time>2023-01-08T22:47:20.835Z</time>
      </trkpt>
      <trkpt lat="28.515455" lon="-14.011980">
        <ele>185.737518</ele>
        <time>2023-01-08T22:47:38.278Z</time>
      </trkpt>
      <trkpt lat="28.515240" lon="-14.012368">
        <ele>186.406941</ele>
        <time>2023-01-08T22:47:57.061Z</time>
      </trkpt>
      <trkpt lat="28.514517" lon="-14.012845">
        <ele>188.936424</ele>
        <time>2023-01-08T22:48:42.195Z</time>
      </trkpt>
      <trkpt lat="28.513803" lon="-14.013722">
        <ele>191.551862</ele>
        <time>2023-01-08T22:49:39.774Z</time>
      </trkpt>
      <trkpt lat="28.513469" lon="-14.014058">
        <ele>191.873440</ele>
        <time>2023-01-08T22:50:01.159Z</time>
      </trkpt>
      <trkpt lat="28.513203" lon="-14.014202">
        <ele>192.085929</ele>
        <time>2023-01-08T22:50:13.861Z</time>
      </trkpt>
      <trkpt lat="28.513042" lon="-14.014582">
        <ele>192.353339</ele>
        <time>2023-01-08T22:50:27.695Z</time>
      </trkpt>
      <trkpt lat="28.512817" lon="-14.014784">
        <ele>192.560073</ele>
        <time>2023-01-08T22:50:37.435Z</time>
      </trkpt>
      <trkpt lat="28.512437" lon="-14.015003">
        <ele>191.759060</ele>
        <time>2023-01-08T22:50:51.059Z</time>
      </trkpt>
      <trkpt lat="28.512354" lon="-14.015163">
        <ele>191.205971</ele>
        <time>2023-01-08T22:50:55.938Z</time>
      </trkpt>
      <trkpt lat="28.512262" lon="-14.015677">
        <ele>189.644482</ele>
        <time>2023-01-08T22:51:09.744Z</time>
      </trkpt>
      <trkpt lat="28.511958" lon="-14.016067">
        <ele>188.092581</ele>
        <time>2023-01-08T22:51:23.440Z</time>
      </trkpt>
      <trkpt lat="28.510076" lon="-14.017024">
        <ele>180.965062</ele>
        <time>2023-01-08T22:52:25.491Z</time>
      </trkpt>
      <trkpt lat="28.509746" lon="-14.017207">
        <ele>179.969963</ele>
        <time>2023-01-08T22:52:37.103Z</time>
      </trkpt>
      <trkpt lat="28.509637" lon="-14.017335">
        <ele>179.665920</ele>
        <time>2023-01-08T22:52:42.095Z</time>
      </trkpt>
      <trkpt lat="28.509099" lon="-14.017008">
        <ele>178.481940</ele>
        <time>2023-01-08T22:53:02.050Z</time>
      </trkpt>
      <trkpt lat="28.509094" lon="-14.017006">
        <ele>178.471652</ele>
        <time>2023-01-08T22:53:02.226Z</time>
      </trkpt>
      <trkpt lat="28.508455" lon="-14.016694">
        <ele>177.121886</ele>
        <time>2023-01-08T22:53:25.351Z</time>
      </trkpt>
      <trkpt lat="28.508103" lon="-14.016436">
        <ele>176.406590</ele>
        <time>2023-01-08T22:53:39.586Z</time>
      </trkpt>
      <trkpt lat="28.507454" lon="-14.015868">
        <ele>175.112372</ele>
        <time>2023-01-08T22:54:07.432Z</time>
      </trkpt>
      <trkpt lat="28.506613" lon="-14.015407">
        <ele>173.334011</ele>
        <time>2023-01-08T22:54:37.966Z</time>
      </trkpt>
      <trkpt lat="28.506449" lon="-14.015173">
        <ele>172.562722</ele>
        <time>2023-01-08T22:54:46.302Z</time>
      </trkpt>
      <trkpt lat="28.506145" lon="-14.014879">
        <ele>171.392818</ele>
        <time>2023-01-08T22:54:58.761Z</time>
      </trkpt>
      <trkpt lat="28.505991" lon="-14.014793">
        <ele>170.889777</ele>
        <time>2023-01-08T22:55:04.098Z</time>
      </trkpt>
      <trkpt lat="28.504304" lon="-14.014736">
        <ele>165.411980</ele>
        <time>2023-01-08T22:55:55.168Z</time>
      </trkpt>
      <trkpt lat="28.503269" lon="-14.014810">
        <ele>162.040615</ele>
        <time>2023-01-08T22:56:26.561Z</time>
      </trkpt>
      <trkpt lat="28.502721" lon="-14.014663">
        <ele>160.832348</ele>
        <time>2023-01-08T22:56:44.582Z</time>
      </trkpt>
      <trkpt lat="28.502514" lon="-14.014518">
        <ele>160.310694</ele>
        <time>2023-01-08T22:56:52.348Z</time>
      </trkpt>
      <trkpt lat="28.502421" lon="-14.015051">
        <ele>159.285868</ele>
        <time>2023-01-08T22:57:08.310Z</time>
      </trkpt>
      <trkpt lat="28.502442" lon="-14.015710">
        <ele>158.326979</ele>
        <time>2023-01-08T22:57:27.722Z</time>
      </trkpt>
      <trkpt lat="28.502487" lon="-14.017097">
        <ele>157.101457</ele>
        <time>2023-01-08T22:58:10.472Z</time>
      </trkpt>
      <trkpt lat="28.502621" lon="-14.017731">
        <ele>156.396102</ele>
        <time>2023-01-08T22:58:30.065Z</time>
      </trkpt>
      <trkpt lat="28.502679" lon="-14.018476">
        <ele>155.386112</ele>
        <time>2023-01-08T22:58:52.106Z</time>
      </trkpt>
      <trkpt lat="28.501579" lon="-14.019357">
        <ele>153.318605</ele>
        <time>2023-01-08T22:59:36.413Z</time>
      </trkpt>
      <trkpt lat="28.501442" lon="-14.019410">
        <ele>153.096094</ele>
        <time>2023-01-08T22:59:41.189Z</time>
      </trkpt>
      <trkpt lat="28.501307" lon="-14.019342">
        <ele>152.869070</ele>
        <time>2023-01-08T22:59:46.032Z</time>
      </trkpt>
      <trkpt lat="28.501195" lon="-14.019101">
        <ele>152.500656</ele>
        <time>2023-01-08T22:59:53.984Z</time>
      </trkpt>
      <trkpt lat="28.501123" lon="-14.019061">
        <ele>152.377448</ele>
        <time>2023-01-08T22:59:56.679Z</time>
      </trkpt>
      <trkpt lat="28.501017" lon="-14.019107">
        <ele>152.202997</ele>
        <time>2023-01-08T23:00:00.485Z</time>
      </trkpt>
      <trkpt lat="28.500925" lon="-14.019279">
        <ele>151.930892</ele>
        <time>2023-01-08T23:00:06.404Z</time>
      </trkpt>
      <trkpt lat="28.500470" lon="-14.019710">
        <ele>151.064936</ele>
        <time>2023-01-08T23:00:26.447Z</time>
      </trkpt>
      <trkpt lat="28.500101" lon="-14.020032">
        <ele>150.494080</ele>
        <time>2023-01-08T23:00:42.313Z</time>
      </trkpt>
      <trkpt lat="28.499869" lon="-14.020150">
        <ele>150.182118</ele>
        <time>2023-01-08T23:00:51.072Z</time>
      </trkpt>
      <trkpt lat="28.499004" lon="-14.020437">
        <ele>149.076014</ele>
        <time>2023-01-08T23:01:21.683Z</time>
      </trkpt>
      <trkpt lat="28.498673" lon="-14.020644">
        <ele>148.763679</ele>
        <time>2023-01-08T23:01:34.429Z</time>
      </trkpt>
      <trkpt lat="28.498531" lon="-14.020692">
        <ele>148.647293</ele>
        <time>2023-01-08T23:01:39.397Z</time>
      </trkpt>
      <trkpt lat="28.498144" lon="-14.020649">
        <ele>148.341788</ele>
        <time>2023-01-08T23:01:52.631Z</time>
      </trkpt>
      <trkpt lat="28.497733" lon="-14.020768">
        <ele>148.008582</ele>
        <time>2023-01-08T23:02:07.585Z</time>
      </trkpt>
      <trkpt lat="28.496875" lon="-14.020509">
        <ele>147.919923</ele>
        <time>2023-01-08T23:02:40.064Z</time>
      </trkpt>
      <trkpt lat="28.496643" lon="-14.020447">
        <ele>148.102279</ele>
        <time>2023-01-08T23:02:49.607Z</time>
      </trkpt>
      <trkpt lat="28.495796" lon="-14.020585">
        <ele>148.757008</ele>
        <time>2023-01-08T23:03:25.323Z</time>
      </trkpt>
      <trkpt lat="28.494962" lon="-14.020913">
        <ele>149.914388</ele>
        <time>2023-01-08T23:04:05.279Z</time>
      </trkpt>
      <trkpt lat="28.494412" lon="-14.021025">
        <ele>150.814355</ele>
        <time>2023-01-08T23:04:30.263Z</time>
      </trkpt>
      <trkpt lat="28.493894" lon="-14.021199">
        <ele>151.684302</ele>
        <time>2023-01-08T23:04:54.612Z</time>
      </trkpt>
      <trkpt lat="28.492385" lon="-14.021325">
        <ele>154.659331</ele>
        <time>2023-01-08T23:06:05.022Z</time>
      </trkpt>
      <trkpt lat="28.491946" lon="-14.021426">
        <ele>155.568391</ele>
        <time>2023-01-08T23:06:26.792Z</time>
      </trkpt>
      <trkpt lat="28.491465" lon="-14.021695">
        <ele>156.861019</ele>
        <time>2023-01-08T23:06:53.232Z</time>
      </trkpt>
      <trkpt lat="28.490037" lon="-14.022730">
        <ele>160.838896</ele>
        <time>2023-01-08T23:08:17.092Z</time>
      </trkpt>
      <trkpt lat="28.489457" lon="-14.023036">
        <ele>162.235088</ele>
        <time>2023-01-08T23:08:47.315Z</time>
      </trkpt>
      <trkpt lat="28.488484" lon="-14.023842">
        <ele>164.978390</ele>
        <time>2023-01-08T23:09:44.162Z</time>
      </trkpt>
      <trkpt lat="28.488015" lon="-14.024111">
        <ele>166.244318</ele>
        <time>2023-01-08T23:10:09.661Z</time>
      </trkpt>
      <trkpt lat="28.485753" lon="-14.024968">
        <ele>172.330547</ele>
        <time>2023-01-08T23:12:10.550Z</time>
      </trkpt>
      <trkpt lat="28.485392" lon="-14.025282">
        <ele>173.363365</ele>
        <time>2023-01-08T23:12:32.350Z</time>
      </trkpt>
      <trkpt lat="28.484853" lon="-14.025555">
        <ele>174.569260</ele>
        <time>2023-01-08T23:13:00.201Z</time>
      </trkpt>
      <trkpt lat="28.483907" lon="-14.026353">
        <ele>176.872275</ele>
        <time>2023-01-08T23:13:55.118Z</time>
      </trkpt>
      <trkpt lat="28.483493" lon="-14.026677">
        <ele>177.684186</ele>
        <time>2023-01-08T23:14:18.927Z</time>
      </trkpt>
      <trkpt lat="28.482535" lon="-14.027448">
        <ele>179.479107</ele>
        <time>2023-01-08T23:14:54.852Z</time>
      </trkpt>
      <trkpt lat="28.481520" lon="-14.028629">
        <ele>180.603646</ele>
        <time>2023-01-08T23:15:32.903Z</time>
      </trkpt>
      <trkpt lat="28.481197" lon="-14.028716">
        <ele>180.950207</ele>
        <time>2023-01-08T23:15:41.394Z</time>
      </trkpt>
      <trkpt lat="28.480645" lon="-14.029186">
        <ele>182.069848</ele>
        <time>2023-01-08T23:16:01.025Z</time>
      </trkpt>
      <trkpt lat="28.480421" lon="-14.029246">
        <ele>182.443551</ele>
        <time>2023-01-08T23:16:08.165Z</time>
      </trkpt>
      <trkpt lat="28.480185" lon="-14.029311">
        <ele>182.837865</ele>
        <time>2023-01-08T23:16:15.979Z</time>
      </trkpt>
      <trkpt lat="28.479176" lon="-14.029720">
        <ele>185.487324</ele>
        <time>2023-01-08T23:17:09.113Z</time>
      </trkpt>
      <trkpt lat="28.477959" lon="-14.029904">
        <ele>189.549096</ele>
        <time>2023-01-08T23:18:17.471Z</time>
      </trkpt>
      <trkpt lat="28.477876" lon="-14.029922">
        <ele>189.834142</ele>
        <time>2023-01-08T23:18:22.686Z</time>
      </trkpt>
      <trkpt lat="28.477659" lon="-14.029969">
        <ele>190.587559</ele>
        <time>2023-01-08T23:18:34.821Z</time>
      </trkpt>
      <trkpt lat="28.477392" lon="-14.030135">
        <ele>191.625334</ele>
        <time>2023-01-08T23:18:51.616Z</time>
      </trkpt>
      <trkpt lat="28.477115" lon="-14.030425">
        <ele>192.909269</ele>
        <time>2023-01-08T23:19:12.205Z</time>
      </trkpt>
      <trkpt lat="28.476896" lon="-14.030605">
        <ele>193.830760</ele>
        <time>2023-01-08T23:19:23.467Z</time>
      </trkpt>
      <trkpt lat="28.475948" lon="-14.031105">
        <ele>196.920496</ele>
        <time>2023-01-08T23:20:02.738Z</time>
      </trkpt>
      <trkpt lat="28.475731" lon="-14.031169">
        <ele>197.459797</ele>
        <time>2023-01-08T23:20:10.800Z</time>
      </trkpt>
      <trkpt lat="28.475173" lon="-14.031560">
        <ele>199.036407</ele>
        <time>2023-01-08T23:20:32.193Z</time>
      </trkpt>
      <trkpt lat="28.474920" lon="-14.032011">
        <ele>200.193305</ele>
        <time>2023-01-08T23:20:47.795Z</time>
      </trkpt>
      <trkpt lat="28.474190" lon="-14.032124">
        <ele>202.781629</ele>
        <time>2023-01-08T23:21:16.104Z</time>
      </trkpt>
      <trkpt lat="28.473698" lon="-14.032484">
        <ele>204.836838</ele>
        <time>2023-01-08T23:21:40.258Z</time>
      </trkpt>
      <trkpt lat="28.473335" lon="-14.032517">
        <ele>206.116223</ele>
        <time>2023-01-08T23:21:56.675Z</time>
      </trkpt>
      <trkpt lat="28.473142" lon="-14.032761">
        <ele>207.444944</ele>
        <time>2023-01-08T23:22:09.861Z</time>
      </trkpt>
      <trkpt lat="28.472781" lon="-14.033058">
        <ele>209.716140</ele>
        <time>2023-01-08T23:22:30.447Z</time>
      </trkpt>
      <trkpt lat="28.472730" lon="-14.033100">
        <ele>210.037111</ele>
        <time>2023-01-08T23:22:33.517Z</time>
      </trkpt>
      <trkpt lat="28.471106" lon="-14.034423">
        <ele>220.188596</ele>
        <time>2023-01-08T23:24:12.051Z</time>
      </trkpt>
      <trkpt lat="28.470721" lon="-14.034775">
        <ele>222.689459</ele>
        <time>2023-01-08T23:24:34.913Z</time>
      </trkpt>
      <trkpt lat="28.470277" lon="-14.035410">
        <ele>226.056682</ele>
        <time>2023-01-08T23:25:07.482Z</time>
      </trkpt>
      <trkpt lat="28.470154" lon="-14.035744">
        <ele>227.421496</ele>
        <time>2023-01-08T23:25:21.576Z</time>
      </trkpt>
      <trkpt lat="28.470100" lon="-14.036121">
        <ele>228.861115</ele>
        <time>2023-01-08T23:25:36.369Z</time>
      </trkpt>
      <trkpt lat="28.470138" lon="-14.037063">
        <ele>232.415168</ele>
        <time>2023-01-08T23:26:11.223Z</time>
      </trkpt>
      <trkpt lat="28.470107" lon="-14.037372">
        <ele>233.510724</ele>
        <time>2023-01-08T23:26:22.899Z</time>
      </trkpt>
      <trkpt lat="28.469984" lon="-14.037683">
        <ele>234.711740</ele>
        <time>2023-01-08T23:26:35.728Z</time>
      </trkpt>
      <trkpt lat="28.469799" lon="-14.037955">
        <ele>235.922910</ele>
        <time>2023-01-08T23:26:48.758Z</time>
      </trkpt>
      <trkpt lat="28.469572" lon="-14.038144">
        <ele>237.049894</ele>
        <time>2023-01-08T23:27:00.645Z</time>
      </trkpt>
      <trkpt lat="28.469325" lon="-14.038268">
        <ele>238.131519</ele>
        <time>2023-01-08T23:27:11.919Z</time>
      </trkpt>
      <trkpt lat="28.468576" lon="-14.038392">
        <ele>241.368925</ele>
        <time>2023-01-08T23:27:43.569Z</time>
      </trkpt>
      <trkpt lat="28.468259" lon="-14.038490">
        <ele>242.860392</ele>
        <time>2023-01-08T23:27:57.266Z</time>
      </trkpt>
      <trkpt lat="28.467991" lon="-14.038653">
        <ele>244.240184</ele>
        <time>2023-01-08T23:28:10.371Z</time>
      </trkpt>
      <trkpt lat="28.467267" lon="-14.039398">
        <ele>248.872248</ele>
        <time>2023-01-08T23:28:56.870Z</time>
      </trkpt>
      <trkpt lat="28.467004" lon="-14.039613">
        <ele>250.675660</ele>
        <time>2023-01-08T23:29:13.884Z</time>
      </trkpt>
      <trkpt lat="28.466684" lon="-14.039728">
        <ele>252.544330</ele>
        <time>2023-01-08T23:29:31.686Z</time>
      </trkpt>
      <trkpt lat="28.466365" lon="-14.039732">
        <ele>254.320732</ele>
        <time>2023-01-08T23:29:48.143Z</time>
      </trkpt>
      <trkpt lat="28.466094" lon="-14.039697">
        <ele>255.839442</ele>
        <time>2023-01-08T23:30:01.824Z</time>
      </trkpt>
      <trkpt lat="28.465843" lon="-14.039599">
        <ele>257.317127</ele>
        <time>2023-01-08T23:30:15.167Z</time>
      </trkpt>
      <trkpt lat="28.465591" lon="-14.039430">
        <ele>258.652519</ele>
        <time>2023-01-08T23:30:29.470Z</time>
      </trkpt>
      <trkpt lat="28.465370" lon="-14.039193">
        <ele>259.908010</ele>
        <time>2023-01-08T23:30:43.412Z</time>
      </trkpt>
      <trkpt lat="28.464808" lon="-14.038247">
        <ele>264.057030</ele>
        <time>2023-01-08T23:31:24.469Z</time>
      </trkpt>
      <trkpt lat="28.464604" lon="-14.038111">
        <ele>265.034442</ele>
        <time>2023-01-08T23:31:33.667Z</time>
      </trkpt>
      <trkpt lat="28.464400" lon="-14.038067">
        <ele>265.947894</ele>
        <time>2023-01-08T23:31:41.786Z</time>
      </trkpt>
      <trkpt lat="28.464166" lon="-14.038097">
        <ele>267.003772</ele>
        <time>2023-01-08T23:31:50.901Z</time>
      </trkpt>
      <trkpt lat="28.463965" lon="-14.038204">
        <ele>267.998850</ele>
        <time>2023-01-08T23:31:59.648Z</time>
      </trkpt>
      <trkpt lat="28.462387" lon="-14.039510">
        <ele>277.198392</ele>
        <time>2023-01-08T23:33:32.456Z</time>
      </trkpt>
      <trkpt lat="28.462217" lon="-14.039596">
        <ele>278.141514</ele>
        <time>2023-01-08T23:33:41.662Z</time>
      </trkpt>
      <trkpt lat="28.461307" lon="-14.039647">
        <ele>282.757206</ele>
        <time>2023-01-08T23:34:24.298Z</time>
      </trkpt>
      <trkpt lat="28.460974" lon="-14.039631">
        <ele>284.432837</ele>
        <time>2023-01-08T23:34:40.447Z</time>
      </trkpt>
      <trkpt lat="28.460524" lon="-14.039507">
        <ele>286.760623</ele>
        <time>2023-01-08T23:35:03.000Z</time>
      </trkpt>
      <trkpt lat="28.459057" lon="-14.038530">
        <ele>294.652758</ele>
        <time>2023-01-08T23:36:22.815Z</time>
      </trkpt>
      <trkpt lat="28.458564" lon="-14.038407">
        <ele>296.757896</ele>
        <time>2023-01-08T23:36:44.184Z</time>
      </trkpt>
      <trkpt lat="28.458559" lon="-14.038407">
        <ele>296.778750</ele>
        <time>2023-01-08T23:36:44.545Z</time>
      </trkpt>
      <trkpt lat="28.457814" lon="-14.038365">
        <ele>299.696409</ele>
        <time>2023-01-08T23:37:13.788Z</time>
      </trkpt>
      <trkpt lat="28.457308" lon="-14.038181">
        <ele>301.446779</ele>
        <time>2023-01-08T23:37:32.767Z</time>
      </trkpt>
      <trkpt lat="28.455448" lon="-14.037012">
        <ele>309.346981</ele>
        <time>2023-01-08T23:38:56.857Z</time>
      </trkpt>
      <trkpt lat="28.455129" lon="-14.036841">
        <ele>310.802654</ele>
        <time>2023-01-08T23:39:13.432Z</time>
      </trkpt>
      <trkpt lat="28.454980" lon="-14.036767">
        <ele>311.473770</ele>
        <time>2023-01-08T23:39:20.877Z</time>
      </trkpt>
      <trkpt lat="28.453187" lon="-14.036256">
        <ele>320.816429</ele>
        <time>2023-01-08T23:40:50.805Z</time>
      </trkpt>
      <trkpt lat="28.452596" lon="-14.035863">
        <ele>324.243222</ele>
        <time>2023-01-08T23:41:23.026Z</time>
      </trkpt>
      <trkpt lat="28.451910" lon="-14.035551">
        <ele>327.905845</ele>
        <time>2023-01-08T23:41:57.079Z</time>
      </trkpt>
      <trkpt lat="28.451172" lon="-14.035478">
        <ele>331.747987</ele>
        <time>2023-01-08T23:42:31.496Z</time>
      </trkpt>
      <trkpt lat="28.450094" lon="-14.035408">
        <ele>337.971682</ele>
        <time>2023-01-08T23:43:27.758Z</time>
      </trkpt>
      <trkpt lat="28.449842" lon="-14.035363">
        <ele>339.442000</ele>
        <time>2023-01-08T23:43:41.174Z</time>
      </trkpt>
      <trkpt lat="28.449406" lon="-14.035169">
        <ele>341.932469</ele>
        <time>2023-01-08T23:44:06.830Z</time>
      </trkpt>
      <trkpt lat="28.448305" lon="-14.034329">
        <ele>348.289967</ele>
        <time>2023-01-08T23:45:09.494Z</time>
      </trkpt>
      <trkpt lat="28.447097" lon="-14.033793">
        <ele>352.039533</ele>
        <time>2023-01-08T23:45:56.157Z</time>
      </trkpt>
      <trkpt lat="28.446373" lon="-14.033167">
        <ele>354.404674</ele>
        <time>2023-01-08T23:46:22.760Z</time>
      </trkpt>
      <trkpt lat="28.446017" lon="-14.032942">
        <ele>355.840386</ele>
        <time>2023-01-08T23:46:36.931Z</time>
      </trkpt>
      <trkpt lat="28.445610" lon="-14.032852">
        <ele>357.301990</ele>
        <time>2023-01-08T23:46:53.447Z</time>
      </trkpt>
      <trkpt lat="28.445554" lon="-14.032867">
        <ele>357.504799</ele>
        <time>2023-01-08T23:46:55.778Z</time>
      </trkpt>
      <trkpt lat="28.445271" lon="-14.033350">
        <ele>359.303831</ele>
        <time>2023-01-08T23:47:16.768Z</time>
      </trkpt>
      <trkpt lat="28.444862" lon="-14.034255">
        <ele>363.847332</ele>
        <time>2023-01-08T23:48:02.037Z</time>
      </trkpt>
      <trkpt lat="28.444927" lon="-14.034729">
        <ele>366.256908</ele>
        <time>2023-01-08T23:48:24.831Z</time>
      </trkpt>
      <trkpt lat="28.444902" lon="-14.034963">
        <ele>367.440881</ele>
        <time>2023-01-08T23:48:36.984Z</time>
      </trkpt>
      <trkpt lat="28.444758" lon="-14.035116">
        <ele>368.566588</ele>
        <time>2023-01-08T23:48:46.943Z</time>
      </trkpt>
      <trkpt lat="28.444452" lon="-14.035113">
        <ele>370.314648</ele>
        <time>2023-01-08T23:49:02.053Z</time>
      </trkpt>
      <trkpt lat="28.444314" lon="-14.035111">
        <ele>370.969289</ele>
        <time>2023-01-08T23:49:09.496Z</time>
      </trkpt>
      <trkpt lat="28.444196" lon="-14.035169">
        <ele>371.542668</ele>
        <time>2023-01-08T23:49:15.022Z</time>
      </trkpt>
      <trkpt lat="28.444107" lon="-14.035318">
        <ele>372.249123</ele>
        <time>2023-01-08T23:49:21.604Z</time>
      </trkpt>
      <trkpt lat="28.444005" lon="-14.035741">
        <ele>373.969362</ele>
        <time>2023-01-08T23:49:38.156Z</time>
      </trkpt>
      <trkpt lat="28.443929" lon="-14.035863">
        <ele>374.555754</ele>
        <time>2023-01-08T23:49:43.934Z</time>
      </trkpt>
      <trkpt lat="28.443787" lon="-14.035908">
        <ele>375.213260</ele>
        <time>2023-01-08T23:49:49.465Z</time>
      </trkpt>
      <trkpt lat="28.443465" lon="-14.035907">
        <ele>376.649514</ele>
        <time>2023-01-08T23:50:03.290Z</time>
      </trkpt>
      <trkpt lat="28.443302" lon="-14.035979">
        <ele>377.429472</ele>
        <time>2023-01-08T23:50:11.615Z</time>
      </trkpt>
      <trkpt lat="28.442968" lon="-14.036436">
        <ele>380.714183</ele>
        <time>2023-01-08T23:50:33.688Z</time>
      </trkpt>
      <trkpt lat="28.442857" lon="-14.036845">
        <ele>383.679807</ele>
        <time>2023-01-08T23:50:52.624Z</time>
      </trkpt>
      <trkpt lat="28.442895" lon="-14.037557">
        <ele>388.621913</ele>
        <time>2023-01-08T23:51:29.701Z</time>
      </trkpt>
      <trkpt lat="28.443677" lon="-14.038645">
        <ele>402.640378</ele>
        <time>2023-01-08T23:53:12.129Z</time>
      </trkpt>
      <trkpt lat="28.443981" lon="-14.039293">
        <ele>411.572345</ele>
        <time>2023-01-08T23:54:15.708Z</time>
      </trkpt>
      <trkpt lat="28.444051" lon="-14.039625">
        <ele>415.724313</ele>
        <time>2023-01-08T23:54:47.362Z</time>
      </trkpt>
      <trkpt lat="28.443853" lon="-14.041078">
        <ele>432.355337</ele>
        <time>2023-01-08T23:56:47.786Z</time>
      </trkpt>
      <trkpt lat="28.443814" lon="-14.041215">
        <ele>433.970083</ele>
        <time>2023-01-08T23:56:59.419Z</time>
      </trkpt>
      <trkpt lat="28.443445" lon="-14.041839">
        <ele>441.716246</ele>
        <time>2023-01-08T23:57:46.530Z</time>
      </trkpt>
      <trkpt lat="28.443366" lon="-14.042070">
        <ele>443.491703</ele>
        <time>2023-01-08T23:57:59.865Z</time>
      </trkpt>
      <trkpt lat="28.443344" lon="-14.042433">
        <ele>446.098125</ele>
        <time>2023-01-08T23:58:18.709Z</time>
      </trkpt>
      <trkpt lat="28.443451" lon="-14.042826">
        <ele>449.045140</ele>
        <time>2023-01-08T23:58:39.253Z</time>
      </trkpt>
      <trkpt lat="28.443552" lon="-14.042971">
        <ele>450.370222</ele>
        <time>2023-01-08T23:58:49.758Z</time>
      </trkpt>
      <trkpt lat="28.444210" lon="-14.043468">
        <ele>457.448468</ele>
        <time>2023-01-08T23:59:36.122Z</time>
      </trkpt>
      <trkpt lat="28.444427" lon="-14.043712">
        <ele>460.903722</ele>
        <time>2023-01-08T23:59:59.423Z</time>
      </trkpt>
      <trkpt lat="28.444444" lon="-14.043817">
        <ele>461.966687</ele>
        <time>2023-01-09T00:00:04.227Z</time>
      </trkpt>
      <trkpt lat="28.444370" lon="-14.043972">
        <ele>463.722688</ele>
        <time>2023-01-09T00:00:20.569Z</time>
      </trkpt>
      <trkpt lat="28.444222" lon="-14.044056">
        <ele>465.595587</ele>
        <time>2023-01-09T00:00:31.116Z</time>
      </trkpt>
      <trkpt lat="28.443442" lon="-14.044294">
        <ele>474.739895</ele>
        <time>2023-01-09T00:01:40.154Z</time>
      </trkpt>
      <trkpt lat="28.443029" lon="-14.044564">
        <ele>480.948044</ele>
        <time>2023-01-09T00:02:27.652Z</time>
      </trkpt>
      <trkpt lat="28.442504" lon="-14.045143">
        <ele>490.690399</ele>
        <time>2023-01-09T00:03:29.516Z</time>
      </trkpt>
      <trkpt lat="28.441956" lon="-14.045526">
        <ele>499.259064</ele>
        <time>2023-01-09T00:04:27.722Z</time>
      </trkpt>
      <trkpt lat="28.441717" lon="-14.045811">
        <ele>503.207925</ele>
        <time>2023-01-09T00:04:57.869Z</time>
      </trkpt>
      <trkpt lat="28.441171" lon="-14.046243">
        <ele>510.727594</ele>
        <time>2023-01-09T00:05:57.037Z</time>
      </trkpt>
      <trkpt lat="28.440252" lon="-14.047102">
        <ele>520.410166</ele>
        <time>2023-01-09T00:07:19.895Z</time>
      </trkpt>
      <trkpt lat="28.440131" lon="-14.047268">
        <ele>520.701849</ele>
        <time>2023-01-09T00:07:27.203Z</time>
      </trkpt>
      <trkpt lat="28.440140" lon="-14.047492">
        <ele>521.005186</ele>
        <time>2023-01-09T00:07:33.489Z</time>
      </trkpt>
      <trkpt lat="28.440328" lon="-14.047699">
        <ele>521.407759</ele>
        <time>2023-01-09T00:07:38.821Z</time>
      </trkpt>
      <trkpt lat="28.440740" lon="-14.047980">
        <ele>522.146842</ele>
        <time>2023-01-09T00:07:48.003Z</time>
      </trkpt>
      <trkpt lat="28.441596" lon="-14.048299">
        <ele>524.537073</ele>
        <time>2023-01-09T00:08:02.547Z</time>
      </trkpt>
      <trkpt lat="28.441930" lon="-14.048565">
        <ele>525.828609</ele>
        <time>2023-01-09T00:08:12.233Z</time>
      </trkpt>
      <trkpt lat="28.442502" lon="-14.049356">
        <ele>530.519888</ele>
        <time>2023-01-09T00:09:10.123Z</time>
      </trkpt>
      <trkpt lat="28.442547" lon="-14.049447">
        <ele>532.148140</ele>
        <time>2023-01-09T00:09:18.962Z</time>
      </trkpt>
      <trkpt lat="28.442515" lon="-14.049623">
        <ele>534.951057</ele>
        <time>2023-01-09T00:09:36.979Z</time>
      </trkpt>
      <trkpt lat="28.441600" lon="-14.049929">
        <ele>551.867212</ele>
        <time>2023-01-09T00:11:33.324Z</time>
      </trkpt>
      <trkpt lat="28.441268" lon="-14.050098">
        <ele>558.318734</ele>
        <time>2023-01-09T00:12:21.482Z</time>
      </trkpt>
      <trkpt lat="28.440596" lon="-14.050739">
        <ele>570.341502</ele>
        <time>2023-01-09T00:14:00.251Z</time>
      </trkpt>
      <trkpt lat="28.440523" lon="-14.050873">
        <ele>572.165473</ele>
        <time>2023-01-09T00:14:13.241Z</time>
      </trkpt>
      <trkpt lat="28.440552" lon="-14.051119">
        <ele>575.037401</ele>
        <time>2023-01-09T00:14:30.239Z</time>
      </trkpt>
      <trkpt lat="28.440796" lon="-14.051662">
        <ele>582.093317</ele>
        <time>2023-01-09T00:15:07.164Z</time>
      </trkpt>
      <trkpt lat="28.440811" lon="-14.051775">
        <ele>583.415650</ele>
        <time>2023-01-09T00:15:12.487Z</time>
      </trkpt>
      <trkpt lat="28.440463" lon="-14.052266">
        <ele>584.428179</ele>
        <time>2023-01-09T00:15:38.133Z</time>
      </trkpt>
      <trkpt lat="28.440463" lon="-14.052438">
        <ele>584.595416</ele>
        <time>2023-01-09T00:15:42.464Z</time>
      </trkpt>
      <trkpt lat="28.440274" lon="-14.052954">
        <ele>585.138913</ele>
        <time>2023-01-09T00:15:52.855Z</time>
      </trkpt>
      <trkpt lat="28.440325" lon="-14.053876">
        <ele>585.301225</ele>
        <time>2023-01-09T00:16:07.510Z</time>
      </trkpt>
      <trkpt lat="28.440337" lon="-14.054027">
        <ele>584.896966</ele>
        <time>2023-01-09T00:16:09.926Z</time>
      </trkpt>
      <trkpt lat="28.440447" lon="-14.054179">
        <ele>584.372072</ele>
        <time>2023-01-09T00:16:13.054Z</time>
      </trkpt>
      <trkpt lat="28.441121" lon="-14.054770">
        <ele>581.791342</ele>
        <time>2023-01-09T00:16:28.150Z</time>
      </trkpt>
      <trkpt lat="28.441219" lon="-14.054880">
        <ele>581.373813</ele>
        <time>2023-01-09T00:16:30.380Z</time>
      </trkpt>
      <trkpt lat="28.441258" lon="-14.055010">
        <ele>581.007573</ele>
        <time>2023-01-09T00:16:32.299Z</time>
      </trkpt>
      <trkpt lat="28.441189" lon="-14.055286">
        <ele>580.139654</ele>
        <time>2023-01-09T00:16:36.308Z</time>
      </trkpt>
      <trkpt lat="28.440863" lon="-14.055892">
        <ele>576.892258</ele>
        <time>2023-01-09T00:16:46.404Z</time>
      </trkpt>
      <trkpt lat="28.440816" lon="-14.055994">
        <ele>576.365862</ele>
        <time>2023-01-09T00:16:47.975Z</time>
      </trkpt>
      <trkpt lat="28.440731" lon="-14.056251">
        <ele>575.110725</ele>
        <time>2023-01-09T00:16:51.894Z</time>
      </trkpt>
      <trkpt lat="28.440656" lon="-14.056807">
        <ele>572.539437</ele>
        <time>2023-01-09T00:16:59.730Z</time>
      </trkpt>
      <trkpt lat="28.440627" lon="-14.057963">
        <ele>566.335673</ele>
        <time>2023-01-09T00:17:14.999Z</time>
      </trkpt>
      <trkpt lat="28.440583" lon="-14.058169">
        <ele>565.131648</ele>
        <time>2023-01-09T00:17:17.795Z</time>
      </trkpt>
      <trkpt lat="28.440375" lon="-14.058518">
        <ele>562.737054</ele>
        <time>2023-01-09T00:17:23.444Z</time>
      </trkpt>
      <trkpt lat="28.440301" lon="-14.058939">
        <ele>560.298624</ele>
        <time>2023-01-09T00:17:29.302Z</time>
      </trkpt>
      <trkpt lat="28.439767" lon="-14.059286">
        <ele>556.695602</ele>
        <time>2023-01-09T00:17:38.717Z</time>
      </trkpt>
      <trkpt lat="28.439606" lon="-14.059325">
        <ele>555.759405</ele>
        <time>2023-01-09T00:17:41.195Z</time>
      </trkpt>
      <trkpt lat="28.439077" lon="-14.059282">
        <ele>552.743145</ele>
        <time>2023-01-09T00:17:49.386Z</time>
      </trkpt>
      <trkpt lat="28.439007" lon="-14.059326">
        <ele>552.288270</ele>
        <time>2023-01-09T00:17:50.649Z</time>
      </trkpt>
      <trkpt lat="28.438878" lon="-14.059591">
        <ele>550.773483</ele>
        <time>2023-01-09T00:17:54.787Z</time>
      </trkpt>
      <trkpt lat="28.438775" lon="-14.059637">
        <ele>550.144139</ele>
        <time>2023-01-09T00:17:56.559Z</time>
      </trkpt>
      <trkpt lat="28.438652" lon="-14.059640">
        <ele>549.444439</ele>
        <time>2023-01-09T00:17:58.467Z</time>
      </trkpt>
      <trkpt lat="28.438284" lon="-14.059490">
        <ele>547.678775</ele>
        <time>2023-01-09T00:18:04.790Z</time>
      </trkpt>
      <trkpt lat="28.438167" lon="-14.059486">
        <ele>547.167879</ele>
        <time>2023-01-09T00:18:06.757Z</time>
      </trkpt>
      <trkpt lat="28.437674" lon="-14.059717">
        <ele>544.840614</ele>
        <time>2023-01-09T00:18:15.730Z</time>
      </trkpt>
      <trkpt lat="28.437488" lon="-14.059960">
        <ele>543.604139</ele>
        <time>2023-01-09T00:18:20.440Z</time>
      </trkpt>
      <trkpt lat="28.437409" lon="-14.060415">
        <ele>541.824129</ele>
        <time>2023-01-09T00:18:27.071Z</time>
      </trkpt>
      <trkpt lat="28.437612" lon="-14.061223">
        <ele>537.127479</ele>
        <time>2023-01-09T00:18:38.576Z</time>
      </trkpt>
      <trkpt lat="28.437569" lon="-14.061409">
        <ele>535.992894</ele>
        <time>2023-01-09T00:18:41.163Z</time>
      </trkpt>
      <trkpt lat="28.437438" lon="-14.061497">
        <ele>534.972141</ele>
        <time>2023-01-09T00:18:43.371Z</time>
      </trkpt>
      <trkpt lat="28.436095" lon="-14.062007">
        <ele>525.067881</ele>
        <time>2023-01-09T00:19:04.322Z</time>
      </trkpt>
      <trkpt lat="28.435828" lon="-14.062416">
        <ele>521.742302</ele>
        <time>2023-01-09T00:19:10.936Z</time>
      </trkpt>
      <trkpt lat="28.435610" lon="-14.062430">
        <ele>520.121215</ele>
        <time>2023-01-09T00:19:14.120Z</time>
      </trkpt>
      <trkpt lat="28.435333" lon="-14.062314">
        <ele>517.929660</ele>
        <time>2023-01-09T00:19:18.486Z</time>
      </trkpt>
      <trkpt lat="28.435191" lon="-14.062307">
        <ele>516.874412</ele>
        <time>2023-01-09T00:19:20.650Z</time>
      </trkpt>
      <trkpt lat="28.434794" lon="-14.062470">
        <ele>513.974389</ele>
        <time>2023-01-09T00:19:27.140Z</time>
      </trkpt>
      <trkpt lat="28.434609" lon="-14.062628">
        <ele>512.441040</ele>
        <time>2023-01-09T00:19:30.669Z</time>
      </trkpt>
      <trkpt lat="28.434095" lon="-14.063200">
        <ele>507.674801</ele>
        <time>2023-01-09T00:19:41.857Z</time>
      </trkpt>
      <trkpt lat="28.433998" lon="-14.063213">
        <ele>507.027489</ele>
        <time>2023-01-09T00:19:43.401Z</time>
      </trkpt>
      <trkpt lat="28.433918" lon="-14.063153">
        <ele>506.392366</ele>
        <time>2023-01-09T00:19:44.799Z</time>
      </trkpt>
      <trkpt lat="28.433840" lon="-14.062822">
        <ele>504.395248</ele>
        <time>2023-01-09T00:19:49.251Z</time>
      </trkpt>
      <trkpt lat="28.433911" lon="-14.062356">
        <ele>501.520484</ele>
        <time>2023-01-09T00:19:55.233Z</time>
      </trkpt>
      <trkpt lat="28.434044" lon="-14.061878">
        <ele>498.451814</ele>
        <time>2023-01-09T00:20:01.789Z</time>
      </trkpt>
      <trkpt lat="28.434153" lon="-14.061677">
        <ele>497.006425</ele>
        <time>2023-01-09T00:20:04.949Z</time>
      </trkpt>
      <trkpt lat="28.434577" lon="-14.061280">
        <ele>493.183587</ele>
        <time>2023-01-09T00:20:13.258Z</time>
      </trkpt>
      <trkpt lat="28.435325" lon="-14.061136">
        <ele>488.723961</ele>
        <time>2023-01-09T00:20:25.031Z</time>
      </trkpt>
      <trkpt lat="28.435608" lon="-14.060708">
        <ele>486.198930</ele>
        <time>2023-01-09T00:20:32.559Z</time>
      </trkpt>
      <trkpt lat="28.435630" lon="-14.060595">
        <ele>485.653198</ele>
        <time>2023-01-09T00:20:34.275Z</time>
      </trkpt>
      <trkpt lat="28.435530" lon="-14.060446">
        <ele>484.769368</ele>
        <time>2023-01-09T00:20:36.865Z</time>
      </trkpt>
      <trkpt lat="28.435316" lon="-14.060394">
        <ele>483.595945</ele>
        <time>2023-01-09T00:20:40.558Z</time>
      </trkpt>
      <trkpt lat="28.434546" lon="-14.060382">
        <ele>477.817770</ele>
        <time>2023-01-09T00:20:52.441Z</time>
      </trkpt>
      <trkpt lat="28.434418" lon="-14.060324">
        <ele>476.564163</ele>
        <time>2023-01-09T00:20:54.355Z</time>
      </trkpt>
      <trkpt lat="28.434330" lon="-14.060237">
        <ele>475.503265</ele>
        <time>2023-01-09T00:20:56.079Z</time>
      </trkpt>
      <trkpt lat="28.434002" lon="-14.059117">
        <ele>466.058752</ele>
        <time>2023-01-09T00:21:10.744Z</time>
      </trkpt>
      <trkpt lat="28.433925" lon="-14.058939">
        <ele>464.335118</ele>
        <time>2023-01-09T00:21:13.238Z</time>
      </trkpt>
      <trkpt lat="28.433808" lon="-14.058814">
        <ele>462.674575</ele>
        <time>2023-01-09T00:21:15.413Z</time>
      </trkpt>
      <trkpt lat="28.433664" lon="-14.058709">
        <ele>460.905169</ele>
        <time>2023-01-09T00:21:17.844Z</time>
      </trkpt>
      <trkpt lat="28.433523" lon="-14.058674">
        <ele>459.412355</ele>
        <time>2023-01-09T00:21:19.784Z</time>
      </trkpt>
      <trkpt lat="28.432380" lon="-14.058790">
        <ele>447.542427</ele>
        <time>2023-01-09T00:21:35.926Z</time>
      </trkpt>
      <trkpt lat="28.431901" lon="-14.059202">
        <ele>443.523218</ele>
        <time>2023-01-09T00:21:45.097Z</time>
      </trkpt>
      <trkpt lat="28.431677" lon="-14.059340">
        <ele>441.932339</ele>
        <time>2023-01-09T00:21:49.051Z</time>
      </trkpt>
      <trkpt lat="28.430621" lon="-14.059675">
        <ele>435.078778</ele>
        <time>2023-01-09T00:22:06.141Z</time>
      </trkpt>
      <trkpt lat="28.430414" lon="-14.059630">
        <ele>433.744747</ele>
        <time>2023-01-09T00:22:09.550Z</time>
      </trkpt>
      <trkpt lat="28.429380" lon="-14.059017">
        <ele>426.363473</ele>
        <time>2023-01-09T00:22:27.436Z</time>
      </trkpt>
      <trkpt lat="28.429376" lon="-14.059014">
        <ele>426.333142</ele>
        <time>2023-01-09T00:22:27.519Z</time>
      </trkpt>
      <trkpt lat="28.428979" lon="-14.058451">
        <ele>422.105744</ele>
        <time>2023-01-09T00:22:37.068Z</time>
      </trkpt>
      <trkpt lat="28.428734" lon="-14.058237">
        <ele>419.937217</ele>
        <time>2023-01-09T00:22:41.609Z</time>
      </trkpt>
      <trkpt lat="28.427769" lon="-14.057952">
        <ele>412.938832</ele>
        <time>2023-01-09T00:22:56.420Z</time>
      </trkpt>
      <trkpt lat="28.427711" lon="-14.057940">
        <ele>412.525027</ele>
        <time>2023-01-09T00:22:57.294Z</time>
      </trkpt>
      <trkpt lat="28.426613" lon="-14.057660">
        <ele>407.759033</ele>
        <time>2023-01-09T00:23:15.151Z</time>
      </trkpt>
      <trkpt lat="28.426129" lon="-14.057648">
        <ele>405.882623</ele>
        <time>2023-01-09T00:23:23.819Z</time>
      </trkpt>
      <trkpt lat="28.425497" lon="-14.056910">
        <ele>403.914642</ele>
        <time>2023-01-09T00:23:40.816Z</time>
      </trkpt>
      <trkpt lat="28.425466" lon="-14.056748">
        <ele>403.732209</ele>
        <time>2023-01-09T00:23:43.750Z</time>
      </trkpt>
      <trkpt lat="28.425397" lon="-14.056627">
        <ele>403.573522</ele>
        <time>2023-01-09T00:23:46.190Z</time>
      </trkpt>
      <trkpt lat="28.425278" lon="-14.056556">
        <ele>403.405374</ele>
        <time>2023-01-09T00:23:48.742Z</time>
      </trkpt>
      <trkpt lat="28.424889" lon="-14.056519">
        <ele>402.916945</ele>
        <time>2023-01-09T00:23:56.605Z</time>
      </trkpt>
      <trkpt lat="28.424388" lon="-14.056480">
        <ele>402.127795</ele>
        <time>2023-01-09T00:24:07.505Z</time>
      </trkpt>
      <trkpt lat="28.424166" lon="-14.056469">
        <ele>401.447637</ele>
        <time>2023-01-09T00:24:11.920Z</time>
      </trkpt>
      <trkpt lat="28.423908" lon="-14.056516">
        <ele>400.647861</ele>
        <time>2023-01-09T00:24:16.827Z</time>
      </trkpt>
      <trkpt lat="28.423764" lon="-14.056554">
        <ele>400.195381</ele>
        <time>2023-01-09T00:24:20.228Z</time>
      </trkpt>
      <trkpt lat="28.423493" lon="-14.056650">
        <ele>399.326563</ele>
        <time>2023-01-09T00:24:25.004Z</time>
      </trkpt>
      <trkpt lat="28.423431" lon="-14.056698">
        <ele>399.096977</ele>
        <time>2023-01-09T00:24:26.211Z</time>
      </trkpt>
      <trkpt lat="28.423019" lon="-14.057068">
        <ele>397.490009</ele>
        <time>2023-01-09T00:24:34.763Z</time>
      </trkpt>
      <trkpt lat="28.422745" lon="-14.057520">
        <ele>395.840273</ele>
        <time>2023-01-09T00:24:42.388Z</time>
      </trkpt>
      <trkpt lat="28.422168" lon="-14.057995">
        <ele>393.234861</ele>
        <time>2023-01-09T00:24:54.632Z</time>
      </trkpt>
      <trkpt lat="28.421812" lon="-14.058208">
        <ele>391.763532</ele>
        <time>2023-01-09T00:25:01.393Z</time>
      </trkpt>
      <trkpt lat="28.421487" lon="-14.058333">
        <ele>390.508682</ele>
        <time>2023-01-09T00:25:07.063Z</time>
      </trkpt>
      <trkpt lat="28.421359" lon="-14.058358">
        <ele>390.115685</ele>
        <time>2023-01-09T00:25:09.246Z</time>
      </trkpt>
      <trkpt lat="28.420931" lon="-14.058266">
        <ele>388.985606</ele>
        <time>2023-01-09T00:25:16.829Z</time>
      </trkpt>
      <trkpt lat="28.420624" lon="-14.058305">
        <ele>388.184164</ele>
        <time>2023-01-09T00:25:22.184Z</time>
      </trkpt>
      <trkpt lat="28.419374" lon="-14.058885">
        <ele>384.825097</ele>
        <time>2023-01-09T00:25:46.847Z</time>
      </trkpt>
      <trkpt lat="28.418400" lon="-14.059436">
        <ele>382.421363</ele>
        <time>2023-01-09T00:26:06.221Z</time>
      </trkpt>
      <trkpt lat="28.418191" lon="-14.059384">
        <ele>381.948644</ele>
        <time>2023-01-09T00:26:10.196Z</time>
      </trkpt>
      <trkpt lat="28.417952" lon="-14.059023">
        <ele>381.042646</ele>
        <time>2023-01-09T00:26:17.437Z</time>
      </trkpt>
      <trkpt lat="28.417757" lon="-14.058881">
        <ele>380.507363</ele>
        <time>2023-01-09T00:26:21.848Z</time>
      </trkpt>
      <trkpt lat="28.416613" lon="-14.058581">
        <ele>377.793477</ele>
        <time>2023-01-09T00:26:42.891Z</time>
      </trkpt>
      <trkpt lat="28.416162" lon="-14.058544">
        <ele>377.326535</ele>
        <time>2023-01-09T00:26:50.653Z</time>
      </trkpt>
      <trkpt lat="28.415854" lon="-14.058622">
        <ele>377.145438</ele>
        <time>2023-01-09T00:26:56.289Z</time>
      </trkpt>
      <trkpt lat="28.415396" lon="-14.058944">
        <ele>376.836392</ele>
        <time>2023-01-09T00:27:07.654Z</time>
      </trkpt>
      <trkpt lat="28.415241" lon="-14.059120">
        <ele>376.710672</ele>
        <time>2023-01-09T00:27:12.750Z</time>
      </trkpt>
      <trkpt lat="28.414875" lon="-14.059747">
        <ele>377.037905</ele>
        <time>2023-01-09T00:27:33.537Z</time>
      </trkpt>
      <trkpt lat="28.414722" lon="-14.059882">
        <ele>377.435611</ele>
        <time>2023-01-09T00:27:40.155Z</time>
      </trkpt>
      <trkpt lat="28.414452" lon="-14.059916">
        <ele>377.993460</ele>
        <time>2023-01-09T00:27:48.994Z</time>
      </trkpt>
      <trkpt lat="28.413816" lon="-14.059676">
        <ele>379.369573</ele>
        <time>2023-01-09T00:28:13.357Z</time>
      </trkpt>
      <trkpt lat="28.413392" lon="-14.059655">
        <ele>380.124663</ele>
        <time>2023-01-09T00:28:28.334Z</time>
      </trkpt>
      <trkpt lat="28.413092" lon="-14.059777">
        <ele>379.554822</ele>
        <time>2023-01-09T00:28:37.564Z</time>
      </trkpt>
      <trkpt lat="28.412081" lon="-14.060468">
        <ele>377.445067</ele>
        <time>2023-01-09T00:28:59.147Z</time>
      </trkpt>
      <trkpt lat="28.411696" lon="-14.060800">
        <ele>375.823883</ele>
        <time>2023-01-09T00:29:07.008Z</time>
      </trkpt>
      <trkpt lat="28.411482" lon="-14.061043">
        <ele>374.208646</ele>
        <time>2023-01-09T00:29:11.477Z</time>
      </trkpt>
      <trkpt lat="28.411379" lon="-14.061238">
        <ele>373.140207</ele>
        <time>2023-01-09T00:29:14.430Z</time>
      </trkpt>
      <trkpt lat="28.411268" lon="-14.061597">
        <ele>371.352737</ele>
        <time>2023-01-09T00:29:19.426Z</time>
      </trkpt>
      <trkpt lat="28.411293" lon="-14.062193">
        <ele>368.549997</ele>
        <time>2023-01-09T00:29:27.595Z</time>
      </trkpt>
      <trkpt lat="28.411188" lon="-14.062513">
        <ele>367.354269</ele>
        <time>2023-01-09T00:29:32.543Z</time>
      </trkpt>
      <trkpt lat="28.411093" lon="-14.062625">
        <ele>367.350545</ele>
        <time>2023-01-09T00:29:34.885Z</time>
      </trkpt>
      <trkpt lat="28.410867" lon="-14.062738">
        <ele>367.343826</ele>
        <time>2023-01-09T00:29:40.006Z</time>
      </trkpt>
      <trkpt lat="28.410460" lon="-14.062747">
        <ele>367.332747</ele>
        <time>2023-01-09T00:29:49.025Z</time>
      </trkpt>
      <trkpt lat="28.409316" lon="-14.062376">
        <ele>367.162902</ele>
        <time>2023-01-09T00:30:25.513Z</time>
      </trkpt>
      <trkpt lat="28.408821" lon="-14.062343">
        <ele>366.885926</ele>
        <time>2023-01-09T00:30:41.892Z</time>
      </trkpt>
      <trkpt lat="28.407961" lon="-14.062505">
        <ele>366.398991</ele>
        <time>2023-01-09T00:30:59.127Z</time>
      </trkpt>
      <trkpt lat="28.406269" lon="-14.062663">
        <ele>358.482744</ele>
        <time>2023-01-09T00:31:25.670Z</time>
      </trkpt>
      <trkpt lat="28.404982" lon="-14.063076">
        <ele>350.746935</ele>
        <time>2023-01-09T00:31:46.495Z</time>
      </trkpt>
      <trkpt lat="28.404460" lon="-14.063132">
        <ele>347.625287</ele>
        <time>2023-01-09T00:31:54.484Z</time>
      </trkpt>
      <trkpt lat="28.404225" lon="-14.063107">
        <ele>346.221165</ele>
        <time>2023-01-09T00:31:58.065Z</time>
      </trkpt>
      <trkpt lat="28.403935" lon="-14.063024">
        <ele>344.453687</ele>
        <time>2023-01-09T00:32:02.541Z</time>
      </trkpt>
      <trkpt lat="28.402346" lon="-14.062124">
        <ele>335.199260</ele>
        <time>2023-01-09T00:32:29.880Z</time>
      </trkpt>
      <trkpt lat="28.402285" lon="-14.061891">
        <ele>334.813897</ele>
        <time>2023-01-09T00:32:34.150Z</time>
      </trkpt>
      <trkpt lat="28.402325" lon="-14.061732">
        <ele>334.551744</ele>
        <time>2023-01-09T00:32:36.551Z</time>
      </trkpt>
      <trkpt lat="28.402402" lon="-14.061603">
        <ele>334.304618</ele>
        <time>2023-01-09T00:32:39.920Z</time>
      </trkpt>
      <trkpt lat="28.402976" lon="-14.061064">
        <ele>332.962957</ele>
        <time>2023-01-09T00:32:55.498Z</time>
      </trkpt>
      <trkpt lat="28.402995" lon="-14.060868">
        <ele>332.650379</ele>
        <time>2023-01-09T00:32:58.875Z</time>
      </trkpt>
      <trkpt lat="28.402849" lon="-14.060708">
        <ele>332.302061</ele>
        <time>2023-01-09T00:33:05.816Z</time>
      </trkpt>
      <trkpt lat="28.402748" lon="-14.060674">
        <ele>332.127286</ele>
        <time>2023-01-09T00:33:07.942Z</time>
      </trkpt>
      <trkpt lat="28.402155" lon="-14.060662">
        <ele>331.143211</ele>
        <time>2023-01-09T00:33:20.555Z</time>
      </trkpt>
      <trkpt lat="28.401927" lon="-14.060782">
        <ele>330.726333</ele>
        <time>2023-01-09T00:33:25.126Z</time>
      </trkpt>
      <trkpt lat="28.400702" lon="-14.062009">
        <ele>327.387988</ele>
        <time>2023-01-09T00:33:53.174Z</time>
      </trkpt>
      <trkpt lat="28.400518" lon="-14.062029">
        <ele>326.952545</ele>
        <time>2023-01-09T00:33:56.424Z</time>
      </trkpt>
      <trkpt lat="28.400095" lon="-14.061965">
        <ele>325.947256</ele>
        <time>2023-01-09T00:34:04.122Z</time>
      </trkpt>
      <trkpt lat="28.399899" lon="-14.062020">
        <ele>325.471660</ele>
        <time>2023-01-09T00:34:08.000Z</time>
      </trkpt>
      <trkpt lat="28.399762" lon="-14.062210">
        <ele>325.166875</ele>
        <time>2023-01-09T00:34:12.351Z</time>
      </trkpt>
      <trkpt lat="28.399746" lon="-14.062746">
        <ele>324.772145</ele>
        <time>2023-01-09T00:34:22.680Z</time>
      </trkpt>
      <trkpt lat="28.399732" lon="-14.063212">
        <ele>324.428963</ele>
        <time>2023-01-09T00:34:32.670Z</time>
      </trkpt>
      <trkpt lat="28.399635" lon="-14.063428">
        <ele>324.250465</ele>
        <time>2023-01-09T00:34:37.376Z</time>
      </trkpt>
      <trkpt lat="28.398908" lon="-14.064471">
        <ele>321.732086</ele>
        <time>2023-01-09T00:34:59.096Z</time>
      </trkpt>
      <trkpt lat="28.398046" lon="-14.066022">
        <ele>316.063033</ele>
        <time>2023-01-09T00:35:25.393Z</time>
      </trkpt>
      <trkpt lat="28.397534" lon="-14.066659">
        <ele>313.138614</ele>
        <time>2023-01-09T00:35:37.685Z</time>
      </trkpt>
      <trkpt lat="28.397078" lon="-14.067073">
        <ele>310.890188</ele>
        <time>2023-01-09T00:35:47.498Z</time>
      </trkpt>
      <trkpt lat="28.395756" lon="-14.067338">
        <ele>309.094162</ele>
        <time>2023-01-09T00:36:12.547Z</time>
      </trkpt>
      <trkpt lat="28.395271" lon="-14.067595">
        <ele>308.466156</ele>
        <time>2023-01-09T00:36:25.909Z</time>
      </trkpt>
      <trkpt lat="28.393945" lon="-14.068601">
        <ele>308.360392</ele>
        <time>2023-01-09T00:37:05.540Z</time>
      </trkpt>
      <trkpt lat="28.393787" lon="-14.068768">
        <ele>308.109529</ele>
        <time>2023-01-09T00:37:09.626Z</time>
      </trkpt>
      <trkpt lat="28.393707" lon="-14.068917">
        <ele>307.387644</ele>
        <time>2023-01-09T00:37:12.523Z</time>
      </trkpt>
      <trkpt lat="28.393520" lon="-14.069609">
        <ele>304.393922</ele>
        <time>2023-01-09T00:37:23.140Z</time>
      </trkpt>
      <trkpt lat="28.393266" lon="-14.070168">
        <ele>301.792026</ele>
        <time>2023-01-09T00:37:31.613Z</time>
      </trkpt>
      <trkpt lat="28.393115" lon="-14.070765">
        <ele>298.986200</ele>
        <time>2023-01-09T00:37:39.842Z</time>
      </trkpt>
      <trkpt lat="28.393132" lon="-14.070930">
        <ele>298.056584</ele>
        <time>2023-01-09T00:37:41.989Z</time>
      </trkpt>
      <trkpt lat="28.393151" lon="-14.071120">
        <ele>296.986537</ele>
        <time>2023-01-09T00:37:44.495Z</time>
      </trkpt>
      <trkpt lat="28.393404" lon="-14.071714">
        <ele>293.293541</ele>
        <time>2023-01-09T00:37:53.087Z</time>
      </trkpt>
      <trkpt lat="28.393441" lon="-14.071796">
        <ele>292.777848</ele>
        <time>2023-01-09T00:37:54.315Z</time>
      </trkpt>
      <trkpt lat="28.393697" lon="-14.072352">
        <ele>289.266213</ele>
        <time>2023-01-09T00:38:02.943Z</time>
      </trkpt>
      <trkpt lat="28.393744" lon="-14.072548">
        <ele>288.328114</ele>
        <time>2023-01-09T00:38:05.755Z</time>
      </trkpt>
      <trkpt lat="28.393829" lon="-14.073446">
        <ele>286.378194</ele>
        <time>2023-01-09T00:38:19.200Z</time>
      </trkpt>
      <trkpt lat="28.393773" lon="-14.073861">
        <ele>285.471755</ele>
        <time>2023-01-09T00:38:25.822Z</time>
      </trkpt>
      <trkpt lat="28.393617" lon="-14.074289">
        <ele>284.471553</ele>
        <time>2023-01-09T00:38:33.635Z</time>
      </trkpt>
      <trkpt lat="28.393646" lon="-14.074706">
        <ele>284.325438</ele>
        <time>2023-01-09T00:38:42.222Z</time>
      </trkpt>
      <trkpt lat="28.393733" lon="-14.075411">
        <ele>285.262460</ele>
        <time>2023-01-09T00:38:59.522Z</time>
      </trkpt>
      <trkpt lat="28.393674" lon="-14.075739">
        <ele>285.703113</ele>
        <time>2023-01-09T00:39:08.083Z</time>
      </trkpt>
      <trkpt lat="28.393432" lon="-14.076693">
        <ele>287.316520</ele>
        <time>2023-01-09T00:39:39.134Z</time>
      </trkpt>
      <trkpt lat="28.393306" lon="-14.077025">
        <ele>288.313398</ele>
        <time>2023-01-09T00:39:51.892Z</time>
      </trkpt>
      <trkpt lat="28.392105" lon="-14.078899">
        <ele>293.001193</ele>
        <time>2023-01-09T00:41:09.986Z</time>
      </trkpt>
      <trkpt lat="28.391933" lon="-14.079078">
        <ele>293.199399</ele>
        <time>2023-01-09T00:41:15.827Z</time>
      </trkpt>
      <trkpt lat="28.391722" lon="-14.079190">
        <ele>293.397328</ele>
        <time>2023-01-09T00:41:21.084Z</time>
      </trkpt>
      <trkpt lat="28.391081" lon="-14.079338">
        <ele>293.827145</ele>
        <time>2023-01-09T00:41:33.734Z</time>
      </trkpt>
      <trkpt lat="28.390715" lon="-14.079316">
        <ele>293.456738</ele>
        <time>2023-01-09T00:41:40.345Z</time>
      </trkpt>
      <trkpt lat="28.390500" lon="-14.079420">
        <ele>293.220598</ele>
        <time>2023-01-09T00:41:44.372Z</time>
      </trkpt>
      <trkpt lat="28.390428" lon="-14.079535">
        <ele>293.095104</ele>
        <time>2023-01-09T00:41:46.666Z</time>
      </trkpt>
      <trkpt lat="28.390433" lon="-14.079801">
        <ele>292.858556</ele>
        <time>2023-01-09T00:41:50.726Z</time>
      </trkpt>
      <trkpt lat="28.390595" lon="-14.080019">
        <ele>292.604842</ele>
        <time>2023-01-09T00:41:55.576Z</time>
      </trkpt>
      <trkpt lat="28.391368" lon="-14.080220">
        <ele>292.827786</ele>
        <time>2023-01-09T00:42:16.661Z</time>
      </trkpt>
      <trkpt lat="28.391516" lon="-14.080372">
        <ele>293.378576</ele>
        <time>2023-01-09T00:42:24.318Z</time>
      </trkpt>
      <trkpt lat="28.391572" lon="-14.080507">
        <ele>293.741156</ele>
        <time>2023-01-09T00:42:28.582Z</time>
      </trkpt>
      <trkpt lat="28.391752" lon="-14.081899">
        <ele>297.146106</ele>
        <time>2023-01-09T00:43:18.191Z</time>
      </trkpt>
      <trkpt lat="28.391738" lon="-14.082164">
        <ele>297.718193</ele>
        <time>2023-01-09T00:43:27.041Z</time>
      </trkpt>
      <trkpt lat="28.391582" lon="-14.082849">
        <ele>299.242987</ele>
        <time>2023-01-09T00:43:50.054Z</time>
      </trkpt>
      <trkpt lat="28.391569" lon="-14.083387">
        <ele>300.402782</ele>
        <time>2023-01-09T00:44:05.236Z</time>
      </trkpt>
      <trkpt lat="28.391526" lon="-14.083598">
        <ele>300.869515</ele>
        <time>2023-01-09T00:44:11.243Z</time>
      </trkpt>
      <trkpt lat="28.391331" lon="-14.083930">
        <ele>301.736465</ele>
        <time>2023-01-09T00:44:21.810Z</time>
      </trkpt>
      <trkpt lat="28.390844" lon="-14.084226">
        <ele>303.121720</ele>
        <time>2023-01-09T00:44:37.958Z</time>
      </trkpt>
      <trkpt lat="28.390707" lon="-14.084250">
        <ele>303.469428</ele>
        <time>2023-01-09T00:44:41.746Z</time>
      </trkpt>
      <trkpt lat="28.390252" lon="-14.084180">
        <ele>304.621156</ele>
        <time>2023-01-09T00:44:57.941Z</time>
      </trkpt>
      <trkpt lat="28.389432" lon="-14.083787">
        <ele>307.579082</ele>
        <time>2023-01-09T00:45:34.524Z</time>
      </trkpt>
      <trkpt lat="28.389169" lon="-14.083778">
        <ele>308.776593</ele>
        <time>2023-01-09T00:45:46.824Z</time>
      </trkpt>
      <trkpt lat="28.389099" lon="-14.083844">
        <ele>309.190510</ele>
        <time>2023-01-09T00:45:51.014Z</time>
      </trkpt>
      <trkpt lat="28.389049" lon="-14.083972">
        <ele>309.751257</ele>
        <time>2023-01-09T00:45:56.860Z</time>
      </trkpt>
      <trkpt lat="28.389079" lon="-14.084529">
        <ele>311.985593</ele>
        <time>2023-01-09T00:46:19.058Z</time>
      </trkpt>
      <trkpt lat="28.389029" lon="-14.084708">
        <ele>312.737547</ele>
        <time>2023-01-09T00:46:26.613Z</time>
      </trkpt>
      <trkpt lat="28.388694" lon="-14.085149">
        <ele>314.985039</ele>
        <time>2023-01-09T00:46:51.092Z</time>
      </trkpt>
      <trkpt lat="28.388447" lon="-14.085291">
        <ele>316.128136</ele>
        <time>2023-01-09T00:47:04.440Z</time>
      </trkpt>
      <trkpt lat="28.388399" lon="-14.085369">
        <ele>316.473971</ele>
        <time>2023-01-09T00:47:08.489Z</time>
      </trkpt>
      <trkpt lat="28.388428" lon="-14.085592">
        <ele>317.292967</ele>
        <time>2023-01-09T00:47:17.634Z</time>
      </trkpt>
      <trkpt lat="28.388531" lon="-14.085825">
        <ele>318.240351</ele>
        <time>2023-01-09T00:47:27.436Z</time>
      </trkpt>
      <trkpt lat="28.388484" lon="-14.086102">
        <ele>319.265279</ele>
        <time>2023-01-09T00:47:37.203Z</time>
      </trkpt>
      <trkpt lat="28.388551" lon="-14.086533">
        <ele>320.855422</ele>
        <time>2023-01-09T00:47:52.004Z</time>
      </trkpt>
      <trkpt lat="28.388528" lon="-14.086661">
        <ele>321.330065</ele>
        <time>2023-01-09T00:47:56.281Z</time>
      </trkpt>
      <trkpt lat="28.388457" lon="-14.086728">
        <ele>321.724834</ele>
        <time>2023-01-09T00:47:59.960Z</time>
      </trkpt>
      <trkpt lat="28.388066" lon="-14.086877">
        <ele>323.600693</ele>
        <time>2023-01-09T00:48:15.571Z</time>
      </trkpt>
      <trkpt lat="28.387994" lon="-14.086974">
        <ele>324.108572</ele>
        <time>2023-01-09T00:48:19.993Z</time>
      </trkpt>
      <trkpt lat="28.387997" lon="-14.087056">
        <ele>324.437002</ele>
        <time>2023-01-09T00:48:22.850Z</time>
      </trkpt>
      <trkpt lat="28.388272" lon="-14.087305">
        <ele>326.036276</ele>
        <time>2023-01-09T00:48:37.772Z</time>
      </trkpt>
      <trkpt lat="28.388331" lon="-14.087464">
        <ele>326.726841</ele>
        <time>2023-01-09T00:48:44.897Z</time>
      </trkpt>
      <trkpt lat="28.388284" lon="-14.087871">
        <ele>328.369531</ele>
        <time>2023-01-09T00:49:02.934Z</time>
      </trkpt>
      <trkpt lat="28.388407" lon="-14.088237">
        <ele>330.011901</ele>
        <time>2023-01-09T00:49:20.701Z</time>
      </trkpt>
      <trkpt lat="28.388353" lon="-14.089241">
        <ele>335.708037</ele>
        <time>2023-01-09T00:50:09.741Z</time>
      </trkpt>
      <trkpt lat="28.388265" lon="-14.089575">
        <ele>337.682438</ele>
        <time>2023-01-09T00:50:27.595Z</time>
      </trkpt>
      <trkpt lat="28.387972" lon="-14.090121">
        <ele>341.304198</ele>
        <time>2023-01-09T00:50:59.436Z</time>
      </trkpt>
      <trkpt lat="28.387972" lon="-14.090558">
        <ele>343.061343</ele>
        <time>2023-01-09T00:51:18.916Z</time>
      </trkpt>
      <trkpt lat="28.387932" lon="-14.090732">
        <ele>343.780670</ele>
        <time>2023-01-09T00:51:26.203Z</time>
      </trkpt>
      <trkpt lat="28.387899" lon="-14.090821">
        <ele>344.166974</ele>
        <time>2023-01-09T00:51:29.873Z</time>
      </trkpt>
      <trkpt lat="28.387601" lon="-14.091637">
        <ele>347.700821</ele>
        <time>2023-01-09T00:52:00.191Z</time>
      </trkpt>
      <trkpt lat="28.387210" lon="-14.092148">
        <ele>350.716359</ele>
        <time>2023-01-09T00:52:25.628Z</time>
      </trkpt>
      <trkpt lat="28.386995" lon="-14.092286">
        <ele>352.223048</ele>
        <time>2023-01-09T00:52:37.614Z</time>
      </trkpt>
      <trkpt lat="28.385750" lon="-14.091797">
        <ele>360.261036</ele>
        <time>2023-01-09T00:53:52.005Z</time>
      </trkpt>
      <trkpt lat="28.385563" lon="-14.091563">
        <ele>361.537604</ele>
        <time>2023-01-09T00:54:08.118Z</time>
      </trkpt>
      <trkpt lat="28.385428" lon="-14.091154">
        <ele>363.211526</ele>
        <time>2023-01-09T00:54:28.322Z</time>
      </trkpt>
      <trkpt lat="28.385355" lon="-14.091067">
        <ele>363.672217</ele>
        <time>2023-01-09T00:54:33.030Z</time>
      </trkpt>
      <trkpt lat="28.385248" lon="-14.091036">
        <ele>364.153165</ele>
        <time>2023-01-09T00:54:38.460Z</time>
      </trkpt>
      <trkpt lat="28.385035" lon="-14.091067">
        <ele>365.088477</ele>
        <time>2023-01-09T00:54:47.566Z</time>
      </trkpt>
      <trkpt lat="28.384528" lon="-14.090762">
        <ele>367.586965</ele>
        <time>2023-01-09T00:55:10.865Z</time>
      </trkpt>
      <trkpt lat="28.384085" lon="-14.090930">
        <ele>368.625301</ele>
        <time>2023-01-09T00:55:23.265Z</time>
      </trkpt>
      <trkpt lat="28.383466" lon="-14.090908">
        <ele>369.253548</ele>
        <time>2023-01-09T00:55:36.690Z</time>
      </trkpt>
      <trkpt lat="28.383384" lon="-14.090754">
        <ele>369.414205</ele>
        <time>2023-01-09T00:55:40.998Z</time>
      </trkpt>
      <trkpt lat="28.383418" lon="-14.090532">
        <ele>369.615318</ele>
        <time>2023-01-09T00:55:45.531Z</time>
      </trkpt>
      <trkpt lat="28.383366" lon="-14.090365">
        <ele>369.773424</ele>
        <time>2023-01-09T00:55:50.082Z</time>
      </trkpt>
      <trkpt lat="28.382975" lon="-14.090383">
        <ele>370.254676</ele>
        <time>2023-01-09T00:56:01.116Z</time>
      </trkpt>
      <trkpt lat="28.382776" lon="-14.090296">
        <ele>371.270325</ele>
        <time>2023-01-09T00:56:07.717Z</time>
      </trkpt>
      <trkpt lat="28.382624" lon="-14.090118">
        <ele>372.309921</ele>
        <time>2023-01-09T00:56:15.759Z</time>
      </trkpt>
      <trkpt lat="28.382546" lon="-14.089735">
        <ele>373.957494</ele>
        <time>2023-01-09T00:56:29.711Z</time>
      </trkpt>
      <trkpt lat="28.382476" lon="-14.089657">
        <ele>374.424449</ele>
        <time>2023-01-09T00:56:33.691Z</time>
      </trkpt>
      <trkpt lat="28.381891" lon="-14.089415">
        <ele>377.389951</ele>
        <time>2023-01-09T00:57:04.222Z</time>
      </trkpt>
      <trkpt lat="28.381749" lon="-14.089085">
        <ele>379.233630</ele>
        <time>2023-01-09T00:57:24.279Z</time>
      </trkpt>
      <trkpt lat="28.381259" lon="-14.088528">
        <ele>387.225744</ele>
        <time>2023-01-09T00:58:14.152Z</time>
      </trkpt>
      <trkpt lat="28.380924" lon="-14.088214">
        <ele>392.233405</ele>
        <time>2023-01-09T00:58:52.251Z</time>
      </trkpt>
      <trkpt lat="28.379862" lon="-14.087385">
        <ele>406.791123</ele>
        <time>2023-01-09T01:00:48.914Z</time>
      </trkpt>
      <trkpt lat="28.379598" lon="-14.087203">
        <ele>410.211951</ele>
        <time>2023-01-09T01:01:15.763Z</time>
      </trkpt>
      <trkpt lat="28.379425" lon="-14.087243">
        <ele>412.167879</ele>
        <time>2023-01-09T01:01:28.317Z</time>
      </trkpt>
      <trkpt lat="28.379137" lon="-14.088169">
        <ele>420.385899</ele>
        <time>2023-01-09T01:02:25.274Z</time>
      </trkpt>
      <trkpt lat="28.378920" lon="-14.088303">
        <ele>421.547465</ele>
        <time>2023-01-09T01:02:37.210Z</time>
      </trkpt>
      <trkpt lat="28.378920" lon="-14.088303">
        <ele>421.547465</ele>
        <time>2023-01-09T01:02:37.530Z</time>
      </trkpt>
      <trkpt lat="28.378843" lon="-14.088460">
        <ele>422.291294</ele>
        <time>2023-01-09T01:02:44.935Z</time>
      </trkpt>
      <trkpt lat="28.378863" lon="-14.088579">
        <ele>422.792649</ele>
        <time>2023-01-09T01:02:48.331Z</time>
      </trkpt>
      <trkpt lat="28.378941" lon="-14.089061">
        <ele>424.820740</ele>
        <time>2023-01-09T01:03:04.221Z</time>
      </trkpt>
      <trkpt lat="28.378802" lon="-14.089852">
        <ele>428.033616</ele>
        <time>2023-01-09T01:03:33.035Z</time>
      </trkpt>
      <trkpt lat="28.378810" lon="-14.089956">
        <ele>428.292938</ele>
        <time>2023-01-09T01:03:37.871Z</time>
      </trkpt>
      <trkpt lat="28.379064" lon="-14.090431">
        <ele>429.673670</ele>
        <time>2023-01-09T01:03:55.565Z</time>
      </trkpt>
      <trkpt lat="28.378868" lon="-14.091079">
        <ele>431.375765</ele>
        <time>2023-01-09T01:04:18.763Z</time>
      </trkpt>
      <trkpt lat="28.378944" lon="-14.091346">
        <ele>432.072839</ele>
        <time>2023-01-09T01:04:27.272Z</time>
      </trkpt>
      <trkpt lat="28.378967" lon="-14.092272">
        <ele>432.542285</ele>
        <time>2023-01-09T01:04:51.746Z</time>
      </trkpt>
      <trkpt lat="28.379027" lon="-14.092678">
        <ele>432.273217</ele>
        <time>2023-01-09T01:05:00.721Z</time>
      </trkpt>
      <trkpt lat="28.379162" lon="-14.093053">
        <ele>432.008404</ele>
        <time>2023-01-09T01:05:07.261Z</time>
      </trkpt>
      <trkpt lat="28.379113" lon="-14.093465">
        <ele>431.736683</ele>
        <time>2023-01-09T01:05:13.518Z</time>
      </trkpt>
      <trkpt lat="28.379350" lon="-14.094298">
        <ele>430.891860</ele>
        <time>2023-01-09T01:05:26.828Z</time>
      </trkpt>
      <trkpt lat="28.379310" lon="-14.094709">
        <ele>430.447501</ele>
        <time>2023-01-09T01:05:33.223Z</time>
      </trkpt>
      <trkpt lat="28.379265" lon="-14.094794">
        <ele>430.340898</ele>
        <time>2023-01-09T01:05:34.780Z</time>
      </trkpt>
      <trkpt lat="28.379116" lon="-14.094875">
        <ele>430.139165</ele>
        <time>2023-01-09T01:05:37.885Z</time>
      </trkpt>
      <trkpt lat="28.378836" lon="-14.094793">
        <ele>429.786003</ele>
        <time>2023-01-09T01:05:44.195Z</time>
      </trkpt>
      <trkpt lat="28.378136" lon="-14.094272">
        <ele>431.338199</ele>
        <time>2023-01-09T01:06:11.169Z</time>
      </trkpt>
      <trkpt lat="28.377509" lon="-14.093924">
        <ele>433.985825</ele>
        <time>2023-01-09T01:06:45.888Z</time>
      </trkpt>
      <trkpt lat="28.377287" lon="-14.093739">
        <ele>435.030350</ele>
        <time>2023-01-09T01:06:59.018Z</time>
      </trkpt>
      <trkpt lat="28.376897" lon="-14.093598">
        <ele>436.203883</ele>
        <time>2023-01-09T01:07:16.697Z</time>
      </trkpt>
      <trkpt lat="28.376335" lon="-14.093269">
        <ele>436.126815</ele>
        <time>2023-01-09T01:07:39.133Z</time>
      </trkpt>
      <trkpt lat="28.376176" lon="-14.093334">
        <ele>436.106215</ele>
        <time>2023-01-09T01:07:43.562Z</time>
      </trkpt>
      <trkpt lat="28.375789" lon="-14.094217">
        <ele>436.000401</ele>
        <time>2023-01-09T01:07:59.244Z</time>
      </trkpt>
      <trkpt lat="28.375783" lon="-14.094326">
        <ele>435.649146</ele>
        <time>2023-01-09T01:08:00.799Z</time>
      </trkpt>
      <trkpt lat="28.376009" lon="-14.094972">
        <ele>432.299408</ele>
        <time>2023-01-09T01:08:10.264Z</time>
      </trkpt>
      <trkpt lat="28.376024" lon="-14.095163">
        <ele>431.375431</ele>
        <time>2023-01-09T01:08:12.877Z</time>
      </trkpt>
      <trkpt lat="28.375950" lon="-14.095444">
        <ele>429.962108</ele>
        <time>2023-01-09T01:08:16.802Z</time>
      </trkpt>
      <trkpt lat="28.375806" lon="-14.095651">
        <ele>428.690601</ele>
        <time>2023-01-09T01:08:20.432Z</time>
      </trkpt>
      <trkpt lat="28.375692" lon="-14.096215">
        <ele>425.864738</ele>
        <time>2023-01-09T01:08:28.212Z</time>
      </trkpt>
      <trkpt lat="28.375716" lon="-14.096335">
        <ele>425.180723</ele>
        <time>2023-01-09T01:08:29.951Z</time>
      </trkpt>
      <trkpt lat="28.375869" lon="-14.096591">
        <ele>423.460559</ele>
        <time>2023-01-09T01:08:34.137Z</time>
      </trkpt>
      <trkpt lat="28.376247" lon="-14.096901">
        <ele>420.515841</ele>
        <time>2023-01-09T01:08:41.260Z</time>
      </trkpt>
      <trkpt lat="28.376372" lon="-14.097178">
        <ele>418.785495</ele>
        <time>2023-01-09T01:08:45.351Z</time>
      </trkpt>
      <trkpt lat="28.376415" lon="-14.097395">
        <ele>417.549133</ele>
        <time>2023-01-09T01:08:48.309Z</time>
      </trkpt>
      <trkpt lat="28.376297" lon="-14.097807">
        <ele>415.140839</ele>
        <time>2023-01-09T01:08:54.140Z</time>
      </trkpt>
      <trkpt lat="28.376389" lon="-14.098230">
        <ele>412.411700</ele>
        <time>2023-01-09T01:09:00.067Z</time>
      </trkpt>
      <trkpt lat="28.376711" lon="-14.098634">
        <ele>408.930954</ele>
        <time>2023-01-09T01:09:07.323Z</time>
      </trkpt>
      <trkpt lat="28.376982" lon="-14.098785">
        <ele>406.740589</ele>
        <time>2023-01-09T01:09:11.844Z</time>
      </trkpt>
      <trkpt lat="28.377191" lon="-14.099123">
        <ele>404.102680</ele>
        <time>2023-01-09T01:09:17.196Z</time>
      </trkpt>
      <trkpt lat="28.377295" lon="-14.099534">
        <ele>401.331832</ele>
        <time>2023-01-09T01:09:22.634Z</time>
      </trkpt>
      <trkpt lat="28.377334" lon="-14.100432">
        <ele>394.948006</ele>
        <time>2023-01-09T01:09:34.149Z</time>
      </trkpt>
      <trkpt lat="28.377477" lon="-14.100946">
        <ele>391.120352</ele>
        <time>2023-01-09T01:09:41.160Z</time>
      </trkpt>
      <trkpt lat="28.377490" lon="-14.101330">
        <ele>388.391826</ele>
        <time>2023-01-09T01:09:46.155Z</time>
      </trkpt>
      <trkpt lat="28.377680" lon="-14.102063">
        <ele>382.955010</ele>
        <time>2023-01-09T01:09:56.045Z</time>
      </trkpt>
      <trkpt lat="28.377599" lon="-14.102441">
        <ele>380.185404</ele>
        <time>2023-01-09T01:10:01.084Z</time>
      </trkpt>
      <trkpt lat="28.377429" lon="-14.102701">
        <ele>377.879347</ele>
        <time>2023-01-09T01:10:05.302Z</time>
      </trkpt>
      <trkpt lat="28.377258" lon="-14.102811">
        <ele>376.289521</ele>
        <time>2023-01-09T01:10:08.185Z</time>
      </trkpt>
      <trkpt lat="28.376110" lon="-14.103072">
        <ele>367.770693</ele>
        <time>2023-01-09T01:10:25.141Z</time>
      </trkpt>
      <trkpt lat="28.375484" lon="-14.103022">
        <ele>363.521719</ele>
        <time>2023-01-09T01:10:34.388Z</time>
      </trkpt>
      <trkpt lat="28.374543" lon="-14.102707">
        <ele>360.552535</ele>
        <time>2023-01-09T01:10:51.223Z</time>
      </trkpt>
      <trkpt lat="28.374240" lon="-14.102489">
        <ele>360.598861</ele>
        <time>2023-01-09T01:11:00.108Z</time>
      </trkpt>
      <trkpt lat="28.374082" lon="-14.102269">
        <ele>360.631140</ele>
        <time>2023-01-09T01:11:09.517Z</time>
      </trkpt>
      <trkpt lat="28.373750" lon="-14.101387">
        <ele>360.148714</ele>
        <time>2023-01-09T01:11:37.714Z</time>
      </trkpt>
      <trkpt lat="28.373519" lon="-14.101222">
        <ele>359.317258</ele>
        <time>2023-01-09T01:11:47.142Z</time>
      </trkpt>
      <trkpt lat="28.373319" lon="-14.101241">
        <ele>358.705635</ele>
        <time>2023-01-09T01:11:51.832Z</time>
      </trkpt>
      <trkpt lat="28.373115" lon="-14.101793">
        <ele>357.100242</ele>
        <time>2023-01-09T01:12:01.185Z</time>
      </trkpt>
      <trkpt lat="28.372738" lon="-14.103482">
        <ele>347.470118</ele>
        <time>2023-01-09T01:12:23.447Z</time>
      </trkpt>
      <trkpt lat="28.372671" lon="-14.103953">
        <ele>343.931086</ele>
        <time>2023-01-09T01:12:29.391Z</time>
      </trkpt>
      <trkpt lat="28.372525" lon="-14.104386">
        <ele>340.491523</ele>
        <time>2023-01-09T01:12:35.317Z</time>
      </trkpt>
      <trkpt lat="28.372231" lon="-14.104703">
        <ele>339.618330</ele>
        <time>2023-01-09T01:12:41.458Z</time>
      </trkpt>
      <trkpt lat="28.371818" lon="-14.104829">
        <ele>339.072828</ele>
        <time>2023-01-09T01:12:48.466Z</time>
      </trkpt>
      <trkpt lat="28.371550" lon="-14.104739">
        <ele>338.716337</ele>
        <time>2023-01-09T01:12:53.784Z</time>
      </trkpt>
      <trkpt lat="28.371448" lon="-14.104645">
        <ele>338.548817</ele>
        <time>2023-01-09T01:12:57.142Z</time>
      </trkpt>
      <trkpt lat="28.371175" lon="-14.103931">
        <ele>338.076048</ele>
        <time>2023-01-09T01:13:25.976Z</time>
      </trkpt>
      <trkpt lat="28.370730" lon="-14.103409">
        <ele>340.457779</ele>
        <time>2023-01-09T01:13:59.515Z</time>
      </trkpt>
      <trkpt lat="28.370351" lon="-14.102872">
        <ele>342.713646</ele>
        <time>2023-01-09T01:14:30.117Z</time>
      </trkpt>
      <trkpt lat="28.370144" lon="-14.102766">
        <ele>343.559210</ele>
        <time>2023-01-09T01:14:37.272Z</time>
      </trkpt>
      <trkpt lat="28.370035" lon="-14.102786">
        <ele>343.970410</ele>
        <time>2023-01-09T01:14:41.573Z</time>
      </trkpt>
      <trkpt lat="28.369937" lon="-14.102956">
        <ele>344.338466</ele>
        <time>2023-01-09T01:14:44.916Z</time>
      </trkpt>
      <trkpt lat="28.369983" lon="-14.103917">
        <ele>341.636855</ele>
        <time>2023-01-09T01:14:59.970Z</time>
      </trkpt>
      <trkpt lat="28.369945" lon="-14.104330">
        <ele>340.471202</ele>
        <time>2023-01-09T01:15:05.820Z</time>
      </trkpt>
      <trkpt lat="28.369598" lon="-14.105411">
        <ele>337.662442</ele>
        <time>2023-01-09T01:15:21.702Z</time>
      </trkpt>
      <trkpt lat="28.369477" lon="-14.105571">
        <ele>337.236932</ele>
        <time>2023-01-09T01:15:24.769Z</time>
      </trkpt>
      <trkpt lat="28.369321" lon="-14.105642">
        <ele>336.851748</ele>
        <time>2023-01-09T01:15:27.863Z</time>
      </trkpt>
      <trkpt lat="28.369180" lon="-14.105657">
        <ele>336.527141</ele>
        <time>2023-01-09T01:15:30.392Z</time>
      </trkpt>
      <trkpt lat="28.369025" lon="-14.105608">
        <ele>336.158368</ele>
        <time>2023-01-09T01:15:34.376Z</time>
      </trkpt>
      <trkpt lat="28.368796" lon="-14.105481">
        <ele>335.574301</ele>
        <time>2023-01-09T01:15:39.653Z</time>
      </trkpt>
      <trkpt lat="28.368513" lon="-14.105231">
        <ele>334.752701</ele>
        <time>2023-01-09T01:15:47.650Z</time>
      </trkpt>
      <trkpt lat="28.368244" lon="-14.104746">
        <ele>332.825306</ele>
        <time>2023-01-09T01:15:59.141Z</time>
      </trkpt>
      <trkpt lat="28.368155" lon="-14.104720">
        <ele>332.455226</ele>
        <time>2023-01-09T01:16:00.833Z</time>
      </trkpt>
      <trkpt lat="28.368051" lon="-14.104763">
        <ele>332.009532</ele>
        <time>2023-01-09T01:16:02.953Z</time>
      </trkpt>
      <trkpt lat="28.367975" lon="-14.104871">
        <ele>331.519479</ele>
        <time>2023-01-09T01:16:05.322Z</time>
      </trkpt>
      <trkpt lat="28.367843" lon="-14.105268">
        <ele>330.015557</ele>
        <time>2023-01-09T01:16:11.291Z</time>
      </trkpt>
      <trkpt lat="28.367559" lon="-14.106972">
        <ele>322.289636</ele>
        <time>2023-01-09T01:16:33.815Z</time>
      </trkpt>
      <trkpt lat="28.367364" lon="-14.107337">
        <ele>320.093613</ele>
        <time>2023-01-09T01:16:39.570Z</time>
      </trkpt>
      <trkpt lat="28.367068" lon="-14.107478">
        <ele>318.217776</ele>
        <time>2023-01-09T01:16:44.757Z</time>
      </trkpt>
      <trkpt lat="28.366710" lon="-14.107424">
        <ele>316.826806</ele>
        <time>2023-01-09T01:16:51.145Z</time>
      </trkpt>
      <trkpt lat="28.366325" lon="-14.107434">
        <ele>316.730513</ele>
        <time>2023-01-09T01:16:58.776Z</time>
      </trkpt>
      <trkpt lat="28.366117" lon="-14.107405">
        <ele>316.678113</ele>
        <time>2023-01-09T01:17:03.775Z</time>
      </trkpt>
      <trkpt lat="28.365997" lon="-14.107337">
        <ele>316.644584</ele>
        <time>2023-01-09T01:17:06.561Z</time>
      </trkpt>
      <trkpt lat="28.365791" lon="-14.107034">
        <ele>316.560336</ele>
        <time>2023-01-09T01:17:15.036Z</time>
      </trkpt>
      <trkpt lat="28.365716" lon="-14.106745">
        <ele>316.494041</ele>
        <time>2023-01-09T01:17:23.625Z</time>
      </trkpt>
      <trkpt lat="28.365693" lon="-14.106348">
        <ele>316.385038</ele>
        <time>2023-01-09T01:17:33.908Z</time>
      </trkpt>
      <trkpt lat="28.365648" lon="-14.106280">
        <ele>316.219015</ele>
        <time>2023-01-09T01:17:35.759Z</time>
      </trkpt>
      <trkpt lat="28.365495" lon="-14.106235">
        <ele>315.868554</ele>
        <time>2023-01-09T01:17:39.686Z</time>
      </trkpt>
      <trkpt lat="28.364999" lon="-14.106764">
        <ele>314.360150</ele>
        <time>2023-01-09T01:17:53.710Z</time>
      </trkpt>
      <trkpt lat="28.363621" lon="-14.107071">
        <ele>309.155680</ele>
        <time>2023-01-09T01:18:16.331Z</time>
      </trkpt>
      <trkpt lat="28.362216" lon="-14.107911">
        <ele>299.479781</ele>
        <time>2023-01-09T01:18:40.162Z</time>
      </trkpt>
      <trkpt lat="28.361218" lon="-14.108410">
        <ele>293.138512</ele>
        <time>2023-01-09T01:18:57.002Z</time>
      </trkpt>
      <trkpt lat="28.360820" lon="-14.108529">
        <ele>290.715074</ele>
        <time>2023-01-09T01:19:03.722Z</time>
      </trkpt>
      <trkpt lat="28.360380" lon="-14.108583">
        <ele>287.533260</ele>
        <time>2023-01-09T01:19:10.809Z</time>
      </trkpt>
      <trkpt lat="28.359927" lon="-14.108563">
        <ele>284.273919</ele>
        <time>2023-01-09T01:19:17.825Z</time>
      </trkpt>
      <trkpt lat="28.359852" lon="-14.108617">
        <ele>283.635580</ele>
        <time>2023-01-09T01:19:19.168Z</time>
      </trkpt>
      <trkpt lat="28.359661" lon="-14.108989">
        <ele>280.910722</ele>
        <time>2023-01-09T01:19:24.856Z</time>
      </trkpt>
      <trkpt lat="28.358543" lon="-14.110143">
        <ele>265.666108</ele>
        <time>2023-01-09T01:19:45.970Z</time>
      </trkpt>
      <trkpt lat="28.358438" lon="-14.110319">
        <ele>263.572860</ele>
        <time>2023-01-09T01:19:48.511Z</time>
      </trkpt>
      <trkpt lat="28.357955" lon="-14.111625">
        <ele>252.217119</ele>
        <time>2023-01-09T01:20:05.918Z</time>
      </trkpt>
      <trkpt lat="28.357643" lon="-14.112134">
        <ele>248.041400</ele>
        <time>2023-01-09T01:20:14.110Z</time>
      </trkpt>
      <trkpt lat="28.357525" lon="-14.112251">
        <ele>246.843437</ele>
        <time>2023-01-09T01:20:16.556Z</time>
      </trkpt>
      <trkpt lat="28.357375" lon="-14.112300">
        <ele>245.649522</ele>
        <time>2023-01-09T01:20:19.199Z</time>
      </trkpt>
      <trkpt lat="28.357211" lon="-14.112288">
        <ele>244.392384</ele>
        <time>2023-01-09T01:20:21.849Z</time>
      </trkpt>
      <trkpt lat="28.357112" lon="-14.112226">
        <ele>243.842538</ele>
        <time>2023-01-09T01:20:23.854Z</time>
      </trkpt>
      <trkpt lat="28.357064" lon="-14.112109">
        <ele>243.487575</ele>
        <time>2023-01-09T01:20:25.982Z</time>
      </trkpt>
      <trkpt lat="28.357093" lon="-14.111656">
        <ele>242.238651</ele>
        <time>2023-01-09T01:20:33.535Z</time>
      </trkpt>
      <trkpt lat="28.357273" lon="-14.111187">
        <ele>240.831711</ele>
        <time>2023-01-09T01:20:42.291Z</time>
      </trkpt>
      <trkpt lat="28.357238" lon="-14.110939">
        <ele>240.141062</ele>
        <time>2023-01-09T01:20:46.421Z</time>
      </trkpt>
      <trkpt lat="28.357148" lon="-14.110849">
        <ele>239.766455</ele>
        <time>2023-01-09T01:20:48.327Z</time>
      </trkpt>
      <trkpt lat="28.356146" lon="-14.110866">
        <ele>235.382657</ele>
        <time>2023-01-09T01:21:04.067Z</time>
      </trkpt>
      <trkpt lat="28.355346" lon="-14.110949">
        <ele>231.130296</ele>
        <time>2023-01-09T01:21:16.359Z</time>
      </trkpt>
      <trkpt lat="28.354765" lon="-14.110857">
        <ele>228.672019</ele>
        <time>2023-01-09T01:21:25.806Z</time>
      </trkpt>
      <trkpt lat="28.354487" lon="-14.110692">
        <ele>228.213623</ele>
        <time>2023-01-09T01:21:30.948Z</time>
      </trkpt>
      <trkpt lat="28.354327" lon="-14.110422">
        <ele>227.794953</ele>
        <time>2023-01-09T01:21:36.049Z</time>
      </trkpt>
      <trkpt lat="28.354390" lon="-14.109982">
        <ele>227.221582</ele>
        <time>2023-01-09T01:21:44.381Z</time>
      </trkpt>
      <trkpt lat="28.354720" lon="-14.109456">
        <ele>226.390719</ele>
        <time>2023-01-09T01:22:00.746Z</time>
      </trkpt>
      <trkpt lat="28.355134" lon="-14.108966">
        <ele>224.977469</ele>
        <time>2023-01-09T01:22:15.118Z</time>
      </trkpt>
      <trkpt lat="28.355110" lon="-14.108856">
        <ele>224.729948</ele>
        <time>2023-01-09T01:22:17.245Z</time>
      </trkpt>
      <trkpt lat="28.354978" lon="-14.108780">
        <ele>224.362694</ele>
        <time>2023-01-09T01:22:20.100Z</time>
      </trkpt>
      <trkpt lat="28.354729" lon="-14.108801">
        <ele>223.743018</ele>
        <time>2023-01-09T01:22:24.785Z</time>
      </trkpt>
      <trkpt lat="28.352957" lon="-14.109362">
        <ele>216.103011</ele>
        <time>2023-01-09T01:22:53.586Z</time>
      </trkpt>
      <trkpt lat="28.352470" lon="-14.109724">
        <ele>212.981902</ele>
        <time>2023-01-09T01:23:02.544Z</time>
      </trkpt>
      <trkpt lat="28.352152" lon="-14.109858">
        <ele>211.959292</ele>
        <time>2023-01-09T01:23:07.911Z</time>
      </trkpt>
      <trkpt lat="28.351974" lon="-14.109859">
        <ele>211.752528</ele>
        <time>2023-01-09T01:23:10.881Z</time>
      </trkpt>
      <trkpt lat="28.351835" lon="-14.109716">
        <ele>211.534726</ele>
        <time>2023-01-09T01:23:13.925Z</time>
      </trkpt>
      <trkpt lat="28.351780" lon="-14.109261">
        <ele>211.065238</ele>
        <time>2023-01-09T01:23:21.236Z</time>
      </trkpt>
      <trkpt lat="28.351768" lon="-14.109158">
        <ele>210.959028</ele>
        <time>2023-01-09T01:23:23.276Z</time>
      </trkpt>
      <trkpt lat="28.351714" lon="-14.109068">
        <ele>210.847678</ele>
        <time>2023-01-09T01:23:25.536Z</time>
      </trkpt>
      <trkpt lat="28.351544" lon="-14.108963">
        <ele>210.622923</ele>
        <time>2023-01-09T01:23:30.394Z</time>
      </trkpt>
      <trkpt lat="28.351362" lon="-14.108884">
        <ele>210.396616</ele>
        <time>2023-01-09T01:23:37.824Z</time>
      </trkpt>
      <trkpt lat="28.351094" lon="-14.108638">
        <ele>210.219176</ele>
        <time>2023-01-09T01:23:51.040Z</time>
      </trkpt>
      <trkpt lat="28.350974" lon="-14.108461">
        <ele>210.533355</ele>
        <time>2023-01-09T01:23:58.430Z</time>
      </trkpt>
      <trkpt lat="28.350601" lon="-14.107650">
        <ele>211.820091</ele>
        <time>2023-01-09T01:24:24.224Z</time>
      </trkpt>
      <trkpt lat="28.350584" lon="-14.107582">
        <ele>211.919493</ele>
        <time>2023-01-09T01:24:26.228Z</time>
      </trkpt>
      <trkpt lat="28.350575" lon="-14.107508">
        <ele>212.024537</ele>
        <time>2023-01-09T01:24:28.267Z</time>
      </trkpt>
      <trkpt lat="28.350676" lon="-14.107006">
        <ele>212.748641</ele>
        <time>2023-01-09T01:24:40.025Z</time>
      </trkpt>
      <trkpt lat="28.350778" lon="-14.106793">
        <ele>212.919707</ele>
        <time>2023-01-09T01:24:45.346Z</time>
      </trkpt>
      <trkpt lat="28.351069" lon="-14.106173">
        <ele>212.570557</ele>
        <time>2023-01-09T01:24:58.745Z</time>
      </trkpt>
      <trkpt lat="28.351502" lon="-14.105881">
        <ele>212.286264</ele>
        <time>2023-01-09T01:25:08.889Z</time>
      </trkpt>
      <trkpt lat="28.351172" lon="-14.105395">
        <ele>211.981250</ele>
        <time>2023-01-09T01:25:22.526Z</time>
      </trkpt>
      <trkpt lat="28.351035" lon="-14.104944">
        <ele>212.391087</ele>
        <time>2023-01-09T01:25:37.188Z</time>
      </trkpt>
      <trkpt lat="28.351044" lon="-14.104817">
        <ele>212.528196</ele>
        <time>2023-01-09T01:25:41.838Z</time>
      </trkpt>
      <trkpt lat="28.351315" lon="-14.104399">
        <ele>213.086894</ele>
        <time>2023-01-09T01:26:02.157Z</time>
      </trkpt>
      <trkpt lat="28.351406" lon="-14.104182">
        <ele>213.345567</ele>
        <time>2023-01-09T01:26:12.444Z</time>
      </trkpt>
      <trkpt lat="28.351487" lon="-14.103561">
        <ele>214.021133</ele>
        <time>2023-01-09T01:26:39.298Z</time>
      </trkpt>
      <trkpt lat="28.351487" lon="-14.103560">
        <ele>214.022209</ele>
        <time>2023-01-09T01:26:39.378Z</time>
      </trkpt>
      <trkpt lat="28.351430" lon="-14.103234">
        <ele>214.686042</ele>
        <time>2023-01-09T01:26:53.837Z</time>
      </trkpt>
      <trkpt lat="28.351061" lon="-14.103158">
        <ele>215.749750</ele>
        <time>2023-01-09T01:27:06.965Z</time>
      </trkpt>
      <trkpt lat="28.350836" lon="-14.103002">
        <ele>216.497377</ele>
        <time>2023-01-09T01:27:16.571Z</time>
      </trkpt>
      <trkpt lat="28.350512" lon="-14.102711">
        <ele>217.668808</ele>
        <time>2023-01-09T01:27:32.161Z</time>
      </trkpt>
      <trkpt lat="28.350212" lon="-14.102329">
        <ele>218.946849</ele>
        <time>2023-01-09T01:27:50.684Z</time>
      </trkpt>
      <trkpt lat="28.350081" lon="-14.101907">
        <ele>220.105956</ele>
        <time>2023-01-09T01:28:06.055Z</time>
      </trkpt>
      <trkpt lat="28.349688" lon="-14.101381">
        <ele>221.917361</ele>
        <time>2023-01-09T01:28:28.923Z</time>
      </trkpt>
      <trkpt lat="28.349477" lon="-14.100928">
        <ele>223.262897</ele>
        <time>2023-01-09T01:28:46.603Z</time>
      </trkpt>
      <trkpt lat="28.348940" lon="-14.100490">
        <ele>225.117781</ele>
        <time>2023-01-09T01:29:10.982Z</time>
      </trkpt>
      <trkpt lat="28.348776" lon="-14.100475">
        <ele>225.515936</ele>
        <time>2023-01-09T01:29:16.762Z</time>
      </trkpt>
      <trkpt lat="28.348325" lon="-14.100137">
        <ele>226.823353</ele>
        <time>2023-01-09T01:29:35.647Z</time>
      </trkpt>
      <trkpt lat="28.348173" lon="-14.100191">
        <ele>227.208746</ele>
        <time>2023-01-09T01:29:40.920Z</time>
      </trkpt>
      <trkpt lat="28.347889" lon="-14.100178">
        <ele>227.896570</ele>
        <time>2023-01-09T01:29:50.201Z</time>
      </trkpt>
      <trkpt lat="28.346273" lon="-14.099695">
        <ele>232.369668</ele>
        <time>2023-01-09T01:30:50.725Z</time>
      </trkpt>
      <trkpt lat="28.345926" lon="-14.099695">
        <ele>233.330699</ele>
        <time>2023-01-09T01:31:04.508Z</time>
      </trkpt>
      <trkpt lat="28.345436" lon="-14.099592">
        <ele>234.707821</ele>
        <time>2023-01-09T01:31:23.728Z</time>
      </trkpt>
      <trkpt lat="28.345322" lon="-14.099634">
        <ele>235.038432</ele>
        <time>2023-01-09T01:31:28.495Z</time>
      </trkpt>
      <trkpt lat="28.344903" lon="-14.100029">
        <ele>236.540380</ele>
        <time>2023-01-09T01:31:56.822Z</time>
      </trkpt>
      <trkpt lat="28.344393" lon="-14.100627">
        <ele>238.562145</ele>
        <time>2023-01-09T01:32:34.073Z</time>
      </trkpt>
      <trkpt lat="28.344216" lon="-14.100998">
        <ele>239.283188</ele>
        <time>2023-01-09T01:32:51.732Z</time>
      </trkpt>
      <trkpt lat="28.344150" lon="-14.101071">
        <ele>239.423136</ele>
        <time>2023-01-09T01:32:55.868Z</time>
      </trkpt>
      <trkpt lat="28.342800" lon="-14.101603">
        <ele>241.594182</ele>
        <time>2023-01-09T01:33:56.483Z</time>
      </trkpt>
      <trkpt lat="28.342008" lon="-14.101829">
        <ele>243.632479</ele>
        <time>2023-01-09T01:34:36.260Z</time>
      </trkpt>
      <trkpt lat="28.341404" lon="-14.101866">
        <ele>245.166950</ele>
        <time>2023-01-09T01:35:06.584Z</time>
      </trkpt>
      <trkpt lat="28.340995" lon="-14.102000">
        <ele>246.251077</ele>
        <time>2023-01-09T01:35:29.212Z</time>
      </trkpt>
      <trkpt lat="28.340244" lon="-14.102482">
        <ele>248.673304</ele>
        <time>2023-01-09T01:36:16.024Z</time>
      </trkpt>
      <trkpt lat="28.339405" lon="-14.102752">
        <ele>251.122119</ele>
        <time>2023-01-09T01:36:59.920Z</time>
      </trkpt>
      <trkpt lat="28.339201" lon="-14.102923">
        <ele>251.593853</ele>
        <time>2023-01-09T01:37:11.182Z</time>
      </trkpt>
      <trkpt lat="28.338996" lon="-14.103189">
        <ele>252.103509</ele>
        <time>2023-01-09T01:37:24.975Z</time>
      </trkpt>
      <trkpt lat="28.338576" lon="-14.103507">
        <ele>252.930121</ele>
        <time>2023-01-09T01:37:47.515Z</time>
      </trkpt>
      <trkpt lat="28.338493" lon="-14.103519">
        <ele>253.067153</ele>
        <time>2023-01-09T01:37:51.201Z</time>
      </trkpt>
      <trkpt lat="28.338207" lon="-14.103403">
        <ele>253.564510</ele>
        <time>2023-01-09T01:38:04.705Z</time>
      </trkpt>
      <trkpt lat="28.337919" lon="-14.102998">
        <ele>254.337978</ele>
        <time>2023-01-09T01:38:24.916Z</time>
      </trkpt>
      <trkpt lat="28.337652" lon="-14.102757">
        <ele>255.011275</ele>
        <time>2023-01-09T01:38:40.259Z</time>
      </trkpt>
      <trkpt lat="28.336898" lon="-14.102794">
        <ele>256.501404</ele>
        <time>2023-01-09T01:39:15.777Z</time>
      </trkpt>
      <trkpt lat="28.335849" lon="-14.102551">
        <ele>258.966457</ele>
        <time>2023-01-09T01:40:07.969Z</time>
      </trkpt>
      <trkpt lat="28.335449" lon="-14.102531">
        <ele>260.079747</ele>
        <time>2023-01-09T01:40:26.413Z</time>
      </trkpt>
      <trkpt lat="28.335203" lon="-14.102593">
        <ele>260.780387</ele>
        <time>2023-01-09T01:40:38.617Z</time>
      </trkpt>
      <trkpt lat="28.335078" lon="-14.102678">
        <ele>261.185453</ele>
        <time>2023-01-09T01:40:45.558Z</time>
      </trkpt>
      <trkpt lat="28.334776" lon="-14.103000">
        <ele>262.337048</ele>
        <time>2023-01-09T01:41:09.014Z</time>
      </trkpt>
      <trkpt lat="28.334436" lon="-14.103569">
        <ele>264.596299</ele>
        <time>2023-01-09T01:41:44.731Z</time>
      </trkpt>
      <trkpt lat="28.333929" lon="-14.103781">
        <ele>266.783071</ele>
        <time>2023-01-09T01:42:14.041Z</time>
      </trkpt>
      <trkpt lat="28.333756" lon="-14.103773">
        <ele>267.483905</ele>
        <time>2023-01-09T01:42:25.137Z</time>
      </trkpt>
      <trkpt lat="28.333433" lon="-14.103604">
        <ele>268.923301</ele>
        <time>2023-01-09T01:42:45.304Z</time>
      </trkpt>
      <trkpt lat="28.333211" lon="-14.103654">
        <ele>269.839381</ele>
        <time>2023-01-09T01:42:57.288Z</time>
      </trkpt>
      <trkpt lat="28.332964" lon="-14.103636">
        <ele>270.802276</ele>
        <time>2023-01-09T01:43:12.004Z</time>
      </trkpt>
      <trkpt lat="28.332331" lon="-14.103768">
        <ele>273.281220</ele>
        <time>2023-01-09T01:43:51.915Z</time>
      </trkpt>
      <trkpt lat="28.331620" lon="-14.104057">
        <ele>276.189880</ele>
        <time>2023-01-09T01:44:31.895Z</time>
      </trkpt>
      <trkpt lat="28.330867" lon="-14.104079">
        <ele>279.593724</ele>
        <time>2023-01-09T01:45:12.070Z</time>
      </trkpt>
      <trkpt lat="28.330273" lon="-14.104286">
        <ele>282.552347</ele>
        <time>2023-01-09T01:45:46.873Z</time>
      </trkpt>
      <trkpt lat="28.329964" lon="-14.104191">
        <ele>284.076688</ele>
        <time>2023-01-09T01:46:08.308Z</time>
      </trkpt>
      <trkpt lat="28.329394" lon="-14.104317">
        <ele>287.882562</ele>
        <time>2023-01-09T01:46:51.048Z</time>
      </trkpt>
      <trkpt lat="28.329216" lon="-14.104264">
        <ele>289.453629</ele>
        <time>2023-01-09T01:47:05.020Z</time>
      </trkpt>
      <trkpt lat="28.327925" lon="-14.103349">
        <ele>302.375885</ele>
        <time>2023-01-09T01:49:11.312Z</time>
      </trkpt>
      <trkpt lat="28.327499" lon="-14.102889">
        <ele>307.170957</ele>
        <time>2023-01-09T01:49:59.370Z</time>
      </trkpt>
      <trkpt lat="28.326964" lon="-14.102517">
        <ele>312.288477</ele>
        <time>2023-01-09T01:50:47.044Z</time>
      </trkpt>
      <trkpt lat="28.326588" lon="-14.102327">
        <ele>315.639607</ele>
        <time>2023-01-09T01:51:16.994Z</time>
      </trkpt>
      <trkpt lat="28.326321" lon="-14.102014">
        <ele>318.539992</ele>
        <time>2023-01-09T01:51:44.778Z</time>
      </trkpt>
      <trkpt lat="28.324995" lon="-14.100846">
        <ele>330.614789</ele>
        <time>2023-01-09T01:53:52.092Z</time>
      </trkpt>
      <trkpt lat="28.324400" lon="-14.099892">
        <ele>336.100689</ele>
        <time>2023-01-09T01:55:04.780Z</time>
      </trkpt>
      <trkpt lat="28.324094" lon="-14.099698">
        <ele>337.968556</ele>
        <time>2023-01-09T01:55:24.828Z</time>
      </trkpt>
      <trkpt lat="28.323660" lon="-14.098769">
        <ele>336.921465</ele>
        <time>2023-01-09T01:55:57.986Z</time>
      </trkpt>
      <trkpt lat="28.323489" lon="-14.098508">
        <ele>336.252206</ele>
        <time>2023-01-09T01:56:06.761Z</time>
      </trkpt>
      <trkpt lat="28.323452" lon="-14.098299">
        <ele>335.813684</ele>
        <time>2023-01-09T01:56:12.464Z</time>
      </trkpt>
      <trkpt lat="28.323251" lon="-14.097953">
        <ele>334.960948</ele>
        <time>2023-01-09T01:56:22.911Z</time>
      </trkpt>
      <trkpt lat="28.323136" lon="-14.097502">
        <ele>332.825874</ele>
        <time>2023-01-09T01:56:34.601Z</time>
      </trkpt>
      <trkpt lat="28.322764" lon="-14.096985">
        <ele>328.513864</ele>
        <time>2023-01-09T01:56:51.108Z</time>
      </trkpt>
      <trkpt lat="28.322709" lon="-14.096692">
        <ele>326.579225</ele>
        <time>2023-01-09T01:56:58.091Z</time>
      </trkpt>
      <trkpt lat="28.322500" lon="-14.096505">
        <ele>324.627573</ele>
        <time>2023-01-09T01:57:05.002Z</time>
      </trkpt>
      <trkpt lat="28.321917" lon="-14.096359">
        <ele>320.088979</ele>
        <time>2023-01-09T01:57:20.643Z</time>
      </trkpt>
      <trkpt lat="28.320486" lon="-14.095729">
        <ele>307.200687</ele>
        <time>2023-01-09T01:58:01.275Z</time>
      </trkpt>
      <trkpt lat="28.319916" lon="-14.095767">
        <ele>303.640606</ele>
        <time>2023-01-09T01:58:16.480Z</time>
      </trkpt>
      <trkpt lat="28.319422" lon="-14.095493">
        <ele>300.509973</ele>
        <time>2023-01-09T01:58:31.795Z</time>
      </trkpt>
      <trkpt lat="28.319300" lon="-14.095315">
        <ele>299.379059</ele>
        <time>2023-01-09T01:58:37.643Z</time>
      </trkpt>
      <trkpt lat="28.319208" lon="-14.095020">
        <ele>297.810114</ele>
        <time>2023-01-09T01:58:45.895Z</time>
      </trkpt>
      <trkpt lat="28.318703" lon="-14.094844">
        <ele>295.153597</ele>
        <time>2023-01-09T01:59:02.018Z</time>
      </trkpt>
      <trkpt lat="28.318454" lon="-14.094544">
        <ele>293.693519</ele>
        <time>2023-01-09T01:59:12.946Z</time>
      </trkpt>
      <trkpt lat="28.318150" lon="-14.094314">
        <ele>292.224250</ele>
        <time>2023-01-09T01:59:23.824Z</time>
      </trkpt>
      <trkpt lat="28.318059" lon="-14.094015">
        <ele>291.103947</ele>
        <time>2023-01-09T01:59:32.028Z</time>
      </trkpt>
      <trkpt lat="28.317538" lon="-14.093444">
        <ele>288.137206</ele>
        <time>2023-01-09T01:59:53.598Z</time>
      </trkpt>
      <trkpt lat="28.317067" lon="-14.092999">
        <ele>285.438026</ele>
        <time>2023-01-09T02:00:11.373Z</time>
      </trkpt>
      <trkpt lat="28.316694" lon="-14.092818">
        <ele>283.650940</ele>
        <time>2023-01-09T02:00:23.318Z</time>
      </trkpt>
      <trkpt lat="28.316533" lon="-14.092647">
        <ele>282.679806</ele>
        <time>2023-01-09T02:00:29.800Z</time>
      </trkpt>
      <trkpt lat="28.316469" lon="-14.092377">
        <ele>281.595253</ele>
        <time>2023-01-09T02:00:37.363Z</time>
      </trkpt>
      <trkpt lat="28.316362" lon="-14.092310">
        <ele>281.056936</ele>
        <time>2023-01-09T02:00:40.846Z</time>
      </trkpt>
      <trkpt lat="28.316251" lon="-14.092443">
        <ele>280.301023</ele>
        <time>2023-01-09T02:00:45.591Z</time>
      </trkpt>
      <trkpt lat="28.315854" lon="-14.092652">
        <ele>278.197095</ele>
        <time>2023-01-09T02:00:58.260Z</time>
      </trkpt>
      <trkpt lat="28.315669" lon="-14.092599">
        <ele>277.279709</ele>
        <time>2023-01-09T02:01:03.550Z</time>
      </trkpt>
      <trkpt lat="28.315366" lon="-14.091960">
        <ele>274.207437</ele>
        <time>2023-01-09T02:01:21.927Z</time>
      </trkpt>
      <trkpt lat="28.315099" lon="-14.091644">
        <ele>272.353416</ele>
        <time>2023-01-09T02:01:33.281Z</time>
      </trkpt>
      <trkpt lat="28.314677" lon="-14.091333">
        <ele>270.255661</ele>
        <time>2023-01-09T02:01:48.068Z</time>
      </trkpt>
      <trkpt lat="28.314203" lon="-14.091202">
        <ele>268.243696</ele>
        <time>2023-01-09T02:02:02.381Z</time>
      </trkpt>
      <trkpt lat="28.313497" lon="-14.090880">
        <ele>265.105963</ele>
        <time>2023-01-09T02:02:24.500Z</time>
      </trkpt>
      <trkpt lat="28.311865" lon="-14.090995">
        <ele>263.062062</ele>
        <time>2023-01-09T02:03:18.995Z</time>
      </trkpt>
      <trkpt lat="28.311682" lon="-14.091284">
        <ele>262.989728</ele>
        <time>2023-01-09T02:03:32.453Z</time>
      </trkpt>
      <trkpt lat="28.311238" lon="-14.092469">
        <ele>266.210199</ele>
        <time>2023-01-09T02:04:32.190Z</time>
      </trkpt>
      <trkpt lat="28.311052" lon="-14.092833">
        <ele>267.262650</ele>
        <time>2023-01-09T02:04:54.611Z</time>
      </trkpt>
      <trkpt lat="28.311002" lon="-14.093206">
        <ele>268.035638</ele>
        <time>2023-01-09T02:05:13.472Z</time>
      </trkpt>
      <trkpt lat="28.311218" lon="-14.094425">
        <ele>269.401197</ele>
        <time>2023-01-09T02:06:04.728Z</time>
      </trkpt>
      <trkpt lat="28.311191" lon="-14.094680">
        <ele>269.683257</ele>
        <time>2023-01-09T02:06:12.648Z</time>
      </trkpt>
      <trkpt lat="28.310961" lon="-14.095320">
        <ele>269.852521</ele>
        <time>2023-01-09T02:06:33.419Z</time>
      </trkpt>
      <trkpt lat="28.310711" lon="-14.096149">
        <ele>268.901156</ele>
        <time>2023-01-09T02:06:59.290Z</time>
      </trkpt>
      <trkpt lat="28.310779" lon="-14.096476">
        <ele>268.536369</ele>
        <time>2023-01-09T02:07:09.022Z</time>
      </trkpt>
      <trkpt lat="28.310860" lon="-14.096682">
        <ele>268.291427</ele>
        <time>2023-01-09T02:07:15.743Z</time>
      </trkpt>
      <trkpt lat="28.310887" lon="-14.097012">
        <ele>267.931609</ele>
        <time>2023-01-09T02:07:25.407Z</time>
      </trkpt>
      <trkpt lat="28.310844" lon="-14.097156">
        <ele>268.199336</ele>
        <time>2023-01-09T02:07:30.146Z</time>
      </trkpt>
      <trkpt lat="28.310411" lon="-14.097086">
        <ele>269.108149</ele>
        <time>2023-01-09T02:07:46.066Z</time>
      </trkpt>
      <trkpt lat="28.310051" lon="-14.097192">
        <ele>269.880931</ele>
        <time>2023-01-09T02:08:02.898Z</time>
      </trkpt>
      <trkpt lat="28.309711" lon="-14.097417">
        <ele>270.698590</ele>
        <time>2023-01-09T02:08:23.849Z</time>
      </trkpt>
      <trkpt lat="28.308736" lon="-14.097728">
        <ele>274.470433</ele>
        <time>2023-01-09T02:09:25.917Z</time>
      </trkpt>
      <trkpt lat="28.307437" lon="-14.098495">
        <ele>280.538109</ele>
        <time>2023-01-09T02:11:02.609Z</time>
      </trkpt>
      <trkpt lat="28.307306" lon="-14.098512">
        <ele>280.326293</ele>
        <time>2023-01-09T02:11:09.663Z</time>
      </trkpt>
      <trkpt lat="28.307044" lon="-14.098424">
        <ele>279.887383</ele>
        <time>2023-01-09T02:11:21.483Z</time>
      </trkpt>
      <trkpt lat="28.306844" lon="-14.098461">
        <ele>279.561856</ele>
        <time>2023-01-09T02:11:28.286Z</time>
      </trkpt>
      <trkpt lat="28.306681" lon="-14.098612">
        <ele>279.223952</ele>
        <time>2023-01-09T02:11:35.694Z</time>
      </trkpt>
      <trkpt lat="28.306481" lon="-14.098990">
        <ele>278.600206</ele>
        <time>2023-01-09T02:11:47.187Z</time>
      </trkpt>
      <trkpt lat="28.306242" lon="-14.099201">
        <ele>278.113919</ele>
        <time>2023-01-09T02:11:55.625Z</time>
      </trkpt>
      <trkpt lat="28.305359" lon="-14.099878">
        <ele>268.365484</ele>
        <time>2023-01-09T02:12:23.295Z</time>
      </trkpt>
      <trkpt lat="28.304848" lon="-14.100209">
        <ele>262.638427</ele>
        <time>2023-01-09T02:12:38.078Z</time>
      </trkpt>
      <trkpt lat="28.304171" lon="-14.100320">
        <ele>256.559508</ele>
        <time>2023-01-09T02:12:55.455Z</time>
      </trkpt>
      <trkpt lat="28.302971" lon="-14.100311">
        <ele>246.383130</ele>
        <time>2023-01-09T02:13:27.435Z</time>
      </trkpt>
      <trkpt lat="28.302561" lon="-14.100453">
        <ele>244.033016</ele>
        <time>2023-01-09T02:13:39.467Z</time>
      </trkpt>
      <trkpt lat="28.302326" lon="-14.100456">
        <ele>243.072990</ele>
        <time>2023-01-09T02:13:46.197Z</time>
      </trkpt>
      <trkpt lat="28.301836" lon="-14.100312">
        <ele>241.005441</ele>
        <time>2023-01-09T02:14:01.119Z</time>
      </trkpt>
      <trkpt lat="28.301215" lon="-14.100524">
        <ele>238.356565</ele>
        <time>2023-01-09T02:14:21.511Z</time>
      </trkpt>
      <trkpt lat="28.300911" lon="-14.100557">
        <ele>237.788315</ele>
        <time>2023-01-09T02:14:31.541Z</time>
      </trkpt>
      <trkpt lat="28.300537" lon="-14.100683">
        <ele>237.599249</ele>
        <time>2023-01-09T02:14:44.473Z</time>
      </trkpt>
      <trkpt lat="28.300033" lon="-14.100967">
        <ele>237.326574</ele>
        <time>2023-01-09T02:15:04.591Z</time>
      </trkpt>
      <trkpt lat="28.299830" lon="-14.101142">
        <ele>237.203059</ele>
        <time>2023-01-09T02:15:14.058Z</time>
      </trkpt>
      <trkpt lat="28.299755" lon="-14.101286">
        <ele>237.131665</ele>
        <time>2023-01-09T02:15:20.138Z</time>
      </trkpt>
      <trkpt lat="28.299546" lon="-14.101411">
        <ele>237.017187</ele>
        <time>2023-01-09T02:15:29.587Z</time>
      </trkpt>
      <trkpt lat="28.299350" lon="-14.101508">
        <ele>237.235837</ele>
        <time>2023-01-09T02:15:39.059Z</time>
      </trkpt>
      <trkpt lat="28.298967" lon="-14.101977">
        <ele>237.894066</ele>
        <time>2023-01-09T02:16:05.532Z</time>
      </trkpt>
      <trkpt lat="28.298626" lon="-14.102024">
        <ele>238.295515</ele>
        <time>2023-01-09T02:16:21.664Z</time>
      </trkpt>
      <trkpt lat="28.297999" lon="-14.102271">
        <ele>239.071115</ele>
        <time>2023-01-09T02:16:49.093Z</time>
      </trkpt>
      <trkpt lat="28.297695" lon="-14.102459">
        <ele>238.647894</ele>
        <time>2023-01-09T02:17:02.147Z</time>
      </trkpt>
      <trkpt lat="28.297529" lon="-14.102487">
        <ele>238.399907</ele>
        <time>2023-01-09T02:17:08.820Z</time>
      </trkpt>
      <trkpt lat="28.297465" lon="-14.102519">
        <ele>238.296576</ele>
        <time>2023-01-09T02:17:11.024Z</time>
      </trkpt>
      <trkpt lat="28.297144" lon="-14.102813">
        <ele>237.687213</ele>
        <time>2023-01-09T02:17:24.306Z</time>
      </trkpt>
      <trkpt lat="28.296368" lon="-14.103341">
        <ele>236.354091</ele>
        <time>2023-01-09T02:17:53.286Z</time>
      </trkpt>
      <trkpt lat="28.296137" lon="-14.103453">
        <ele>235.996094</ele>
        <time>2023-01-09T02:18:00.832Z</time>
      </trkpt>
      <trkpt lat="28.294194" lon="-14.103765">
        <ele>233.583968</ele>
        <time>2023-01-09T02:19:08.271Z</time>
      </trkpt>
      <trkpt lat="28.293650" lon="-14.104328">
        <ele>233.120440</ele>
        <time>2023-01-09T02:19:36.781Z</time>
      </trkpt>
      <trkpt lat="28.293434" lon="-14.104440">
        <ele>232.970896</ele>
        <time>2023-01-09T02:19:45.161Z</time>
      </trkpt>
      <trkpt lat="28.293127" lon="-14.104686">
        <ele>232.655228</ele>
        <time>2023-01-09T02:19:58.061Z</time>
      </trkpt>
      <trkpt lat="28.293000" lon="-14.104859">
        <ele>232.072716</ele>
        <time>2023-01-09T02:20:04.947Z</time>
      </trkpt>
      <trkpt lat="28.292953" lon="-14.105033">
        <ele>231.602016</ele>
        <time>2023-01-09T02:20:09.999Z</time>
      </trkpt>
      <trkpt lat="28.291888" lon="-14.105803">
        <ele>227.893892</ele>
        <time>2023-01-09T02:20:48.749Z</time>
      </trkpt>
      <trkpt lat="28.291009" lon="-14.106191">
        <ele>224.542794</ele>
        <time>2023-01-09T02:21:16.456Z</time>
      </trkpt>
      <trkpt lat="28.290812" lon="-14.106388">
        <ele>223.581076</ele>
        <time>2023-01-09T02:21:24.354Z</time>
      </trkpt>
      <trkpt lat="28.290237" lon="-14.106476">
        <ele>221.455323</ele>
        <time>2023-01-09T02:21:42.223Z</time>
      </trkpt>
      <trkpt lat="28.290070" lon="-14.106564">
        <ele>220.781161</ele>
        <time>2023-01-09T02:21:48.009Z</time>
      </trkpt>
      <trkpt lat="28.289747" lon="-14.106852">
        <ele>219.281841</ele>
        <time>2023-01-09T02:22:00.744Z</time>
      </trkpt>
      <trkpt lat="28.289239" lon="-14.106893">
        <ele>217.422460</ele>
        <time>2023-01-09T02:22:16.258Z</time>
      </trkpt>
      <trkpt lat="28.288996" lon="-14.107003">
        <ele>216.467384</ele>
        <time>2023-01-09T02:22:24.129Z</time>
      </trkpt>
      <trkpt lat="28.288766" lon="-14.107225">
        <ele>215.365324</ele>
        <time>2023-01-09T02:22:33.131Z</time>
      </trkpt>
      <trkpt lat="28.288232" lon="-14.107903">
        <ele>212.132493</ele>
        <time>2023-01-09T02:22:56.685Z</time>
      </trkpt>
      <trkpt lat="28.288157" lon="-14.107928">
        <ele>211.800189</ele>
        <time>2023-01-09T02:22:58.993Z</time>
      </trkpt>
      <trkpt lat="28.288128" lon="-14.108036">
        <ele>211.377494</ele>
        <time>2023-01-09T02:23:01.773Z</time>
      </trkpt>
      <trkpt lat="28.287985" lon="-14.108218">
        <ele>210.464351</ele>
        <time>2023-01-09T02:23:08.116Z</time>
      </trkpt>
      <trkpt lat="28.287537" lon="-14.108577">
        <ele>208.133295</ele>
        <time>2023-01-09T02:23:24.030Z</time>
      </trkpt>
      <trkpt lat="28.286763" lon="-14.108948">
        <ele>205.259039</ele>
        <time>2023-01-09T02:23:49.660Z</time>
      </trkpt>
      <trkpt lat="28.285621" lon="-14.109395">
        <ele>201.822715</ele>
        <time>2023-01-09T02:24:28.152Z</time>
      </trkpt>
      <trkpt lat="28.285318" lon="-14.109460">
        <ele>200.837307</ele>
        <time>2023-01-09T02:24:37.804Z</time>
      </trkpt>
      <trkpt lat="28.284794" lon="-14.109751">
        <ele>198.882314</ele>
        <time>2023-01-09T02:24:55.840Z</time>
      </trkpt>
      <trkpt lat="28.284392" lon="-14.110148">
        <ele>197.096749</ele>
        <time>2023-01-09T02:25:11.856Z</time>
      </trkpt>
      <trkpt lat="28.283782" lon="-14.110434">
        <ele>195.087256</ele>
        <time>2023-01-09T02:25:26.946Z</time>
      </trkpt>
      <trkpt lat="28.282951" lon="-14.110534">
        <ele>193.172696</ele>
        <time>2023-01-09T02:25:46.321Z</time>
      </trkpt>
      <trkpt lat="28.282723" lon="-14.110955">
        <ele>192.175523</ele>
        <time>2023-01-09T02:25:57.637Z</time>
      </trkpt>
      <trkpt lat="28.282453" lon="-14.111450">
        <ele>191.594332</ele>
        <time>2023-01-09T02:26:12.300Z</time>
      </trkpt>
      <trkpt lat="28.282604" lon="-14.111961">
        <ele>192.109153</ele>
        <time>2023-01-09T02:26:27.761Z</time>
      </trkpt>
      <trkpt lat="28.282543" lon="-14.112520">
        <ele>192.647159</ele>
        <time>2023-01-09T02:26:46.143Z</time>
      </trkpt>
      <trkpt lat="28.282342" lon="-14.112978">
        <ele>193.135926</ele>
        <time>2023-01-09T02:27:02.656Z</time>
      </trkpt>
      <trkpt lat="28.282245" lon="-14.113041">
        <ele>193.257127</ele>
        <time>2023-01-09T02:27:06.510Z</time>
      </trkpt>
      <trkpt lat="28.281688" lon="-14.113169">
        <ele>194.623421</ele>
        <time>2023-01-09T02:27:29.743Z</time>
      </trkpt>
      <trkpt lat="28.281703" lon="-14.113795">
        <ele>196.085752</ele>
        <time>2023-01-09T02:27:47.910Z</time>
      </trkpt>
      <trkpt lat="28.281141" lon="-14.113867">
        <ele>197.585439</ele>
        <time>2023-01-09T02:28:13.848Z</time>
      </trkpt>
      <trkpt lat="28.280852" lon="-14.114100">
        <ele>198.756937</ele>
        <time>2023-01-09T02:28:30.300Z</time>
      </trkpt>
      <trkpt lat="28.280422" lon="-14.114344">
        <ele>200.767175</ele>
        <time>2023-01-09T02:28:54.136Z</time>
      </trkpt>
      <trkpt lat="28.280358" lon="-14.114436">
        <ele>201.198947</ele>
        <time>2023-01-09T02:28:59.883Z</time>
      </trkpt>
      <trkpt lat="28.280190" lon="-14.114560">
        <ele>202.036880</ele>
        <time>2023-01-09T02:29:13.610Z</time>
      </trkpt>
      <trkpt lat="28.279845" lon="-14.115365">
        <ele>205.333933</ele>
        <time>2023-01-09T02:30:01.664Z</time>
      </trkpt>
      <trkpt lat="28.279268" lon="-14.115785">
        <ele>205.303412</ele>
        <time>2023-01-09T02:30:35.142Z</time>
      </trkpt>
      <trkpt lat="28.278711" lon="-14.115994">
        <ele>204.974785</ele>
        <time>2023-01-09T02:30:56.475Z</time>
      </trkpt>
      <trkpt lat="28.278268" lon="-14.115886">
        <ele>204.720961</ele>
        <time>2023-01-09T02:31:10.674Z</time>
      </trkpt>
      <trkpt lat="28.277939" lon="-14.115915">
        <ele>203.319374</ele>
        <time>2023-01-09T02:31:20.174Z</time>
      </trkpt>
      <trkpt lat="28.277581" lon="-14.115796">
        <ele>200.615339</ele>
        <time>2023-01-09T02:31:30.221Z</time>
      </trkpt>
      <trkpt lat="28.277393" lon="-14.115796">
        <ele>199.252534</ele>
        <time>2023-01-09T02:31:35.166Z</time>
      </trkpt>
      <trkpt lat="28.277251" lon="-14.115796">
        <ele>198.223182</ele>
        <time>2023-01-09T02:31:38.875Z</time>
      </trkpt>
      <trkpt lat="28.276628" lon="-14.115922">
        <ele>193.636004</ele>
        <time>2023-01-09T02:31:55.577Z</time>
      </trkpt>
      <trkpt lat="28.275890" lon="-14.115825">
        <ele>189.302323</ele>
        <time>2023-01-09T02:32:15.712Z</time>
      </trkpt>
      <trkpt lat="28.275015" lon="-14.115852">
        <ele>184.949788</ele>
        <time>2023-01-09T02:32:40.712Z</time>
      </trkpt>
      <trkpt lat="28.274962" lon="-14.115918">
        <ele>184.558648</ele>
        <time>2023-01-09T02:32:43.153Z</time>
      </trkpt>
      <trkpt lat="28.274867" lon="-14.115911">
        <ele>184.085268</ele>
        <time>2023-01-09T02:32:46.065Z</time>
      </trkpt>
      <trkpt lat="28.274618" lon="-14.115806">
        <ele>182.764493</ele>
        <time>2023-01-09T02:32:54.609Z</time>
      </trkpt>
      <trkpt lat="28.274202" lon="-14.115970">
        <ele>181.895593</ele>
        <time>2023-01-09T02:33:09.675Z</time>
      </trkpt>
      <trkpt lat="28.273828" lon="-14.116016">
        <ele>181.212149</ele>
        <time>2023-01-09T02:33:22.789Z</time>
      </trkpt>
      <trkpt lat="28.273538" lon="-14.116188">
        <ele>180.617742</ele>
        <time>2023-01-09T02:33:34.133Z</time>
      </trkpt>
      <trkpt lat="28.272983" lon="-14.116778">
        <ele>178.925281</ele>
        <time>2023-01-09T02:33:58.971Z</time>
      </trkpt>
      <trkpt lat="28.272549" lon="-14.117333">
        <ele>175.302528</ele>
        <time>2023-01-09T02:34:18.573Z</time>
      </trkpt>
      <trkpt lat="28.272149" lon="-14.117630">
        <ele>172.653708</ele>
        <time>2023-01-09T02:34:31.747Z</time>
      </trkpt>
      <trkpt lat="28.271742" lon="-14.117662">
        <ele>170.392608</ele>
        <time>2023-01-09T02:34:42.696Z</time>
      </trkpt>
      <trkpt lat="28.271604" lon="-14.117722">
        <ele>169.573622</ele>
        <time>2023-01-09T02:34:46.666Z</time>
      </trkpt>
      <trkpt lat="28.270985" lon="-14.118205">
        <ele>164.304102</ele>
        <time>2023-01-09T02:35:06.793Z</time>
      </trkpt>
      <trkpt lat="28.270460" lon="-14.118588">
        <ele>159.890657</ele>
        <time>2023-01-09T02:35:23.647Z</time>
      </trkpt>
      <trkpt lat="28.269932" lon="-14.119228">
        <ele>155.888048</ele>
        <time>2023-01-09T02:35:45.165Z</time>
      </trkpt>
      <trkpt lat="28.269797" lon="-14.119290">
        <ele>155.520299</ele>
        <time>2023-01-09T02:35:49.402Z</time>
      </trkpt>
      <trkpt lat="28.269531" lon="-14.119414">
        <ele>154.794153</ele>
        <time>2023-01-09T02:35:58.198Z</time>
      </trkpt>
      <trkpt lat="28.269121" lon="-14.119841">
        <ele>153.389183</ele>
        <time>2023-01-09T02:36:16.736Z</time>
      </trkpt>
      <trkpt lat="28.268966" lon="-14.120002">
        <ele>152.858676</ele>
        <time>2023-01-09T02:36:24.332Z</time>
      </trkpt>
      <trkpt lat="28.268708" lon="-14.120129">
        <ele>152.160209</ele>
        <time>2023-01-09T02:36:35.004Z</time>
      </trkpt>
      <trkpt lat="28.268227" lon="-14.120477">
        <ele>152.808707</ele>
        <time>2023-01-09T02:36:58.266Z</time>
      </trkpt>
      <trkpt lat="28.267977" lon="-14.120722">
        <ele>153.184201</ele>
        <time>2023-01-09T02:37:12.831Z</time>
      </trkpt>
      <trkpt lat="28.267633" lon="-14.120963">
        <ele>153.643800</ele>
        <time>2023-01-09T02:37:31.145Z</time>
      </trkpt>
      <trkpt lat="28.267049" lon="-14.121283">
        <ele>154.200810</ele>
        <time>2023-01-09T02:38:00.673Z</time>
      </trkpt>
      <trkpt lat="28.266345" lon="-14.121763">
        <ele>154.196317</ele>
        <time>2023-01-09T02:38:34.702Z</time>
      </trkpt>
      <trkpt lat="28.265840" lon="-14.122239">
        <ele>154.192727</ele>
        <time>2023-01-09T02:38:57.324Z</time>
      </trkpt>
      <trkpt lat="28.265729" lon="-14.122440">
        <ele>154.124284</ele>
        <time>2023-01-09T02:39:04.174Z</time>
      </trkpt>
      <trkpt lat="28.265507" lon="-14.122631">
        <ele>153.712056</ele>
        <time>2023-01-09T02:39:13.220Z</time>
      </trkpt>
      <trkpt lat="28.265314" lon="-14.122879">
        <ele>153.280676</ele>
        <time>2023-01-09T02:39:22.838Z</time>
      </trkpt>
      <trkpt lat="28.264776" lon="-14.123296">
        <ele>152.316608</ele>
        <time>2023-01-09T02:39:44.660Z</time>
      </trkpt>
      <trkpt lat="28.264447" lon="-14.123674">
        <ele>151.623888</ele>
        <time>2023-01-09T02:40:00.408Z</time>
      </trkpt>
      <trkpt lat="28.264111" lon="-14.123781">
        <ele>151.356823</ele>
        <time>2023-01-09T02:40:12.348Z</time>
      </trkpt>
      <trkpt lat="28.263818" lon="-14.123963">
        <ele>151.154323</ele>
        <time>2023-01-09T02:40:23.899Z</time>
      </trkpt>
      <trkpt lat="28.263468" lon="-14.124049">
        <ele>150.937200</ele>
        <time>2023-01-09T02:40:36.592Z</time>
      </trkpt>
      <trkpt lat="28.263322" lon="-14.124156">
        <ele>150.831838</ele>
        <time>2023-01-09T02:40:43.008Z</time>
      </trkpt>
      <trkpt lat="28.263244" lon="-14.124289">
        <ele>150.746507</ele>
        <time>2023-01-09T02:40:48.048Z</time>
      </trkpt>
      <trkpt lat="28.263263" lon="-14.124439">
        <ele>150.665579</ele>
        <time>2023-01-09T02:40:53.206Z</time>
      </trkpt>
      <trkpt lat="28.263484" lon="-14.124759">
        <ele>150.448420</ele>
        <time>2023-01-09T02:41:06.757Z</time>
      </trkpt>
      <trkpt lat="28.263465" lon="-14.124882">
        <ele>150.318901</ele>
        <time>2023-01-09T02:41:10.684Z</time>
      </trkpt>
      <trkpt lat="28.263366" lon="-14.124911">
        <ele>150.189322</ele>
        <time>2023-01-09T02:41:14.187Z</time>
      </trkpt>
      <trkpt lat="28.263053" lon="-14.124732">
        <ele>149.745150</ele>
        <time>2023-01-09T02:41:26.459Z</time>
      </trkpt>
      <trkpt lat="28.262860" lon="-14.124709">
        <ele>149.499202</ele>
        <time>2023-01-09T02:41:33.230Z</time>
      </trkpt>
      <trkpt lat="28.262258" lon="-14.124857">
        <ele>148.718557</ele>
        <time>2023-01-09T02:41:53.896Z</time>
      </trkpt>
      <trkpt lat="28.262126" lon="-14.125129">
        <ele>148.371888</ele>
        <time>2023-01-09T02:42:02.799Z</time>
      </trkpt>
      <trkpt lat="28.261874" lon="-14.125401">
        <ele>147.678560</ele>
        <time>2023-01-09T02:42:14.032Z</time>
      </trkpt>
      <trkpt lat="28.261635" lon="-14.125490">
        <ele>147.007437</ele>
        <time>2023-01-09T02:42:22.028Z</time>
      </trkpt>
      <trkpt lat="28.261005" lon="-14.126193">
        <ele>144.650488</ele>
        <time>2023-01-09T02:42:49.547Z</time>
      </trkpt>
      <trkpt lat="28.260250" lon="-14.127159">
        <ele>142.341936</ele>
        <time>2023-01-09T02:43:16.789Z</time>
      </trkpt>
      <trkpt lat="28.260141" lon="-14.127484">
        <ele>141.864887</ele>
        <time>2023-01-09T02:43:24.390Z</time>
      </trkpt>
      <trkpt lat="28.260070" lon="-14.127933">
        <ele>141.239117</ele>
        <time>2023-01-09T02:43:34.934Z</time>
      </trkpt>
      <trkpt lat="28.260016" lon="-14.128029">
        <ele>141.082864</ele>
        <time>2023-01-09T02:43:37.651Z</time>
      </trkpt>
      <trkpt lat="28.259906" lon="-14.128192">
        <ele>140.801183</ele>
        <time>2023-01-09T02:43:44.053Z</time>
      </trkpt>
      <trkpt lat="28.259869" lon="-14.128486">
        <ele>140.741791</ele>
        <time>2023-01-09T02:43:54.093Z</time>
      </trkpt>
      <trkpt lat="28.259705" lon="-14.128946">
        <ele>141.490880</ele>
        <time>2023-01-09T02:44:12.384Z</time>
      </trkpt>
      <trkpt lat="28.259741" lon="-14.129810">
        <ele>142.796536</ele>
        <time>2023-01-09T02:44:47.494Z</time>
      </trkpt>
      <trkpt lat="28.259861" lon="-14.130704">
        <ele>144.696310</ele>
        <time>2023-01-09T02:45:29.477Z</time>
      </trkpt>
      <trkpt lat="28.260028" lon="-14.131127">
        <ele>146.115958</ele>
        <time>2023-01-09T02:45:51.331Z</time>
      </trkpt>
      <trkpt lat="28.259988" lon="-14.132307">
        <ele>149.732465</ele>
        <time>2023-01-09T02:46:47.594Z</time>
      </trkpt>
      <trkpt lat="28.260038" lon="-14.133004">
        <ele>152.793292</ele>
        <time>2023-01-09T02:47:24.867Z</time>
      </trkpt>
      <trkpt lat="28.259953" lon="-14.133295">
        <ele>154.168456</ele>
        <time>2023-01-09T02:47:41.265Z</time>
      </trkpt>
      <trkpt lat="28.259985" lon="-14.133864">
        <ele>156.725869</ele>
        <time>2023-01-09T02:48:12.773Z</time>
      </trkpt>
      <trkpt lat="28.259918" lon="-14.134180">
        <ele>158.183756</ele>
        <time>2023-01-09T02:48:32.590Z</time>
      </trkpt>
      <trkpt lat="28.260111" lon="-14.134964">
        <ele>162.918007</ele>
        <time>2023-01-09T02:49:20.992Z</time>
      </trkpt>
      <trkpt lat="28.260095" lon="-14.135323">
        <ele>165.158421</ele>
        <time>2023-01-09T02:49:43.513Z</time>
      </trkpt>
      <trkpt lat="28.260132" lon="-14.135582">
        <ele>166.793793</ele>
        <time>2023-01-09T02:50:00.417Z</time>
      </trkpt>
      <trkpt lat="28.260238" lon="-14.135809">
        <ele>168.395152</ele>
        <time>2023-01-09T02:50:17.822Z</time>
      </trkpt>
      <trkpt lat="28.260669" lon="-14.136175">
        <ele>172.208200</ele>
        <time>2023-01-09T02:50:57.786Z</time>
      </trkpt>
      <trkpt lat="28.260925" lon="-14.136718">
        <ele>176.087717</ele>
        <time>2023-01-09T02:51:42.759Z</time>
      </trkpt>
      <trkpt lat="28.260888" lon="-14.136824">
        <ele>176.805932</ele>
        <time>2023-01-09T02:51:50.659Z</time>
      </trkpt>
      <trkpt lat="28.260056" lon="-14.137614">
        <ele>184.562587</ele>
        <time>2023-01-09T02:53:07.371Z</time>
      </trkpt>
      <trkpt lat="28.260084" lon="-14.137688">
        <ele>184.874217</ele>
        <time>2023-01-09T02:53:11.026Z</time>
      </trkpt>
      <trkpt lat="28.260167" lon="-14.138008">
        <ele>186.006307</ele>
        <time>2023-01-09T02:53:25.000Z</time>
      </trkpt>
      <trkpt lat="28.260188" lon="-14.138103">
        <ele>186.338706</ele>
        <time>2023-01-09T02:53:28.876Z</time>
      </trkpt>
      <trkpt lat="28.260391" lon="-14.138713">
        <ele>188.551687</ele>
        <time>2023-01-09T02:53:53.265Z</time>
      </trkpt>
      <trkpt lat="28.260645" lon="-14.139135">
        <ele>190.286265</ele>
        <time>2023-01-09T02:54:09.854Z</time>
      </trkpt>
      <trkpt lat="28.261076" lon="-14.139655">
        <ele>192.522682</ele>
        <time>2023-01-09T02:54:29.721Z</time>
      </trkpt>
      <trkpt lat="28.261567" lon="-14.140657">
        <ele>195.772898</ele>
        <time>2023-01-09T02:55:06.697Z</time>
      </trkpt>
      <trkpt lat="28.261265" lon="-14.141063">
        <ele>197.279227</ele>
        <time>2023-01-09T02:55:26.615Z</time>
      </trkpt>
      <trkpt lat="28.261036" lon="-14.141359">
        <ele>199.190087</ele>
        <time>2023-01-09T02:55:43.354Z</time>
      </trkpt>
      <trkpt lat="28.260681" lon="-14.141950">
        <ele>202.778356</ele>
        <time>2023-01-09T02:56:14.871Z</time>
      </trkpt>
      <trkpt lat="28.260449" lon="-14.142130">
        <ele>204.378629</ele>
        <time>2023-01-09T02:56:29.104Z</time>
      </trkpt>
      <trkpt lat="28.260390" lon="-14.142281">
        <ele>205.207246</ele>
        <time>2023-01-09T02:56:37.002Z</time>
      </trkpt>
      <trkpt lat="28.260390" lon="-14.142425">
        <ele>205.929569</ele>
        <time>2023-01-09T02:56:42.861Z</time>
      </trkpt>
      <trkpt lat="28.260437" lon="-14.142494">
        <ele>206.367104</ele>
        <time>2023-01-09T02:56:47.186Z</time>
      </trkpt>
      <trkpt lat="28.260881" lon="-14.142869">
        <ele>210.263072</ele>
        <time>2023-01-09T02:57:18.053Z</time>
      </trkpt>
      <trkpt lat="28.261580" lon="-14.144120">
        <ele>220.588876</ele>
        <time>2023-01-09T02:58:41.691Z</time>
      </trkpt>
      <trkpt lat="28.261788" lon="-14.144310">
        <ele>222.717802</ele>
        <time>2023-01-09T02:58:59.724Z</time>
      </trkpt>
      <trkpt lat="28.262691" lon="-14.144777">
        <ele>230.719229</ele>
        <time>2023-01-09T03:00:01.141Z</time>
      </trkpt>
      <trkpt lat="28.262824" lon="-14.144913">
        <ele>232.162572</ele>
        <time>2023-01-09T03:00:12.245Z</time>
      </trkpt>
      <trkpt lat="28.262913" lon="-14.145063">
        <ele>233.447118</ele>
        <time>2023-01-09T03:00:23.055Z</time>
      </trkpt>
      <trkpt lat="28.262968" lon="-14.145358">
        <ele>235.588759</ele>
        <time>2023-01-09T03:00:40.838Z</time>
      </trkpt>
      <trkpt lat="28.263078" lon="-14.145517">
        <ele>236.828836</ele>
        <time>2023-01-09T03:00:51.352Z</time>
      </trkpt>
      <trkpt lat="28.263475" lon="-14.145809">
        <ele>239.545366</ele>
        <time>2023-01-09T03:01:18.012Z</time>
      </trkpt>
      <trkpt lat="28.263543" lon="-14.145930">
        <ele>240.271380</ele>
        <time>2023-01-09T03:01:24.359Z</time>
      </trkpt>
      <trkpt lat="28.263559" lon="-14.146250">
        <ele>241.892607</ele>
        <time>2023-01-09T03:01:39.993Z</time>
      </trkpt>
      <trkpt lat="28.263616" lon="-14.146382">
        <ele>242.636214</ele>
        <time>2023-01-09T03:01:46.125Z</time>
      </trkpt>
      <trkpt lat="28.263664" lon="-14.146412">
        <ele>242.950879</ele>
        <time>2023-01-09T03:01:49.689Z</time>
      </trkpt>
      <trkpt lat="28.263810" lon="-14.146502">
        <ele>243.904950</ele>
        <time>2023-01-09T03:01:58.115Z</time>
      </trkpt>
      <trkpt lat="28.265990" lon="-14.147370">
        <ele>252.268041</ele>
        <time>2023-01-09T03:03:27.807Z</time>
      </trkpt>
      <trkpt lat="28.266515" lon="-14.147474">
        <ele>252.630016</ele>
        <time>2023-01-09T03:03:41.721Z</time>
      </trkpt>
      <trkpt lat="28.266991" lon="-14.147393">
        <ele>252.956933</ele>
        <time>2023-01-09T03:03:53.524Z</time>
      </trkpt>
      <trkpt lat="28.267751" lon="-14.147533">
        <ele>253.472921</ele>
        <time>2023-01-09T03:04:11.116Z</time>
      </trkpt>
      <trkpt lat="28.268820" lon="-14.147846">
        <ele>253.709975</ele>
        <time>2023-01-09T03:04:34.272Z</time>
      </trkpt>
      <trkpt lat="28.269305" lon="-14.147873">
        <ele>253.814244</ele>
        <time>2023-01-09T03:04:46.201Z</time>
      </trkpt>
      <trkpt lat="28.269583" lon="-14.147823">
        <ele>254.246973</ele>
        <time>2023-01-09T03:04:53.805Z</time>
      </trkpt>
      <trkpt lat="28.269944" lon="-14.147733">
        <ele>255.901186</ele>
        <time>2023-01-09T03:05:05.985Z</time>
      </trkpt>
      <trkpt lat="28.270685" lon="-14.147574">
        <ele>259.276374</ele>
        <time>2023-01-09T03:05:37.308Z</time>
      </trkpt>
      <trkpt lat="28.270942" lon="-14.147684">
        <ele>260.505638</ele>
        <time>2023-01-09T03:05:50.746Z</time>
      </trkpt>
      <trkpt lat="28.273699" lon="-14.149745">
        <ele>287.516833</ele>
        <time>2023-01-09T03:09:32.194Z</time>
      </trkpt>
      <trkpt lat="28.274079" lon="-14.150022">
        <ele>291.268824</ele>
        <time>2023-01-09T03:09:58.069Z</time>
      </trkpt>
      <trkpt lat="28.274247" lon="-14.150223">
        <ele>293.490215</ele>
        <time>2023-01-09T03:10:11.305Z</time>
      </trkpt>
      <trkpt lat="28.274359" lon="-14.150458">
        <ele>295.973477</ele>
        <time>2023-01-09T03:10:25.001Z</time>
      </trkpt>
      <trkpt lat="28.274522" lon="-14.151004">
        <ele>301.331331</ele>
        <time>2023-01-09T03:10:57.668Z</time>
      </trkpt>
      <trkpt lat="28.274630" lon="-14.151157">
        <ele>303.153599</ele>
        <time>2023-01-09T03:11:11.074Z</time>
      </trkpt>
      <trkpt lat="28.274769" lon="-14.151248">
        <ele>304.846739</ele>
        <time>2023-01-09T03:11:23.007Z</time>
      </trkpt>
      <trkpt lat="28.274918" lon="-14.151235">
        <ele>306.423701</ele>
        <time>2023-01-09T03:11:36.175Z</time>
      </trkpt>
      <trkpt lat="28.275429" lon="-14.150981">
        <ele>312.699429</ele>
        <time>2023-01-09T03:12:25.174Z</time>
      </trkpt>
      <trkpt lat="28.276256" lon="-14.150349">
        <ele>328.677336</ele>
        <time>2023-01-09T03:14:09.347Z</time>
      </trkpt>
      <trkpt lat="28.277103" lon="-14.149587">
        <ele>344.658990</ele>
        <time>2023-01-09T03:16:06.433Z</time>
      </trkpt>
      <trkpt lat="28.277143" lon="-14.149448">
        <ele>346.230413</ele>
        <time>2023-01-09T03:16:17.364Z</time>
      </trkpt>
      <trkpt lat="28.277076" lon="-14.148795">
        <ele>353.295049</ele>
        <time>2023-01-09T03:17:10.030Z</time>
      </trkpt>
      <trkpt lat="28.277132" lon="-14.148616">
        <ele>355.336360</ele>
        <time>2023-01-09T03:17:20.583Z</time>
      </trkpt>
      <trkpt lat="28.277236" lon="-14.148403">
        <ele>357.953520</ele>
        <time>2023-01-09T03:17:38.423Z</time>
      </trkpt>
      <trkpt lat="28.277392" lon="-14.148252">
        <ele>360.454811</ele>
        <time>2023-01-09T03:17:48.632Z</time>
      </trkpt>
      <trkpt lat="28.277557" lon="-14.148191">
        <ele>362.438973</ele>
        <time>2023-01-09T03:18:02.622Z</time>
      </trkpt>
      <trkpt lat="28.277675" lon="-14.148210">
        <ele>363.071757</ele>
        <time>2023-01-09T03:18:06.757Z</time>
      </trkpt>
      <trkpt lat="28.277816" lon="-14.148785">
        <ele>365.862646</ele>
        <time>2023-01-09T03:18:36.277Z</time>
      </trkpt>
      <trkpt lat="28.277967" lon="-14.149083">
        <ele>367.470231</ele>
        <time>2023-01-09T03:18:50.793Z</time>
      </trkpt>
      <trkpt lat="28.278137" lon="-14.149290">
        <ele>368.793682</ele>
        <time>2023-01-09T03:19:03.382Z</time>
      </trkpt>
      <trkpt lat="28.278373" lon="-14.149427">
        <ele>370.200965</ele>
        <time>2023-01-09T03:19:16.865Z</time>
      </trkpt>
      <trkpt lat="28.278618" lon="-14.149394">
        <ele>371.510903</ele>
        <time>2023-01-09T03:19:24.093Z</time>
      </trkpt>
      <trkpt lat="28.278845" lon="-14.149498">
        <ele>372.259719</ele>
        <time>2023-01-09T03:19:31.499Z</time>
      </trkpt>
      <trkpt lat="28.278878" lon="-14.149592">
        <ele>372.450922</ele>
        <time>2023-01-09T03:19:34.408Z</time>
      </trkpt>
      <trkpt lat="28.278840" lon="-14.149720">
        <ele>372.706147</ele>
        <time>2023-01-09T03:19:38.352Z</time>
      </trkpt>
      <trkpt lat="28.278548" lon="-14.150300">
        <ele>373.968482</ele>
        <time>2023-01-09T03:19:57.244Z</time>
      </trkpt>
      <trkpt lat="28.278524" lon="-14.150456">
        <ele>374.267705</ele>
        <time>2023-01-09T03:20:01.812Z</time>
      </trkpt>
      <trkpt lat="28.278567" lon="-14.150649">
        <ele>374.643864</ele>
        <time>2023-01-09T03:20:07.345Z</time>
      </trkpt>
      <trkpt lat="28.278997" lon="-14.151209">
        <ele>375.890919</ele>
        <time>2023-01-09T03:20:29.059Z</time>
      </trkpt>
      <trkpt lat="28.279068" lon="-14.151624">
        <ele>376.275655</ele>
        <time>2023-01-09T03:20:40.530Z</time>
      </trkpt>
      <trkpt lat="28.279159" lon="-14.151716">
        <ele>376.401564</ele>
        <time>2023-01-09T03:20:44.131Z</time>
      </trkpt>
      <trkpt lat="28.279367" lon="-14.151769">
        <ele>376.621855</ele>
        <time>2023-01-09T03:20:50.520Z</time>
      </trkpt>
      <trkpt lat="28.279456" lon="-14.151847">
        <ele>376.738035</ele>
        <time>2023-01-09T03:20:53.678Z</time>
      </trkpt>
      <trkpt lat="28.279496" lon="-14.151965">
        <ele>376.853102</ele>
        <time>2023-01-09T03:20:56.714Z</time>
      </trkpt>
      <trkpt lat="28.279453" lon="-14.152150">
        <ele>377.027228</ele>
        <time>2023-01-09T03:21:01.252Z</time>
      </trkpt>
      <trkpt lat="28.279071" lon="-14.152824">
        <ele>377.187930</ele>
        <time>2023-01-09T03:21:17.138Z</time>
      </trkpt>
      <trkpt lat="28.278925" lon="-14.153220">
        <ele>376.123561</ele>
        <time>2023-01-09T03:21:25.495Z</time>
      </trkpt>
      <trkpt lat="28.278873" lon="-14.153730">
        <ele>374.850673</ele>
        <time>2023-01-09T03:21:34.050Z</time>
      </trkpt>
      <trkpt lat="28.278963" lon="-14.153872">
        <ele>374.416915</ele>
        <time>2023-01-09T03:21:36.650Z</time>
      </trkpt>
      <trkpt lat="28.279109" lon="-14.153942">
        <ele>373.970745</ele>
        <time>2023-01-09T03:21:39.333Z</time>
      </trkpt>
      <trkpt lat="28.279298" lon="-14.153890">
        <ele>373.423258</ele>
        <time>2023-01-09T03:21:42.428Z</time>
      </trkpt>
      <trkpt lat="28.279565" lon="-14.153617">
        <ele>372.185393</ele>
        <time>2023-01-09T03:21:47.978Z</time>
      </trkpt>
      <trkpt lat="28.279700" lon="-14.153545">
        <ele>371.025748</ele>
        <time>2023-01-09T03:21:50.234Z</time>
      </trkpt>
      <trkpt lat="28.280227" lon="-14.153428">
        <ele>366.850698</ele>
        <time>2023-01-09T03:21:58.063Z</time>
      </trkpt>
      <trkpt lat="28.281095" lon="-14.152406">
        <ele>357.722330</ele>
        <time>2023-01-09T03:22:16.253Z</time>
      </trkpt>
      <trkpt lat="28.281476" lon="-14.152100">
        <ele>355.603134</ele>
        <time>2023-01-09T03:22:23.323Z</time>
      </trkpt>
      <trkpt lat="28.281594" lon="-14.152107">
        <ele>355.066549</ele>
        <time>2023-01-09T03:22:25.252Z</time>
      </trkpt>
      <trkpt lat="28.281694" lon="-14.152190">
        <ele>354.504061</ele>
        <time>2023-01-09T03:22:27.211Z</time>
      </trkpt>
      <trkpt lat="28.281741" lon="-14.152321">
        <ele>353.938375</ele>
        <time>2023-01-09T03:22:29.246Z</time>
      </trkpt>
      <trkpt lat="28.281714" lon="-14.152821">
        <ele>351.935089</ele>
        <time>2023-01-09T03:22:36.972Z</time>
      </trkpt>
      <trkpt lat="28.281803" lon="-14.153458">
        <ele>350.442887</ele>
        <time>2023-01-09T03:22:47.839Z</time>
      </trkpt>
      <trkpt lat="28.281904" lon="-14.153535">
        <ele>350.472414</ele>
        <time>2023-01-09T03:22:50.028Z</time>
      </trkpt>
      <trkpt lat="28.282024" lon="-14.153527">
        <ele>350.501591</ele>
        <time>2023-01-09T03:22:52.043Z</time>
      </trkpt>
      <trkpt lat="28.282493" lon="-14.153163">
        <ele>350.639475</ele>
        <time>2023-01-09T03:23:06.806Z</time>
      </trkpt>
      <trkpt lat="28.283163" lon="-14.152941">
        <ele>350.808880</ele>
        <time>2023-01-09T03:23:26.808Z</time>
      </trkpt>
      <trkpt lat="28.283366" lon="-14.152939">
        <ele>351.394228</ele>
        <time>2023-01-09T03:23:30.823Z</time>
      </trkpt>
      <trkpt lat="28.283476" lon="-14.152981">
        <ele>351.868448</ele>
        <time>2023-01-09T03:23:37.685Z</time>
      </trkpt>
      <trkpt lat="28.283676" lon="-14.153282">
        <ele>353.225312</ele>
        <time>2023-01-09T03:23:48.507Z</time>
      </trkpt>
      <trkpt lat="28.284036" lon="-14.154511">
        <ele>357.886026</ele>
        <time>2023-01-09T03:24:41.764Z</time>
      </trkpt>
      <trkpt lat="28.284313" lon="-14.155083">
        <ele>360.992374</ele>
        <time>2023-01-09T03:25:13.395Z</time>
      </trkpt>
      <trkpt lat="28.284741" lon="-14.156458">
        <ele>368.168645</ele>
        <time>2023-01-09T03:26:19.306Z</time>
      </trkpt>
      <trkpt lat="28.285130" lon="-14.159493">
        <ele>374.326069</ele>
        <time>2023-01-09T03:28:06.840Z</time>
      </trkpt>
      <trkpt lat="28.284845" lon="-14.159601">
        <ele>374.078239</ele>
        <time>2023-01-09T03:28:12.480Z</time>
      </trkpt>
      <trkpt lat="28.284587" lon="-14.159819">
        <ele>373.812974</ele>
        <time>2023-01-09T03:28:18.050Z</time>
      </trkpt>
      <trkpt lat="28.282435" lon="-14.162024">
        <ele>349.666173</ele>
        <time>2023-01-09T03:28:59.997Z</time>
      </trkpt>
      <trkpt lat="28.279986" lon="-14.164371">
        <ele>314.168076</ele>
        <time>2023-01-09T03:29:44.131Z</time>
      </trkpt>
      <trkpt lat="28.274581" lon="-14.169551">
        <ele>265.990245</ele>
        <time>2023-01-09T03:31:31.691Z</time>
      </trkpt>
      <trkpt lat="28.273540" lon="-14.170392">
        <ele>258.193894</ele>
        <time>2023-01-09T03:31:51.558Z</time>
      </trkpt>
      <trkpt lat="28.272310" lon="-14.171267">
        <ele>248.567999</ele>
        <time>2023-01-09T03:32:13.286Z</time>
      </trkpt>
      <trkpt lat="28.269350" lon="-14.173374">
        <ele>227.048553</ele>
        <time>2023-01-09T03:33:06.607Z</time>
      </trkpt>
      <trkpt lat="28.266736" lon="-14.175847">
        <ele>210.431830</ele>
        <time>2023-01-09T03:34:01.473Z</time>
      </trkpt>
      <trkpt lat="28.266452" lon="-14.176012">
        <ele>208.852625</ele>
        <time>2023-01-09T03:34:06.609Z</time>
      </trkpt>
      <trkpt lat="28.262953" lon="-14.177433">
        <ele>188.003387</ele>
        <time>2023-01-09T03:35:04.252Z</time>
      </trkpt>
      <trkpt lat="28.260175" lon="-14.179084">
        <ele>170.297624</ele>
        <time>2023-01-09T03:35:52.585Z</time>
      </trkpt>
      <trkpt lat="28.259453" lon="-14.179571">
        <ele>166.118458</ele>
        <time>2023-01-09T03:36:06.337Z</time>
      </trkpt>
      <trkpt lat="28.259325" lon="-14.179697">
        <ele>165.449962</ele>
        <time>2023-01-09T03:36:09.175Z</time>
      </trkpt>
      <trkpt lat="28.259214" lon="-14.179920">
        <ele>164.656540</ele>
        <time>2023-01-09T03:36:12.968Z</time>
      </trkpt>
      <trkpt lat="28.258816" lon="-14.181765">
        <ele>158.449100</ele>
        <time>2023-01-09T03:36:41.472Z</time>
      </trkpt>
      <trkpt lat="28.258638" lon="-14.182224">
        <ele>156.245085</ele>
        <time>2023-01-09T03:36:48.580Z</time>
      </trkpt>
      <trkpt lat="28.257586" lon="-14.184432">
        <ele>145.217590</ele>
        <time>2023-01-09T03:37:22.976Z</time>
      </trkpt>
      <trkpt lat="28.257331" lon="-14.184773">
        <ele>143.253460</ele>
        <time>2023-01-09T03:37:29.260Z</time>
      </trkpt>
      <trkpt lat="28.256045" lon="-14.185761">
        <ele>138.096080</ele>
        <time>2023-01-09T03:37:55.524Z</time>
      </trkpt>
      <trkpt lat="28.254699" lon="-14.187065">
        <ele>135.019075</ele>
        <time>2023-01-09T03:38:28.980Z</time>
      </trkpt>
      <trkpt lat="28.254608" lon="-14.187157">
        <ele>134.873861</ele>
        <time>2023-01-09T03:38:31.857Z</time>
      </trkpt>
      <trkpt lat="28.253618" lon="-14.188154">
        <ele>133.682483</ele>
        <time>2023-01-09T03:38:59.698Z</time>
      </trkpt>
      <trkpt lat="28.253285" lon="-14.188551">
        <ele>133.328880</ele>
        <time>2023-01-09T03:39:10.297Z</time>
      </trkpt>
      <trkpt lat="28.251867" lon="-14.190505">
        <ele>129.302197</ele>
        <time>2023-01-09T03:39:52.003Z</time>
      </trkpt>
      <trkpt lat="28.251499" lon="-14.191061">
        <ele>126.269659</ele>
        <time>2023-01-09T03:40:01.885Z</time>
      </trkpt>
      <trkpt lat="28.251042" lon="-14.192009">
        <ele>121.343277</ele>
        <time>2023-01-09T03:40:16.492Z</time>
      </trkpt>
      <trkpt lat="28.250721" lon="-14.192699">
        <ele>117.911403</ele>
        <time>2023-01-09T03:40:27.177Z</time>
      </trkpt>
      <trkpt lat="28.250542" lon="-14.192944">
        <ele>116.546370</ele>
        <time>2023-01-09T03:40:31.592Z</time>
      </trkpt>
      <trkpt lat="28.250126" lon="-14.193339">
        <ele>113.906098</ele>
        <time>2023-01-09T03:40:40.156Z</time>
      </trkpt>
      <trkpt lat="28.249858" lon="-14.193507">
        <ele>112.415674</ele>
        <time>2023-01-09T03:40:45.067Z</time>
      </trkpt>
      <trkpt lat="28.242892" lon="-14.197192">
        <ele>87.186750</ele>
        <time>2023-01-09T03:42:56.138Z</time>
      </trkpt>
      <trkpt lat="28.242154" lon="-14.197472">
        <ele>85.354849</ele>
        <time>2023-01-09T03:43:09.924Z</time>
      </trkpt>
      <trkpt lat="28.241288" lon="-14.197652">
        <ele>83.368887</ele>
        <time>2023-01-09T03:43:26.181Z</time>
      </trkpt>
      <trkpt lat="28.237735" lon="-14.198160">
        <ele>78.499969</ele>
        <time>2023-01-09T03:44:35.581Z</time>
      </trkpt>
      <trkpt lat="28.237150" lon="-14.198324">
        <ele>77.898321</ele>
        <time>2023-01-09T03:44:46.590Z</time>
      </trkpt>
      <trkpt lat="28.236797" lon="-14.198496">
        <ele>77.514764</ele>
        <time>2023-01-09T03:44:54.219Z</time>
      </trkpt>
      <trkpt lat="28.236039" lon="-14.198976">
        <ele>76.712116</ele>
        <time>2023-01-09T03:45:12.891Z</time>
      </trkpt>
      <trkpt lat="28.235144" lon="-14.199544">
        <ele>76.196381</ele>
        <time>2023-01-09T03:45:34.191Z</time>
      </trkpt>
      <trkpt lat="28.234689" lon="-14.199839">
        <ele>75.932831</ele>
        <time>2023-01-09T03:45:45.036Z</time>
      </trkpt>
      <trkpt lat="28.233870" lon="-14.200370">
        <ele>75.774391</ele>
        <time>2023-01-09T03:46:05.087Z</time>
      </trkpt>
      <trkpt lat="28.233709" lon="-14.200475">
        <ele>75.752275</ele>
        <time>2023-01-09T03:46:08.599Z</time>
      </trkpt>
      <trkpt lat="28.232037" lon="-14.201562">
        <ele>76.459523</ele>
        <time>2023-01-09T03:46:56.735Z</time>
      </trkpt>
      <trkpt lat="28.231783" lon="-14.201731">
        <ele>76.667028</ele>
        <time>2023-01-09T03:47:05.490Z</time>
      </trkpt>
      <trkpt lat="28.231450" lon="-14.201943">
        <ele>76.919201</ele>
        <time>2023-01-09T03:47:16.164Z</time>
      </trkpt>
      <trkpt lat="28.230565" lon="-14.202513">
        <ele>76.455333</ele>
        <time>2023-01-09T03:47:39.287Z</time>
      </trkpt>
      <trkpt lat="28.230226" lon="-14.202806">
        <ele>76.261090</ele>
        <time>2023-01-09T03:47:47.862Z</time>
      </trkpt>
      <trkpt lat="28.229818" lon="-14.203226">
        <ele>75.398122</ele>
        <time>2023-01-09T03:47:58.511Z</time>
      </trkpt>
      <trkpt lat="28.228853" lon="-14.204437">
        <ele>70.558691</ele>
        <time>2023-01-09T03:48:22.487Z</time>
      </trkpt>
      <trkpt lat="28.227669" lon="-14.205427">
        <ele>65.516573</ele>
        <time>2023-01-09T03:48:46.374Z</time>
      </trkpt>
      <trkpt lat="28.227636" lon="-14.205454">
        <ele>65.376798</ele>
        <time>2023-01-09T03:48:47.061Z</time>
      </trkpt>
      <trkpt lat="28.226747" lon="-14.206216">
        <ele>64.599697</ele>
        <time>2023-01-09T03:49:08.366Z</time>
      </trkpt>
      <trkpt lat="28.226344" lon="-14.206746">
        <ele>65.259532</ele>
        <time>2023-01-09T03:49:28.748Z</time>
      </trkpt>
      <trkpt lat="28.224774" lon="-14.209233">
        <ele>71.636434</ele>
        <time>2023-01-09T03:51:15.294Z</time>
      </trkpt>
      <trkpt lat="28.223818" lon="-14.210732">
        <ele>71.216430</ele>
        <time>2023-01-09T03:51:47.483Z</time>
      </trkpt>
      <trkpt lat="28.222169" lon="-14.212779">
        <ele>65.460557</ele>
        <time>2023-01-09T03:52:31.544Z</time>
      </trkpt>
      <trkpt lat="28.221532" lon="-14.213295">
        <ele>63.181749</ele>
        <time>2023-01-09T03:52:44.910Z</time>
      </trkpt>
      <trkpt lat="28.219786" lon="-14.214453">
        <ele>55.460127</ele>
        <time>2023-01-09T03:53:18.054Z</time>
      </trkpt>
      <trkpt lat="28.219418" lon="-14.214543">
        <ele>54.538981</ele>
        <time>2023-01-09T03:53:24.393Z</time>
      </trkpt>
      <trkpt lat="28.219176" lon="-14.214512">
        <ele>53.943061</ele>
        <time>2023-01-09T03:53:28.593Z</time>
      </trkpt>
      <trkpt lat="28.217306" lon="-14.214134">
        <ele>50.573886</ele>
        <time>2023-01-09T03:54:04.262Z</time>
      </trkpt>
      <trkpt lat="28.217139" lon="-14.214053">
        <ele>50.420611</ele>
        <time>2023-01-09T03:54:08.012Z</time>
      </trkpt>
      <trkpt lat="28.217014" lon="-14.213921">
        <ele>50.276508</ele>
        <time>2023-01-09T03:54:11.599Z</time>
      </trkpt>
      <trkpt lat="28.216826" lon="-14.213194">
        <ele>49.728590</ele>
        <time>2023-01-09T03:54:26.334Z</time>
      </trkpt>
      <trkpt lat="28.216561" lon="-14.211937">
        <ele>49.698825</ele>
        <time>2023-01-09T03:54:52.342Z</time>
      </trkpt>
      <trkpt lat="28.216475" lon="-14.211691">
        <ele>49.692730</ele>
        <time>2023-01-09T03:54:57.439Z</time>
      </trkpt>
      <trkpt lat="28.216388" lon="-14.211581">
        <ele>49.689326</ele>
        <time>2023-01-09T03:55:00.232Z</time>
      </trkpt>
      <trkpt lat="28.216000" lon="-14.211411">
        <ele>49.740404</ele>
        <time>2023-01-09T03:55:08.927Z</time>
      </trkpt>
      <trkpt lat="28.213935" lon="-14.210825">
        <ele>52.649288</ele>
        <time>2023-01-09T03:56:00.269Z</time>
      </trkpt>
      <trkpt lat="28.211154" lon="-14.210026">
        <ele>68.743952</ele>
        <time>2023-01-09T03:58:37.206Z</time>
      </trkpt>
      <trkpt lat="28.210975" lon="-14.209990">
        <ele>69.904178</ele>
        <time>2023-01-09T03:58:46.973Z</time>
      </trkpt>
      <trkpt lat="28.210700" lon="-14.210051">
        <ele>71.458285</ele>
        <time>2023-01-09T03:59:01.908Z</time>
      </trkpt>
      <trkpt lat="28.210574" lon="-14.210178">
        <ele>72.338432</ele>
        <time>2023-01-09T03:59:10.322Z</time>
      </trkpt>
      <trkpt lat="28.208141" lon="-14.214217">
        <ele>94.095970</ele>
        <time>2023-01-09T04:02:36.038Z</time>
      </trkpt>
      <trkpt lat="28.207752" lon="-14.215113">
        <ele>97.964452</ele>
        <time>2023-01-09T04:03:11.683Z</time>
      </trkpt>
      <trkpt lat="28.207112" lon="-14.217248">
        <ele>105.129325</ele>
        <time>2023-01-09T04:04:34.696Z</time>
      </trkpt>
      <trkpt lat="28.206793" lon="-14.217872">
        <ele>106.717071</ele>
        <time>2023-01-09T04:04:59.167Z</time>
      </trkpt>
      <trkpt lat="28.206435" lon="-14.218225">
        <ele>107.901583</ele>
        <time>2023-01-09T04:05:15.322Z</time>
      </trkpt>
      <trkpt lat="28.206231" lon="-14.218323">
        <ele>108.454855</ele>
        <time>2023-01-09T04:05:22.136Z</time>
      </trkpt>
      <trkpt lat="28.203341" lon="-14.218965">
        <ele>106.524491</ele>
        <time>2023-01-09T04:06:24.146Z</time>
      </trkpt>
      <trkpt lat="28.202260" lon="-14.219218">
        <ele>103.925365</ele>
        <time>2023-01-09T04:06:42.664Z</time>
      </trkpt>
      <trkpt lat="28.193523" lon="-14.221210">
        <ele>71.581874</ele>
        <time>2023-01-09T04:09:11.618Z</time>
      </trkpt>
      <trkpt lat="28.193312" lon="-14.221200">
        <ele>70.995507</ele>
        <time>2023-01-09T04:09:15.363Z</time>
      </trkpt>
      <trkpt lat="28.192845" lon="-14.220992">
        <ele>69.602519</ele>
        <time>2023-01-09T04:09:24.279Z</time>
      </trkpt>
      <trkpt lat="28.185908" lon="-14.216935">
        <ele>48.959136</ele>
        <time>2023-01-09T04:11:41.739Z</time>
      </trkpt>
      <trkpt lat="28.185340" lon="-14.216484">
        <ele>47.446268</ele>
        <time>2023-01-09T04:11:54.337Z</time>
      </trkpt>
      <trkpt lat="28.185218" lon="-14.216387">
        <ele>47.146506</ele>
        <time>2023-01-09T04:11:57.026Z</time>
      </trkpt>
      <trkpt lat="28.184376" lon="-14.215597">
        <ele>44.947971</ele>
        <time>2023-01-09T04:12:17.312Z</time>
      </trkpt>
      <trkpt lat="28.182980" lon="-14.214347">
        <ele>41.087261</ele>
        <time>2023-01-09T04:12:49.788Z</time>
      </trkpt>
      <trkpt lat="28.181052" lon="-14.212732">
        <ele>34.627467</ele>
        <time>2023-01-09T04:13:31.421Z</time>
      </trkpt>
      <trkpt lat="28.177338" lon="-14.209653">
        <ele>23.956458</ele>
        <time>2023-01-09T04:14:53.752Z</time>
      </trkpt>
      <trkpt lat="28.177013" lon="-14.209473">
        <ele>23.362306</ele>
        <time>2023-01-09T04:15:01.022Z</time>
      </trkpt>
      <trkpt lat="28.176524" lon="-14.209327">
        <ele>23.467256</ele>
        <time>2023-01-09T04:15:11.413Z</time>
      </trkpt>
      <trkpt lat="28.176256" lon="-14.209273">
        <ele>23.523751</ele>
        <time>2023-01-09T04:15:17.115Z</time>
      </trkpt>
      <trkpt lat="28.176092" lon="-14.209337">
        <ele>23.559748</ele>
        <time>2023-01-09T04:15:21.290Z</time>
      </trkpt>
      <trkpt lat="28.175920" lon="-14.209454">
        <ele>23.601374</ele>
        <time>2023-01-09T04:15:25.964Z</time>
      </trkpt>
      <trkpt lat="28.175788" lon="-14.209415">
        <ele>23.629685</ele>
        <time>2023-01-09T04:15:29.957Z</time>
      </trkpt>
      <trkpt lat="28.175689" lon="-14.209194">
        <ele>23.675040</ele>
        <time>2023-01-09T04:15:35.481Z</time>
      </trkpt>
      <trkpt lat="28.175495" lon="-14.209037">
        <ele>23.744592</ele>
        <time>2023-01-09T04:15:42.573Z</time>
      </trkpt>
      <trkpt lat="28.174888" lon="-14.208811">
        <ele>25.556477</ele>
        <time>2023-01-09T04:16:04.390Z</time>
      </trkpt>
      <trkpt lat="28.174678" lon="-14.208834">
        <ele>26.154835</ele>
        <time>2023-01-09T04:16:11.830Z</time>
      </trkpt>
      <trkpt lat="28.174572" lon="-14.208948">
        <ele>26.569093</ele>
        <time>2023-01-09T04:16:17.464Z</time>
      </trkpt>
      <trkpt lat="28.174431" lon="-14.208993">
        <ele>26.984513</ele>
        <time>2023-01-09T04:16:22.494Z</time>
      </trkpt>
      <trkpt lat="28.174352" lon="-14.208985">
        <ele>27.209458</ele>
        <time>2023-01-09T04:16:25.347Z</time>
      </trkpt>
      <trkpt lat="28.174235" lon="-14.209058">
        <ele>27.588165</ele>
        <time>2023-01-09T04:16:30.624Z</time>
      </trkpt>
      <trkpt lat="28.174159" lon="-14.209228">
        <ele>28.064715</ele>
        <time>2023-01-09T04:16:37.222Z</time>
      </trkpt>
      <trkpt lat="28.174039" lon="-14.209721">
        <ele>29.666326</ele>
        <time>2023-01-09T04:16:56.233Z</time>
      </trkpt>
      <trkpt lat="28.173803" lon="-14.210290">
        <ele>32.216204</ele>
        <time>2023-01-09T04:17:21.326Z</time>
      </trkpt>
      <trkpt lat="28.173099" lon="-14.211326">
        <ele>37.345789</ele>
        <time>2023-01-09T04:18:15.650Z</time>
      </trkpt>
      <trkpt lat="28.172796" lon="-14.211849">
        <ele>38.835138</ele>
        <time>2023-01-09T04:18:40.394Z</time>
      </trkpt>
      <trkpt lat="28.171907" lon="-14.213380">
        <ele>40.808061</ele>
        <time>2023-01-09T04:19:31.139Z</time>
      </trkpt>
      <trkpt lat="28.171061" lon="-14.215474">
        <ele>34.054944</ele>
        <time>2023-01-09T04:20:04.356Z</time>
      </trkpt>
      <trkpt lat="28.170355" lon="-14.217220">
        <ele>26.343045</ele>
        <time>2023-01-09T04:20:30.801Z</time>
      </trkpt>
      <trkpt lat="28.169902" lon="-14.218197">
        <ele>22.636358</ele>
        <time>2023-01-09T04:20:47.196Z</time>
      </trkpt>
      <trkpt lat="28.169255" lon="-14.219356">
        <ele>19.827290</ele>
        <time>2023-01-09T04:21:09.912Z</time>
      </trkpt>
      <trkpt lat="28.168857" lon="-14.219954">
        <ele>18.533276</ele>
        <time>2023-01-09T04:21:22.147Z</time>
      </trkpt>
      <trkpt lat="28.168565" lon="-14.220392">
        <ele>17.587662</ele>
        <time>2023-01-09T04:21:30.945Z</time>
      </trkpt>
      <trkpt lat="28.168122" lon="-14.221067">
        <ele>16.140797</ele>
        <time>2023-01-09T04:21:44.200Z</time>
      </trkpt>
      <trkpt lat="28.168016" lon="-14.221315">
        <ele>15.666921</ele>
        <time>2023-01-09T04:21:48.514Z</time>
      </trkpt>
      <trkpt lat="28.168020" lon="-14.221454">
        <ele>15.427802</ele>
        <time>2023-01-09T04:21:50.855Z</time>
      </trkpt>
      <trkpt lat="28.167956" lon="-14.221593">
        <ele>15.158178</ele>
        <time>2023-01-09T04:21:53.373Z</time>
      </trkpt>
      <trkpt lat="28.167837" lon="-14.221675">
        <ele>14.886619</ele>
        <time>2023-01-09T04:21:56.058Z</time>
      </trkpt>
      <trkpt lat="28.167712" lon="-14.221680">
        <ele>14.728086</ele>
        <time>2023-01-09T04:21:58.508Z</time>
      </trkpt>
      <trkpt lat="28.167634" lon="-14.221709">
        <ele>14.810727</ele>
        <time>2023-01-09T04:22:00.057Z</time>
      </trkpt>
      <trkpt lat="28.167449" lon="-14.221802">
        <ele>15.014455</ele>
        <time>2023-01-09T04:22:04.229Z</time>
      </trkpt>
      <trkpt lat="28.167118" lon="-14.222072">
        <ele>15.424921</ele>
        <time>2023-01-09T04:22:13.388Z</time>
      </trkpt>
      <trkpt lat="28.167021" lon="-14.221965">
        <ele>15.561143</ele>
        <time>2023-01-09T04:22:22.753Z</time>
      </trkpt>
      <trkpt lat="28.166188" lon="-14.222942">
        <ele>17.298184</ele>
        <time>2023-01-09T04:23:04.609Z</time>
      </trkpt>
      <trkpt lat="28.163666" lon="-14.226421">
        <ele>28.947682</ele>
        <time>2023-01-09T04:25:41.520Z</time>
      </trkpt>
      <trkpt lat="28.162952" lon="-14.227380">
        <ele>30.801659</ele>
        <time>2023-01-09T04:26:12.502Z</time>
      </trkpt>
      <trkpt lat="28.162401" lon="-14.228283">
        <ele>31.639901</ele>
        <time>2023-01-09T04:26:35.160Z</time>
      </trkpt>
      <trkpt lat="28.161612" lon="-14.229663">
        <ele>33.493495</ele>
        <time>2023-01-09T04:27:18.567Z</time>
      </trkpt>
      <trkpt lat="28.161464" lon="-14.229838">
        <ele>33.927360</ele>
        <time>2023-01-09T04:27:26.103Z</time>
      </trkpt>
      <trkpt lat="28.161236" lon="-14.230053">
        <ele>34.529070</ele>
        <time>2023-01-09T04:27:36.337Z</time>
      </trkpt>
      <trkpt lat="28.160156" lon="-14.230894">
        <ele>37.146306</ele>
        <time>2023-01-09T04:28:22.104Z</time>
      </trkpt>
      <trkpt lat="28.159874" lon="-14.230943">
        <ele>37.704916</ele>
        <time>2023-01-09T04:28:31.573Z</time>
      </trkpt>
      <trkpt lat="28.159590" lon="-14.230853">
        <ele>38.282296</ele>
        <time>2023-01-09T04:28:41.396Z</time>
      </trkpt>
      <trkpt lat="28.159586" lon="-14.230772">
        <ele>38.422344</ele>
        <time>2023-01-09T04:28:46.367Z</time>
      </trkpt>
      <trkpt lat="28.159739" lon="-14.230633">
        <ele>38.806175</ele>
        <time>2023-01-09T04:28:59.956Z</time>
      </trkpt>
      <trkpt lat="28.159709" lon="-14.230585">
        <ele>38.907745</ele>
        <time>2023-01-09T04:29:03.578Z</time>
      </trkpt>
      <trkpt lat="28.159495" lon="-14.230764">
        <ele>39.428382</ele>
        <time>2023-01-09T04:29:11.723Z</time>
      </trkpt>
      <trkpt lat="28.159439" lon="-14.230812">
        <ele>39.562414</ele>
        <time>2023-01-09T04:29:13.832Z</time>
      </trkpt>
      <trkpt lat="28.159358" lon="-14.230878">
        <ele>39.736070</ele>
        <time>2023-01-09T04:29:16.823Z</time>
      </trkpt>
      <trkpt lat="28.158776" lon="-14.231399">
        <ele>41.027031</ele>
        <time>2023-01-09T04:29:38.249Z</time>
      </trkpt>
      <trkpt lat="28.158562" lon="-14.231584">
        <ele>41.495533</ele>
        <time>2023-01-09T04:29:46.001Z</time>
      </trkpt>
      <trkpt lat="28.158323" lon="-14.231793">
        <ele>42.020997</ele>
        <time>2023-01-09T04:29:55.502Z</time>
      </trkpt>
      <trkpt lat="28.158285" lon="-14.231826">
        <ele>42.104329</ele>
        <time>2023-01-09T04:29:57.025Z</time>
      </trkpt>
      <trkpt lat="28.157863" lon="-14.232193">
        <ele>43.311458</ele>
        <time>2023-01-09T04:30:15.137Z</time>
      </trkpt>
      <trkpt lat="28.157103" lon="-14.232855">
        <ele>46.271154</ele>
        <time>2023-01-09T04:30:50.844Z</time>
      </trkpt>
      <trkpt lat="28.157075" lon="-14.232873">
        <ele>46.370560</ele>
        <time>2023-01-09T04:30:52.064Z</time>
      </trkpt>
      <trkpt lat="28.156833" lon="-14.233109">
        <ele>47.356301</ele>
        <time>2023-01-09T04:31:04.528Z</time>
      </trkpt>
      <trkpt lat="28.156785" lon="-14.233152">
        <ele>47.545220</ele>
        <time>2023-01-09T04:31:06.935Z</time>
      </trkpt>
      <trkpt lat="28.156639" lon="-14.233261">
        <ele>48.085081</ele>
        <time>2023-01-09T04:31:13.973Z</time>
      </trkpt>
      <trkpt lat="28.156358" lon="-14.233509">
        <ele>49.752285</ele>
        <time>2023-01-09T04:31:28.864Z</time>
      </trkpt>
      <trkpt lat="28.156270" lon="-14.233576">
        <ele>50.272639</ele>
        <time>2023-01-09T04:31:33.371Z</time>
      </trkpt>
      <trkpt lat="28.155778" lon="-14.233956">
        <ele>53.195008</ele>
        <time>2023-01-09T04:32:00.808Z</time>
      </trkpt>
      <trkpt lat="28.155561" lon="-14.234104">
        <ele>54.438163</ele>
        <time>2023-01-09T04:32:13.514Z</time>
      </trkpt>
      <trkpt lat="28.155499" lon="-14.234144">
        <ele>54.788354</ele>
        <time>2023-01-09T04:32:17.119Z</time>
      </trkpt>
      <trkpt lat="28.155052" lon="-14.234439">
        <ele>57.452553</ele>
        <time>2023-01-09T04:32:45.063Z</time>
      </trkpt>
      <trkpt lat="28.154878" lon="-14.234550">
        <ele>58.879278</ele>
        <time>2023-01-09T04:32:55.277Z</time>
      </trkpt>
      <trkpt lat="28.154734" lon="-14.234642">
        <ele>60.060442</ele>
        <time>2023-01-09T04:33:03.460Z</time>
      </trkpt>
      <trkpt lat="28.154071" lon="-14.235070">
        <ele>65.512439</ele>
        <time>2023-01-09T04:33:51.038Z</time>
      </trkpt>
      <trkpt lat="28.153849" lon="-14.235268">
        <ele>67.530795</ele>
        <time>2023-01-09T04:34:09.593Z</time>
      </trkpt>
      <trkpt lat="28.153692" lon="-14.235333">
        <ele>68.725244</ele>
        <time>2023-01-09T04:34:19.979Z</time>
      </trkpt>
      <trkpt lat="28.153612" lon="-14.235254">
        <ele>69.483319</ele>
        <time>2023-01-09T04:34:27.114Z</time>
      </trkpt>
      <trkpt lat="28.153640" lon="-14.235106">
        <ele>70.023945</ele>
        <time>2023-01-09T04:34:34.733Z</time>
      </trkpt>
      <trkpt lat="28.153387" lon="-14.235294">
        <ele>70.500476</ele>
        <time>2023-01-09T04:34:57.175Z</time>
      </trkpt>
      <trkpt lat="28.153114" lon="-14.235645">
        <ele>71.150648</ele>
        <time>2023-01-09T04:35:20.959Z</time>
      </trkpt>
      <trkpt lat="28.153075" lon="-14.235906">
        <ele>71.518373</ele>
        <time>2023-01-09T04:35:32.718Z</time>
      </trkpt>
      <trkpt lat="28.153080" lon="-14.236409">
        <ele>72.217135</ele>
        <time>2023-01-09T04:35:47.390Z</time>
      </trkpt>
      <trkpt lat="28.153046" lon="-14.236588">
        <ele>72.471488</ele>
        <time>2023-01-09T04:35:52.135Z</time>
      </trkpt>
      <trkpt lat="28.152832" lon="-14.236918">
        <ele>71.269538</ele>
        <time>2023-01-09T04:36:02.965Z</time>
      </trkpt>
      <trkpt lat="28.152409" lon="-14.237174">
        <ele>67.560765</ele>
        <time>2023-01-09T04:36:16.270Z</time>
      </trkpt>
      <trkpt lat="28.152089" lon="-14.237209">
        <ele>65.073949</ele>
        <time>2023-01-09T04:36:24.802Z</time>
      </trkpt>
      <trkpt lat="28.151167" lon="-14.237015">
        <ele>57.664208</ele>
        <time>2023-01-09T04:36:48.866Z</time>
      </trkpt>
      <trkpt lat="28.149754" lon="-14.236876">
        <ele>44.994221</ele>
        <time>2023-01-09T04:37:25.936Z</time>
      </trkpt>
      <trkpt lat="28.149370" lon="-14.236793">
        <ele>41.930479</ele>
        <time>2023-01-09T04:37:36.388Z</time>
      </trkpt>
      <trkpt lat="28.149093" lon="-14.236787">
        <ele>40.298340</ele>
        <time>2023-01-09T04:37:43.847Z</time>
      </trkpt>
      <trkpt lat="28.148821" lon="-14.236846">
        <ele>38.666910</ele>
        <time>2023-01-09T04:37:51.463Z</time>
      </trkpt>
      <trkpt lat="28.148078" lon="-14.237176">
        <ele>33.966130</ele>
        <time>2023-01-09T04:38:13.887Z</time>
      </trkpt>
      <trkpt lat="28.146581" lon="-14.237753">
        <ele>29.430575</ele>
        <time>2023-01-09T04:39:03.069Z</time>
      </trkpt>
      <trkpt lat="28.145877" lon="-14.238058">
        <ele>28.548641</ele>
        <time>2023-01-09T04:39:30.931Z</time>
      </trkpt>
      <trkpt lat="28.145791" lon="-14.238198">
        <ele>28.705611</ele>
        <time>2023-01-09T04:39:37.092Z</time>
      </trkpt>
      <trkpt lat="28.145669" lon="-14.238282">
        <ele>28.854521</ele>
        <time>2023-01-09T04:39:42.383Z</time>
      </trkpt>
      <trkpt lat="28.144647" lon="-14.239004">
        <ele>30.110787</ele>
        <time>2023-01-09T04:40:36.078Z</time>
      </trkpt>
      <trkpt lat="28.144481" lon="-14.239126">
        <ele>30.173500</ele>
        <time>2023-01-09T04:40:44.903Z</time>
      </trkpt>
      <trkpt lat="28.144022" lon="-14.239299">
        <ele>30.129064</ele>
        <time>2023-01-09T04:41:08.160Z</time>
      </trkpt>
      <trkpt lat="28.143421" lon="-14.239453">
        <ele>30.072459</ele>
        <time>2023-01-09T04:41:31.028Z</time>
      </trkpt>
      <trkpt lat="28.142962" lon="-14.239807">
        <ele>30.021463</ele>
        <time>2023-01-09T04:41:49.238Z</time>
      </trkpt>
      <trkpt lat="28.142715" lon="-14.239940">
        <ele>29.018056</ele>
        <time>2023-01-09T04:41:57.844Z</time>
      </trkpt>
      <trkpt lat="28.142458" lon="-14.240029">
        <ele>27.967529</ele>
        <time>2023-01-09T04:42:06.069Z</time>
      </trkpt>
      <trkpt lat="28.142336" lon="-14.240023">
        <ele>27.490129</ele>
        <time>2023-01-09T04:42:09.964Z</time>
      </trkpt>
      <trkpt lat="28.141643" lon="-14.239710">
        <ele>24.573927</ele>
        <time>2023-01-09T04:42:32.055Z</time>
      </trkpt>
      <trkpt lat="28.141374" lon="-14.239661">
        <ele>23.508807</ele>
        <time>2023-01-09T04:42:39.755Z</time>
      </trkpt>
      <trkpt lat="28.141213" lon="-14.239683">
        <ele>22.871710</ele>
        <time>2023-01-09T04:42:44.344Z</time>
      </trkpt>
      <trkpt lat="28.140616" lon="-14.239957">
        <ele>20.284505</ele>
        <time>2023-01-09T04:43:02.620Z</time>
      </trkpt>
      <trkpt lat="28.140294" lon="-14.240075">
        <ele>18.925119</ele>
        <time>2023-01-09T04:43:12.308Z</time>
      </trkpt>
      <trkpt lat="28.140046" lon="-14.240266">
        <ele>17.720838</ele>
        <time>2023-01-09T04:43:21.379Z</time>
      </trkpt>
      <trkpt lat="28.139588" lon="-14.240824">
        <ele>15.849583</ele>
        <time>2023-01-09T04:43:43.157Z</time>
      </trkpt>
      <trkpt lat="28.139504" lon="-14.241001">
        <ele>15.932878</ele>
        <time>2023-01-09T04:43:49.003Z</time>
      </trkpt>
      <trkpt lat="28.139204" lon="-14.241180">
        <ele>16.092180</ele>
        <time>2023-01-09T04:44:01.234Z</time>
      </trkpt>
      <trkpt lat="28.139144" lon="-14.241288">
        <ele>16.145075</ele>
        <time>2023-01-09T04:44:07.028Z</time>
      </trkpt>
      <trkpt lat="28.138878" lon="-14.242291">
        <ele>16.579097</ele>
        <time>2023-01-09T04:44:47.884Z</time>
      </trkpt>
      <trkpt lat="28.138610" lon="-14.242709">
        <ele>17.755717</ele>
        <time>2023-01-09T04:45:09.280Z</time>
      </trkpt>
      <trkpt lat="28.138092" lon="-14.243703">
        <ele>20.719709</ele>
        <time>2023-01-09T04:46:02.322Z</time>
      </trkpt>
      <trkpt lat="28.137983" lon="-14.243885">
        <ele>21.284494</ele>
        <time>2023-01-09T04:46:12.222Z</time>
      </trkpt>
      <trkpt lat="28.137712" lon="-14.244075">
        <ele>22.229461</ele>
        <time>2023-01-09T04:46:31.078Z</time>
      </trkpt>
      <trkpt lat="28.137614" lon="-14.244269">
        <ele>22.830618</ele>
        <time>2023-01-09T04:46:43.398Z</time>
      </trkpt>
      <trkpt lat="28.137584" lon="-14.244408">
        <ele>23.215394</ele>
        <time>2023-01-09T04:46:49.075Z</time>
      </trkpt>
      <trkpt lat="28.137679" lon="-14.244590">
        <ele>23.784065</ele>
        <time>2023-01-09T04:46:58.666Z</time>
      </trkpt>
      <trkpt lat="28.137683" lon="-14.244743">
        <ele>24.195633</ele>
        <time>2023-01-09T04:47:02.670Z</time>
      </trkpt>
      <trkpt lat="28.137575" lon="-14.245281">
        <ele>25.679223</ele>
        <time>2023-01-09T04:47:21.664Z</time>
      </trkpt>
      <trkpt lat="28.137573" lon="-14.245326">
        <ele>25.800373</ele>
        <time>2023-01-09T04:47:24.794Z</time>
      </trkpt>
      <trkpt lat="28.137556" lon="-14.245695">
        <ele>26.793898</ele>
        <time>2023-01-09T04:47:35.193Z</time>
      </trkpt>
      <trkpt lat="28.137646" lon="-14.246314">
        <ele>26.577739</ele>
        <time>2023-01-09T04:47:52.275Z</time>
      </trkpt>
      <trkpt lat="28.137786" lon="-14.246722">
        <ele>25.810696</ele>
        <time>2023-01-09T04:47:59.641Z</time>
      </trkpt>
      <trkpt lat="28.137594" lon="-14.246932">
        <ele>25.280701</ele>
        <time>2023-01-09T04:48:06.343Z</time>
      </trkpt>
      <trkpt lat="28.137230" lon="-14.246612">
        <ele>24.365622</ele>
        <time>2023-01-09T04:48:16.903Z</time>
      </trkpt>
      <trkpt lat="28.137067" lon="-14.246744">
        <ele>23.967666</ele>
        <time>2023-01-09T04:48:20.177Z</time>
      </trkpt>
      <trkpt lat="28.137081" lon="-14.246803">
        <ele>23.860618</ele>
        <time>2023-01-09T04:48:21.135Z</time>
      </trkpt>
      <trkpt lat="28.137046" lon="-14.246884">
        <ele>23.634252</ele>
        <time>2023-01-09T04:48:22.531Z</time>
      </trkpt>
      <trkpt lat="28.137057" lon="-14.247171">
        <ele>22.473546</ele>
        <time>2023-01-09T04:48:26.643Z</time>
      </trkpt>
      <trkpt lat="28.136956" lon="-14.247564">
        <ele>20.819584</ele>
        <time>2023-01-09T04:48:32.468Z</time>
      </trkpt>
      <trkpt lat="28.137044" lon="-14.247847">
        <ele>19.607125</ele>
        <time>2023-01-09T04:48:36.810Z</time>
      </trkpt>
      <trkpt lat="28.136999" lon="-14.247966">
        <ele>19.083966</ele>
        <time>2023-01-09T04:48:38.706Z</time>
      </trkpt>
      <trkpt lat="28.136835" lon="-14.247939">
        <ele>18.324650</ele>
        <time>2023-01-09T04:48:43.537Z</time>
      </trkpt>
      <trkpt lat="28.136605" lon="-14.247778">
        <ele>17.086198</ele>
        <time>2023-01-09T04:48:51.456Z</time>
      </trkpt>
      <trkpt lat="28.136436" lon="-14.247871">
        <ele>16.225493</ele>
        <time>2023-01-09T04:48:57.057Z</time>
      </trkpt>
      <trkpt lat="28.135984" lon="-14.248062">
        <ele>15.014123</ele>
        <time>2023-01-09T04:49:12.312Z</time>
      </trkpt>
      <trkpt lat="28.135417" lon="-14.248136">
        <ele>14.142302</ele>
        <time>2023-01-09T04:49:31.205Z</time>
      </trkpt>
      <trkpt lat="28.135230" lon="-14.248287">
        <ele>13.791637</ele>
        <time>2023-01-09T04:49:38.972Z</time>
      </trkpt>
      <trkpt lat="28.134940" lon="-14.248432">
        <ele>13.307507</ele>
        <time>2023-01-09T04:49:49.797Z</time>
      </trkpt>
      <trkpt lat="28.134648" lon="-14.248757">
        <ele>12.775816</ele>
        <time>2023-01-09T04:50:04.397Z</time>
      </trkpt>
      <trkpt lat="28.132925" lon="-14.249263">
        <ele>13.072957</ele>
        <time>2023-01-09T04:51:14.057Z</time>
      </trkpt>
      <trkpt lat="28.132782" lon="-14.249376">
        <ele>13.020817</ele>
        <time>2023-01-09T04:51:20.337Z</time>
      </trkpt>
      <trkpt lat="28.132634" lon="-14.249636">
        <ele>12.939179</ele>
        <time>2023-01-09T04:51:30.357Z</time>
      </trkpt>
      <trkpt lat="28.131993" lon="-14.249953">
        <ele>12.729981</ele>
        <time>2023-01-09T04:51:55.527Z</time>
      </trkpt>
      <trkpt lat="28.131867" lon="-14.250075">
        <ele>12.680417</ele>
        <time>2023-01-09T04:52:01.252Z</time>
      </trkpt>
      <trkpt lat="28.131611" lon="-14.250144">
        <ele>12.601701</ele>
        <time>2023-01-09T04:52:10.702Z</time>
      </trkpt>
      <trkpt lat="28.131024" lon="-14.250121">
        <ele>12.382943</ele>
        <time>2023-01-09T04:52:31.925Z</time>
      </trkpt>
      <trkpt lat="28.130773" lon="-14.250221">
        <ele>12.274720</ele>
        <time>2023-01-09T04:52:41.287Z</time>
      </trkpt>
      <trkpt lat="28.130394" lon="-14.250255">
        <ele>12.120066</ele>
        <time>2023-01-09T04:52:54.611Z</time>
      </trkpt>
      <trkpt lat="28.130198" lon="-14.250339">
        <ele>12.034831</ele>
        <time>2023-01-09T04:53:02.098Z</time>
      </trkpt>
      <trkpt lat="28.130050" lon="-14.250565">
        <ele>11.933847</ele>
        <time>2023-01-09T04:53:11.262Z</time>
      </trkpt>
      <trkpt lat="28.129854" lon="-14.250629">
        <ele>11.850876</ele>
        <time>2023-01-09T04:53:18.790Z</time>
      </trkpt>
      <trkpt lat="28.129567" lon="-14.250749">
        <ele>11.771915</ele>
        <time>2023-01-09T04:53:29.991Z</time>
      </trkpt>
      <trkpt lat="28.129247" lon="-14.250732">
        <ele>11.709294</ele>
        <time>2023-01-09T04:53:41.688Z</time>
      </trkpt>
      <trkpt lat="28.129008" lon="-14.250874">
        <ele>11.656550</ele>
        <time>2023-01-09T04:53:51.620Z</time>
      </trkpt>
      <trkpt lat="28.127767" lon="-14.251336">
        <ele>11.562625</ele>
        <time>2023-01-09T04:54:38.961Z</time>
      </trkpt>
      <trkpt lat="28.127271" lon="-14.251425">
        <ele>11.723510</ele>
        <time>2023-01-09T04:54:58.199Z</time>
      </trkpt>
      <trkpt lat="28.127161" lon="-14.251516">
        <ele>11.767133</ele>
        <time>2023-01-09T04:55:03.234Z</time>
      </trkpt>
      <trkpt lat="28.126739" lon="-14.251975">
        <ele>11.954477</ele>
        <time>2023-01-09T04:55:27.412Z</time>
      </trkpt>
      <trkpt lat="28.126497" lon="-14.252052">
        <ele>12.035003</ele>
        <time>2023-01-09T04:55:37.004Z</time>
      </trkpt>
      <trkpt lat="28.126284" lon="-14.252280">
        <ele>12.177199</ele>
        <time>2023-01-09T04:55:48.967Z</time>
      </trkpt>
      <trkpt lat="28.125748" lon="-14.253042">
        <ele>12.600191</ele>
        <time>2023-01-09T04:56:22.624Z</time>
      </trkpt>
      <trkpt lat="28.125636" lon="-14.253128">
        <ele>12.666752</ele>
        <time>2023-01-09T04:56:29.273Z</time>
      </trkpt>
      <trkpt lat="28.125498" lon="-14.253159">
        <ele>12.735979</ele>
        <time>2023-01-09T04:56:33.992Z</time>
      </trkpt>
      <trkpt lat="28.125332" lon="-14.253339">
        <ele>12.849004</ele>
        <time>2023-01-09T04:56:44.211Z</time>
      </trkpt>
      <trkpt lat="28.125087" lon="-14.253382">
        <ele>12.840044</ele>
        <time>2023-01-09T04:56:53.188Z</time>
      </trkpt>
      <trkpt lat="28.124514" lon="-14.253741">
        <ele>12.270109</ele>
        <time>2023-01-09T04:57:18.136Z</time>
      </trkpt>
      <trkpt lat="28.124393" lon="-14.253843">
        <ele>12.138846</ele>
        <time>2023-01-09T04:57:24.968Z</time>
      </trkpt>
      <trkpt lat="28.124328" lon="-14.253898">
        <ele>12.068238</ele>
        <time>2023-01-09T04:57:27.667Z</time>
      </trkpt>
      <trkpt lat="28.123986" lon="-14.254463">
        <ele>11.542084</ele>
        <time>2023-01-09T04:57:47.124Z</time>
      </trkpt>
      <trkpt lat="28.123853" lon="-14.254753">
        <ele>11.113282</ele>
        <time>2023-01-09T04:57:56.413Z</time>
      </trkpt>
      <trkpt lat="28.123677" lon="-14.255418">
        <ele>9.159200</ele>
        <time>2023-01-09T04:58:15.738Z</time>
      </trkpt>
      <trkpt lat="28.123197" lon="-14.255437">
        <ele>7.626463</ele>
        <time>2023-01-09T04:58:30.333Z</time>
      </trkpt>
      <trkpt lat="28.122853" lon="-14.256101">
        <ele>5.511830</ele>
        <time>2023-01-09T04:58:50.750Z</time>
      </trkpt>
      <trkpt lat="28.122653" lon="-14.256331">
        <ele>4.904793</ele>
        <time>2023-01-09T04:58:59.272Z</time>
      </trkpt>
      <trkpt lat="28.122589" lon="-14.256527">
        <ele>4.511993</ele>
        <time>2023-01-09T04:59:04.781Z</time>
      </trkpt>
      <trkpt lat="28.122491" lon="-14.256659">
        <ele>4.187714</ele>
        <time>2023-01-09T04:59:09.345Z</time>
      </trkpt>
      <trkpt lat="28.121311" lon="-14.257608">
        <ele>1.711540</ele>
        <time>2023-01-09T04:59:58.652Z</time>
      </trkpt>
      <trkpt lat="28.121204" lon="-14.257741">
        <ele>1.674993</ele>
        <time>2023-01-09T05:00:04.503Z</time>
      </trkpt>
      <trkpt lat="28.121114" lon="-14.258085">
        <ele>1.602148</ele>
        <time>2023-01-09T05:00:16.262Z</time>
      </trkpt>
      <trkpt lat="28.120890" lon="-14.258447">
        <ele>1.512372</ele>
        <time>2023-01-09T05:00:30.868Z</time>
      </trkpt>
      <trkpt lat="28.119182" lon="-14.259070">
        <ele>1.492092</ele>
        <time>2023-01-09T05:01:38.142Z</time>
      </trkpt>
      <trkpt lat="28.118797" lon="-14.259402">
        <ele>1.541736</ele>
        <time>2023-01-09T05:01:56.245Z</time>
      </trkpt>
      <trkpt lat="28.118269" lon="-14.259708">
        <ele>1.685040</ele>
        <time>2023-01-09T05:02:18.656Z</time>
      </trkpt>
      <trkpt lat="28.117966" lon="-14.259739">
        <ele>1.771027</ele>
        <time>2023-01-09T05:02:30.325Z</time>
      </trkpt>
      <trkpt lat="28.117406" lon="-14.259696">
        <ele>1.929666</ele>
        <time>2023-01-09T05:02:52.026Z</time>
      </trkpt>
      <trkpt lat="28.117270" lon="-14.259742">
        <ele>1.969779</ele>
        <time>2023-01-09T05:02:57.549Z</time>
      </trkpt>
      <trkpt lat="28.116892" lon="-14.260001">
        <ele>2.087565</ele>
        <time>2023-01-09T05:03:15.021Z</time>
      </trkpt>
      <trkpt lat="28.116911" lon="-14.260097">
        <ele>2.106457</ele>
        <time>2023-01-09T05:03:18.485Z</time>
      </trkpt>
      <trkpt lat="28.116837" lon="-14.260167">
        <ele>2.127437</ele>
        <time>2023-01-09T05:03:22.361Z</time>
      </trkpt>
      <trkpt lat="28.116606" lon="-14.260238">
        <ele>2.179541</ele>
        <time>2023-01-09T05:03:31.845Z</time>
      </trkpt>
      <trkpt lat="28.116513" lon="-14.260457">
        <ele>2.226212</ele>
        <time>2023-01-09T05:03:40.320Z</time>
      </trkpt>
      <trkpt lat="28.116408" lon="-14.260562">
        <ele>2.256691</ele>
        <time>2023-01-09T05:03:45.725Z</time>
      </trkpt>
      <trkpt lat="28.116146" lon="-14.260645">
        <ele>2.315914</ele>
        <time>2023-01-09T05:03:56.212Z</time>
      </trkpt>
      <trkpt lat="28.115612" lon="-14.260680">
        <ele>2.432360</ele>
        <time>2023-01-09T05:04:16.074Z</time>
      </trkpt>
      <trkpt lat="28.115153" lon="-14.260606">
        <ele>2.286841</ele>
        <time>2023-01-09T05:04:32.837Z</time>
      </trkpt>
      <trkpt lat="28.114066" lon="-14.260847">
        <ele>1.763883</ele>
        <time>2023-01-09T05:05:11.988Z</time>
      </trkpt>
      <trkpt lat="28.113436" lon="-14.261101">
        <ele>1.625169</ele>
        <time>2023-01-09T05:05:35.791Z</time>
      </trkpt>
      <trkpt lat="28.112861" lon="-14.261951">
        <ele>1.678492</ele>
        <time>2023-01-09T05:06:10.774Z</time>
      </trkpt>
      <trkpt lat="28.112779" lon="-14.262186">
        <ele>1.691072</ele>
        <time>2023-01-09T05:06:19.519Z</time>
      </trkpt>
      <trkpt lat="28.112690" lon="-14.262791">
        <ele>2.059536</ele>
        <time>2023-01-09T05:06:41.086Z</time>
      </trkpt>
      <trkpt lat="28.112337" lon="-14.263144">
        <ele>2.735536</ele>
        <time>2023-01-09T05:07:00.090Z</time>
      </trkpt>
      <trkpt lat="28.112117" lon="-14.263294">
        <ele>3.104230</ele>
        <time>2023-01-09T05:07:11.308Z</time>
      </trkpt>
      <trkpt lat="28.112027" lon="-14.263452">
        <ele>3.342487</ele>
        <time>2023-01-09T05:07:18.781Z</time>
      </trkpt>
      <trkpt lat="28.112025" lon="-14.264100">
        <ele>4.163348</ele>
        <time>2023-01-09T05:07:46.018Z</time>
      </trkpt>
      <trkpt lat="28.112105" lon="-14.264394">
        <ele>4.870502</ele>
        <time>2023-01-09T05:07:59.569Z</time>
      </trkpt>
      <trkpt lat="28.112340" lon="-14.264600">
        <ele>5.813703</ele>
        <time>2023-01-09T05:08:15.133Z</time>
      </trkpt>
      <trkpt lat="28.112818" lon="-14.265189">
        <ele>8.055276</ele>
        <time>2023-01-09T05:08:52.495Z</time>
      </trkpt>
      <trkpt lat="28.113208" lon="-14.265345">
        <ele>9.368423</ele>
        <time>2023-01-09T05:09:15.191Z</time>
      </trkpt>
      <trkpt lat="28.113476" lon="-14.265827">
        <ele>11.064429</ele>
        <time>2023-01-09T05:09:43.994Z</time>
      </trkpt>
      <trkpt lat="28.113908" lon="-14.266604">
        <ele>13.904864</ele>
        <time>2023-01-09T05:10:28.027Z</time>
      </trkpt>
      <trkpt lat="28.114829" lon="-14.267665">
        <ele>18.800013</ele>
        <time>2023-01-09T05:11:38.420Z</time>
      </trkpt>
      <trkpt lat="28.115179" lon="-14.268154">
        <ele>21.005547</ele>
        <time>2023-01-09T05:12:10.165Z</time>
      </trkpt>
      <trkpt lat="28.115304" lon="-14.268239">
        <ele>21.584317</ele>
        <time>2023-01-09T05:12:18.921Z</time>
      </trkpt>
      <trkpt lat="28.115790" lon="-14.268259">
        <ele>23.531775</ele>
        <time>2023-01-09T05:12:40.518Z</time>
      </trkpt>
      <trkpt lat="28.116248" lon="-14.268520">
        <ele>26.081036</ele>
        <time>2023-01-09T05:13:04.137Z</time>
      </trkpt>
      <trkpt lat="28.120092" lon="-14.270529">
        <ele>47.874124</ele>
        <time>2023-01-09T05:16:24.921Z</time>
      </trkpt>
      <trkpt lat="28.123560" lon="-14.271935">
        <ele>70.952467</ele>
        <time>2023-01-09T05:19:49.293Z</time>
      </trkpt>
      <trkpt lat="28.125660" lon="-14.272331">
        <ele>81.195138</ele>
        <time>2023-01-09T05:21:30.085Z</time>
      </trkpt>
      <trkpt lat="28.128070" lon="-14.271482">
        <ele>84.506014</ele>
        <time>2023-01-09T05:22:44.232Z</time>
      </trkpt>
      <trkpt lat="28.128279" lon="-14.271504">
        <ele>84.268272</ele>
        <time>2023-01-09T05:22:48.626Z</time>
      </trkpt>
      <trkpt lat="28.128219" lon="-14.271545">
        <ele>84.188927</ele>
        <time>2023-01-09T05:22:50.133Z</time>
      </trkpt>
      <trkpt lat="28.128142" lon="-14.271625">
        <ele>84.070639</ele>
        <time>2023-01-09T05:22:51.740Z</time>
      </trkpt>
      <trkpt lat="28.128082" lon="-14.271884">
        <ele>83.803152</ele>
        <time>2023-01-09T05:22:56.863Z</time>
      </trkpt>
      <trkpt lat="28.127915" lon="-14.271956">
        <ele>83.600788</ele>
        <time>2023-01-09T05:22:59.802Z</time>
      </trkpt>
      <trkpt lat="28.127543" lon="-14.272436">
        <ele>82.721743</ele>
        <time>2023-01-09T05:23:10.230Z</time>
      </trkpt>
      <trkpt lat="28.127183" lon="-14.272700">
        <ele>80.777946</ele>
        <time>2023-01-09T05:23:17.107Z</time>
      </trkpt>
      <trkpt lat="28.126175" lon="-14.273111">
        <ele>75.921297</ele>
        <time>2023-01-09T05:23:34.616Z</time>
      </trkpt>
      <trkpt lat="28.124478" lon="-14.273908">
        <ele>64.121356</ele>
        <time>2023-01-09T05:24:02.065Z</time>
      </trkpt>
      <trkpt lat="28.123073" lon="-14.274642">
        <ele>56.835162</ele>
        <time>2023-01-09T05:24:26.129Z</time>
      </trkpt>
      <trkpt lat="28.120898" lon="-14.275910">
        <ele>54.454688</ele>
        <time>2023-01-09T05:25:15.345Z</time>
      </trkpt>
      <trkpt lat="28.120579" lon="-14.276023">
        <ele>55.916657</ele>
        <time>2023-01-09T05:25:27.742Z</time>
      </trkpt>
      <trkpt lat="28.120491" lon="-14.276161">
        <ele>56.573662</ele>
        <time>2023-01-09T05:25:34.013Z</time>
      </trkpt>
      <trkpt lat="28.120471" lon="-14.276314">
        <ele>57.170399</ele>
        <time>2023-01-09T05:25:40.294Z</time>
      </trkpt>
      <trkpt lat="28.120502" lon="-14.276598">
        <ele>58.274457</ele>
        <time>2023-01-09T05:25:52.472Z</time>
      </trkpt>
      <trkpt lat="28.120428" lon="-14.276834">
        <ele>59.240799</ele>
        <time>2023-01-09T05:26:04.084Z</time>
      </trkpt>
      <trkpt lat="28.120396" lon="-14.276876">
        <ele>59.454930</ele>
        <time>2023-01-09T05:26:06.689Z</time>
      </trkpt>
      <trkpt lat="28.119194" lon="-14.277698">
        <ele>66.827996</ele>
        <time>2023-01-09T05:27:30.019Z</time>
      </trkpt>
      <trkpt lat="28.118197" lon="-14.278216">
        <ele>71.620482</ele>
        <time>2023-01-09T05:28:18.425Z</time>
      </trkpt>
      <trkpt lat="28.118178" lon="-14.278313">
        <ele>71.621877</ele>
        <time>2023-01-09T05:28:20.941Z</time>
      </trkpt>
      <trkpt lat="28.118115" lon="-14.278340">
        <ele>71.622948</ele>
        <time>2023-01-09T05:28:22.940Z</time>
      </trkpt>
      <trkpt lat="28.118072" lon="-14.278322">
        <ele>71.623678</ele>
        <time>2023-01-09T05:28:24.340Z</time>
      </trkpt>
      <trkpt lat="28.118058" lon="-14.278307">
        <ele>71.623984</ele>
        <time>2023-01-09T05:28:24.936Z</time>
      </trkpt>
      <trkpt lat="28.117963" lon="-14.278393">
        <ele>71.625919</ele>
        <time>2023-01-09T05:28:27.344Z</time>
      </trkpt>
      <trkpt lat="28.116747" lon="-14.278958">
        <ele>71.585599</ele>
        <time>2023-01-09T05:28:52.462Z</time>
      </trkpt>
      <trkpt lat="28.115735" lon="-14.279296">
        <ele>71.008969</ele>
        <time>2023-01-09T05:29:12.548Z</time>
      </trkpt>
      <trkpt lat="28.114963" lon="-14.279374">
        <ele>70.791438</ele>
        <time>2023-01-09T05:29:33.699Z</time>
      </trkpt>
      <trkpt lat="28.113551" lon="-14.279057">
        <ele>72.119490</ele>
        <time>2023-01-09T05:30:15.790Z</time>
      </trkpt>
      <trkpt lat="28.112620" lon="-14.279057">
        <ele>71.468691</ele>
        <time>2023-01-09T05:30:35.105Z</time>
      </trkpt>
      <trkpt lat="28.110692" lon="-14.279557">
        <ele>70.049935</ele>
        <time>2023-01-09T05:31:11.697Z</time>
      </trkpt>
      <trkpt lat="28.109506" lon="-14.279770">
        <ele>71.037394</ele>
        <time>2023-01-09T05:31:46.259Z</time>
      </trkpt>
      <trkpt lat="28.108975" lon="-14.279774">
        <ele>73.041180</ele>
        <time>2023-01-09T05:32:08.969Z</time>
      </trkpt>
      <trkpt lat="28.108234" lon="-14.279676">
        <ele>75.856322</ele>
        <time>2023-01-09T05:32:44.312Z</time>
      </trkpt>
      <trkpt lat="28.106605" lon="-14.279046">
        <ele>80.502616</ele>
        <time>2023-01-09T05:33:55.983Z</time>
      </trkpt>
      <trkpt lat="28.106297" lon="-14.278880">
        <ele>81.098754</ele>
        <time>2023-01-09T05:34:02.695Z</time>
      </trkpt>
      <trkpt lat="28.106144" lon="-14.278704">
        <ele>79.993899</ele>
        <time>2023-01-09T05:34:06.501Z</time>
      </trkpt>
      <trkpt lat="28.106113" lon="-14.278669">
        <ele>79.772132</ele>
        <time>2023-01-09T05:34:07.251Z</time>
      </trkpt>
      <trkpt lat="28.106053" lon="-14.278498">
        <ele>78.949297</ele>
        <time>2023-01-09T05:34:09.936Z</time>
      </trkpt>
      <trkpt lat="28.105917" lon="-14.278492">
        <ele>78.259407</ele>
        <time>2023-01-09T05:34:12.142Z</time>
      </trkpt>
      <trkpt lat="28.105898" lon="-14.278467">
        <ele>78.111860</ele>
        <time>2023-01-09T05:34:12.597Z</time>
      </trkpt>
      <trkpt lat="28.105834" lon="-14.278384">
        <ele>77.618950</ele>
        <time>2023-01-09T05:34:14.147Z</time>
      </trkpt>
      <trkpt lat="28.105837" lon="-14.278252">
        <ele>77.028562</ele>
        <time>2023-01-09T05:34:15.906Z</time>
      </trkpt>
      <trkpt lat="28.105915" lon="-14.278154">
        <ele>76.438379</ele>
        <time>2023-01-09T05:34:17.706Z</time>
      </trkpt>
      <trkpt lat="28.106029" lon="-14.278137">
        <ele>75.855549</ele>
        <time>2023-01-09T05:34:19.469Z</time>
      </trkpt>
      <trkpt lat="28.106125" lon="-14.278206">
        <ele>75.279381</ele>
        <time>2023-01-09T05:34:21.159Z</time>
      </trkpt>
      <trkpt lat="28.106237" lon="-14.278062">
        <ele>74.420989</ele>
        <time>2023-01-09T05:34:23.699Z</time>
      </trkpt>
      <trkpt lat="28.106290" lon="-14.277992">
        <ele>74.008522</ele>
        <time>2023-01-09T05:34:24.968Z</time>
      </trkpt>
      <trkpt lat="28.106302" lon="-14.277976">
        <ele>73.914620</ele>
        <time>2023-01-09T05:34:25.270Z</time>
      </trkpt>
      <trkpt lat="28.106355" lon="-14.277907">
        <ele>73.505535</ele>
        <time>2023-01-09T05:34:26.509Z</time>
      </trkpt>
      <trkpt lat="28.106496" lon="-14.277723">
        <ele>72.415750</ele>
        <time>2023-01-09T05:34:29.723Z</time>
      </trkpt>
      <trkpt lat="28.106427" lon="-14.277615">
        <ele>71.825104</ele>
        <time>2023-01-09T05:34:31.457Z</time>
      </trkpt>
      <trkpt lat="28.106458" lon="-14.277436">
        <ele>71.022867</ele>
        <time>2023-01-09T05:34:33.879Z</time>
      </trkpt>
      <trkpt lat="28.106525" lon="-14.277378">
        <ele>70.602571</ele>
        <time>2023-01-09T05:34:35.137Z</time>
      </trkpt>
      <trkpt lat="28.106593" lon="-14.277179">
        <ele>69.664033</ele>
        <time>2023-01-09T05:34:37.913Z</time>
      </trkpt>
      <trkpt lat="28.106429" lon="-14.276840">
        <ele>67.963672</ele>
        <time>2023-01-09T05:34:43.096Z</time>
      </trkpt>
      <trkpt lat="28.106189" lon="-14.276651">
        <ele>66.506730</ele>
        <time>2023-01-09T05:34:47.672Z</time>
      </trkpt>
      <trkpt lat="28.104736" lon="-14.276037">
        <ele>61.597618</ele>
        <time>2023-01-09T05:35:15.648Z</time>
      </trkpt>
      <trkpt lat="28.103288" lon="-14.275232">
        <ele>58.672836</ele>
        <time>2023-01-09T05:35:46.728Z</time>
      </trkpt>
      <trkpt lat="28.102808" lon="-14.275123">
        <ele>57.776789</ele>
        <time>2023-01-09T05:35:56.158Z</time>
      </trkpt>
      <trkpt lat="28.102506" lon="-14.275114">
        <ele>57.223816</ele>
        <time>2023-01-09T05:36:01.643Z</time>
      </trkpt>
      <trkpt lat="28.102010" lon="-14.275241">
        <ele>55.874753</ele>
        <time>2023-01-09T05:36:10.604Z</time>
      </trkpt>
      <trkpt lat="28.101713" lon="-14.275419">
        <ele>54.562755</ele>
        <time>2023-01-09T05:36:16.307Z</time>
      </trkpt>
      <trkpt lat="28.100751" lon="-14.276373">
        <ele>49.558622</ele>
        <time>2023-01-09T05:36:37.192Z</time>
      </trkpt>
      <trkpt lat="28.100472" lon="-14.276720">
        <ele>47.635271</ele>
        <time>2023-01-09T05:36:43.663Z</time>
      </trkpt>
      <trkpt lat="28.100222" lon="-14.277320">
        <ele>44.916988</ele>
        <time>2023-01-09T05:36:52.867Z</time>
      </trkpt>
      <trkpt lat="28.100147" lon="-14.277913">
        <ele>42.462931</ele>
        <time>2023-01-09T05:37:01.388Z</time>
      </trkpt>
      <trkpt lat="28.100173" lon="-14.278326">
        <ele>40.999938</ele>
        <time>2023-01-09T05:37:07.373Z</time>
      </trkpt>
      <trkpt lat="28.100448" lon="-14.279922">
        <ele>37.334955</ele>
        <time>2023-01-09T05:37:32.388Z</time>
      </trkpt>
      <trkpt lat="28.100565" lon="-14.280190">
        <ele>36.695241</ele>
        <time>2023-01-09T05:37:37.646Z</time>
      </trkpt>
      <trkpt lat="28.100721" lon="-14.280364">
        <ele>36.803150</ele>
        <time>2023-01-09T05:37:42.346Z</time>
      </trkpt>
      <trkpt lat="28.101356" lon="-14.280698">
        <ele>37.148310</ele>
        <time>2023-01-09T05:37:59.216Z</time>
      </trkpt>
      <trkpt lat="28.101531" lon="-14.280932">
        <ele>37.281743</ele>
        <time>2023-01-09T05:38:06.386Z</time>
      </trkpt>
      <trkpt lat="28.101878" lon="-14.281633">
        <ele>37.831728</ele>
        <time>2023-01-09T05:38:26.946Z</time>
      </trkpt>
      <trkpt lat="28.102024" lon="-14.282324">
        <ele>39.270767</ele>
        <time>2023-01-09T05:38:46.787Z</time>
      </trkpt>
      <trkpt lat="28.102034" lon="-14.282792">
        <ele>40.218865</ele>
        <time>2023-01-09T05:39:00.405Z</time>
      </trkpt>
      <trkpt lat="28.101971" lon="-14.283078">
        <ele>40.815875</ele>
        <time>2023-01-09T05:39:08.812Z</time>
      </trkpt>
      <trkpt lat="28.102192" lon="-14.285723">
        <ele>49.051884</ele>
        <time>2023-01-09T05:40:42.906Z</time>
      </trkpt>
      <trkpt lat="28.102162" lon="-14.285973">
        <ele>50.113155</ele>
        <time>2023-01-09T05:40:53.922Z</time>
      </trkpt>
      <trkpt lat="28.102075" lon="-14.286189">
        <ele>51.111959</ele>
        <time>2023-01-09T05:41:03.834Z</time>
      </trkpt>
      <trkpt lat="28.101967" lon="-14.286314">
        <ele>51.847950</ele>
        <time>2023-01-09T05:41:11.658Z</time>
      </trkpt>
      <trkpt lat="28.101654" lon="-14.286449">
        <ele>53.444868</ele>
        <time>2023-01-09T05:41:27.880Z</time>
      </trkpt>
      <trkpt lat="28.101344" lon="-14.286347">
        <ele>54.984110</ele>
        <time>2023-01-09T05:41:43.367Z</time>
      </trkpt>
      <trkpt lat="28.101129" lon="-14.286181">
        <ele>56.224537</ele>
        <time>2023-01-09T05:41:55.268Z</time>
      </trkpt>
      <trkpt lat="28.099760" lon="-14.284719">
        <ele>64.026658</ele>
        <time>2023-01-09T05:43:17.215Z</time>
      </trkpt>
      <trkpt lat="28.099555" lon="-14.284553">
        <ele>64.798293</ele>
        <time>2023-01-09T05:43:26.200Z</time>
      </trkpt>
      <trkpt lat="28.099297" lon="-14.284482">
        <ele>65.534465</ele>
        <time>2023-01-09T05:43:35.644Z</time>
      </trkpt>
      <trkpt lat="28.099056" lon="-14.284508">
        <ele>66.205739</ele>
        <time>2023-01-09T05:43:44.534Z</time>
      </trkpt>
      <trkpt lat="28.098786" lon="-14.284657">
        <ele>67.038406</ele>
        <time>2023-01-09T05:43:55.159Z</time>
      </trkpt>
      <trkpt lat="28.098603" lon="-14.284912">
        <ele>67.842479</ele>
        <time>2023-01-09T05:44:05.426Z</time>
      </trkpt>
      <trkpt lat="28.098544" lon="-14.285070">
        <ele>68.262153</ele>
        <time>2023-01-09T05:44:10.877Z</time>
      </trkpt>
      <trkpt lat="28.098522" lon="-14.285419">
        <ele>69.117995</ele>
        <time>2023-01-09T05:44:21.792Z</time>
      </trkpt>
      <trkpt lat="28.098727" lon="-14.287068">
        <ele>72.588926</ele>
        <time>2023-01-09T05:45:09.148Z</time>
      </trkpt>
      <trkpt lat="28.098721" lon="-14.287924">
        <ele>74.920624</ele>
        <time>2023-01-09T05:45:37.219Z</time>
      </trkpt>
      <trkpt lat="28.098606" lon="-14.288370">
        <ele>76.482331</ele>
        <time>2023-01-09T05:45:53.841Z</time>
      </trkpt>
      <trkpt lat="28.098478" lon="-14.288650">
        <ele>77.542255</ele>
        <time>2023-01-09T05:46:05.694Z</time>
      </trkpt>
      <trkpt lat="28.098149" lon="-14.289088">
        <ele>79.475730</ele>
        <time>2023-01-09T05:46:28.417Z</time>
      </trkpt>
      <trkpt lat="28.097668" lon="-14.289408">
        <ele>80.669900</ele>
        <time>2023-01-09T05:46:53.739Z</time>
      </trkpt>
      <trkpt lat="28.097065" lon="-14.289466">
        <ele>81.300292</ele>
        <time>2023-01-09T05:47:16.692Z</time>
      </trkpt>
      <trkpt lat="28.096560" lon="-14.289697">
        <ele>81.867556</ele>
        <time>2023-01-09T05:47:29.305Z</time>
      </trkpt>
      <trkpt lat="28.096156" lon="-14.289790">
        <ele>81.629410</ele>
        <time>2023-01-09T05:47:36.385Z</time>
      </trkpt>
      <trkpt lat="28.095258" lon="-14.289660">
        <ele>76.501002</ele>
        <time>2023-01-09T05:47:50.348Z</time>
      </trkpt>
      <trkpt lat="28.094488" lon="-14.289410">
        <ele>71.974288</ele>
        <time>2023-01-09T05:48:02.372Z</time>
      </trkpt>
      <trkpt lat="28.094271" lon="-14.289414">
        <ele>71.068394</ele>
        <time>2023-01-09T05:48:05.681Z</time>
      </trkpt>
      <trkpt lat="28.094095" lon="-14.289501">
        <ele>70.266946</ele>
        <time>2023-01-09T05:48:08.620Z</time>
      </trkpt>
      <trkpt lat="28.093796" lon="-14.289497">
        <ele>69.018812</ele>
        <time>2023-01-09T05:48:13.324Z</time>
      </trkpt>
      <trkpt lat="28.093701" lon="-14.289487">
        <ele>68.620569</ele>
        <time>2023-01-09T05:48:14.875Z</time>
      </trkpt>
      <trkpt lat="28.093551" lon="-14.289536">
        <ele>67.968978</ele>
        <time>2023-01-09T05:48:17.425Z</time>
      </trkpt>
      <trkpt lat="28.093041" lon="-14.289745">
        <ele>65.705359</ele>
        <time>2023-01-09T05:48:26.846Z</time>
      </trkpt>
      <trkpt lat="28.092310" lon="-14.289636">
        <ele>62.776807</ele>
        <time>2023-01-09T05:48:40.505Z</time>
      </trkpt>
      <trkpt lat="28.092079" lon="-14.289729">
        <ele>61.835165</ele>
        <time>2023-01-09T05:48:44.916Z</time>
      </trkpt>
      <trkpt lat="28.091977" lon="-14.289829">
        <ele>61.317137</ele>
        <time>2023-01-09T05:48:47.160Z</time>
      </trkpt>
      <trkpt lat="28.091856" lon="-14.290074">
        <ele>60.365642</ele>
        <time>2023-01-09T05:48:51.347Z</time>
      </trkpt>
      <trkpt lat="28.091839" lon="-14.290230">
        <ele>59.832978</ele>
        <time>2023-01-09T05:48:53.600Z</time>
      </trkpt>
      <trkpt lat="28.091853" lon="-14.290441">
        <ele>59.115930</ele>
        <time>2023-01-09T05:48:56.603Z</time>
      </trkpt>
      <trkpt lat="28.092060" lon="-14.291225">
        <ele>55.927836</ele>
        <time>2023-01-09T05:49:07.719Z</time>
      </trkpt>
      <trkpt lat="28.092076" lon="-14.291589">
        <ele>54.281137</ele>
        <time>2023-01-09T05:49:12.506Z</time>
      </trkpt>
      <trkpt lat="28.092040" lon="-14.291737">
        <ele>53.587476</ele>
        <time>2023-01-09T05:49:14.516Z</time>
      </trkpt>
      <trkpt lat="28.091828" lon="-14.292071">
        <ele>51.728346</ele>
        <time>2023-01-09T05:49:20.127Z</time>
      </trkpt>
      <trkpt lat="28.090880" lon="-14.292757">
        <ele>48.668319</ele>
        <time>2023-01-09T05:49:39.182Z</time>
      </trkpt>
      <trkpt lat="28.090396" lon="-14.292989">
        <ele>48.995902</ele>
        <time>2023-01-09T05:49:51.967Z</time>
      </trkpt>
      <trkpt lat="28.090010" lon="-14.293108">
        <ele>49.245266</ele>
        <time>2023-01-09T05:50:05.467Z</time>
      </trkpt>
      <trkpt lat="28.089628" lon="-14.293178">
        <ele>49.486488</ele>
        <time>2023-01-09T05:50:21.319Z</time>
      </trkpt>
      <trkpt lat="28.089106" lon="-14.293193">
        <ele>50.916488</ele>
        <time>2023-01-09T05:50:45.537Z</time>
      </trkpt>
      <trkpt lat="28.088942" lon="-14.293134">
        <ele>51.399302</ele>
        <time>2023-01-09T05:50:53.159Z</time>
      </trkpt>
      <trkpt lat="28.088293" lon="-14.292654">
        <ele>53.573804</ele>
        <time>2023-01-09T05:51:21.008Z</time>
      </trkpt>
      <trkpt lat="28.087439" lon="-14.292228">
        <ele>53.660516</ele>
        <time>2023-01-09T05:51:45.203Z</time>
      </trkpt>
      <trkpt lat="28.087158" lon="-14.292150">
        <ele>53.225591</ele>
        <time>2023-01-09T05:51:50.925Z</time>
      </trkpt>
      <trkpt lat="28.083786" lon="-14.292279">
        <ele>44.219314</ele>
        <time>2023-01-09T05:52:48.282Z</time>
      </trkpt>
      <trkpt lat="28.083327" lon="-14.292317">
        <ele>43.051508</ele>
        <time>2023-01-09T05:52:56.268Z</time>
      </trkpt>
      <trkpt lat="28.083120" lon="-14.292406">
        <ele>42.489728</ele>
        <time>2023-01-09T05:53:00.270Z</time>
      </trkpt>
      <trkpt lat="28.082900" lon="-14.292710">
        <ele>41.609489</ele>
        <time>2023-01-09T05:53:06.629Z</time>
      </trkpt>
      <trkpt lat="28.082867" lon="-14.292891">
        <ele>41.335265</ele>
        <time>2023-01-09T05:53:09.662Z</time>
      </trkpt>
      <trkpt lat="28.082888" lon="-14.293090">
        <ele>41.419635</ele>
        <time>2023-01-09T05:53:13.137Z</time>
      </trkpt>
      <trkpt lat="28.082982" lon="-14.293301">
        <ele>41.519140</ele>
        <time>2023-01-09T05:53:17.233Z</time>
      </trkpt>
      <trkpt lat="28.083670" lon="-14.294304">
        <ele>42.053966</ele>
        <time>2023-01-09T05:53:47.057Z</time>
      </trkpt>
      <trkpt lat="28.083681" lon="-14.294585">
        <ele>42.174911</ele>
        <time>2023-01-09T05:53:55.130Z</time>
      </trkpt>
      <trkpt lat="28.083500" lon="-14.294820">
        <ele>42.643361</ele>
        <time>2023-01-09T05:54:04.235Z</time>
      </trkpt>
      <trkpt lat="28.082494" lon="-14.295077">
        <ele>44.398605</ele>
        <time>2023-01-09T05:54:39.105Z</time>
      </trkpt>
      <trkpt lat="28.081104" lon="-14.295636">
        <ele>44.110611</ele>
        <time>2023-01-09T05:55:17.524Z</time>
      </trkpt>
      <trkpt lat="28.080808" lon="-14.295918">
        <ele>43.669979</ele>
        <time>2023-01-09T05:55:24.222Z</time>
      </trkpt>
      <trkpt lat="28.080769" lon="-14.296021">
        <ele>43.557289</ele>
        <time>2023-01-09T05:55:26.001Z</time>
      </trkpt>
      <trkpt lat="28.080662" lon="-14.296075">
        <ele>43.423818</ele>
        <time>2023-01-09T05:55:27.950Z</time>
      </trkpt>
      <trkpt lat="28.080583" lon="-14.296051">
        <ele>43.330617</ele>
        <time>2023-01-09T05:55:29.272Z</time>
      </trkpt>
      <trkpt lat="28.080299" lon="-14.296096">
        <ele>42.635668</ele>
        <time>2023-01-09T05:55:34.007Z</time>
      </trkpt>
      <trkpt lat="28.079585" lon="-14.296408">
        <ele>39.973642</ele>
        <time>2023-01-09T05:55:46.315Z</time>
      </trkpt>
      <trkpt lat="28.079460" lon="-14.296512">
        <ele>39.434217</ele>
        <time>2023-01-09T05:55:48.865Z</time>
      </trkpt>
      <trkpt lat="28.079360" lon="-14.296683">
        <ele>38.804550</ele>
        <time>2023-01-09T05:55:51.812Z</time>
      </trkpt>
      <trkpt lat="28.079313" lon="-14.296993">
        <ele>37.839127</ele>
        <time>2023-01-09T05:55:56.366Z</time>
      </trkpt>
      <trkpt lat="28.079370" lon="-14.297209">
        <ele>37.147145</ele>
        <time>2023-01-09T05:55:59.660Z</time>
      </trkpt>
      <trkpt lat="28.080838" lon="-14.299899">
        <ele>39.415437</ele>
        <time>2023-01-09T05:57:14.436Z</time>
      </trkpt>
      <trkpt lat="28.080972" lon="-14.300119">
        <ele>39.867727</ele>
        <time>2023-01-09T05:57:23.079Z</time>
      </trkpt>
      <trkpt lat="28.081331" lon="-14.300529">
        <ele>40.845009</ele>
        <time>2023-01-09T05:57:42.829Z</time>
      </trkpt>
      <trkpt lat="28.082221" lon="-14.301320">
        <ele>44.388403</ele>
        <time>2023-01-09T05:58:23.892Z</time>
      </trkpt>
      <trkpt lat="28.082330" lon="-14.301471">
        <ele>44.953601</ele>
        <time>2023-01-09T05:58:31.699Z</time>
      </trkpt>
      <trkpt lat="28.082403" lon="-14.301668">
        <ele>45.572594</ele>
        <time>2023-01-09T05:58:37.890Z</time>
      </trkpt>
      <trkpt lat="28.082353" lon="-14.301937">
        <ele>46.368981</ele>
        <time>2023-01-09T05:58:48.498Z</time>
      </trkpt>
      <trkpt lat="28.082192" lon="-14.302116">
        <ele>47.134713</ele>
        <time>2023-01-09T05:58:57.781Z</time>
      </trkpt>
      <trkpt lat="28.082044" lon="-14.302154">
        <ele>47.737999</ele>
        <time>2023-01-09T05:59:04.263Z</time>
      </trkpt>
      <trkpt lat="28.081871" lon="-14.302137">
        <ele>48.428346</ele>
        <time>2023-01-09T05:59:11.409Z</time>
      </trkpt>
      <trkpt lat="28.080512" lon="-14.301705">
        <ele>54.039557</ele>
        <time>2023-01-09T06:00:09.333Z</time>
      </trkpt>
      <trkpt lat="28.080017" lon="-14.301607">
        <ele>56.370346</ele>
        <time>2023-01-09T06:00:33.638Z</time>
      </trkpt>
      <trkpt lat="28.079786" lon="-14.301634">
        <ele>57.455693</ele>
        <time>2023-01-09T06:00:45.505Z</time>
      </trkpt>
      <trkpt lat="28.078921" lon="-14.301955">
        <ele>61.709611</ele>
        <time>2023-01-09T06:01:24.864Z</time>
      </trkpt>
      <trkpt lat="28.078522" lon="-14.302219">
        <ele>63.979496</ele>
        <time>2023-01-09T06:01:46.882Z</time>
      </trkpt>
      <trkpt lat="28.078238" lon="-14.302646">
        <ele>66.368940</ele>
        <time>2023-01-09T06:02:10.128Z</time>
      </trkpt>
      <trkpt lat="28.078165" lon="-14.303238">
        <ele>69.039999</ele>
        <time>2023-01-09T06:02:36.145Z</time>
      </trkpt>
      <trkpt lat="28.078211" lon="-14.303630">
        <ele>70.807073</ele>
        <time>2023-01-09T06:02:53.057Z</time>
      </trkpt>
      <trkpt lat="28.078243" lon="-14.303853">
        <ele>71.755619</ele>
        <time>2023-01-09T06:03:02.219Z</time>
      </trkpt>
      <trkpt lat="28.078299" lon="-14.304221">
        <ele>72.790207</ele>
        <time>2023-01-09T06:03:16.530Z</time>
      </trkpt>
      <trkpt lat="28.078346" lon="-14.304563">
        <ele>73.749134</ele>
        <time>2023-01-09T06:03:30.280Z</time>
      </trkpt>
      <trkpt lat="28.078510" lon="-14.305530">
        <ele>76.477225</ele>
        <time>2023-01-09T06:04:02.895Z</time>
      </trkpt>
      <trkpt lat="28.078505" lon="-14.305956">
        <ele>77.236112</ele>
        <time>2023-01-09T06:04:13.456Z</time>
      </trkpt>
      <trkpt lat="28.078442" lon="-14.306172">
        <ele>77.115363</ele>
        <time>2023-01-09T06:04:19.533Z</time>
      </trkpt>
      <trkpt lat="28.077886" lon="-14.307273">
        <ele>76.442027</ele>
        <time>2023-01-09T06:04:40.786Z</time>
      </trkpt>
      <trkpt lat="28.077858" lon="-14.307427">
        <ele>76.358569</ele>
        <time>2023-01-09T06:04:43.321Z</time>
      </trkpt>
      <trkpt lat="28.077853" lon="-14.307616">
        <ele>76.258207</ele>
        <time>2023-01-09T06:04:46.838Z</time>
      </trkpt>
      <trkpt lat="28.077807" lon="-14.307683">
        <ele>76.215012</ele>
        <time>2023-01-09T06:04:48.369Z</time>
      </trkpt>
      <trkpt lat="28.077666" lon="-14.307712">
        <ele>76.147286</ele>
        <time>2023-01-09T06:04:51.101Z</time>
      </trkpt>
      <trkpt lat="28.077511" lon="-14.307635">
        <ele>76.067305</ele>
        <time>2023-01-09T06:04:54.782Z</time>
      </trkpt>
      <trkpt lat="28.077358" lon="-14.307749">
        <ele>75.980771</ele>
        <time>2023-01-09T06:04:58.485Z</time>
      </trkpt>
      <trkpt lat="28.077290" lon="-14.307893">
        <ele>75.912666</ele>
        <time>2023-01-09T06:05:02.246Z</time>
      </trkpt>
      <trkpt lat="28.077026" lon="-14.308265">
        <ele>75.713596</ele>
        <time>2023-01-09T06:05:12.152Z</time>
      </trkpt>
      <trkpt lat="28.076853" lon="-14.308411">
        <ele>75.611660</ele>
        <time>2023-01-09T06:05:16.983Z</time>
      </trkpt>
      <trkpt lat="28.076418" lon="-14.308611">
        <ele>75.389805</ele>
        <time>2023-01-09T06:05:26.467Z</time>
      </trkpt>
      <trkpt lat="28.076355" lon="-14.308623">
        <ele>75.256163</ele>
        <time>2023-01-09T06:05:27.748Z</time>
      </trkpt>
      <trkpt lat="28.076273" lon="-14.308637">
        <ele>74.884284</ele>
        <time>2023-01-09T06:05:29.314Z</time>
      </trkpt>
      <trkpt lat="28.076068" lon="-14.308824">
        <ele>73.704183</ele>
        <time>2023-01-09T06:05:35.250Z</time>
      </trkpt>
      <trkpt lat="28.076009" lon="-14.308953">
        <ele>73.129256</ele>
        <time>2023-01-09T06:05:37.757Z</time>
      </trkpt>
      <trkpt lat="28.075934" lon="-14.309155">
        <ele>72.262099</ele>
        <time>2023-01-09T06:05:41.627Z</time>
      </trkpt>
      <trkpt lat="28.075836" lon="-14.309271">
        <ele>71.626635</ele>
        <time>2023-01-09T06:05:44.124Z</time>
      </trkpt>
      <trkpt lat="28.075692" lon="-14.309349">
        <ele>70.910903</ele>
        <time>2023-01-09T06:05:46.972Z</time>
      </trkpt>
      <trkpt lat="28.071937" lon="-14.309830">
        <ele>45.243064</ele>
        <time>2023-01-09T06:06:45.238Z</time>
      </trkpt>
      <trkpt lat="28.071988" lon="-14.310012">
        <ele>44.126451</ele>
        <time>2023-01-09T06:06:48.022Z</time>
      </trkpt>
      <trkpt lat="28.072174" lon="-14.310676">
        <ele>40.805644</ele>
        <time>2023-01-09T06:06:58.355Z</time>
      </trkpt>
      <trkpt lat="28.072164" lon="-14.311121">
        <ele>40.040439</ele>
        <time>2023-01-09T06:07:05.499Z</time>
      </trkpt>
      <trkpt lat="28.072085" lon="-14.311322">
        <ele>39.662191</ele>
        <time>2023-01-09T06:07:09.173Z</time>
      </trkpt>
      <trkpt lat="28.071859" lon="-14.311582">
        <ele>39.034803</ele>
        <time>2023-01-09T06:07:15.701Z</time>
      </trkpt>
      <trkpt lat="28.071488" lon="-14.311747">
        <ele>38.258360</ele>
        <time>2023-01-09T06:07:23.994Z</time>
      </trkpt>
      <trkpt lat="28.071282" lon="-14.311726">
        <ele>37.855411</ele>
        <time>2023-01-09T06:07:28.449Z</time>
      </trkpt>
      <trkpt lat="28.071063" lon="-14.311620">
        <ele>37.623871</ele>
        <time>2023-01-09T06:07:33.705Z</time>
      </trkpt>
      <trkpt lat="28.069059" lon="-14.310112">
        <ele>38.014022</ele>
        <time>2023-01-09T06:08:32.390Z</time>
      </trkpt>
      <trkpt lat="28.068778" lon="-14.309986">
        <ele>38.122915</ele>
        <time>2023-01-09T06:08:40.218Z</time>
      </trkpt>
      <trkpt lat="28.068423" lon="-14.309909">
        <ele>38.253157</ele>
        <time>2023-01-09T06:08:49.425Z</time>
      </trkpt>
      <trkpt lat="28.068361" lon="-14.309903">
        <ele>38.275580</ele>
        <time>2023-01-09T06:08:50.954Z</time>
      </trkpt>
      <trkpt lat="28.067711" lon="-14.309989">
        <ele>38.288648</ele>
        <time>2023-01-09T06:09:07.369Z</time>
      </trkpt>
      <trkpt lat="28.067240" lon="-14.310253">
        <ele>38.092040</ele>
        <time>2023-01-09T06:09:20.105Z</time>
      </trkpt>
      <trkpt lat="28.063775" lon="-14.313878">
        <ele>36.196598</ele>
        <time>2023-01-09T06:11:02.207Z</time>
      </trkpt>
      <trkpt lat="28.063166" lon="-14.314519">
        <ele>36.631221</ele>
        <time>2023-01-09T06:11:22.313Z</time>
      </trkpt>
      <trkpt lat="28.062907" lon="-14.314879">
        <ele>36.845550</ele>
        <time>2023-01-09T06:11:33.538Z</time>
      </trkpt>
      <trkpt lat="28.062650" lon="-14.315350">
        <ele>37.192737</ele>
        <time>2023-01-09T06:11:47.963Z</time>
      </trkpt>
      <trkpt lat="28.062098" lon="-14.316570">
        <ele>39.218867</ele>
        <time>2023-01-09T06:12:42.475Z</time>
      </trkpt>
      <trkpt lat="28.061813" lon="-14.316930">
        <ele>39.933607</ele>
        <time>2023-01-09T06:13:02.354Z</time>
      </trkpt>
      <trkpt lat="28.061671" lon="-14.317008">
        <ele>40.154981</ele>
        <time>2023-01-09T06:13:09.730Z</time>
      </trkpt>
      <trkpt lat="28.061506" lon="-14.317017">
        <ele>40.337591</ele>
        <time>2023-01-09T06:13:18.130Z</time>
      </trkpt>
      <trkpt lat="28.061139" lon="-14.316838">
        <ele>40.779271</ele>
        <time>2023-01-09T06:13:37.686Z</time>
      </trkpt>
      <trkpt lat="28.060950" lon="-14.316889">
        <ele>40.994043</ele>
        <time>2023-01-09T06:13:46.010Z</time>
      </trkpt>
      <trkpt lat="28.061038" lon="-14.317045">
        <ele>41.174656</ele>
        <time>2023-01-09T06:13:51.283Z</time>
      </trkpt>
      <trkpt lat="28.061358" lon="-14.317233">
        <ele>41.573113</ele>
        <time>2023-01-09T06:14:00.943Z</time>
      </trkpt>
      <trkpt lat="28.061556" lon="-14.317249">
        <ele>41.792547</ele>
        <time>2023-01-09T06:14:05.603Z</time>
      </trkpt>
      <trkpt lat="28.061623" lon="-14.317315">
        <ele>41.890683</ele>
        <time>2023-01-09T06:14:08.585Z</time>
      </trkpt>
      <trkpt lat="28.061669" lon="-14.317507">
        <ele>42.021313</ele>
        <time>2023-01-09T06:14:11.868Z</time>
      </trkpt>
      <trkpt lat="28.061577" lon="-14.317683">
        <ele>41.709913</ele>
        <time>2023-01-09T06:14:16.439Z</time>
      </trkpt>
      <trkpt lat="28.061365" lon="-14.317718">
        <ele>41.340336</ele>
        <time>2023-01-09T06:14:20.414Z</time>
      </trkpt>
      <trkpt lat="28.061316" lon="-14.317690">
        <ele>41.245669</ele>
        <time>2023-01-09T06:14:21.509Z</time>
      </trkpt>
      <trkpt lat="28.060691" lon="-14.317761">
        <ele>40.162093</ele>
        <time>2023-01-09T06:14:33.379Z</time>
      </trkpt>
      <trkpt lat="28.060914" lon="-14.317651">
        <ele>39.742536</ele>
        <time>2023-01-09T06:14:38.234Z</time>
      </trkpt>
      <trkpt lat="28.060791" lon="-14.317600">
        <ele>39.516595</ele>
        <time>2023-01-09T06:14:42.059Z</time>
      </trkpt>
      <trkpt lat="28.060411" lon="-14.317735">
        <ele>38.693310</ele>
        <time>2023-01-09T06:14:54.290Z</time>
      </trkpt>
      <trkpt lat="28.060190" lon="-14.317931">
        <ele>37.691989</ele>
        <time>2023-01-09T06:15:02.916Z</time>
      </trkpt>
      <trkpt lat="28.060117" lon="-14.318086">
        <ele>37.138794</ele>
        <time>2023-01-09T06:15:07.660Z</time>
      </trkpt>
      <trkpt lat="28.060007" lon="-14.318729">
        <ele>35.076527</ele>
        <time>2023-01-09T06:15:25.118Z</time>
      </trkpt>
      <trkpt lat="28.060017" lon="-14.318888">
        <ele>34.574623</ele>
        <time>2023-01-09T06:15:29.173Z</time>
      </trkpt>
      <trkpt lat="28.060068" lon="-14.319041">
        <ele>34.059659</ele>
        <time>2023-01-09T06:15:33.625Z</time>
      </trkpt>
      <trkpt lat="28.060228" lon="-14.319265">
        <ele>33.152271</ele>
        <time>2023-01-09T06:15:41.200Z</time>
      </trkpt>
      <trkpt lat="28.060227" lon="-14.319359">
        <ele>32.856278</ele>
        <time>2023-01-09T06:15:43.729Z</time>
      </trkpt>
      <trkpt lat="28.060113" lon="-14.319407">
        <ele>32.387816</ele>
        <time>2023-01-09T06:15:47.448Z</time>
      </trkpt>
      <trkpt lat="28.059453" lon="-14.319258">
        <ele>29.279045</ele>
        <time>2023-01-09T06:16:07.823Z</time>
      </trkpt>
      <trkpt lat="28.059308" lon="-14.319253">
        <ele>28.608911</ele>
        <time>2023-01-09T06:16:11.968Z</time>
      </trkpt>
      <trkpt lat="28.058609" lon="-14.318954">
        <ele>25.157504</ele>
        <time>2023-01-09T06:16:33.423Z</time>
      </trkpt>
      <trkpt lat="28.058323" lon="-14.318703">
        <ele>23.328697</ele>
        <time>2023-01-09T06:16:43.641Z</time>
      </trkpt>
      <trkpt lat="28.057986" lon="-14.318072">
        <ele>19.684780</ele>
        <time>2023-01-09T06:17:02.100Z</time>
      </trkpt>
      <trkpt lat="28.057721" lon="-14.317260">
        <ele>15.407540</ele>
        <time>2023-01-09T06:17:23.882Z</time>
      </trkpt>
      <trkpt lat="28.057505" lon="-14.316995">
        <ele>13.793357</ele>
        <time>2023-01-09T06:17:32.496Z</time>
      </trkpt>
      <trkpt lat="28.057327" lon="-14.316974">
        <ele>13.105741</ele>
        <time>2023-01-09T06:17:37.400Z</time>
      </trkpt>
      <trkpt lat="28.057016" lon="-14.317075">
        <ele>11.862696</ele>
        <time>2023-01-09T06:17:46.804Z</time>
      </trkpt>
      <trkpt lat="28.056786" lon="-14.317083">
        <ele>10.978563</ele>
        <time>2023-01-09T06:17:53.786Z</time>
      </trkpt>
      <trkpt lat="28.056556" lon="-14.317015">
        <ele>10.065263</ele>
        <time>2023-01-09T06:18:00.875Z</time>
      </trkpt>
      <trkpt lat="28.056265" lon="-14.316848">
        <ele>8.811957</ele>
        <time>2023-01-09T06:18:10.834Z</time>
      </trkpt>
      <trkpt lat="28.056248" lon="-14.316908">
        <ele>8.598285</ele>
        <time>2023-01-09T06:18:12.751Z</time>
      </trkpt>
      <trkpt lat="28.056141" lon="-14.316953">
        <ele>8.159762</ele>
        <time>2023-01-09T06:18:16.552Z</time>
      </trkpt>
      <trkpt lat="28.056093" lon="-14.317074">
        <ele>7.709938</ele>
        <time>2023-01-09T06:18:20.155Z</time>
      </trkpt>
      <trkpt lat="28.056090" lon="-14.317201">
        <ele>7.279160</ele>
        <time>2023-01-09T06:18:23.924Z</time>
      </trkpt>
      <trkpt lat="28.056085" lon="-14.317358">
        <ele>7.211337</ele>
        <time>2023-01-09T06:18:28.881Z</time>
      </trkpt>
      <trkpt lat="28.055922" lon="-14.317880">
        <ele>7.066358</ele>
        <time>2023-01-09T06:18:45.234Z</time>
      </trkpt>
      <trkpt lat="28.055640" lon="-14.318439">
        <ele>6.897768</ele>
        <time>2023-01-09T06:19:05.695Z</time>
      </trkpt>
      <trkpt lat="28.055652" lon="-14.319009">
        <ele>6.748482</ele>
        <time>2023-01-09T06:19:28.838Z</time>
      </trkpt>
      <trkpt lat="28.055534" lon="-14.319347">
        <ele>6.694311</ele>
        <time>2023-01-09T06:19:41.947Z</time>
      </trkpt>
      <trkpt lat="28.055397" lon="-14.319567">
        <ele>6.669491</ele>
        <time>2023-01-09T06:19:50.704Z</time>
      </trkpt>
      <trkpt lat="28.054981" lon="-14.320244">
        <ele>6.593448</ele>
        <time>2023-01-09T06:20:17.235Z</time>
      </trkpt>
      <trkpt lat="28.054533" lon="-14.320629">
        <ele>6.534717</ele>
        <time>2023-01-09T06:20:37.194Z</time>
      </trkpt>
      <trkpt lat="28.054471" lon="-14.320746">
        <ele>6.488978</ele>
        <time>2023-01-09T06:20:41.238Z</time>
      </trkpt>
      <trkpt lat="28.054480" lon="-14.321201">
        <ele>6.235530</ele>
        <time>2023-01-09T06:20:55.601Z</time>
      </trkpt>
      <trkpt lat="28.054449" lon="-14.321319">
        <ele>6.166968</ele>
        <time>2023-01-09T06:20:59.530Z</time>
      </trkpt>
      <trkpt lat="28.054389" lon="-14.321550">
        <ele>6.032870</ele>
        <time>2023-01-09T06:21:06.995Z</time>
      </trkpt>
      <trkpt lat="28.054188" lon="-14.322193">
        <ele>5.652989</ele>
        <time>2023-01-09T06:21:28.263Z</time>
      </trkpt>
      <trkpt lat="28.053788" lon="-14.322561">
        <ele>5.390894</ele>
        <time>2023-01-09T06:21:46.035Z</time>
      </trkpt>
      <trkpt lat="28.053006" lon="-14.323094">
        <ele>5.366282</ele>
        <time>2023-01-09T06:22:19.209Z</time>
      </trkpt>
      <trkpt lat="28.052898" lon="-14.323179">
        <ele>5.362735</ele>
        <time>2023-01-09T06:22:24.194Z</time>
      </trkpt>
      <trkpt lat="28.052514" lon="-14.323643">
        <ele>5.347595</ele>
        <time>2023-01-09T06:22:45.883Z</time>
      </trkpt>
      <trkpt lat="28.051200" lon="-14.326290">
        <ele>7.435138</ele>
        <time>2023-01-09T06:24:38.781Z</time>
      </trkpt>
      <trkpt lat="28.050308" lon="-14.328122">
        <ele>8.030562</ele>
        <time>2023-01-09T06:25:47.614Z</time>
      </trkpt>
      <trkpt lat="28.049995" lon="-14.328719">
        <ele>8.125516</ele>
        <time>2023-01-09T06:26:10.945Z</time>
      </trkpt>
      <trkpt lat="28.049717" lon="-14.329028">
        <ele>8.180969</ele>
        <time>2023-01-09T06:26:25.964Z</time>
      </trkpt>
      <trkpt lat="28.049667" lon="-14.329160">
        <ele>8.186615</ele>
        <time>2023-01-09T06:26:30.831Z</time>
      </trkpt>
      <trkpt lat="28.049473" lon="-14.330170">
        <ele>8.227243</ele>
        <time>2023-01-09T06:27:05.908Z</time>
      </trkpt>
      <trkpt lat="28.049341" lon="-14.330738">
        <ele>8.250330</ele>
        <time>2023-01-09T06:27:25.179Z</time>
      </trkpt>
      <trkpt lat="28.049334" lon="-14.330770">
        <ele>8.251625</ele>
        <time>2023-01-09T06:27:26.253Z</time>
      </trkpt>
      <trkpt lat="28.048804" lon="-14.333108">
        <ele>6.890614</ele>
        <time>2023-01-09T06:28:40.962Z</time>
      </trkpt>
      <trkpt lat="28.048767" lon="-14.333274">
        <ele>6.791922</ele>
        <time>2023-01-09T06:28:46.122Z</time>
      </trkpt>
      <trkpt lat="28.048409" lon="-14.334879">
        <ele>5.837653</ele>
        <time>2023-01-09T06:29:37.462Z</time>
      </trkpt>
      <trkpt lat="28.048307" lon="-14.335513">
        <ele>5.891898</ele>
        <time>2023-01-09T06:29:58.271Z</time>
      </trkpt>
      <trkpt lat="28.048401" lon="-14.337139">
        <ele>6.090915</ele>
        <time>2023-01-09T06:30:54.378Z</time>
      </trkpt>
      <trkpt lat="28.048416" lon="-14.337347">
        <ele>6.131191</ele>
        <time>2023-01-09T06:31:01.651Z</time>
      </trkpt>
      <trkpt lat="28.048304" lon="-14.337658">
        <ele>6.196016</ele>
        <time>2023-01-09T06:31:13.182Z</time>
      </trkpt>
      <trkpt lat="28.048343" lon="-14.337842">
        <ele>6.232536</ele>
        <time>2023-01-09T06:31:19.663Z</time>
      </trkpt>
      <trkpt lat="28.048445" lon="-14.337991">
        <ele>6.268928</ele>
        <time>2023-01-09T06:31:25.965Z</time>
      </trkpt>
      <trkpt lat="28.048447" lon="-14.338203">
        <ele>6.309845</ele>
        <time>2023-01-09T06:31:33.179Z</time>
      </trkpt>
      <trkpt lat="28.048474" lon="-14.339184">
        <ele>6.312731</ele>
        <time>2023-01-09T06:32:05.381Z</time>
      </trkpt>
      <trkpt lat="28.048481" lon="-14.339467">
        <ele>6.184052</ele>
        <time>2023-01-09T06:32:14.510Z</time>
      </trkpt>
      <trkpt lat="28.047758" lon="-14.339807">
        <ele>5.780911</ele>
        <time>2023-01-09T06:32:42.650Z</time>
      </trkpt>
      <trkpt lat="28.047772" lon="-14.339845">
        <ele>5.762194</ele>
        <time>2023-01-09T06:32:45.161Z</time>
      </trkpt>
      <trkpt lat="28.047564" lon="-14.339943">
        <ele>5.646182</ele>
        <time>2023-01-09T06:32:49.624Z</time>
      </trkpt>
      <trkpt lat="28.046819" lon="-14.340294">
        <ele>4.836334</ele>
        <time>2023-01-09T06:33:05.379Z</time>
      </trkpt>
      <trkpt lat="28.046833" lon="-14.340350">
        <ele>4.773493</ele>
        <time>2023-01-09T06:33:07.158Z</time>
      </trkpt>
      <trkpt lat="28.046905" lon="-14.340577">
        <ele>4.513063</ele>
        <time>2023-01-09T06:33:14.236Z</time>
      </trkpt>
      <trkpt lat="28.047234" lon="-14.341714">
        <ele>3.303961</ele>
        <time>2023-01-09T06:34:27.664Z</time>
      </trkpt>
      <trkpt lat="28.047876" lon="-14.343694">
        <ele>3.576954</ele>
        <time>2023-01-09T06:36:37.012Z</time>
      </trkpt>
      <trkpt lat="28.047947" lon="-14.343914">
        <ele>4.395823</ele>
        <time>2023-01-09T06:36:51.363Z</time>
      </trkpt>
      <trkpt lat="28.048176" lon="-14.344693">
        <ele>7.266092</ele>
        <time>2023-01-09T06:37:41.746Z</time>
      </trkpt>
      <trkpt lat="28.048188" lon="-14.344736">
        <ele>7.423744</ele>
        <time>2023-01-09T06:37:44.559Z</time>
      </trkpt>
      <trkpt lat="28.048201" lon="-14.344784">
        <ele>7.599263</ele>
        <time>2023-01-09T06:37:47.611Z</time>
      </trkpt>
      <trkpt lat="28.048264" lon="-14.345027">
        <ele>8.484619</ele>
        <time>2023-01-09T06:38:03.176Z</time>
      </trkpt>
      <trkpt lat="28.048584" lon="-14.346252">
        <ele>13.190143</ele>
        <time>2023-01-09T06:39:21.656Z</time>
      </trkpt>
      <trkpt lat="28.048801" lon="-14.346854">
        <ele>15.657224</ele>
        <time>2023-01-09T06:40:01.586Z</time>
      </trkpt>
      <trkpt lat="28.049091" lon="-14.347408">
        <ele>17.813252</ele>
        <time>2023-01-09T06:40:41.112Z</time>
      </trkpt>
      <trkpt lat="28.049246" lon="-14.347874">
        <ele>17.314578</ele>
        <time>2023-01-09T06:41:11.651Z</time>
      </trkpt>
      <trkpt lat="28.049257" lon="-14.347997">
        <ele>17.190780</ele>
        <time>2023-01-09T06:41:19.226Z</time>
      </trkpt>
      <trkpt lat="28.049371" lon="-14.349170">
        <ele>16.009087</ele>
        <time>2023-01-09T06:42:31.634Z</time>
      </trkpt>
      <trkpt lat="28.049374" lon="-14.349200">
        <ele>15.978854</ele>
        <time>2023-01-09T06:42:33.463Z</time>
      </trkpt>
      <trkpt lat="28.049389" lon="-14.349343">
        <ele>15.834652</ele>
        <time>2023-01-09T06:42:42.302Z</time>
      </trkpt>
      <trkpt lat="28.049322" lon="-14.349801">
        <ele>15.247901</ele>
        <time>2023-01-09T06:43:10.778Z</time>
      </trkpt>
      <trkpt lat="28.049370" lon="-14.350621">
        <ele>14.208263</ele>
        <time>2023-01-09T06:44:01.211Z</time>
      </trkpt>
      <trkpt lat="28.049381" lon="-14.350819">
        <ele>13.957283</ele>
        <time>2023-01-09T06:44:13.398Z</time>
      </trkpt>
      <trkpt lat="28.049397" lon="-14.351141">
        <ele>13.549285</ele>
        <time>2023-01-09T06:44:33.153Z</time>
      </trkpt>
      <trkpt lat="28.049398" lon="-14.351463">
        <ele>13.491614</ele>
        <time>2023-01-09T06:44:52.927Z</time>
      </trkpt>
      <trkpt lat="28.049448" lon="-14.351648">
        <ele>14.008582</ele>
        <time>2023-01-09T06:45:04.779Z</time>
      </trkpt>
      <trkpt lat="28.049505" lon="-14.351857">
        <ele>14.593072</ele>
        <time>2023-01-09T06:45:18.194Z</time>
      </trkpt>
      <trkpt lat="28.049564" lon="-14.351845">
        <ele>14.774552</ele>
        <time>2023-01-09T06:45:22.406Z</time>
      </trkpt>
      <trkpt lat="28.049811" lon="-14.351807">
        <ele>15.529217</ele>
        <time>2023-01-09T06:45:39.748Z</time>
      </trkpt>
      <trkpt lat="28.049833" lon="-14.351801">
        <ele>15.597725</ele>
        <time>2023-01-09T06:45:41.294Z</time>
      </trkpt>
      <trkpt lat="28.050083" lon="-14.351755">
        <ele>16.364525</ele>
        <time>2023-01-09T06:45:50.851Z</time>
      </trkpt>
      <trkpt lat="28.050400" lon="-14.351693">
        <ele>17.338448</ele>
        <time>2023-01-09T06:46:03.582Z</time>
      </trkpt>
      <trkpt lat="28.050513" lon="-14.351569">
        <ele>17.814695</ele>
        <time>2023-01-09T06:46:10.216Z</time>
      </trkpt>
      <trkpt lat="28.050537" lon="-14.351334">
        <ele>18.446784</ele>
        <time>2023-01-09T06:46:19.990Z</time>
      </trkpt>
      <trkpt lat="28.050529" lon="-14.351189">
        <ele>18.993891</ele>
        <time>2023-01-09T06:46:26.192Z</time>
      </trkpt>
      <trkpt lat="28.050510" lon="-14.351119">
        <ele>19.419579</ele>
        <time>2023-01-09T06:46:29.464Z</time>
      </trkpt>
      <trkpt lat="28.050035" lon="-14.350432">
        <ele>24.492367</ele>
        <time>2023-01-09T06:47:12.744Z</time>
      </trkpt>
      <trkpt lat="28.050005" lon="-14.350296">
        <ele>25.307198</ele>
        <time>2023-01-09T06:47:19.371Z</time>
      </trkpt>
      <trkpt lat="28.050053" lon="-14.350138">
        <ele>26.278476</ele>
        <time>2023-01-09T06:47:28.567Z</time>
      </trkpt>
      <trkpt lat="28.050067" lon="-14.350052">
        <ele>26.786792</ele>
        <time>2023-01-09T06:47:32.967Z</time>
      </trkpt>
      <trkpt lat="28.050091" lon="-14.350052">
        <ele>26.944861</ele>
        <time>2023-01-09T06:47:34.346Z</time>
      </trkpt>
      <trkpt lat="28.050588" lon="-14.350113">
        <ele>30.237360</ele>
        <time>2023-01-09T06:48:02.537Z</time>
      </trkpt>
      <trkpt lat="28.050709" lon="-14.350070">
        <ele>31.077882</ele>
        <time>2023-01-09T06:48:10.186Z</time>
      </trkpt>
      <trkpt lat="28.050743" lon="-14.349879">
        <ele>32.221868</ele>
        <time>2023-01-09T06:48:20.053Z</time>
      </trkpt>
      <trkpt lat="28.050622" lon="-14.349312">
        <ele>35.646790</ele>
        <time>2023-01-09T06:48:50.764Z</time>
      </trkpt>
      <trkpt lat="28.050521" lon="-14.348835">
        <ele>38.526840</ele>
        <time>2023-01-09T06:49:17.032Z</time>
      </trkpt>
      <trkpt lat="28.050451" lon="-14.348494">
        <ele>40.582374</ele>
        <time>2023-01-09T06:49:34.403Z</time>
      </trkpt>
      <trkpt lat="28.050506" lon="-14.348382">
        <ele>41.334896</ele>
        <time>2023-01-09T06:49:40.458Z</time>
      </trkpt>
      <trkpt lat="28.050636" lon="-14.348379">
        <ele>42.199926</ele>
        <time>2023-01-09T06:49:46.456Z</time>
      </trkpt>
      <trkpt lat="28.050707" lon="-14.348401">
        <ele>42.573744</ele>
        <time>2023-01-09T06:49:49.841Z</time>
      </trkpt>
      <trkpt lat="28.051025" lon="-14.348880">
        <ele>43.799105</ele>
        <time>2023-01-09T06:50:11.432Z</time>
      </trkpt>
      <trkpt lat="28.051232" lon="-14.349156">
        <ele>44.539564</ele>
        <time>2023-01-09T06:50:22.219Z</time>
      </trkpt>
      <trkpt lat="28.051430" lon="-14.349413">
        <ele>45.236985</ele>
        <time>2023-01-09T06:50:30.445Z</time>
      </trkpt>
      <trkpt lat="28.051831" lon="-14.349941">
        <ele>46.661039</ele>
        <time>2023-01-09T06:50:46.795Z</time>
      </trkpt>
      <trkpt lat="28.052356" lon="-14.350554">
        <ele>47.936141</ele>
        <time>2023-01-09T06:51:05.254Z</time>
      </trkpt>
      <trkpt lat="28.052512" lon="-14.350715">
        <ele>48.291735</ele>
        <time>2023-01-09T06:51:11.003Z</time>
      </trkpt>
      <trkpt lat="28.052831" lon="-14.350961">
        <ele>48.942004</ele>
        <time>2023-01-09T06:51:22.842Z</time>
      </trkpt>
      <trkpt lat="28.053287" lon="-14.351177">
        <ele>49.876658</ele>
        <time>2023-01-09T06:51:41.121Z</time>
      </trkpt>
      <trkpt lat="28.055625" lon="-14.351956">
        <ele>58.794812</ele>
        <time>2023-01-09T06:53:31.457Z</time>
      </trkpt>
      <trkpt lat="28.056363" lon="-14.352146">
        <ele>60.299736</ele>
        <time>2023-01-09T06:53:54.730Z</time>
      </trkpt>
      <trkpt lat="28.056450" lon="-14.352191">
        <ele>60.489907</ele>
        <time>2023-01-09T06:53:56.761Z</time>
      </trkpt>
      <trkpt lat="28.056792" lon="-14.352367">
        <ele>60.766866</ele>
        <time>2023-01-09T06:54:04.205Z</time>
      </trkpt>
      <trkpt lat="28.057517" lon="-14.353044">
        <ele>58.494271</ele>
        <time>2023-01-09T06:54:20.451Z</time>
      </trkpt>
      <trkpt lat="28.057685" lon="-14.353346">
        <ele>57.732164</ele>
        <time>2023-01-09T06:54:25.829Z</time>
      </trkpt>
      <trkpt lat="28.057732" lon="-14.353533">
        <ele>57.317085</ele>
        <time>2023-01-09T06:54:28.706Z</time>
      </trkpt>
      <trkpt lat="28.057755" lon="-14.354132">
        <ele>56.317232</ele>
        <time>2023-01-09T06:54:38.353Z</time>
      </trkpt>
      <trkpt lat="28.057789" lon="-14.354189">
        <ele>56.234980</ele>
        <time>2023-01-09T06:54:39.440Z</time>
      </trkpt>
      <trkpt lat="28.057801" lon="-14.354426">
        <ele>55.951176</ele>
        <time>2023-01-09T06:54:43.283Z</time>
      </trkpt>
      <trkpt lat="28.057706" lon="-14.354561">
        <ele>55.744750</ele>
        <time>2023-01-09T06:54:46.127Z</time>
      </trkpt>
      <trkpt lat="28.057563" lon="-14.354610">
        <ele>55.542359</ele>
        <time>2023-01-09T06:54:48.833Z</time>
      </trkpt>
      <trkpt lat="28.057421" lon="-14.354560">
        <ele>55.340914</ele>
        <time>2023-01-09T06:54:51.694Z</time>
      </trkpt>
      <trkpt lat="28.056502" lon="-14.354486">
        <ele>54.191739</ele>
        <time>2023-01-09T06:55:10.594Z</time>
      </trkpt>
      <trkpt lat="28.055504" lon="-14.354497">
        <ele>53.767102</ele>
        <time>2023-01-09T06:55:34.481Z</time>
      </trkpt>
      <trkpt lat="28.053902" lon="-14.354813">
        <ele>51.480113</ele>
        <time>2023-01-09T06:56:06.240Z</time>
      </trkpt>
      <trkpt lat="28.053233" lon="-14.354872">
        <ele>50.046136</ele>
        <time>2023-01-09T06:56:17.911Z</time>
      </trkpt>
      <trkpt lat="28.051389" lon="-14.354706">
        <ele>43.753139</ele>
        <time>2023-01-09T06:56:48.734Z</time>
      </trkpt>
      <trkpt lat="28.051214" lon="-14.354750">
        <ele>43.116210</ele>
        <time>2023-01-09T06:56:51.873Z</time>
      </trkpt>
      <trkpt lat="28.051039" lon="-14.354860">
        <ele>42.403806</ele>
        <time>2023-01-09T06:56:55.277Z</time>
      </trkpt>
      <trkpt lat="28.050838" lon="-14.355173">
        <ele>41.187692</ele>
        <time>2023-01-09T06:57:01.266Z</time>
      </trkpt>
      <trkpt lat="28.050804" lon="-14.355319">
        <ele>40.713309</ele>
        <time>2023-01-09T06:57:03.736Z</time>
      </trkpt>
      <trkpt lat="28.050823" lon="-14.355631">
        <ele>39.730779</ele>
        <time>2023-01-09T06:57:08.325Z</time>
      </trkpt>
      <trkpt lat="28.050949" lon="-14.355889">
        <ele>38.804401</ele>
        <time>2023-01-09T06:57:12.730Z</time>
      </trkpt>
      <trkpt lat="28.051697" lon="-14.356677">
        <ele>33.626261</ele>
        <time>2023-01-09T06:57:29.529Z</time>
      </trkpt>
      <trkpt lat="28.051857" lon="-14.356946">
        <ele>31.665127</ele>
        <time>2023-01-09T06:57:33.799Z</time>
      </trkpt>
      <trkpt lat="28.051952" lon="-14.357308">
        <ele>29.381922</ele>
        <time>2023-01-09T06:57:38.695Z</time>
      </trkpt>
      <trkpt lat="28.051999" lon="-14.357930">
        <ele>25.607825</ele>
        <time>2023-01-09T06:57:46.765Z</time>
      </trkpt>
      <trkpt lat="28.051963" lon="-14.358282">
        <ele>23.422234</ele>
        <time>2023-01-09T06:57:51.291Z</time>
      </trkpt>
      <trkpt lat="28.051846" lon="-14.358481">
        <ele>21.917025</ele>
        <time>2023-01-09T06:57:54.316Z</time>
      </trkpt>
      <trkpt lat="28.051505" lon="-14.358593">
        <ele>19.384619</ele>
        <time>2023-01-09T06:57:59.683Z</time>
      </trkpt>
      <trkpt lat="28.051026" lon="-14.358447">
        <ele>15.846553</ele>
        <time>2023-01-09T06:58:07.068Z</time>
      </trkpt>
      <trkpt lat="28.050477" lon="-14.357981">
        <ele>11.292017</ele>
        <time>2023-01-09T06:58:17.421Z</time>
      </trkpt>
      <trkpt lat="28.050386" lon="-14.357921">
        <ele>10.887691</ele>
        <time>2023-01-09T06:58:19.049Z</time>
      </trkpt>
      <trkpt lat="28.050288" lon="-14.357858">
        <ele>10.454991</ele>
        <time>2023-01-09T06:58:20.909Z</time>
      </trkpt>
      <trkpt lat="28.050096" lon="-14.357867">
        <ele>9.717023</ele>
        <time>2023-01-09T06:58:24.066Z</time>
      </trkpt>
      <trkpt lat="28.050042" lon="-14.357908">
        <ele>9.467396</ele>
        <time>2023-01-09T06:58:25.113Z</time>
      </trkpt>
      <trkpt lat="28.049967" lon="-14.357906">
        <ele>9.179294</ele>
        <time>2023-01-09T06:58:26.481Z</time>
      </trkpt>
      <trkpt lat="28.049934" lon="-14.357884">
        <ele>9.032256</ele>
        <time>2023-01-09T06:58:27.204Z</time>
      </trkpt>
      <trkpt lat="28.049771" lon="-14.357839">
        <ele>8.387976</ele>
        <time>2023-01-09T06:58:30.067Z</time>
      </trkpt>
      <trkpt lat="28.049518" lon="-14.357930">
        <ele>7.368604</ele>
        <time>2023-01-09T06:58:34.676Z</time>
      </trkpt>
      <trkpt lat="28.049441" lon="-14.357961">
        <ele>7.054790</ele>
        <time>2023-01-09T06:58:36.060Z</time>
      </trkpt>
      <trkpt lat="28.049358" lon="-14.358013">
        <ele>6.690567</ele>
        <time>2023-01-09T06:58:37.653Z</time>
      </trkpt>
      <trkpt lat="28.049193" lon="-14.358115">
        <ele>5.968749</ele>
        <time>2023-01-09T06:58:40.907Z</time>
      </trkpt>
      <trkpt lat="28.048959" lon="-14.358268">
        <ele>4.931236</ele>
        <time>2023-01-09T06:58:45.581Z</time>
      </trkpt>
      <trkpt lat="28.048808" lon="-14.358410">
        <ele>4.524112</ele>
        <time>2023-01-09T06:58:48.930Z</time>
      </trkpt>
      <trkpt lat="28.048741" lon="-14.358474">
        <ele>4.381397</ele>
        <time>2023-01-09T06:58:50.393Z</time>
      </trkpt>
      <trkpt lat="28.048577" lon="-14.358722">
        <ele>3.935988</ele>
        <time>2023-01-09T06:58:55.191Z</time>
      </trkpt>
      <trkpt lat="28.048582" lon="-14.358780">
        <ele>3.852228</ele>
        <time>2023-01-09T06:58:56.453Z</time>
      </trkpt>
      <trkpt lat="28.048501" lon="-14.358974">
        <ele>3.543764</ele>
        <time>2023-01-09T06:58:59.948Z</time>
      </trkpt>
      <trkpt lat="28.048457" lon="-14.359147">
        <ele>3.284993</ele>
        <time>2023-01-09T06:59:04.003Z</time>
      </trkpt>
      <trkpt lat="28.048258" lon="-14.359373">
        <ele>2.826141</ele>
        <time>2023-01-09T06:59:11.404Z</time>
      </trkpt>
      <trkpt lat="28.048200" lon="-14.359446">
        <ele>2.684965</ele>
        <time>2023-01-09T06:59:13.265Z</time>
      </trkpt>
      <trkpt lat="28.047818" lon="-14.360364">
        <ele>1.850008</ele>
        <time>2023-01-09T06:59:32.500Z</time>
      </trkpt>
      <trkpt lat="28.047754" lon="-14.360583">
        <ele>1.850008</ele>
        <time>2023-01-09T06:59:38.605Z</time>
      </trkpt>
      <trkpt lat="28.047677" lon="-14.360852">
        <ele>1.850008</ele>
        <time>2023-01-09T06:59:46.320Z</time>
      </trkpt>
      <trkpt lat="28.047697" lon="-14.361107">
        <ele>1.850008</ele>
        <time>2023-01-09T06:59:53.777Z</time>
      </trkpt>
      <trkpt lat="28.047791" lon="-14.361297">
        <ele>1.850008</ele>
        <time>2023-01-09T07:00:00.655Z</time>
      </trkpt>
      <trkpt lat="28.047892" lon="-14.361503">
        <ele>1.850008</ele>
        <time>2023-01-09T07:00:07.448Z</time>
      </trkpt>
      <trkpt lat="28.047964" lon="-14.361461">
        <ele>1.850008</ele>
        <time>2023-01-09T07:00:13.105Z</time>
      </trkpt>
      <trkpt lat="28.047930" lon="-14.361366">
        <ele>1.850008</ele>
        <time>2023-01-09T07:00:19.392Z</time>
      </trkpt>
      <trkpt lat="28.501753" lon="-13.863308">
        <ele>45.358154</ele>
        <time>2023-01-08T17:42:37.261Z</time>
      </trkpt>
      <trkpt lat="28.501475" lon="-13.863417">
        <ele>45.358154</ele>
        <time>2023-01-08T17:42:43.486Z</time>
      </trkpt>
      <trkpt lat="28.501391" lon="-13.863482">
        <ele>45.358154</ele>
        <time>2023-01-08T17:42:45.663Z</time>
      </trkpt>
      <trkpt lat="28.501843" lon="-13.863876">
        <ele>45.600282</ele>
        <time>2023-01-08T17:42:58.370Z</time>
      </trkpt>
      <trkpt lat="28.501935" lon="-13.863955">
        <ele>46.025172</ele>
        <time>2023-01-08T17:43:00.922Z</time>
      </trkpt>
      <trkpt lat="28.502144" lon="-13.864045">
        <ele>46.848976</ele>
        <time>2023-01-08T17:43:06.444Z</time>
      </trkpt>
      <trkpt lat="28.502183" lon="-13.864043">
        <ele>46.992895</ele>
        <time>2023-01-08T17:43:07.331Z</time>
      </trkpt>
      <trkpt lat="28.502249" lon="-13.864085">
        <ele>47.271667</ele>
        <time>2023-01-08T17:43:09.110Z</time>
      </trkpt>
      <trkpt lat="28.502267" lon="-13.864196">
        <ele>47.637344</ele>
        <time>2023-01-08T17:43:11.572Z</time>
      </trkpt>
      <trkpt lat="28.502354" lon="-13.864307">
        <ele>48.119195</ele>
        <time>2023-01-08T17:43:15.055Z</time>
      </trkpt>
      <trkpt lat="28.502894" lon="-13.864793">
        <ele>50.657291</ele>
        <time>2023-01-08T17:43:32.333Z</time>
      </trkpt>
      <trkpt lat="28.503398" lon="-13.865230">
        <ele>53.150576</ele>
        <time>2023-01-08T17:43:47.934Z</time>
      </trkpt>
      <trkpt lat="28.503741" lon="-13.865536">
        <ele>55.009097</ele>
        <time>2023-01-08T17:43:58.939Z</time>
      </trkpt>
      <trkpt lat="28.503833" lon="-13.865618">
        <ele>55.507416</ele>
        <time>2023-01-08T17:44:01.896Z</time>
      </trkpt>
      <trkpt lat="28.504072" lon="-13.865830">
        <ele>56.799606</ele>
        <time>2023-01-08T17:44:09.826Z</time>
      </trkpt>
      <trkpt lat="28.504127" lon="-13.865857">
        <ele>57.055029</ele>
        <time>2023-01-08T17:44:11.432Z</time>
      </trkpt>
      <trkpt lat="28.504141" lon="-13.865889">
        <ele>57.188981</ele>
        <time>2023-01-08T17:44:12.274Z</time>
      </trkpt>
      <trkpt lat="28.504313" lon="-13.866048">
        <ele>58.133931</ele>
        <time>2023-01-08T17:44:18.347Z</time>
      </trkpt>
      <trkpt lat="28.504792" lon="-13.866456">
        <ele>60.826171</ele>
        <time>2023-01-08T17:44:34.651Z</time>
      </trkpt>
      <trkpt lat="28.504862" lon="-13.866519">
        <ele>61.258955</ele>
        <time>2023-01-08T17:44:37.124Z</time>
      </trkpt>
      <trkpt lat="28.505444" lon="-13.867045">
        <ele>64.863057</ele>
        <time>2023-01-08T17:44:57.967Z</time>
      </trkpt>
      <trkpt lat="28.505700" lon="-13.867256">
        <ele>66.395892</ele>
        <time>2023-01-08T17:45:07.027Z</time>
      </trkpt>
      <trkpt lat="28.505757" lon="-13.867270">
        <ele>66.678665</ele>
        <time>2023-01-08T17:45:08.691Z</time>
      </trkpt>
      <trkpt lat="28.505792" lon="-13.867344">
        <ele>67.036781</ele>
        <time>2023-01-08T17:45:10.754Z</time>
      </trkpt>
      <trkpt lat="28.506106" lon="-13.867609">
        <ele>68.920633</ele>
        <time>2023-01-08T17:45:21.803Z</time>
      </trkpt>
      <trkpt lat="28.506957" lon="-13.868358">
        <ele>74.025416</ele>
        <time>2023-01-08T17:45:51.067Z</time>
      </trkpt>
      <trkpt lat="28.507032" lon="-13.868418">
        <ele>74.460427</ele>
        <time>2023-01-08T17:45:53.522Z</time>
      </trkpt>
      <trkpt lat="28.509076" lon="-13.870217">
        <ele>86.923115</ele>
        <time>2023-01-08T17:47:05.463Z</time>
      </trkpt>
      <trkpt lat="28.509304" lon="-13.870371">
        <ele>88.187906</ele>
        <time>2023-01-08T17:47:13.263Z</time>
      </trkpt>
      <trkpt lat="28.509392" lon="-13.870386">
        <ele>88.612379</ele>
        <time>2023-01-08T17:47:15.888Z</time>
      </trkpt>
      <trkpt lat="28.509425" lon="-13.870433">
        <ele>88.864565</ele>
        <time>2023-01-08T17:47:17.399Z</time>
      </trkpt>
      <trkpt lat="28.509431" lon="-13.870493">
        <ele>89.117702</ele>
        <time>2023-01-08T17:47:18.923Z</time>
      </trkpt>
      <trkpt lat="28.510475" lon="-13.871435">
        <ele>95.209637</ele>
        <time>2023-01-08T17:47:55.764Z</time>
      </trkpt>
      <trkpt lat="28.512248" lon="-13.873011">
        <ele>103.165071</ele>
        <time>2023-01-08T17:48:49.487Z</time>
      </trkpt>
      <trkpt lat="28.512474" lon="-13.873162">
        <ele>103.963838</ele>
        <time>2023-01-08T17:48:55.164Z</time>
      </trkpt>
      <trkpt lat="28.512770" lon="-13.873299">
        <ele>104.937774</ele>
        <time>2023-01-08T17:49:01.858Z</time>
      </trkpt>
      <trkpt lat="28.513101" lon="-13.873320">
        <ele>105.948194</ele>
        <time>2023-01-08T17:49:08.988Z</time>
      </trkpt>
      <trkpt lat="28.513256" lon="-13.873287">
        <ele>106.428814</ele>
        <time>2023-01-08T17:49:12.444Z</time>
      </trkpt>
      <trkpt lat="28.513476" lon="-13.873313">
        <ele>107.090189</ele>
        <time>2023-01-08T17:49:17.168Z</time>
      </trkpt>
      <trkpt lat="28.513579" lon="-13.873358">
        <ele>107.419631</ele>
        <time>2023-01-08T17:49:19.560Z</time>
      </trkpt>
      <trkpt lat="28.513713" lon="-13.873446">
        <ele>107.881594</ele>
        <time>2023-01-08T17:49:22.643Z</time>
      </trkpt>
      <trkpt lat="28.513828" lon="-13.873572">
        <ele>108.358260</ele>
        <time>2023-01-08T17:49:26.474Z</time>
      </trkpt>
      <trkpt lat="28.513934" lon="-13.873809">
        <ele>109.056017</ele>
        <time>2023-01-08T17:49:31.532Z</time>
      </trkpt>
      <trkpt lat="28.513959" lon="-13.874096">
        <ele>109.812736</ele>
        <time>2023-01-08T17:49:37.287Z</time>
      </trkpt>
      <trkpt lat="28.514027" lon="-13.874353">
        <ele>110.516957</ele>
        <time>2023-01-08T17:49:42.908Z</time>
      </trkpt>
      <trkpt lat="28.514135" lon="-13.874606">
        <ele>111.254963</ele>
        <time>2023-01-08T17:49:48.371Z</time>
      </trkpt>
      <trkpt lat="28.514333" lon="-13.874885">
        <ele>112.265520</ele>
        <time>2023-01-08T17:49:55.425Z</time>
      </trkpt>
      <trkpt lat="28.514558" lon="-13.875123">
        <ele>113.364687</ele>
        <time>2023-01-08T17:50:02.336Z</time>
      </trkpt>
      <trkpt lat="28.515326" lon="-13.875804">
        <ele>116.848450</ele>
        <time>2023-01-08T17:50:25.705Z</time>
      </trkpt>
      <trkpt lat="28.515939" lon="-13.876215">
        <ele>119.629129</ele>
        <time>2023-01-08T17:50:46.942Z</time>
      </trkpt>
      <trkpt lat="28.516160" lon="-13.876291">
        <ele>120.629526</ele>
        <time>2023-01-08T17:50:54.012Z</time>
      </trkpt>
      <trkpt lat="28.516281" lon="-13.876324">
        <ele>121.168686</ele>
        <time>2023-01-08T17:50:57.484Z</time>
      </trkpt>
      <trkpt lat="28.516368" lon="-13.876335">
        <ele>121.547992</ele>
        <time>2023-01-08T17:51:00.823Z</time>
      </trkpt>
      <trkpt lat="28.516488" lon="-13.876426">
        <ele>122.172835</ele>
        <time>2023-01-08T17:51:04.678Z</time>
      </trkpt>
      <trkpt lat="28.516632" lon="-13.876785">
        <ele>123.675406</ele>
        <time>2023-01-08T17:51:15.192Z</time>
      </trkpt>
      <trkpt lat="28.516982" lon="-13.877232">
        <ele>125.955033</ele>
        <time>2023-01-08T17:51:31.876Z</time>
      </trkpt>
      <trkpt lat="28.517686" lon="-13.877837">
        <ele>130.365157</ele>
        <time>2023-01-08T17:51:56.619Z</time>
      </trkpt>
      <trkpt lat="28.518467" lon="-13.878506">
        <ele>135.303001</ele>
        <time>2023-01-08T17:52:24.310Z</time>
      </trkpt>
      <trkpt lat="28.519027" lon="-13.879048">
        <ele>139.655957</ele>
        <time>2023-01-08T17:52:46.934Z</time>
      </trkpt>
      <trkpt lat="28.519233" lon="-13.879219">
        <ele>141.165763</ele>
        <time>2023-01-08T17:52:54.776Z</time>
      </trkpt>
      <trkpt lat="28.519268" lon="-13.879248">
        <ele>141.422119</ele>
        <time>2023-01-08T17:52:56.099Z</time>
      </trkpt>
      <trkpt lat="28.519953" lon="-13.879804">
        <ele>146.548681</ele>
        <time>2023-01-08T17:53:22.638Z</time>
      </trkpt>
      <trkpt lat="28.520149" lon="-13.879900">
        <ele>148.093882</ele>
        <time>2023-01-08T17:53:29.988Z</time>
      </trkpt>
      <trkpt lat="28.520300" lon="-13.879962">
        <ele>149.256340</ele>
        <time>2023-01-08T17:53:35.709Z</time>
      </trkpt>
      <trkpt lat="28.521141" lon="-13.880147">
        <ele>155.459193</ele>
        <time>2023-01-08T17:54:07.161Z</time>
      </trkpt>
      <trkpt lat="28.521997" lon="-13.880353">
        <ele>161.465751</ele>
        <time>2023-01-08T17:54:37.902Z</time>
      </trkpt>
      <trkpt lat="28.522408" lon="-13.880500">
        <ele>164.244713</ele>
        <time>2023-01-08T17:54:51.968Z</time>
      </trkpt>
      <trkpt lat="28.522697" lon="-13.880665">
        <ele>166.330299</ele>
        <time>2023-01-08T17:55:02.124Z</time>
      </trkpt>
      <trkpt lat="28.522983" lon="-13.880907">
        <ele>168.629110</ele>
        <time>2023-01-08T17:55:13.343Z</time>
      </trkpt>
      <trkpt lat="28.523153" lon="-13.881116">
        <ele>170.243283</ele>
        <time>2023-01-08T17:55:20.860Z</time>
      </trkpt>
      <trkpt lat="28.523225" lon="-13.881317">
        <ele>171.490333</ele>
        <time>2023-01-08T17:55:27.046Z</time>
      </trkpt>
      <trkpt lat="28.523245" lon="-13.881572">
        <ele>172.963709</ele>
        <time>2023-01-08T17:55:33.978Z</time>
      </trkpt>
      <trkpt lat="28.523185" lon="-13.881885">
        <ele>174.807418</ele>
        <time>2023-01-08T17:55:42.896Z</time>
      </trkpt>
      <trkpt lat="28.522449" lon="-13.883997">
        <ele>188.058750</ele>
        <time>2023-01-08T17:56:50.872Z</time>
      </trkpt>
      <trkpt lat="28.522237" lon="-13.884732">
        <ele>192.647445</ele>
        <time>2023-01-08T17:57:14.207Z</time>
      </trkpt>
      <trkpt lat="28.522194" lon="-13.884984">
        <ele>194.170157</ele>
        <time>2023-01-08T17:57:21.474Z</time>
      </trkpt>
      <trkpt lat="28.522215" lon="-13.885268">
        <ele>195.720118</ele>
        <time>2023-01-08T17:57:29.514Z</time>
      </trkpt>
      <trkpt lat="28.522300" lon="-13.885655">
        <ele>197.872196</ele>
        <time>2023-01-08T17:57:40.379Z</time>
      </trkpt>
      <trkpt lat="28.522464" lon="-13.886216">
        <ele>201.061866</ele>
        <time>2023-01-08T17:57:56.407Z</time>
      </trkpt>
      <trkpt lat="28.522911" lon="-13.887775">
        <ele>208.669243</ele>
        <time>2023-01-08T17:58:42.691Z</time>
      </trkpt>
      <trkpt lat="28.524168" lon="-13.892182">
        <ele>225.183193</ele>
        <time>2023-01-08T18:00:25.885Z</time>
      </trkpt>
      <trkpt lat="28.524671" lon="-13.893932">
        <ele>228.482208</ele>
        <time>2023-01-08T18:00:53.812Z</time>
      </trkpt>
      <trkpt lat="28.524929" lon="-13.894369">
        <ele>229.153141</ele>
        <time>2023-01-08T18:01:01.323Z</time>
      </trkpt>
      <trkpt lat="28.525007" lon="-13.894405">
        <ele>229.275220</ele>
        <time>2023-01-08T18:01:02.970Z</time>
      </trkpt>
      <trkpt lat="28.525070" lon="-13.894471">
        <ele>229.399411</ele>
        <time>2023-01-08T18:01:04.457Z</time>
      </trkpt>
      <trkpt lat="28.525109" lon="-13.894557">
        <ele>229.522741</ele>
        <time>2023-01-08T18:01:06.061Z</time>
      </trkpt>
      <trkpt lat="28.525119" lon="-13.894648">
        <ele>229.677682</ele>
        <time>2023-01-08T18:01:07.603Z</time>
      </trkpt>
      <trkpt lat="28.525101" lon="-13.894738">
        <ele>229.884770</ele>
        <time>2023-01-08T18:01:09.399Z</time>
      </trkpt>
      <trkpt lat="28.525059" lon="-13.894817">
        <ele>230.091937</ele>
        <time>2023-01-08T18:01:10.917Z</time>
      </trkpt>
      <trkpt lat="28.525112" lon="-13.895440">
        <ele>231.496230</ele>
        <time>2023-01-08T18:01:22.290Z</time>
      </trkpt>
      <trkpt lat="28.525363" lon="-13.896316">
        <ele>233.563483</ele>
        <time>2023-01-08T18:01:39.807Z</time>
      </trkpt>
      <trkpt lat="28.526358" lon="-13.899782">
        <ele>243.270227</ele>
        <time>2023-01-08T18:02:52.077Z</time>
      </trkpt>
      <trkpt lat="28.526537" lon="-13.900403">
        <ele>245.061453</ele>
        <time>2023-01-08T18:03:05.471Z</time>
      </trkpt>
      <trkpt lat="28.526689" lon="-13.900970">
        <ele>246.542919</ele>
        <time>2023-01-08T18:03:17.097Z</time>
      </trkpt>
      <trkpt lat="28.526808" lon="-13.901376">
        <ele>247.598585</ele>
        <time>2023-01-08T18:03:25.792Z</time>
      </trkpt>
      <trkpt lat="28.527150" lon="-13.902535">
        <ele>250.466679</ele>
        <time>2023-01-08T18:03:48.465Z</time>
      </trkpt>
      <trkpt lat="28.527298" lon="-13.903051">
        <ele>251.169333</ele>
        <time>2023-01-08T18:03:57.753Z</time>
      </trkpt>
      <trkpt lat="28.529475" lon="-13.910675">
        <ele>261.586486</ele>
        <time>2023-01-08T18:06:00.626Z</time>
      </trkpt>
      <trkpt lat="28.529767" lon="-13.911726">
        <ele>263.408650</ele>
        <time>2023-01-08T18:06:20.424Z</time>
      </trkpt>
      <trkpt lat="28.529961" lon="-13.912221">
        <ele>264.130756</ele>
        <time>2023-01-08T18:06:29.554Z</time>
      </trkpt>
      <trkpt lat="28.529977" lon="-13.912225">
        <ele>264.126891</ele>
        <time>2023-01-08T18:06:29.849Z</time>
      </trkpt>
      <trkpt lat="28.530033" lon="-13.912271">
        <ele>264.110597</ele>
        <time>2023-01-08T18:06:31.039Z</time>
      </trkpt>
      <trkpt lat="28.530048" lon="-13.912316">
        <ele>264.100619</ele>
        <time>2023-01-08T18:06:31.764Z</time>
      </trkpt>
      <trkpt lat="28.530048" lon="-13.912354">
        <ele>264.092742</ele>
        <time>2023-01-08T18:06:32.329Z</time>
      </trkpt>
      <trkpt lat="28.530034" lon="-13.912395">
        <ele>264.083624</ele>
        <time>2023-01-08T18:06:32.993Z</time>
      </trkpt>
      <trkpt lat="28.529997" lon="-13.912435">
        <ele>264.071584</ele>
        <time>2023-01-08T18:06:33.881Z</time>
      </trkpt>
      <trkpt lat="28.529938" lon="-13.912448">
        <ele>264.057405</ele>
        <time>2023-01-08T18:06:34.925Z</time>
      </trkpt>
      <trkpt lat="28.529908" lon="-13.912439">
        <ele>264.050084</ele>
        <time>2023-01-08T18:06:35.445Z</time>
      </trkpt>
      <trkpt lat="28.529861" lon="-13.912391">
        <ele>264.035185</ele>
        <time>2023-01-08T18:06:36.416Z</time>
      </trkpt>
      <trkpt lat="28.529848" lon="-13.912344">
        <ele>264.024971</ele>
        <time>2023-01-08T18:06:37.032Z</time>
      </trkpt>
      <trkpt lat="28.529858" lon="-13.912284">
        <ele>264.012312</ele>
        <time>2023-01-08T18:06:37.803Z</time>
      </trkpt>
      <trkpt lat="28.529895" lon="-13.912237">
        <ele>263.999230</ele>
        <time>2023-01-08T18:06:38.620Z</time>
      </trkpt>
      <trkpt lat="28.529961" lon="-13.912221">
        <ele>263.983308</ele>
        <time>2023-01-08T18:06:39.627Z</time>
      </trkpt>
      <trkpt lat="28.529977" lon="-13.912225">
        <ele>263.979443</ele>
        <time>2023-01-08T18:06:39.886Z</time>
      </trkpt>
      <trkpt lat="28.530050" lon="-13.912121">
        <ele>263.951849</ele>
        <time>2023-01-08T18:06:41.473Z</time>
      </trkpt>
      <trkpt lat="28.530089" lon="-13.911978">
        <ele>263.920810</ele>
        <time>2023-01-08T18:06:43.140Z</time>
      </trkpt>
      <trkpt lat="28.530116" lon="-13.911893">
        <ele>263.902074</ele>
        <time>2023-01-08T18:06:44.158Z</time>
      </trkpt>
      <trkpt lat="28.530194" lon="-13.911825">
        <ele>263.878892</ele>
        <time>2023-01-08T18:06:45.420Z</time>
      </trkpt>
      <trkpt lat="28.530474" lon="-13.911764">
        <ele>263.811628</ele>
        <time>2023-01-08T18:06:48.819Z</time>
      </trkpt>
      <trkpt lat="28.531035" lon="-13.911724">
        <ele>262.993336</ele>
        <time>2023-01-08T18:06:54.978Z</time>
      </trkpt>
      <trkpt lat="28.531174" lon="-13.911144">
        <ele>261.040751</ele>
        <time>2023-01-08T18:07:00.704Z</time>
      </trkpt>
      <trkpt lat="28.531197" lon="-13.910467">
        <ele>258.840310</ele>
        <time>2023-01-08T18:07:06.907Z</time>
      </trkpt>
      <trkpt lat="28.531235" lon="-13.908414">
        <ele>250.635221</ele>
        <time>2023-01-08T18:07:24.827Z</time>
      </trkpt>
      <trkpt lat="28.531187" lon="-13.908004">
        <ele>248.871256</ele>
        <time>2023-01-08T18:07:28.499Z</time>
      </trkpt>
      <trkpt lat="28.531182" lon="-13.907326">
        <ele>246.809136</ele>
        <time>2023-01-08T18:07:34.684Z</time>
      </trkpt>
      <trkpt lat="28.531321" lon="-13.906642">
        <ele>244.864722</ele>
        <time>2023-01-08T18:07:41.329Z</time>
      </trkpt>
      <trkpt lat="28.531328" lon="-13.906380">
        <ele>244.138756</ele>
        <time>2023-01-08T18:07:43.855Z</time>
      </trkpt>
      <trkpt lat="28.531279" lon="-13.906284">
        <ele>243.831261</ele>
        <time>2023-01-08T18:07:44.969Z</time>
      </trkpt>
      <trkpt lat="28.530665" lon="-13.906038">
        <ele>241.884958</ele>
        <time>2023-01-08T18:07:52.450Z</time>
      </trkpt>
      <trkpt lat="28.530669" lon="-13.905907">
        <ele>241.564734</ele>
        <time>2023-01-08T18:07:53.737Z</time>
      </trkpt>
      <trkpt lat="28.530866" lon="-13.905433">
        <ele>240.283729</ele>
        <time>2023-01-08T18:07:58.904Z</time>
      </trkpt>
      <trkpt lat="28.531221" lon="-13.904799">
        <ele>238.447059</ele>
        <time>2023-01-08T18:08:06.124Z</time>
      </trkpt>
      <trkpt lat="28.531405" lon="-13.904559">
        <ele>237.667750</ele>
        <time>2023-01-08T18:08:09.066Z</time>
      </trkpt>
      <trkpt lat="28.531492" lon="-13.904235">
        <ele>236.658421</ele>
        <time>2023-01-08T18:08:12.195Z</time>
      </trkpt>
      <trkpt lat="28.531662" lon="-13.903934">
        <ele>235.592382</ele>
        <time>2023-01-08T18:08:15.469Z</time>
      </trkpt>
      <trkpt lat="28.531728" lon="-13.903724">
        <ele>234.927931</ele>
        <time>2023-01-08T18:08:17.498Z</time>
      </trkpt>
      <trkpt lat="28.531972" lon="-13.902374">
        <ele>231.022100</ele>
        <time>2023-01-08T18:08:30.510Z</time>
      </trkpt>
      <trkpt lat="28.532086" lon="-13.902050">
        <ele>230.258820</ele>
        <time>2023-01-08T18:08:33.886Z</time>
      </trkpt>
      <trkpt lat="28.532144" lon="-13.901123">
        <ele>228.226396</ele>
        <time>2023-01-08T18:08:43.117Z</time>
      </trkpt>
      <trkpt lat="28.532219" lon="-13.900840">
        <ele>227.579948</ele>
        <time>2023-01-08T18:08:46.051Z</time>
      </trkpt>
      <trkpt lat="28.532238" lon="-13.900765">
        <ele>227.409245</ele>
        <time>2023-01-08T18:08:46.867Z</time>
      </trkpt>
      <trkpt lat="28.532228" lon="-13.900254">
        <ele>226.396990</ele>
        <time>2023-01-08T18:08:52.087Z</time>
      </trkpt>
      <trkpt lat="28.532381" lon="-13.899980">
        <ele>225.779931</ele>
        <time>2023-01-08T18:08:55.405Z</time>
      </trkpt>
      <trkpt lat="28.532675" lon="-13.899502">
        <ele>224.670920</ele>
        <time>2023-01-08T18:09:01.019Z</time>
      </trkpt>
      <trkpt lat="28.532907" lon="-13.899264">
        <ele>223.995255</ele>
        <time>2023-01-08T18:09:04.582Z</time>
      </trkpt>
      <trkpt lat="28.533086" lon="-13.898988">
        <ele>223.343234</ele>
        <time>2023-01-08T18:09:08.108Z</time>
      </trkpt>
      <trkpt lat="28.533298" lon="-13.898764">
        <ele>222.916140</ele>
        <time>2023-01-08T18:09:11.518Z</time>
      </trkpt>
      <trkpt lat="28.533471" lon="-13.898774">
        <ele>222.693639</ele>
        <time>2023-01-08T18:09:13.433Z</time>
      </trkpt>
      <trkpt lat="28.533499" lon="-13.898710">
        <ele>222.612958</ele>
        <time>2023-01-08T18:09:14.725Z</time>
      </trkpt>
      <trkpt lat="28.533684" lon="-13.898508">
        <ele>222.283674</ele>
        <time>2023-01-08T18:09:19.864Z</time>
      </trkpt>
      <trkpt lat="28.533827" lon="-13.898234">
        <ele>221.924034</ele>
        <time>2023-01-08T18:09:25.651Z</time>
      </trkpt>
      <trkpt lat="28.534085" lon="-13.897702">
        <ele>221.238302</ele>
        <time>2023-01-08T18:09:36.643Z</time>
      </trkpt>
      <trkpt lat="28.534606" lon="-13.896528">
        <ele>219.772485</ele>
        <time>2023-01-08T18:10:01.153Z</time>
      </trkpt>
      <trkpt lat="28.534640" lon="-13.896451">
        <ele>219.676804</ele>
        <time>2023-01-08T18:10:02.731Z</time>
      </trkpt>
      <trkpt lat="28.534810" lon="-13.896118">
        <ele>219.249200</ele>
        <time>2023-01-08T18:10:09.519Z</time>
      </trkpt>
      <trkpt lat="28.534920" lon="-13.895702">
        <ele>218.766869</ele>
        <time>2023-01-08T18:10:17.029Z</time>
      </trkpt>
      <trkpt lat="28.535079" lon="-13.895288">
        <ele>217.655952</ele>
        <time>2023-01-08T18:10:24.723Z</time>
      </trkpt>
      <trkpt lat="28.535180" lon="-13.894943">
        <ele>216.564915</ele>
        <time>2023-01-08T18:10:30.857Z</time>
      </trkpt>
      <trkpt lat="28.535327" lon="-13.894347">
        <ele>214.707647</ele>
        <time>2023-01-08T18:10:40.704Z</time>
      </trkpt>
      <trkpt lat="28.535355" lon="-13.893283">
        <ele>210.744935</ele>
        <time>2023-01-08T18:10:57.237Z</time>
      </trkpt>
      <trkpt lat="28.535417" lon="-13.893005">
        <ele>209.199809</ele>
        <time>2023-01-08T18:11:01.599Z</time>
      </trkpt>
      <trkpt lat="28.535557" lon="-13.892715">
        <ele>207.417207</ele>
        <time>2023-01-08T18:11:06.466Z</time>
      </trkpt>
      <trkpt lat="28.535975" lon="-13.892104">
        <ele>203.245387</ele>
        <time>2023-01-08T18:11:17.715Z</time>
      </trkpt>
      <trkpt lat="28.536063" lon="-13.891866">
        <ele>201.854329</ele>
        <time>2023-01-08T18:11:21.388Z</time>
      </trkpt>
      <trkpt lat="28.536317" lon="-13.891517">
        <ele>199.017344</ele>
        <time>2023-01-08T18:11:27.750Z</time>
      </trkpt>
      <trkpt lat="28.536537" lon="-13.891020">
        <ele>195.437552</ele>
        <time>2023-01-08T18:11:35.642Z</time>
      </trkpt>
      <trkpt lat="28.536753" lon="-13.890635">
        <ele>192.499162</ele>
        <time>2023-01-08T18:11:42.150Z</time>
      </trkpt>
      <trkpt lat="28.536823" lon="-13.890377">
        <ele>190.762267</ele>
        <time>2023-01-08T18:11:45.975Z</time>
      </trkpt>
      <trkpt lat="28.536850" lon="-13.890129">
        <ele>189.154836</ele>
        <time>2023-01-08T18:11:49.571Z</time>
      </trkpt>
      <trkpt lat="28.536837" lon="-13.889674">
        <ele>186.704878</ele>
        <time>2023-01-08T18:11:56.247Z</time>
      </trkpt>
      <trkpt lat="28.536868" lon="-13.889337">
        <ele>185.032574</ele>
        <time>2023-01-08T18:12:01.178Z</time>
      </trkpt>
      <trkpt lat="28.536990" lon="-13.888706">
        <ele>181.843846</ele>
        <time>2023-01-08T18:12:10.648Z</time>
      </trkpt>
      <trkpt lat="28.537046" lon="-13.888583">
        <ele>181.160122</ele>
        <time>2023-01-08T18:12:12.764Z</time>
      </trkpt>
      <trkpt lat="28.537332" lon="-13.888182">
        <ele>178.610962</ele>
        <time>2023-01-08T18:12:20.731Z</time>
      </trkpt>
      <trkpt lat="28.537688" lon="-13.887745">
        <ele>176.973209</ele>
        <time>2023-01-08T18:12:30.140Z</time>
      </trkpt>
      <trkpt lat="28.537960" lon="-13.887836">
        <ele>176.208466</ele>
        <time>2023-01-08T18:12:35.464Z</time>
      </trkpt>
      <trkpt lat="28.538131" lon="-13.887816">
        <ele>175.744772</ele>
        <time>2023-01-08T18:12:38.739Z</time>
      </trkpt>
      <trkpt lat="28.538396" lon="-13.887681">
        <ele>174.961623</ele>
        <time>2023-01-08T18:12:44.250Z</time>
      </trkpt>
      <trkpt lat="28.538961" lon="-13.887273">
        <ele>173.262608</ele>
        <time>2023-01-08T18:12:57.297Z</time>
      </trkpt>
      <trkpt lat="28.539018" lon="-13.887148">
        <ele>173.138236</ele>
        <time>2023-01-08T18:12:59.902Z</time>
      </trkpt>
      <trkpt lat="28.539010" lon="-13.886918">
        <ele>172.934966</ele>
        <time>2023-01-08T18:13:04.179Z</time>
      </trkpt>
      <trkpt lat="28.539039" lon="-13.886767">
        <ele>172.798470</ele>
        <time>2023-01-08T18:13:07.115Z</time>
      </trkpt>
      <trkpt lat="28.538991" lon="-13.886048">
        <ele>172.161697</ele>
        <time>2023-01-08T18:13:20.676Z</time>
      </trkpt>
      <trkpt lat="28.538805" lon="-13.885458">
        <ele>171.608139</ele>
        <time>2023-01-08T18:13:31.941Z</time>
      </trkpt>
      <trkpt lat="28.538779" lon="-13.885074">
        <ele>171.319423</ele>
        <time>2023-01-08T18:13:38.780Z</time>
      </trkpt>
      <trkpt lat="28.538694" lon="-13.884418">
        <ele>170.854521</ele>
        <time>2023-01-08T18:13:50.707Z</time>
      </trkpt>
      <trkpt lat="28.538556" lon="-13.884101">
        <ele>170.606479</ele>
        <time>2023-01-08T18:13:57.144Z</time>
      </trkpt>
      <trkpt lat="28.538654" lon="-13.883998">
        <ele>170.500028</ele>
        <time>2023-01-08T18:13:59.816Z</time>
      </trkpt>
      <trkpt lat="28.538882" lon="-13.883841">
        <ele>170.287363</ele>
        <time>2023-01-08T18:14:05.526Z</time>
      </trkpt>
      <trkpt lat="28.539089" lon="-13.883732">
        <ele>170.105342</ele>
        <time>2023-01-08T18:14:10.375Z</time>
      </trkpt>
      <trkpt lat="28.540190" lon="-13.882352">
        <ele>171.887308</ele>
        <time>2023-01-08T18:14:51.080Z</time>
      </trkpt>
      <trkpt lat="28.541482" lon="-13.879744">
        <ele>179.744780</ele>
        <time>2023-01-08T18:16:14.405Z</time>
      </trkpt>
      <trkpt lat="28.541651" lon="-13.879322">
        <ele>181.218677</ele>
        <time>2023-01-08T18:16:28.658Z</time>
      </trkpt>
      <trkpt lat="28.541778" lon="-13.878690">
        <ele>183.279045</ele>
        <time>2023-01-08T18:16:47.532Z</time>
      </trkpt>
      <trkpt lat="28.541779" lon="-13.878199">
        <ele>184.837056</ele>
        <time>2023-01-08T18:17:01.777Z</time>
      </trkpt>
      <trkpt lat="28.541857" lon="-13.878016">
        <ele>185.481771</ele>
        <time>2023-01-08T18:17:08.320Z</time>
      </trkpt>
      <trkpt lat="28.541996" lon="-13.878008">
        <ele>185.983944</ele>
        <time>2023-01-08T18:17:12.884Z</time>
      </trkpt>
      <trkpt lat="28.542332" lon="-13.878198">
        <ele>187.337620</ele>
        <time>2023-01-08T18:17:25.312Z</time>
      </trkpt>
      <trkpt lat="28.542472" lon="-13.878435">
        <ele>188.242866</ele>
        <time>2023-01-08T18:17:33.650Z</time>
      </trkpt>
      <trkpt lat="28.542637" lon="-13.878790">
        <ele>189.515871</ele>
        <time>2023-01-08T18:17:45.338Z</time>
      </trkpt>
      <trkpt lat="28.542956" lon="-13.879120">
        <ele>190.908258</ele>
        <time>2023-01-08T18:17:59.490Z</time>
      </trkpt>
      <trkpt lat="28.543250" lon="-13.879252">
        <ele>191.762784</ele>
        <time>2023-01-08T18:18:08.844Z</time>
      </trkpt>
      <trkpt lat="28.543514" lon="-13.879421">
        <ele>192.581723</ele>
        <time>2023-01-08T18:18:18.054Z</time>
      </trkpt>
      <trkpt lat="28.543953" lon="-13.879579">
        <ele>193.826624</ele>
        <time>2023-01-08T18:18:32.453Z</time>
      </trkpt>
      <trkpt lat="28.544181" lon="-13.879729">
        <ele>194.538647</ele>
        <time>2023-01-08T18:18:40.264Z</time>
      </trkpt>
      <trkpt lat="28.544291" lon="-13.879744">
        <ele>194.838197</ele>
        <time>2023-01-08T18:18:43.633Z</time>
      </trkpt>
      <trkpt lat="28.544702" lon="-13.879520">
        <ele>195.901563</ele>
        <time>2023-01-08T18:18:56.143Z</time>
      </trkpt>
      <trkpt lat="28.544866" lon="-13.879467">
        <ele>196.263547</ele>
        <time>2023-01-08T18:19:00.825Z</time>
      </trkpt>
      <trkpt lat="28.545148" lon="-13.879508">
        <ele>196.867186</ele>
        <time>2023-01-08T18:19:08.588Z</time>
      </trkpt>
      <trkpt lat="28.545563" lon="-13.879408">
        <ele>197.767885</ele>
        <time>2023-01-08T18:19:20.802Z</time>
      </trkpt>
      <trkpt lat="28.545928" lon="-13.879500">
        <ele>198.561665</ele>
        <time>2023-01-08T18:19:31.704Z</time>
      </trkpt>
      <trkpt lat="28.546182" lon="-13.879731">
        <ele>199.304431</ele>
        <time>2023-01-08T18:19:40.897Z</time>
      </trkpt>
      <trkpt lat="28.546527" lon="-13.879697">
        <ele>200.299740</ele>
        <time>2023-01-08T18:19:51.039Z</time>
      </trkpt>
      <trkpt lat="28.546637" lon="-13.879795">
        <ele>200.701213</ele>
        <time>2023-01-08T18:19:55.585Z</time>
      </trkpt>
      <trkpt lat="28.546785" lon="-13.880065">
        <ele>201.504738</ele>
        <time>2023-01-08T18:20:03.884Z</time>
      </trkpt>
      <trkpt lat="28.547031" lon="-13.880209">
        <ele>202.299790</ele>
        <time>2023-01-08T18:20:12.517Z</time>
      </trkpt>
      <trkpt lat="28.547228" lon="-13.880386">
        <ele>203.021115</ele>
        <time>2023-01-08T18:20:20.705Z</time>
      </trkpt>
      <trkpt lat="28.547450" lon="-13.880442">
        <ele>203.674665</ele>
        <time>2023-01-08T18:20:28.070Z</time>
      </trkpt>
      <trkpt lat="28.547697" lon="-13.880470">
        <ele>204.382943</ele>
        <time>2023-01-08T18:20:36.088Z</time>
      </trkpt>
      <trkpt lat="28.548069" lon="-13.880732">
        <ele>205.583712</ele>
        <time>2023-01-08T18:20:50.058Z</time>
      </trkpt>
      <trkpt lat="28.548739" lon="-13.881010">
        <ele>207.541221</ele>
        <time>2023-01-08T18:21:11.774Z</time>
      </trkpt>
      <trkpt lat="28.549015" lon="-13.881081">
        <ele>208.317946</ele>
        <time>2023-01-08T18:21:20.395Z</time>
      </trkpt>
      <trkpt lat="28.549643" lon="-13.881145">
        <ele>209.564074</ele>
        <time>2023-01-08T18:21:38.638Z</time>
      </trkpt>
      <trkpt lat="28.550052" lon="-13.881249">
        <ele>210.049285</ele>
        <time>2023-01-08T18:21:49.990Z</time>
      </trkpt>
      <trkpt lat="28.550716" lon="-13.881515">
        <ele>210.864276</ele>
        <time>2023-01-08T18:22:07.835Z</time>
      </trkpt>
      <trkpt lat="28.552039" lon="-13.882352">
        <ele>209.747623</ele>
        <time>2023-01-08T18:22:41.323Z</time>
      </trkpt>
      <trkpt lat="28.552122" lon="-13.882468">
        <ele>209.569973</ele>
        <time>2023-01-08T18:22:43.939Z</time>
      </trkpt>
      <trkpt lat="28.552749" lon="-13.882419">
        <ele>207.859475</ele>
        <time>2023-01-08T18:22:55.776Z</time>
      </trkpt>
      <trkpt lat="28.552985" lon="-13.882485">
        <ele>205.528735</ele>
        <time>2023-01-08T18:22:59.859Z</time>
      </trkpt>
      <trkpt lat="28.553288" lon="-13.882616">
        <ele>202.420202</ele>
        <time>2023-01-08T18:23:05.099Z</time>
      </trkpt>
      <trkpt lat="28.553515" lon="-13.882803">
        <ele>199.732889</ele>
        <time>2023-01-08T18:23:09.422Z</time>
      </trkpt>
      <trkpt lat="28.553656" lon="-13.882986">
        <ele>197.682168</ele>
        <time>2023-01-08T18:23:12.647Z</time>
      </trkpt>
      <trkpt lat="28.553761" lon="-13.883173">
        <ele>195.812444</ele>
        <time>2023-01-08T18:23:15.518Z</time>
      </trkpt>
      <trkpt lat="28.554260" lon="-13.883674">
        <ele>188.766179</ele>
        <time>2023-01-08T18:23:25.299Z</time>
      </trkpt>
      <trkpt lat="28.554472" lon="-13.883797">
        <ele>185.787633</ele>
        <time>2023-01-08T18:23:28.850Z</time>
      </trkpt>
      <trkpt lat="28.554774" lon="-13.884077">
        <ele>180.912199</ele>
        <time>2023-01-08T18:23:34.588Z</time>
      </trkpt>
      <trkpt lat="28.554915" lon="-13.884280">
        <ele>178.066618</ele>
        <time>2023-01-08T18:23:37.929Z</time>
      </trkpt>
      <trkpt lat="28.555010" lon="-13.884327">
        <ele>176.769981</ele>
        <time>2023-01-08T18:23:39.433Z</time>
      </trkpt>
      <trkpt lat="28.555084" lon="-13.884237">
        <ele>175.414497</ele>
        <time>2023-01-08T18:23:41.024Z</time>
      </trkpt>
      <trkpt lat="28.555146" lon="-13.883636">
        <ele>168.866192</ele>
        <time>2023-01-08T18:23:49.086Z</time>
      </trkpt>
      <trkpt lat="28.555215" lon="-13.883558">
        <ele>168.031626</ele>
        <time>2023-01-08T18:23:50.607Z</time>
      </trkpt>
      <trkpt lat="28.555320" lon="-13.883572">
        <ele>167.124266</ele>
        <time>2023-01-08T18:23:52.271Z</time>
      </trkpt>
      <trkpt lat="28.555793" lon="-13.883912">
        <ele>162.323112</ele>
        <time>2023-01-08T18:24:01.257Z</time>
      </trkpt>
      <trkpt lat="28.555878" lon="-13.884071">
        <ele>160.919889</ele>
        <time>2023-01-08T18:24:04.184Z</time>
      </trkpt>
      <trkpt lat="28.555896" lon="-13.884208">
        <ele>159.875587</ele>
        <time>2023-01-08T18:24:06.221Z</time>
      </trkpt>
      <trkpt lat="28.555844" lon="-13.884651">
        <ele>156.506220</ele>
        <time>2023-01-08T18:24:12.516Z</time>
      </trkpt>
      <trkpt lat="28.555765" lon="-13.884779">
        <ele>155.326855</ele>
        <time>2023-01-08T18:24:14.848Z</time>
      </trkpt>
      <trkpt lat="28.555765" lon="-13.884878">
        <ele>154.580515</ele>
        <time>2023-01-08T18:24:16.194Z</time>
      </trkpt>
      <trkpt lat="28.555816" lon="-13.884939">
        <ele>153.945629</ele>
        <time>2023-01-08T18:24:17.240Z</time>
      </trkpt>
      <trkpt lat="28.555980" lon="-13.884954">
        <ele>152.139277</ele>
        <time>2023-01-08T18:24:19.790Z</time>
      </trkpt>
      <trkpt lat="28.556177" lon="-13.884863">
        <ele>149.675015</ele>
        <time>2023-01-08T18:24:22.946Z</time>
      </trkpt>
      <trkpt lat="28.556577" lon="-13.884394">
        <ele>143.019418</ele>
        <time>2023-01-08T18:24:31.817Z</time>
      </trkpt>
      <trkpt lat="28.556769" lon="-13.884295">
        <ele>140.576303</ele>
        <time>2023-01-08T18:24:34.851Z</time>
      </trkpt>
      <trkpt lat="28.556908" lon="-13.883974">
        <ele>136.932611</ele>
        <time>2023-01-08T18:24:37.450Z</time>
      </trkpt>
      <trkpt lat="28.557055" lon="-13.883546">
        <ele>132.312321</ele>
        <time>2023-01-08T18:24:40.787Z</time>
      </trkpt>
      <trkpt lat="28.557654" lon="-13.882163">
        <ele>118.264776</ele>
        <time>2023-01-08T18:24:52.084Z</time>
      </trkpt>
      <trkpt lat="28.557736" lon="-13.881924">
        <ele>115.927294</ele>
        <time>2023-01-08T18:24:54.054Z</time>
      </trkpt>
      <trkpt lat="28.557741" lon="-13.881725">
        <ele>114.141886</ele>
        <time>2023-01-08T18:24:55.634Z</time>
      </trkpt>
      <trkpt lat="28.557690" lon="-13.880874">
        <ele>111.717405</ele>
        <time>2023-01-08T18:25:02.811Z</time>
      </trkpt>
      <trkpt lat="28.557647" lon="-13.880622">
        <ele>110.987736</ele>
        <time>2023-01-08T18:25:05.218Z</time>
      </trkpt>
      <trkpt lat="28.557561" lon="-13.880379">
        <ele>110.243078</ele>
        <time>2023-01-08T18:25:07.710Z</time>
      </trkpt>
      <trkpt lat="28.557000" lon="-13.879202">
        <ele>108.067269</ele>
        <time>2023-01-08T18:25:22.523Z</time>
      </trkpt>
      <trkpt lat="28.556944" lon="-13.878983">
        <ele>107.976088</ele>
        <time>2023-01-08T18:25:25.559Z</time>
      </trkpt>
      <trkpt lat="28.556938" lon="-13.878390">
        <ele>107.739018</ele>
        <time>2023-01-08T18:25:34.223Z</time>
      </trkpt>
      <trkpt lat="28.556743" lon="-13.876940">
        <ele>105.171946</ele>
        <time>2023-01-08T18:25:48.321Z</time>
      </trkpt>
      <trkpt lat="28.556750" lon="-13.876341">
        <ele>103.625407</ele>
        <time>2023-01-08T18:25:53.571Z</time>
      </trkpt>
      <trkpt lat="28.556787" lon="-13.876106">
        <ele>103.009052</ele>
        <time>2023-01-08T18:25:55.647Z</time>
      </trkpt>
      <trkpt lat="28.557027" lon="-13.874562">
        <ele>98.528591</ele>
        <time>2023-01-08T18:26:09.439Z</time>
      </trkpt>
      <trkpt lat="28.557055" lon="-13.874225">
        <ele>97.539043</ele>
        <time>2023-01-08T18:26:12.530Z</time>
      </trkpt>
      <trkpt lat="28.556964" lon="-13.871875">
        <ele>91.837244</ele>
        <time>2023-01-08T18:26:34.468Z</time>
      </trkpt>
      <trkpt lat="28.556993" lon="-13.871340">
        <ele>90.518421</ele>
        <time>2023-01-08T18:26:39.442Z</time>
      </trkpt>
      <trkpt lat="28.557170" lon="-13.870070">
        <ele>87.286004</ele>
        <time>2023-01-08T18:26:51.190Z</time>
      </trkpt>
      <trkpt lat="28.557236" lon="-13.869528">
        <ele>85.852713</ele>
        <time>2023-01-08T18:26:56.237Z</time>
      </trkpt>
      <trkpt lat="28.557253" lon="-13.869384">
        <ele>85.441424</ele>
        <time>2023-01-08T18:26:57.601Z</time>
      </trkpt>
      <trkpt lat="28.557341" lon="-13.868182">
        <ele>82.027109</ele>
        <time>2023-01-08T18:27:08.243Z</time>
      </trkpt>
      <trkpt lat="28.557344" lon="-13.868135">
        <ele>81.893715</ele>
        <time>2023-01-08T18:27:08.656Z</time>
      </trkpt>
      <trkpt lat="28.557970" lon="-13.868046">
        <ele>79.928796</ele>
        <time>2023-01-08T18:27:20.491Z</time>
      </trkpt>
      <trkpt lat="28.558454" lon="-13.868114">
        <ele>78.507787</ele>
        <time>2023-01-08T18:27:29.644Z</time>
      </trkpt>
      <trkpt lat="28.558477" lon="-13.868066">
        <ele>78.367847</ele>
        <time>2023-01-08T18:27:30.537Z</time>
      </trkpt>
      <trkpt lat="28.558405" lon="-13.867535">
        <ele>76.992741</ele>
        <time>2023-01-08T18:27:39.352Z</time>
      </trkpt>
      <trkpt lat="28.558439" lon="-13.866658">
        <ele>74.798066</ele>
        <time>2023-01-08T18:27:53.708Z</time>
      </trkpt>
      <trkpt lat="28.558733" lon="-13.865244">
        <ele>71.409888</ele>
        <time>2023-01-08T18:28:17.760Z</time>
      </trkpt>
      <trkpt lat="28.558783" lon="-13.864803">
        <ele>70.539466</ele>
        <time>2023-01-08T18:28:25.146Z</time>
      </trkpt>
      <trkpt lat="28.558753" lon="-13.864015">
        <ele>70.369936</ele>
        <time>2023-01-08T18:28:38.873Z</time>
      </trkpt>
      <trkpt lat="28.558698" lon="-13.863671">
        <ele>70.294782</ele>
        <time>2023-01-08T18:28:45.280Z</time>
      </trkpt>
      <trkpt lat="28.558616" lon="-13.863457">
        <ele>70.244599</ele>
        <time>2023-01-08T18:28:49.624Z</time>
      </trkpt>
      <trkpt lat="28.558688" lon="-13.863397">
        <ele>70.222764</ele>
        <time>2023-01-08T18:28:52.117Z</time>
      </trkpt>
      <trkpt lat="28.558802" lon="-13.863461">
        <ele>70.191660</ele>
        <time>2023-01-08T18:28:55.429Z</time>
      </trkpt>
      <trkpt lat="28.558934" lon="-13.863307">
        <ele>70.145410</ele>
        <time>2023-01-08T18:29:00.600Z</time>
      </trkpt>
      <trkpt lat="28.559033" lon="-13.862923">
        <ele>71.536976</ele>
        <time>2023-01-08T18:29:11.442Z</time>
      </trkpt>
      <trkpt lat="28.559603" lon="-13.862511">
        <ele>75.668330</ele>
        <time>2023-01-08T18:29:35.965Z</time>
      </trkpt>
      <trkpt lat="28.559756" lon="-13.862277">
        <ele>77.236164</ele>
        <time>2023-01-08T18:29:47.294Z</time>
      </trkpt>
      <trkpt lat="28.560962" lon="-13.861913">
        <ele>86.790088</ele>
        <time>2023-01-08T18:30:49.180Z</time>
      </trkpt>
      <trkpt lat="28.561496" lon="-13.861726">
        <ele>91.959294</ele>
        <time>2023-01-08T18:31:19.638Z</time>
      </trkpt>
      <trkpt lat="28.562465" lon="-13.861588">
        <ele>99.513249</ele>
        <time>2023-01-08T18:32:06.499Z</time>
      </trkpt>
      <trkpt lat="28.562894" lon="-13.861373">
        <ele>101.861404</ele>
        <time>2023-01-08T18:32:26.016Z</time>
      </trkpt>
      <trkpt lat="28.563153" lon="-13.861410">
        <ele>103.169093</ele>
        <time>2023-01-08T18:32:35.369Z</time>
      </trkpt>
      <trkpt lat="28.563516" lon="-13.861179">
        <ele>105.252383</ele>
        <time>2023-01-08T18:32:48.701Z</time>
      </trkpt>
      <trkpt lat="28.563893" lon="-13.860986">
        <ele>106.838791</ele>
        <time>2023-01-08T18:33:00.303Z</time>
      </trkpt>
      <trkpt lat="28.564082" lon="-13.860981">
        <ele>106.949601</ele>
        <time>2023-01-08T18:33:04.974Z</time>
      </trkpt>
      <trkpt lat="28.564326" lon="-13.860760">
        <ele>107.132349</ele>
        <time>2023-01-08T18:33:12.050Z</time>
      </trkpt>
      <trkpt lat="28.564482" lon="-13.860643">
        <ele>107.241841</ele>
        <time>2023-01-08T18:33:16.514Z</time>
      </trkpt>
      <trkpt lat="28.564580" lon="-13.860620">
        <ele>107.300489</ele>
        <time>2023-01-08T18:33:18.940Z</time>
      </trkpt>
      <trkpt lat="28.564665" lon="-13.860529">
        <ele>107.368876</ele>
        <time>2023-01-08T18:33:21.811Z</time>
      </trkpt>
      <trkpt lat="28.564840" lon="-13.860557">
        <ele>107.472457</ele>
        <time>2023-01-08T18:33:26.535Z</time>
      </trkpt>
      <trkpt lat="28.565249" lon="-13.860561">
        <ele>107.712194</ele>
        <time>2023-01-08T18:33:35.443Z</time>
      </trkpt>
      <trkpt lat="28.565321" lon="-13.860471">
        <ele>107.774864</ele>
        <time>2023-01-08T18:33:37.566Z</time>
      </trkpt>
      <trkpt lat="28.565664" lon="-13.860336">
        <ele>107.634471</ele>
        <time>2023-01-08T18:33:45.413Z</time>
      </trkpt>
      <trkpt lat="28.566237" lon="-13.860455">
        <ele>107.216379</ele>
        <time>2023-01-08T18:33:58.458Z</time>
      </trkpt>
      <trkpt lat="28.566322" lon="-13.859945">
        <ele>106.889122</ele>
        <time>2023-01-08T18:34:07.948Z</time>
      </trkpt>
      <trkpt lat="28.566484" lon="-13.859971">
        <ele>106.771687</ele>
        <time>2023-01-08T18:34:11.460Z</time>
      </trkpt>
      <trkpt lat="28.566978" lon="-13.860234">
        <ele>105.974008</ele>
        <time>2023-01-08T18:34:22.559Z</time>
      </trkpt>
      <trkpt lat="28.567690" lon="-13.860502">
        <ele>104.047599</ele>
        <time>2023-01-08T18:34:36.599Z</time>
      </trkpt>
      <trkpt lat="28.568562" lon="-13.860600">
        <ele>101.803835</ele>
        <time>2023-01-08T18:34:52.992Z</time>
      </trkpt>
      <trkpt lat="28.568820" lon="-13.860653">
        <ele>101.170591</ele>
        <time>2023-01-08T18:34:57.864Z</time>
      </trkpt>
      <trkpt lat="28.568925" lon="-13.860579">
        <ele>100.872319</ele>
        <time>2023-01-08T18:35:00.087Z</time>
      </trkpt>
      <trkpt lat="28.569283" lon="-13.860541">
        <ele>100.003842</ele>
        <time>2023-01-08T18:35:06.784Z</time>
      </trkpt>
      <trkpt lat="28.570244" lon="-13.860595">
        <ele>97.679779</ele>
        <time>2023-01-08T18:35:25.291Z</time>
      </trkpt>
      <trkpt lat="28.570695" lon="-13.860647">
        <ele>97.764445</ele>
        <time>2023-01-08T18:35:34.596Z</time>
      </trkpt>
      <trkpt lat="28.570979" lon="-13.860471">
        <ele>97.916026</ele>
        <time>2023-01-08T18:35:41.944Z</time>
      </trkpt>
      <trkpt lat="28.571492" lon="-13.860599">
        <ele>98.162227</ele>
        <time>2023-01-08T18:35:55.013Z</time>
      </trkpt>
      <trkpt lat="28.573649" lon="-13.860588">
        <ele>100.858698</ele>
        <time>2023-01-08T18:36:55.834Z</time>
      </trkpt>
      <trkpt lat="28.574266" lon="-13.860647">
        <ele>100.248323</ele>
        <time>2023-01-08T18:37:09.232Z</time>
      </trkpt>
      <trkpt lat="28.574691" lon="-13.860509">
        <ele>99.350377</ele>
        <time>2023-01-08T18:37:18.094Z</time>
      </trkpt>
      <trkpt lat="28.574997" lon="-13.860514">
        <ele>98.728575</ele>
        <time>2023-01-08T18:37:23.728Z</time>
      </trkpt>
      <trkpt lat="28.576152" lon="-13.860353">
        <ele>96.107790</ele>
        <time>2023-01-08T18:37:44.808Z</time>
      </trkpt>
      <trkpt lat="28.576226" lon="-13.860277">
        <ele>95.858785</ele>
        <time>2023-01-08T18:37:46.726Z</time>
      </trkpt>
      <trkpt lat="28.576334" lon="-13.860258">
        <ele>95.585717</ele>
        <time>2023-01-08T18:37:48.623Z</time>
      </trkpt>
      <trkpt lat="28.576154" lon="-13.859990">
        <ele>94.845346</ele>
        <time>2023-01-08T18:37:54.324Z</time>
      </trkpt>
      <trkpt lat="28.576036" lon="-13.859750">
        <ele>94.241776</ele>
        <time>2023-01-08T18:37:59.028Z</time>
      </trkpt>
      <trkpt lat="28.575902" lon="-13.859375">
        <ele>93.353372</ele>
        <time>2023-01-08T18:38:06.025Z</time>
      </trkpt>
      <trkpt lat="28.575833" lon="-13.859060">
        <ele>93.071157</ele>
        <time>2023-01-08T18:38:11.712Z</time>
      </trkpt>
      <trkpt lat="28.575902" lon="-13.859375">
        <ele>93.246716</ele>
        <time>2023-01-08T18:38:18.149Z</time>
      </trkpt>
      <trkpt lat="28.576036" lon="-13.859750">
        <ele>93.465647</ele>
        <time>2023-01-08T18:38:26.866Z</time>
      </trkpt>
      <trkpt lat="28.576154" lon="-13.859990">
        <ele>93.614386</ele>
        <time>2023-01-08T18:38:32.767Z</time>
      </trkpt>
      <trkpt lat="28.576334" lon="-13.860258">
        <ele>93.796837</ele>
        <time>2023-01-08T18:38:40.110Z</time>
      </trkpt>
      <trkpt lat="28.576590" lon="-13.860554">
        <ele>94.021493</ele>
        <time>2023-01-08T18:38:49.749Z</time>
      </trkpt>
      <trkpt lat="28.576860" lon="-13.860805">
        <ele>94.617302</ele>
        <time>2023-01-08T18:39:00.295Z</time>
      </trkpt>
      <trkpt lat="28.577406" lon="-13.861108">
        <ele>95.992072</ele>
        <time>2023-01-08T18:39:17.319Z</time>
      </trkpt>
      <trkpt lat="28.578873" lon="-13.862031">
        <ele>100.067925</ele>
        <time>2023-01-08T18:40:07.504Z</time>
      </trkpt>
      <trkpt lat="28.579569" lon="-13.862539">
        <ele>102.264963</ele>
        <time>2023-01-08T18:40:32.799Z</time>
      </trkpt>
      <trkpt lat="28.579815" lon="-13.862659">
        <ele>102.978954</ele>
        <time>2023-01-08T18:40:40.847Z</time>
      </trkpt>
      <trkpt lat="28.580441" lon="-13.863178">
        <ele>105.217980</ele>
        <time>2023-01-08T18:41:03.878Z</time>
      </trkpt>
      <trkpt lat="28.581745" lon="-13.863625">
        <ele>109.250751</ele>
        <time>2023-01-08T18:41:47.031Z</time>
      </trkpt>
      <trkpt lat="28.581825" lon="-13.863688">
        <ele>109.558471</ele>
        <time>2023-01-08T18:41:49.708Z</time>
      </trkpt>
      <trkpt lat="28.581858" lon="-13.863799">
        <ele>109.884041</ele>
        <time>2023-01-08T18:41:52.950Z</time>
      </trkpt>
      <trkpt lat="28.581793" lon="-13.864113">
        <ele>110.780295</ele>
        <time>2023-01-08T18:42:01.661Z</time>
      </trkpt>
      <trkpt lat="28.581668" lon="-13.864322">
        <ele>111.482812</ele>
        <time>2023-01-08T18:42:09.153Z</time>
      </trkpt>
      <trkpt lat="28.581375" lon="-13.864977">
        <ele>113.525013</ele>
        <time>2023-01-08T18:42:29.346Z</time>
      </trkpt>
      <trkpt lat="28.581199" lon="-13.865521">
        <ele>115.287030</ele>
        <time>2023-01-08T18:42:46.116Z</time>
      </trkpt>
      <trkpt lat="28.581172" lon="-13.865661">
        <ele>115.731631</ele>
        <time>2023-01-08T18:42:50.293Z</time>
      </trkpt>
      <trkpt lat="28.581184" lon="-13.865827">
        <ele>116.248272</ele>
        <time>2023-01-08T18:42:55.690Z</time>
      </trkpt>
      <trkpt lat="28.581257" lon="-13.865946">
        <ele>116.698531</ele>
        <time>2023-01-08T18:42:59.641Z</time>
      </trkpt>
      <trkpt lat="28.581420" lon="-13.866046">
        <ele>117.352523</ele>
        <time>2023-01-08T18:43:05.447Z</time>
      </trkpt>
      <trkpt lat="28.582942" lon="-13.865841">
        <ele>123.217354</ele>
        <time>2023-01-08T18:43:56.122Z</time>
      </trkpt>
      <trkpt lat="28.583330" lon="-13.865861">
        <ele>124.829545</ele>
        <time>2023-01-08T18:44:09.978Z</time>
      </trkpt>
      <trkpt lat="28.583588" lon="-13.865941">
        <ele>125.939461</ele>
        <time>2023-01-08T18:44:19.596Z</time>
      </trkpt>
      <trkpt lat="28.583893" lon="-13.866086">
        <ele>127.311371</ele>
        <time>2023-01-08T18:44:31.574Z</time>
      </trkpt>
      <trkpt lat="28.584194" lon="-13.866189">
        <ele>128.524241</ele>
        <time>2023-01-08T18:44:42.992Z</time>
      </trkpt>
      <trkpt lat="28.584359" lon="-13.866291">
        <ele>129.229126</ele>
        <time>2023-01-08T18:44:50.036Z</time>
      </trkpt>
      <trkpt lat="28.585469" lon="-13.867336">
        <ele>134.443069</ele>
        <time>2023-01-08T18:45:38.048Z</time>
      </trkpt>
      <trkpt lat="28.585728" lon="-13.867442">
        <ele>134.600441</ele>
        <time>2023-01-08T18:45:45.894Z</time>
      </trkpt>
      <trkpt lat="28.585703" lon="-13.867391">
        <ele>134.629769</ele>
        <time>2023-01-08T18:45:46.843Z</time>
      </trkpt>
      <trkpt lat="28.586317" lon="-13.867096">
        <ele>135.010826</ele>
        <time>2023-01-08T18:46:04.196Z</time>
      </trkpt>
      <trkpt lat="28.586491" lon="-13.867111">
        <ele>135.110605</ele>
        <time>2023-01-08T18:46:08.303Z</time>
      </trkpt>
      <trkpt lat="28.586491" lon="-13.867111">
        <ele>135.110605</ele>
        <time>2023-01-08T18:46:08.309Z</time>
      </trkpt>
      <trkpt lat="28.587030" lon="-13.866841">
        <ele>135.392577</ele>
        <time>2023-01-08T18:46:23.538Z</time>
      </trkpt>
      <trkpt lat="28.587570" lon="-13.866570">
        <ele>133.967946</ele>
        <time>2023-01-08T18:46:38.800Z</time>
      </trkpt>
      <trkpt lat="28.587706" lon="-13.866328">
        <ele>133.358866</ele>
        <time>2023-01-08T18:46:43.529Z</time>
      </trkpt>
      <trkpt lat="28.587807" lon="-13.866216">
        <ele>133.018535</ele>
        <time>2023-01-08T18:46:46.229Z</time>
      </trkpt>
      <trkpt lat="28.587858" lon="-13.865882">
        <ele>132.299875</ele>
        <time>2023-01-08T18:46:51.817Z</time>
      </trkpt>
      <trkpt lat="28.588038" lon="-13.865074">
        <ele>130.595797</ele>
        <time>2023-01-08T18:47:05.755Z</time>
      </trkpt>
      <trkpt lat="28.587992" lon="-13.864880">
        <ele>130.217610</ele>
        <time>2023-01-08T18:47:09.045Z</time>
      </trkpt>
      <trkpt lat="28.588149" lon="-13.864907">
        <ele>129.877295</ele>
        <time>2023-01-08T18:47:12.013Z</time>
      </trkpt>
      <trkpt lat="28.588601" lon="-13.865132">
        <ele>128.820016</ele>
        <time>2023-01-08T18:47:21.371Z</time>
      </trkpt>
      <trkpt lat="28.588978" lon="-13.865411">
        <ele>127.856369</ele>
        <time>2023-01-08T18:47:30.377Z</time>
      </trkpt>
      <trkpt lat="28.589637" lon="-13.865379">
        <ele>126.681808</ele>
        <time>2023-01-08T18:47:43.688Z</time>
      </trkpt>
      <trkpt lat="28.590692" lon="-13.865583">
        <ele>125.076629</ele>
        <time>2023-01-08T18:48:05.405Z</time>
      </trkpt>
      <trkpt lat="28.591386" lon="-13.865836">
        <ele>122.820930</ele>
        <time>2023-01-08T18:48:20.033Z</time>
      </trkpt>
      <trkpt lat="28.592196" lon="-13.866383">
        <ele>118.464674</ele>
        <time>2023-01-08T18:48:36.814Z</time>
      </trkpt>
      <trkpt lat="28.592661" lon="-13.866613">
        <ele>116.013047</ele>
        <time>2023-01-08T18:48:45.156Z</time>
      </trkpt>
      <trkpt lat="28.595101" lon="-13.865937">
        <ele>94.203606</ele>
        <time>2023-01-08T18:49:23.922Z</time>
      </trkpt>
      <trkpt lat="28.596109" lon="-13.865701">
        <ele>87.237162</ele>
        <time>2023-01-08T18:49:41.507Z</time>
      </trkpt>
      <trkpt lat="28.596816" lon="-13.865282">
        <ele>86.304639</ele>
        <time>2023-01-08T18:49:57.545Z</time>
      </trkpt>
      <trkpt lat="28.596925" lon="-13.865085">
        <ele>86.118183</ele>
        <time>2023-01-08T18:50:02.039Z</time>
      </trkpt>
      <trkpt lat="28.597145" lon="-13.864949">
        <ele>85.889894</ele>
        <time>2023-01-08T18:50:07.600Z</time>
      </trkpt>
      <trkpt lat="28.597931" lon="-13.864579">
        <ele>85.792270</ele>
        <time>2023-01-08T18:50:27.282Z</time>
      </trkpt>
      <trkpt lat="28.598737" lon="-13.864274">
        <ele>87.162520</ele>
        <time>2023-01-08T18:50:50.256Z</time>
      </trkpt>
      <trkpt lat="28.599355" lon="-13.864216">
        <ele>88.162948</ele>
        <time>2023-01-08T18:51:08.376Z</time>
      </trkpt>
      <trkpt lat="28.599842" lon="-13.864206">
        <ele>88.967500</ele>
        <time>2023-01-08T18:51:22.775Z</time>
      </trkpt>
      <trkpt lat="28.599729" lon="-13.864802">
        <ele>89.854703</ele>
        <time>2023-01-08T18:51:37.712Z</time>
      </trkpt>
      <trkpt lat="28.599650" lon="-13.864935">
        <ele>90.088352</ele>
        <time>2023-01-08T18:51:41.592Z</time>
      </trkpt>
      <trkpt lat="28.599515" lon="-13.865357">
        <ele>90.741876</ele>
        <time>2023-01-08T18:51:52.222Z</time>
      </trkpt>
      <trkpt lat="28.599367" lon="-13.865965">
        <ele>91.062957</ele>
        <time>2023-01-08T18:52:06.008Z</time>
      </trkpt>
      <trkpt lat="28.599364" lon="-13.865984">
        <ele>91.050945</ele>
        <time>2023-01-08T18:52:06.566Z</time>
      </trkpt>
      <trkpt lat="28.599367" lon="-13.865965">
        <ele>91.038932</ele>
        <time>2023-01-08T18:52:06.888Z</time>
      </trkpt>
      <trkpt lat="28.599515" lon="-13.865357">
        <ele>90.646335</ele>
        <time>2023-01-08T18:52:18.742Z</time>
      </trkpt>
      <trkpt lat="28.599650" lon="-13.864935">
        <ele>90.366860</ele>
        <time>2023-01-08T18:52:26.761Z</time>
      </trkpt>
      <trkpt lat="28.599729" lon="-13.864802">
        <ele>90.266942</ele>
        <time>2023-01-08T18:52:29.633Z</time>
      </trkpt>
      <trkpt lat="28.600127" lon="-13.864151">
        <ele>89.801553</ele>
        <time>2023-01-08T18:52:43.376Z</time>
      </trkpt>
      <trkpt lat="28.600256" lon="-13.863920">
        <ele>89.656024</ele>
        <time>2023-01-08T18:52:48.169Z</time>
      </trkpt>
      <trkpt lat="28.600422" lon="-13.863538">
        <ele>89.429450</ele>
        <time>2023-01-08T18:52:55.807Z</time>
      </trkpt>
      <trkpt lat="28.600734" lon="-13.862594">
        <ele>88.893263</ele>
        <time>2023-01-08T18:53:15.011Z</time>
      </trkpt>
      <trkpt lat="28.600867" lon="-13.862243">
        <ele>89.977783</ele>
        <time>2023-01-08T18:53:23.911Z</time>
      </trkpt>
      <trkpt lat="28.601042" lon="-13.862141">
        <ele>90.674029</ele>
        <time>2023-01-08T18:53:29.888Z</time>
      </trkpt>
      <trkpt lat="28.601488" lon="-13.862032">
        <ele>92.289601</ele>
        <time>2023-01-08T18:53:44.849Z</time>
      </trkpt>
      <trkpt lat="28.601663" lon="-13.861924">
        <ele>92.994541</ele>
        <time>2023-01-08T18:53:51.871Z</time>
      </trkpt>
      <trkpt lat="28.601864" lon="-13.861878">
        <ele>93.720659</ele>
        <time>2023-01-08T18:53:59.499Z</time>
      </trkpt>
      <trkpt lat="28.602059" lon="-13.861890">
        <ele>94.412306</ele>
        <time>2023-01-08T18:54:07.099Z</time>
      </trkpt>
      <trkpt lat="28.602389" lon="-13.861622">
        <ele>96.569098</ele>
        <time>2023-01-08T18:54:22.814Z</time>
      </trkpt>
      <trkpt lat="28.602625" lon="-13.861542">
        <ele>98.490720</ele>
        <time>2023-01-08T18:54:32.154Z</time>
      </trkpt>
      <trkpt lat="28.602910" lon="-13.861508">
        <ele>100.727077</ele>
        <time>2023-01-08T18:54:42.966Z</time>
      </trkpt>
      <trkpt lat="28.603125" lon="-13.861348">
        <ele>102.731364</ele>
        <time>2023-01-08T18:54:55.099Z</time>
      </trkpt>
      <trkpt lat="28.603351" lon="-13.861245">
        <ele>104.631059</ele>
        <time>2023-01-08T18:55:08.510Z</time>
      </trkpt>
      <trkpt lat="28.603541" lon="-13.861268">
        <ele>106.122203</ele>
        <time>2023-01-08T18:55:19.371Z</time>
      </trkpt>
      <trkpt lat="28.603716" lon="-13.861354">
        <ele>107.609628</ele>
        <time>2023-01-08T18:55:29.177Z</time>
      </trkpt>
      <trkpt lat="28.603871" lon="-13.861599">
        <ele>109.535892</ele>
        <time>2023-01-08T18:55:43.208Z</time>
      </trkpt>
      <trkpt lat="28.604001" lon="-13.861913">
        <ele>111.050966</ele>
        <time>2023-01-08T18:55:57.776Z</time>
      </trkpt>
      <trkpt lat="28.604207" lon="-13.862015">
        <ele>112.167536</ele>
        <time>2023-01-08T18:56:06.326Z</time>
      </trkpt>
      <trkpt lat="28.604307" lon="-13.862101">
        <ele>112.790399</ele>
        <time>2023-01-08T18:56:11.199Z</time>
      </trkpt>
      <trkpt lat="28.604397" lon="-13.862238">
        <ele>113.537137</ele>
        <time>2023-01-08T18:56:15.292Z</time>
      </trkpt>
      <trkpt lat="28.604507" lon="-13.862523">
        <ele>114.895806</ele>
        <time>2023-01-08T18:56:23.953Z</time>
      </trkpt>
      <trkpt lat="28.604552" lon="-13.862739">
        <ele>115.864639</ele>
        <time>2023-01-08T18:56:31.263Z</time>
      </trkpt>
      <trkpt lat="28.604546" lon="-13.862823">
        <ele>116.232439</ele>
        <time>2023-01-08T18:56:34.291Z</time>
      </trkpt>
      <trkpt lat="28.604552" lon="-13.862739">
        <ele>116.600239</ele>
        <time>2023-01-08T18:56:35.707Z</time>
      </trkpt>
      <trkpt lat="28.604507" lon="-13.862523">
        <ele>117.569071</ele>
        <time>2023-01-08T18:56:42.462Z</time>
      </trkpt>
      <trkpt lat="28.604397" lon="-13.862238">
        <ele>118.204104</ele>
        <time>2023-01-08T18:56:51.124Z</time>
      </trkpt>
      <trkpt lat="28.604307" lon="-13.862101">
        <ele>118.180674</ele>
        <time>2023-01-08T18:56:57.425Z</time>
      </trkpt>
      <trkpt lat="28.604207" lon="-13.862015">
        <ele>118.161130</ele>
        <time>2023-01-08T18:56:59.757Z</time>
      </trkpt>
      <trkpt lat="28.604441" lon="-13.861860">
        <ele>118.118910</ele>
        <time>2023-01-08T18:57:06.364Z</time>
      </trkpt>
      <trkpt lat="28.604780" lon="-13.861719">
        <ele>118.062622</ele>
        <time>2023-01-08T18:57:13.342Z</time>
      </trkpt>
      <trkpt lat="28.604949" lon="-13.861683">
        <ele>118.035806</ele>
        <time>2023-01-08T18:57:16.463Z</time>
      </trkpt>
      <trkpt lat="28.605260" lon="-13.861762">
        <ele>117.986108</ele>
        <time>2023-01-08T18:57:22.459Z</time>
      </trkpt>
      <trkpt lat="28.605496" lon="-13.861849">
        <ele>117.947419</ele>
        <time>2023-01-08T18:57:27.679Z</time>
      </trkpt>
      <trkpt lat="28.605802" lon="-13.862091">
        <ele>118.131230</ele>
        <time>2023-01-08T18:57:36.820Z</time>
      </trkpt>
      <trkpt lat="28.606244" lon="-13.862171">
        <ele>118.361532</ele>
        <time>2023-01-08T18:57:48.618Z</time>
      </trkpt>
      <trkpt lat="28.606598" lon="-13.862300">
        <ele>118.552792</ele>
        <time>2023-01-08T18:57:58.162Z</time>
      </trkpt>
      <trkpt lat="28.607073" lon="-13.862513">
        <ele>118.815482</ele>
        <time>2023-01-08T18:58:10.781Z</time>
      </trkpt>
      <trkpt lat="28.607224" lon="-13.862739">
        <ele>118.798056</ele>
        <time>2023-01-08T18:58:16.436Z</time>
      </trkpt>
      <trkpt lat="28.607379" lon="-13.862842">
        <ele>118.705138</ele>
        <time>2023-01-08T18:58:20.382Z</time>
      </trkpt>
      <trkpt lat="28.607690" lon="-13.862901">
        <ele>118.541885</ele>
        <time>2023-01-08T18:58:27.142Z</time>
      </trkpt>
      <trkpt lat="28.607883" lon="-13.862997">
        <ele>118.432837</ele>
        <time>2023-01-08T18:58:31.588Z</time>
      </trkpt>
      <trkpt lat="28.608350" lon="-13.863340">
        <ele>118.145116</ele>
        <time>2023-01-08T18:58:43.149Z</time>
      </trkpt>
      <trkpt lat="28.608689" lon="-13.863297">
        <ele>117.968498</ele>
        <time>2023-01-08T18:58:50.207Z</time>
      </trkpt>
      <trkpt lat="28.609560" lon="-13.863281">
        <ele>117.765763</ele>
        <time>2023-01-08T18:59:08.611Z</time>
      </trkpt>
      <trkpt lat="28.609814" lon="-13.863372">
        <ele>117.708949</ele>
        <time>2023-01-08T18:59:14.441Z</time>
      </trkpt>
      <trkpt lat="28.610102" lon="-13.863597">
        <ele>117.634433</ele>
        <time>2023-01-08T18:59:22.137Z</time>
      </trkpt>
      <trkpt lat="28.610248" lon="-13.863570">
        <ele>117.602872</ele>
        <time>2023-01-08T18:59:25.422Z</time>
      </trkpt>
      <trkpt lat="28.610385" lon="-13.863431">
        <ele>117.563725</ele>
        <time>2023-01-08T18:59:29.590Z</time>
      </trkpt>
      <trkpt lat="28.610385" lon="-13.863431">
        <ele>117.563725</ele>
        <time>2023-01-08T18:59:29.619Z</time>
      </trkpt>
      <trkpt lat="28.610385" lon="-13.863431">
        <ele>117.563725</ele>
        <time>2023-01-08T18:59:29.619Z</time>
      </trkpt>
      <trkpt lat="28.610879" lon="-13.863843">
        <ele>118.377865</ele>
        <time>2023-01-08T18:59:45.452Z</time>
      </trkpt>
      <trkpt lat="28.611373" lon="-13.864255">
        <ele>119.251106</ele>
        <time>2023-01-08T19:00:01.282Z</time>
      </trkpt>
      <trkpt lat="28.611314" lon="-13.864861">
        <ele>120.014533</ele>
        <time>2023-01-08T19:00:16.232Z</time>
      </trkpt>
      <trkpt lat="28.611404" lon="-13.865315">
        <ele>120.631670</ele>
        <time>2023-01-08T19:00:27.579Z</time>
      </trkpt>
      <trkpt lat="28.611396" lon="-13.865432">
        <ele>120.789221</ele>
        <time>2023-01-08T19:00:30.337Z</time>
      </trkpt>
      <trkpt lat="28.611237" lon="-13.866004">
        <ele>121.594722</ele>
        <time>2023-01-08T19:00:44.837Z</time>
      </trkpt>
      <trkpt lat="28.611105" lon="-13.866227">
        <ele>121.955803</ele>
        <time>2023-01-08T19:00:51.028Z</time>
      </trkpt>
      <trkpt lat="28.611053" lon="-13.866377">
        <ele>122.172315</ele>
        <time>2023-01-08T19:00:54.857Z</time>
      </trkpt>
      <trkpt lat="28.611018" lon="-13.866519">
        <ele>122.370325</ele>
        <time>2023-01-08T19:00:58.103Z</time>
      </trkpt>
      <trkpt lat="28.611030" lon="-13.866687">
        <ele>122.596615</ele>
        <time>2023-01-08T19:01:02.185Z</time>
      </trkpt>
      <trkpt lat="28.611034" lon="-13.867007">
        <ele>122.971009</ele>
        <time>2023-01-08T19:01:09.252Z</time>
      </trkpt>
      <trkpt lat="28.610978" lon="-13.867632">
        <ele>123.512349</ele>
        <time>2023-01-08T19:01:23.218Z</time>
      </trkpt>
      <trkpt lat="28.611046" lon="-13.868080">
        <ele>123.904103</ele>
        <time>2023-01-08T19:01:33.074Z</time>
      </trkpt>
      <trkpt lat="28.611091" lon="-13.869719">
        <ele>125.862250</ele>
        <time>2023-01-08T19:02:09.143Z</time>
      </trkpt>
      <trkpt lat="28.611067" lon="-13.869912">
        <ele>126.164939</ele>
        <time>2023-01-08T19:02:13.992Z</time>
      </trkpt>
      <trkpt lat="28.610982" lon="-13.870223">
        <ele>126.670734</ele>
        <time>2023-01-08T19:02:22.007Z</time>
      </trkpt>
      <trkpt lat="28.611004" lon="-13.870465">
        <ele>127.048530</ele>
        <time>2023-01-08T19:02:27.983Z</time>
      </trkpt>
      <trkpt lat="28.610980" lon="-13.870840">
        <ele>127.632389</ele>
        <time>2023-01-08T19:02:37.638Z</time>
      </trkpt>
      <trkpt lat="28.611088" lon="-13.871551">
        <ele>129.475436</ele>
        <time>2023-01-08T19:02:52.022Z</time>
      </trkpt>
      <trkpt lat="28.611119" lon="-13.872278">
        <ele>131.480090</ele>
        <time>2023-01-08T19:03:07.136Z</time>
      </trkpt>
      <trkpt lat="28.611103" lon="-13.872841">
        <ele>133.031508</ele>
        <time>2023-01-08T19:03:19.359Z</time>
      </trkpt>
      <trkpt lat="28.611008" lon="-13.873678">
        <ele>135.214006</ele>
        <time>2023-01-08T19:03:36.734Z</time>
      </trkpt>
      <trkpt lat="28.611008" lon="-13.873812">
        <ele>135.555411</ele>
        <time>2023-01-08T19:03:39.599Z</time>
      </trkpt>
      <trkpt lat="28.611077" lon="-13.874204">
        <ele>136.574027</ele>
        <time>2023-01-08T19:03:47.632Z</time>
      </trkpt>
      <trkpt lat="28.611069" lon="-13.874330">
        <ele>136.895889</ele>
        <time>2023-01-08T19:03:50.000Z</time>
      </trkpt>
      <trkpt lat="28.610961" lon="-13.874853">
        <ele>138.264757</ele>
        <time>2023-01-08T19:03:59.931Z</time>
      </trkpt>
      <trkpt lat="28.611041" lon="-13.876071">
        <ele>141.095907</ele>
        <time>2023-01-08T19:04:22.927Z</time>
      </trkpt>
      <trkpt lat="28.611037" lon="-13.876328">
        <ele>141.682572</ele>
        <time>2023-01-08T19:04:27.967Z</time>
      </trkpt>
      <trkpt lat="28.610964" lon="-13.877127">
        <ele>143.533344</ele>
        <time>2023-01-08T19:04:43.605Z</time>
      </trkpt>
      <trkpt lat="28.610985" lon="-13.877873">
        <ele>145.423239</ele>
        <time>2023-01-08T19:04:57.551Z</time>
      </trkpt>
      <trkpt lat="28.610839" lon="-13.878683">
        <ele>147.517000</ele>
        <time>2023-01-08T19:05:14.000Z</time>
      </trkpt>
      <trkpt lat="28.610771" lon="-13.879300">
        <ele>149.239421</ele>
        <time>2023-01-08T19:05:26.809Z</time>
      </trkpt>
      <trkpt lat="28.610504" lon="-13.881164">
        <ele>155.381721</ele>
        <time>2023-01-08T19:06:07.815Z</time>
      </trkpt>
      <trkpt lat="28.610517" lon="-13.881902">
        <ele>158.618520</ele>
        <time>2023-01-08T19:06:26.560Z</time>
      </trkpt>
      <trkpt lat="28.610592" lon="-13.882317">
        <ele>160.476464</ele>
        <time>2023-01-08T19:06:37.784Z</time>
      </trkpt>
      <trkpt lat="28.610615" lon="-13.882594">
        <ele>161.696535</ele>
        <time>2023-01-08T19:06:44.971Z</time>
      </trkpt>
      <trkpt lat="28.610787" lon="-13.883355">
        <ele>165.082578</ele>
        <time>2023-01-08T19:07:05.167Z</time>
      </trkpt>
      <trkpt lat="28.610799" lon="-13.883538">
        <ele>165.840093</ele>
        <time>2023-01-08T19:07:10.093Z</time>
      </trkpt>
      <trkpt lat="28.610862" lon="-13.883843">
        <ele>167.133490</ele>
        <time>2023-01-08T19:07:18.699Z</time>
      </trkpt>
      <trkpt lat="28.610876" lon="-13.884096">
        <ele>168.179928</ele>
        <time>2023-01-08T19:07:25.016Z</time>
      </trkpt>
      <trkpt lat="28.610808" lon="-13.885048">
        <ele>172.122698</ele>
        <time>2023-01-08T19:07:47.766Z</time>
      </trkpt>
      <trkpt lat="28.610851" lon="-13.885654">
        <ele>174.090595</ele>
        <time>2023-01-08T19:08:01.321Z</time>
      </trkpt>
      <trkpt lat="28.610839" lon="-13.885898">
        <ele>174.833065</ele>
        <time>2023-01-08T19:08:06.554Z</time>
      </trkpt>
      <trkpt lat="28.610888" lon="-13.886164">
        <ele>175.658810</ele>
        <time>2023-01-08T19:08:12.271Z</time>
      </trkpt>
      <trkpt lat="28.610902" lon="-13.886397">
        <ele>176.368353</ele>
        <time>2023-01-08T19:08:17.244Z</time>
      </trkpt>
      <trkpt lat="28.610869" lon="-13.886762">
        <ele>177.483140</ele>
        <time>2023-01-08T19:08:24.954Z</time>
      </trkpt>
      <trkpt lat="28.610865" lon="-13.887298">
        <ele>179.014766</ele>
        <time>2023-01-08T19:08:35.907Z</time>
      </trkpt>
      <trkpt lat="28.610966" lon="-13.887840">
        <ele>180.166666</ele>
        <time>2023-01-08T19:08:46.701Z</time>
      </trkpt>
      <trkpt lat="28.610971" lon="-13.888055">
        <ele>180.613798</ele>
        <time>2023-01-08T19:08:50.723Z</time>
      </trkpt>
      <trkpt lat="28.611023" lon="-13.888277">
        <ele>181.091472</ele>
        <time>2023-01-08T19:08:54.988Z</time>
      </trkpt>
      <trkpt lat="28.611133" lon="-13.888634">
        <ele>181.878045</ele>
        <time>2023-01-08T19:09:01.612Z</time>
      </trkpt>
      <trkpt lat="28.611194" lon="-13.888677">
        <ele>182.047924</ele>
        <time>2023-01-08T19:09:02.980Z</time>
      </trkpt>
      <trkpt lat="28.611178" lon="-13.889098">
        <ele>182.923982</ele>
        <time>2023-01-08T19:09:10.031Z</time>
      </trkpt>
      <trkpt lat="28.611211" lon="-13.889313">
        <ele>183.418443</ele>
        <time>2023-01-08T19:09:13.726Z</time>
      </trkpt>
      <trkpt lat="28.611267" lon="-13.889479">
        <ele>183.836151</ele>
        <time>2023-01-08T19:09:16.712Z</time>
      </trkpt>
      <trkpt lat="28.611460" lon="-13.889763">
        <ele>184.679742</ele>
        <time>2023-01-08T19:09:23.101Z</time>
      </trkpt>
      <trkpt lat="28.611493" lon="-13.889873">
        <ele>184.952787</ele>
        <time>2023-01-08T19:09:25.173Z</time>
      </trkpt>
      <trkpt lat="28.611416" lon="-13.890367">
        <ele>186.131270</ele>
        <time>2023-01-08T19:09:34.776Z</time>
      </trkpt>
      <trkpt lat="28.611430" lon="-13.890632">
        <ele>186.754843</ele>
        <time>2023-01-08T19:09:40.218Z</time>
      </trkpt>
      <trkpt lat="28.611282" lon="-13.891179">
        <ele>188.273588</ele>
        <time>2023-01-08T19:09:52.033Z</time>
      </trkpt>
      <trkpt lat="28.611216" lon="-13.891547">
        <ele>189.846272</ele>
        <time>2023-01-08T19:10:00.729Z</time>
      </trkpt>
      <trkpt lat="28.611157" lon="-13.892298">
        <ele>193.003363</ele>
        <time>2023-01-08T19:10:19.291Z</time>
      </trkpt>
      <trkpt lat="28.611166" lon="-13.892762">
        <ele>194.946660</ele>
        <time>2023-01-08T19:10:31.541Z</time>
      </trkpt>
      <trkpt lat="28.611286" lon="-13.893266">
        <ele>197.196511</ele>
        <time>2023-01-08T19:10:46.127Z</time>
      </trkpt>
      <trkpt lat="28.611479" lon="-13.893754">
        <ele>199.646887</ele>
        <time>2023-01-08T19:11:00.321Z</time>
      </trkpt>
      <trkpt lat="28.611635" lon="-13.894229">
        <ele>201.968688</ele>
        <time>2023-01-08T19:11:13.667Z</time>
      </trkpt>
      <trkpt lat="28.611729" lon="-13.894428">
        <ele>203.003244</ele>
        <time>2023-01-08T19:11:19.896Z</time>
      </trkpt>
      <trkpt lat="28.612061" lon="-13.894926">
        <ele>205.858058</ele>
        <time>2023-01-08T19:11:35.399Z</time>
      </trkpt>
      <trkpt lat="28.612294" lon="-13.895632">
        <ele>208.420519</ele>
        <time>2023-01-08T19:11:52.931Z</time>
      </trkpt>
      <trkpt lat="28.612376" lon="-13.895779">
        <ele>209.012231</ele>
        <time>2023-01-08T19:11:57.026Z</time>
      </trkpt>
      <trkpt lat="28.612685" lon="-13.896080">
        <ele>210.585684</ele>
        <time>2023-01-08T19:12:06.927Z</time>
      </trkpt>
      <trkpt lat="28.612920" lon="-13.896356">
        <ele>211.891954</ele>
        <time>2023-01-08T19:12:15.285Z</time>
      </trkpt>
      <trkpt lat="28.613293" lon="-13.896663">
        <ele>213.512890</ele>
        <time>2023-01-08T19:12:26.197Z</time>
      </trkpt>
      <trkpt lat="28.613552" lon="-13.897280">
        <ele>215.412597</ele>
        <time>2023-01-08T19:12:40.005Z</time>
      </trkpt>
      <trkpt lat="28.613683" lon="-13.897587">
        <ele>216.360757</ele>
        <time>2023-01-08T19:12:47.015Z</time>
      </trkpt>
      <trkpt lat="28.613787" lon="-13.898054">
        <ele>217.699034</ele>
        <time>2023-01-08T19:12:56.734Z</time>
      </trkpt>
      <trkpt lat="28.614121" lon="-13.898754">
        <ele>219.705664</ele>
        <time>2023-01-08T19:13:13.183Z</time>
      </trkpt>
      <trkpt lat="28.614262" lon="-13.899199">
        <ele>220.829445</ele>
        <time>2023-01-08T19:13:22.941Z</time>
      </trkpt>
      <trkpt lat="28.614444" lon="-13.899607">
        <ele>221.916534</ele>
        <time>2023-01-08T19:13:31.778Z</time>
      </trkpt>
      <trkpt lat="28.614451" lon="-13.900189">
        <ele>223.299120</ele>
        <time>2023-01-08T19:13:42.360Z</time>
      </trkpt>
      <trkpt lat="28.614500" lon="-13.900497">
        <ele>223.731766</ele>
        <time>2023-01-08T19:13:47.576Z</time>
      </trkpt>
      <trkpt lat="28.614625" lon="-13.900982">
        <ele>224.390498</ele>
        <time>2023-01-08T19:13:55.955Z</time>
      </trkpt>
      <trkpt lat="28.614709" lon="-13.901080">
        <ele>224.568995</ele>
        <time>2023-01-08T19:13:58.054Z</time>
      </trkpt>
      <trkpt lat="28.614819" lon="-13.901113">
        <ele>224.737861</ele>
        <time>2023-01-08T19:14:00.082Z</time>
      </trkpt>
      <trkpt lat="28.614970" lon="-13.901119">
        <ele>224.962160</ele>
        <time>2023-01-08T19:14:02.867Z</time>
      </trkpt>
      <trkpt lat="28.615207" lon="-13.901082">
        <ele>225.317282</ele>
        <time>2023-01-08T19:14:06.969Z</time>
      </trkpt>
      <trkpt lat="28.615342" lon="-13.901141">
        <ele>225.531936</ele>
        <time>2023-01-08T19:14:09.603Z</time>
      </trkpt>
      <trkpt lat="28.617073" lon="-13.903450">
        <ele>228.503834</ele>
        <time>2023-01-08T19:14:55.117Z</time>
      </trkpt>
      <trkpt lat="28.617332" lon="-13.903887">
        <ele>228.992420</ele>
        <time>2023-01-08T19:15:03.128Z</time>
      </trkpt>
      <trkpt lat="28.617644" lon="-13.904152">
        <ele>229.403226</ele>
        <time>2023-01-08T19:15:09.696Z</time>
      </trkpt>
      <trkpt lat="28.618173" lon="-13.904493">
        <ele>230.076009</ele>
        <time>2023-01-08T19:15:19.889Z</time>
      </trkpt>
      <trkpt lat="28.618913" lon="-13.905344">
        <ele>231.352728</ele>
        <time>2023-01-08T19:15:38.604Z</time>
      </trkpt>
      <trkpt lat="28.618967" lon="-13.905445">
        <ele>231.478773</ele>
        <time>2023-01-08T19:15:40.222Z</time>
      </trkpt>
      <trkpt lat="28.618558" lon="-13.905619">
        <ele>232.008875</ele>
        <time>2023-01-08T19:15:47.498Z</time>
      </trkpt>
      <trkpt lat="28.618679" lon="-13.905743">
        <ele>232.352951</ele>
        <time>2023-01-08T19:15:50.695Z</time>
      </trkpt>
      <trkpt lat="28.619045" lon="-13.906011">
        <ele>233.298769</ele>
        <time>2023-01-08T19:15:58.987Z</time>
      </trkpt>
      <trkpt lat="28.619445" lon="-13.906409">
        <ele>234.453290</ele>
        <time>2023-01-08T19:16:10.055Z</time>
      </trkpt>
      <trkpt lat="28.619776" lon="-13.906543">
        <ele>235.216920</ele>
        <time>2023-01-08T19:16:17.877Z</time>
      </trkpt>
      <trkpt lat="28.619875" lon="-13.906554">
        <ele>235.433152</ele>
        <time>2023-01-08T19:16:20.161Z</time>
      </trkpt>
      <trkpt lat="28.619983" lon="-13.907065">
        <ele>236.553287</ele>
        <time>2023-01-08T19:16:30.084Z</time>
      </trkpt>
      <trkpt lat="28.620045" lon="-13.907210">
        <ele>236.932471</ele>
        <time>2023-01-08T19:16:33.317Z</time>
      </trkpt>
      <trkpt lat="28.620362" lon="-13.907647">
        <ele>238.265248</ele>
        <time>2023-01-08T19:16:43.633Z</time>
      </trkpt>
      <trkpt lat="28.620494" lon="-13.907913">
        <ele>238.983616</ele>
        <time>2023-01-08T19:16:49.638Z</time>
      </trkpt>
      <trkpt lat="28.620554" lon="-13.908178">
        <ele>239.627013</ele>
        <time>2023-01-08T19:16:55.087Z</time>
      </trkpt>
      <trkpt lat="28.620428" lon="-13.908430">
        <ele>240.308824</ele>
        <time>2023-01-08T19:17:00.755Z</time>
      </trkpt>
      <trkpt lat="28.620334" lon="-13.908618">
        <ele>240.793435</ele>
        <time>2023-01-08T19:17:05.462Z</time>
      </trkpt>
      <trkpt lat="28.620321" lon="-13.908708">
        <ele>240.933313</ele>
        <time>2023-01-08T19:17:07.014Z</time>
      </trkpt>
      <trkpt lat="28.620495" lon="-13.909091">
        <ele>241.594674</ele>
        <time>2023-01-08T19:17:15.199Z</time>
      </trkpt>
      <trkpt lat="28.620779" lon="-13.909443">
        <ele>242.327872</ele>
        <time>2023-01-08T19:17:24.133Z</time>
      </trkpt>
      <trkpt lat="28.621072" lon="-13.909883">
        <ele>243.174831</ele>
        <time>2023-01-08T19:17:32.947Z</time>
      </trkpt>
      <trkpt lat="28.621519" lon="-13.909338">
        <ele>243.726372</ele>
        <time>2023-01-08T19:17:42.745Z</time>
      </trkpt>
      <trkpt lat="28.621806" lon="-13.909050">
        <ele>243.469957</ele>
        <time>2023-01-08T19:17:47.830Z</time>
      </trkpt>
      <trkpt lat="28.622100" lon="-13.908814">
        <ele>243.228835</ele>
        <time>2023-01-08T19:17:52.363Z</time>
      </trkpt>
      <trkpt lat="28.622532" lon="-13.908554">
        <ele>242.901277</ele>
        <time>2023-01-08T19:17:58.006Z</time>
      </trkpt>
      <trkpt lat="28.622898" lon="-13.908332">
        <ele>242.548984</ele>
        <time>2023-01-08T19:18:02.619Z</time>
      </trkpt>
      <trkpt lat="28.622979" lon="-13.908282">
        <ele>242.412584</ele>
        <time>2023-01-08T19:18:03.636Z</time>
      </trkpt>
      <trkpt lat="28.623390" lon="-13.908021">
        <ele>241.715913</ele>
        <time>2023-01-08T19:18:08.869Z</time>
      </trkpt>
      <trkpt lat="28.623442" lon="-13.907981">
        <ele>241.623016</ele>
        <time>2023-01-08T19:18:09.591Z</time>
      </trkpt>
      <trkpt lat="28.623871" lon="-13.907575">
        <ele>240.797274</ele>
        <time>2023-01-08T19:18:16.012Z</time>
      </trkpt>
      <trkpt lat="28.624057" lon="-13.907369">
        <ele>240.413200</ele>
        <time>2023-01-08T19:18:19.050Z</time>
      </trkpt>
      <trkpt lat="28.624112" lon="-13.907307">
        <ele>240.298641</ele>
        <time>2023-01-08T19:18:19.951Z</time>
      </trkpt>
      <trkpt lat="28.624689" lon="-13.906652">
        <ele>239.503554</ele>
        <time>2023-01-08T19:18:29.603Z</time>
      </trkpt>
      <trkpt lat="28.624975" lon="-13.906375">
        <ele>239.193573</ele>
        <time>2023-01-08T19:18:34.105Z</time>
      </trkpt>
      <trkpt lat="28.625070" lon="-13.906307">
        <ele>239.100926</ele>
        <time>2023-01-08T19:18:35.455Z</time>
      </trkpt>
      <trkpt lat="28.625317" lon="-13.906139">
        <ele>238.863375</ele>
        <time>2023-01-08T19:18:38.936Z</time>
      </trkpt>
      <trkpt lat="28.625466" lon="-13.906027">
        <ele>238.715967</ele>
        <time>2023-01-08T19:18:41.120Z</time>
      </trkpt>
      <trkpt lat="28.626579" lon="-13.905286">
        <ele>238.751925</ele>
        <time>2023-01-08T19:18:57.862Z</time>
      </trkpt>
      <trkpt lat="28.627319" lon="-13.904762">
        <ele>238.988635</ele>
        <time>2023-01-08T19:19:11.819Z</time>
      </trkpt>
      <trkpt lat="28.627721" lon="-13.904478">
        <ele>239.285387</ele>
        <time>2023-01-08T19:19:19.478Z</time>
      </trkpt>
      <trkpt lat="28.627798" lon="-13.904431">
        <ele>239.340190</ele>
        <time>2023-01-08T19:19:20.915Z</time>
      </trkpt>
      <trkpt lat="28.628019" lon="-13.904367">
        <ele>239.483246</ele>
        <time>2023-01-08T19:19:24.608Z</time>
      </trkpt>
      <trkpt lat="28.628227" lon="-13.904320">
        <ele>239.616278</ele>
        <time>2023-01-08T19:19:28.008Z</time>
      </trkpt>
      <trkpt lat="28.629674" lon="-13.904029">
        <ele>238.997365</ele>
        <time>2023-01-08T19:19:48.073Z</time>
      </trkpt>
      <trkpt lat="28.629902" lon="-13.903954">
        <ele>238.697940</ele>
        <time>2023-01-08T19:19:50.740Z</time>
      </trkpt>
      <trkpt lat="28.630057" lon="-13.903861">
        <ele>238.476910</ele>
        <time>2023-01-08T19:19:52.728Z</time>
      </trkpt>
      <trkpt lat="28.630746" lon="-13.903441">
        <ele>237.075723</ele>
        <time>2023-01-08T19:20:00.917Z</time>
      </trkpt>
      <trkpt lat="28.630906" lon="-13.903368">
        <ele>236.518868</ele>
        <time>2023-01-08T19:20:02.683Z</time>
      </trkpt>
      <trkpt lat="28.631024" lon="-13.903352">
        <ele>236.134931</ele>
        <time>2023-01-08T19:20:03.923Z</time>
      </trkpt>
      <trkpt lat="28.631305" lon="-13.903369">
        <ele>235.225768</ele>
        <time>2023-01-08T19:20:06.749Z</time>
      </trkpt>
      <trkpt lat="28.631587" lon="-13.903362">
        <ele>234.314438</ele>
        <time>2023-01-08T19:20:09.575Z</time>
      </trkpt>
      <trkpt lat="28.631766" lon="-13.903300">
        <ele>233.709970</ele>
        <time>2023-01-08T19:20:11.455Z</time>
      </trkpt>
      <trkpt lat="28.632908" lon="-13.902771">
        <ele>229.744921</ele>
        <time>2023-01-08T19:20:24.138Z</time>
      </trkpt>
      <trkpt lat="28.633316" lon="-13.902569">
        <ele>228.319253</ele>
        <time>2023-01-08T19:20:28.855Z</time>
      </trkpt>
      <trkpt lat="28.633551" lon="-13.902485">
        <ele>227.529937</ele>
        <time>2023-01-08T19:20:31.425Z</time>
      </trkpt>
      <trkpt lat="28.634082" lon="-13.902342">
        <ele>225.581708</ele>
        <time>2023-01-08T19:20:36.860Z</time>
      </trkpt>
      <trkpt lat="28.634299" lon="-13.902300">
        <ele>224.524519</ele>
        <time>2023-01-08T19:20:39.070Z</time>
      </trkpt>
      <trkpt lat="28.634470" lon="-13.902238">
        <ele>223.662617</ele>
        <time>2023-01-08T19:20:40.814Z</time>
      </trkpt>
      <trkpt lat="28.634901" lon="-13.901904">
        <ele>221.159057</ele>
        <time>2023-01-08T19:20:45.868Z</time>
      </trkpt>
      <trkpt lat="28.635009" lon="-13.901743">
        <ele>220.304820</ele>
        <time>2023-01-08T19:20:47.520Z</time>
      </trkpt>
      <trkpt lat="28.635319" lon="-13.901159">
        <ele>217.420434</ele>
        <time>2023-01-08T19:20:53.108Z</time>
      </trkpt>
      <trkpt lat="28.635557" lon="-13.900882">
        <ele>215.683059</ele>
        <time>2023-01-08T19:20:56.262Z</time>
      </trkpt>
      <trkpt lat="28.635691" lon="-13.900729">
        <ele>214.714304</ele>
        <time>2023-01-08T19:20:58.012Z</time>
      </trkpt>
      <trkpt lat="28.636058" lon="-13.900319">
        <ele>212.089590</ele>
        <time>2023-01-08T19:21:02.893Z</time>
      </trkpt>
      <trkpt lat="28.636311" lon="-13.900169">
        <ele>210.633170</ele>
        <time>2023-01-08T19:21:05.630Z</time>
      </trkpt>
      <trkpt lat="28.636413" lon="-13.900151">
        <ele>210.106087</ele>
        <time>2023-01-08T19:21:06.623Z</time>
      </trkpt>
      <trkpt lat="28.637331" lon="-13.900050">
        <ele>205.825484</ele>
        <time>2023-01-08T19:21:15.560Z</time>
      </trkpt>
      <trkpt lat="28.637853" lon="-13.899864">
        <ele>203.437200</ele>
        <time>2023-01-08T19:21:20.947Z</time>
      </trkpt>
      <trkpt lat="28.639089" lon="-13.899247">
        <ele>197.508313</ele>
        <time>2023-01-08T19:21:34.065Z</time>
      </trkpt>
      <trkpt lat="28.639339" lon="-13.899182">
        <ele>196.374813</ele>
        <time>2023-01-08T19:21:36.529Z</time>
      </trkpt>
      <trkpt lat="28.639602" lon="-13.899149">
        <ele>195.205226</ele>
        <time>2023-01-08T19:21:39.045Z</time>
      </trkpt>
      <trkpt lat="28.640073" lon="-13.899090">
        <ele>193.110685</ele>
        <time>2023-01-08T19:21:43.641Z</time>
      </trkpt>
      <trkpt lat="28.640884" lon="-13.898996">
        <ele>190.493999</ele>
        <time>2023-01-08T19:21:51.873Z</time>
      </trkpt>
      <trkpt lat="28.641171" lon="-13.899012">
        <ele>189.635352</ele>
        <time>2023-01-08T19:21:54.832Z</time>
      </trkpt>
      <trkpt lat="28.641602" lon="-13.899144">
        <ele>188.301713</ele>
        <time>2023-01-08T19:21:59.545Z</time>
      </trkpt>
      <trkpt lat="28.642147" lon="-13.899309">
        <ele>186.856312</ele>
        <time>2023-01-08T19:22:05.677Z</time>
      </trkpt>
      <trkpt lat="28.642714" lon="-13.899482">
        <ele>185.851054</ele>
        <time>2023-01-08T19:22:12.411Z</time>
      </trkpt>
      <trkpt lat="28.644060" lon="-13.899959">
        <ele>183.697605</ele>
        <time>2023-01-08T19:22:28.309Z</time>
      </trkpt>
      <trkpt lat="28.644316" lon="-13.900012">
        <ele>183.427761</ele>
        <time>2023-01-08T19:22:31.327Z</time>
      </trkpt>
      <trkpt lat="28.644491" lon="-13.900021">
        <ele>183.246084</ele>
        <time>2023-01-08T19:22:33.390Z</time>
      </trkpt>
      <trkpt lat="28.644558" lon="-13.900251">
        <ele>183.025515</ele>
        <time>2023-01-08T19:22:36.047Z</time>
      </trkpt>
      <trkpt lat="28.644624" lon="-13.900358">
        <ele>182.906479</ele>
        <time>2023-01-08T19:22:37.489Z</time>
      </trkpt>
      <trkpt lat="28.644674" lon="-13.900399">
        <ele>182.842592</ele>
        <time>2023-01-08T19:22:38.255Z</time>
      </trkpt>
      <trkpt lat="28.646351" lon="-13.901301">
        <ele>181.529000</ele>
        <time>2023-01-08T19:23:02.518Z</time>
      </trkpt>
      <trkpt lat="28.646637" lon="-13.901512">
        <ele>181.339711</ele>
        <time>2023-01-08T19:23:07.021Z</time>
      </trkpt>
      <trkpt lat="28.647148" lon="-13.901889">
        <ele>180.670113</ele>
        <time>2023-01-08T19:23:14.829Z</time>
      </trkpt>
      <trkpt lat="28.647238" lon="-13.902015">
        <ele>180.477568</ele>
        <time>2023-01-08T19:23:16.635Z</time>
      </trkpt>
      <trkpt lat="28.647323" lon="-13.902310">
        <ele>180.109576</ele>
        <time>2023-01-08T19:23:19.959Z</time>
      </trkpt>
      <trkpt lat="28.647454" lon="-13.902404">
        <ele>179.900505</ele>
        <time>2023-01-08T19:23:21.839Z</time>
      </trkpt>
      <trkpt lat="28.648193" lon="-13.903130">
        <ele>178.375527</ele>
        <time>2023-01-08T19:23:33.323Z</time>
      </trkpt>
      <trkpt lat="28.648703" lon="-13.903670">
        <ele>176.554662</ele>
        <time>2023-01-08T19:23:41.050Z</time>
      </trkpt>
      <trkpt lat="28.649218" lon="-13.904364">
        <ele>174.468574</ele>
        <time>2023-01-08T19:23:49.762Z</time>
      </trkpt>
      <trkpt lat="28.649619" lon="-13.904696">
        <ele>173.191630</ele>
        <time>2023-01-08T19:23:55.145Z</time>
      </trkpt>
      <trkpt lat="28.651383" lon="-13.906160">
        <ele>167.582735</ele>
        <time>2023-01-08T19:24:19.602Z</time>
      </trkpt>
      <trkpt lat="28.651619" lon="-13.906296">
        <ele>166.898027</ele>
        <time>2023-01-08T19:24:22.611Z</time>
      </trkpt>
      <trkpt lat="28.654182" lon="-13.907526">
        <ele>159.207742</ele>
        <time>2023-01-08T19:25:14.738Z</time>
      </trkpt>
      <trkpt lat="28.654479" lon="-13.907580">
        <ele>158.350674</ele>
        <time>2023-01-08T19:25:20.392Z</time>
      </trkpt>
      <trkpt lat="28.654597" lon="-13.907634">
        <ele>157.988308</ele>
        <time>2023-01-08T19:25:21.683Z</time>
      </trkpt>
      <trkpt lat="28.654809" lon="-13.907667">
        <ele>157.378560</ele>
        <time>2023-01-08T19:25:23.959Z</time>
      </trkpt>
      <trkpt lat="28.654852" lon="-13.907711">
        <ele>157.213872</ele>
        <time>2023-01-08T19:25:24.549Z</time>
      </trkpt>
      <trkpt lat="28.654976" lon="-13.907626">
        <ele>156.801504</ele>
        <time>2023-01-08T19:25:27.223Z</time>
      </trkpt>
      <trkpt lat="28.655541" lon="-13.907582">
        <ele>155.187665</ele>
        <time>2023-01-08T19:25:37.859Z</time>
      </trkpt>
      <trkpt lat="28.655644" lon="-13.907641">
        <ele>154.859150</ele>
        <time>2023-01-08T19:25:39.974Z</time>
      </trkpt>
      <trkpt lat="28.656387" lon="-13.908781">
        <ele>150.990900</ele>
        <time>2023-01-08T19:26:03.449Z</time>
      </trkpt>
      <trkpt lat="28.656424" lon="-13.908910">
        <ele>150.618952</ele>
        <time>2023-01-08T19:26:05.624Z</time>
      </trkpt>
      <trkpt lat="28.656384" lon="-13.909311">
        <ele>149.512879</ele>
        <time>2023-01-08T19:26:12.068Z</time>
      </trkpt>
      <trkpt lat="28.656392" lon="-13.909516">
        <ele>148.934920</ele>
        <time>2023-01-08T19:26:15.288Z</time>
      </trkpt>
      <trkpt lat="28.656462" lon="-13.909687">
        <ele>148.240576</ele>
        <time>2023-01-08T19:26:18.282Z</time>
      </trkpt>
      <trkpt lat="28.657165" lon="-13.910594">
        <ele>143.787501</ele>
        <time>2023-01-08T19:26:37.202Z</time>
      </trkpt>
      <trkpt lat="28.657627" lon="-13.911107">
        <ele>141.079406</ele>
        <time>2023-01-08T19:26:48.466Z</time>
      </trkpt>
      <trkpt lat="28.658082" lon="-13.911467">
        <ele>138.737032</ele>
        <time>2023-01-08T19:26:58.155Z</time>
      </trkpt>
      <trkpt lat="28.658469" lon="-13.911650">
        <ele>136.965197</ele>
        <time>2023-01-08T19:27:05.543Z</time>
      </trkpt>
      <trkpt lat="28.658879" lon="-13.911950">
        <ele>134.904776</ele>
        <time>2023-01-08T19:27:14.211Z</time>
      </trkpt>
      <trkpt lat="28.659037" lon="-13.912029">
        <ele>134.175148</ele>
        <time>2023-01-08T19:27:17.362Z</time>
      </trkpt>
      <trkpt lat="28.659890" lon="-13.912228">
        <ele>131.444006</ele>
        <time>2023-01-08T19:27:33.322Z</time>
      </trkpt>
      <trkpt lat="28.660394" lon="-13.912566">
        <ele>129.672066</ele>
        <time>2023-01-08T19:27:44.253Z</time>
      </trkpt>
      <trkpt lat="28.661115" lon="-13.913005">
        <ele>127.305499</ele>
        <time>2023-01-08T19:27:59.895Z</time>
      </trkpt>
      <trkpt lat="28.661219" lon="-13.913108">
        <ele>126.926326</ele>
        <time>2023-01-08T19:28:02.524Z</time>
      </trkpt>
      <trkpt lat="28.661514" lon="-13.913578">
        <ele>125.530937</ele>
        <time>2023-01-08T19:28:12.100Z</time>
      </trkpt>
      <trkpt lat="28.661869" lon="-13.913924">
        <ele>124.245456</ele>
        <time>2023-01-08T19:28:20.858Z</time>
      </trkpt>
      <trkpt lat="28.662131" lon="-13.914240">
        <ele>123.149956</ele>
        <time>2023-01-08T19:28:27.868Z</time>
      </trkpt>
      <trkpt lat="28.662486" lon="-13.914601">
        <ele>121.603268</ele>
        <time>2023-01-08T19:28:36.662Z</time>
      </trkpt>
      <trkpt lat="28.662652" lon="-13.915023">
        <ele>120.284085</ele>
        <time>2023-01-08T19:28:44.201Z</time>
      </trkpt>
      <trkpt lat="28.662808" lon="-13.915269">
        <ele>119.418296</ele>
        <time>2023-01-08T19:28:49.058Z</time>
      </trkpt>
      <trkpt lat="28.663024" lon="-13.915511">
        <ele>118.433621</ele>
        <time>2023-01-08T19:28:54.591Z</time>
      </trkpt>
      <trkpt lat="28.663228" lon="-13.915682">
        <ele>117.610379</ele>
        <time>2023-01-08T19:28:59.218Z</time>
      </trkpt>
      <trkpt lat="28.663776" lon="-13.916020">
        <ele>115.739810</ele>
        <time>2023-01-08T19:29:10.614Z</time>
      </trkpt>
      <trkpt lat="28.665220" lon="-13.917194">
        <ele>110.925455</ele>
        <time>2023-01-08T19:29:43.973Z</time>
      </trkpt>
      <trkpt lat="28.665978" lon="-13.917689">
        <ele>109.050070</ele>
        <time>2023-01-08T19:30:01.122Z</time>
      </trkpt>
      <trkpt lat="28.666464" lon="-13.917953">
        <ele>107.891602</ele>
        <time>2023-01-08T19:30:11.729Z</time>
      </trkpt>
      <trkpt lat="28.666825" lon="-13.918350">
        <ele>106.808129</ele>
        <time>2023-01-08T19:30:21.842Z</time>
      </trkpt>
      <trkpt lat="28.666970" lon="-13.918686">
        <ele>106.098547</ele>
        <time>2023-01-08T19:30:28.310Z</time>
      </trkpt>
      <trkpt lat="28.667147" lon="-13.918785">
        <ele>105.672710</ele>
        <time>2023-01-08T19:30:32.061Z</time>
      </trkpt>
      <trkpt lat="28.667486" lon="-13.919082">
        <ele>104.749215</ele>
        <time>2023-01-08T19:30:40.280Z</time>
      </trkpt>
      <trkpt lat="28.667963" lon="-13.919625">
        <ele>102.674684</ele>
        <time>2023-01-08T19:30:52.609Z</time>
      </trkpt>
      <trkpt lat="28.668413" lon="-13.919971">
        <ele>100.879513</ele>
        <time>2023-01-08T19:31:02.464Z</time>
      </trkpt>
      <trkpt lat="28.668612" lon="-13.920154">
        <ele>100.033897</ele>
        <time>2023-01-08T19:31:07.184Z</time>
      </trkpt>
      <trkpt lat="28.668957" lon="-13.920557">
        <ele>98.428432</ele>
        <time>2023-01-08T19:31:16.209Z</time>
      </trkpt>
      <trkpt lat="28.669698" lon="-13.921364">
        <ele>95.918673</ele>
        <time>2023-01-08T19:31:27.356Z</time>
      </trkpt>
      <trkpt lat="28.670180" lon="-13.921989">
        <ele>94.130843</ele>
        <time>2023-01-08T19:31:35.835Z</time>
      </trkpt>
      <trkpt lat="28.670789" lon="-13.922408">
        <ele>93.395715</ele>
        <time>2023-01-08T19:31:44.724Z</time>
      </trkpt>
      <trkpt lat="28.671056" lon="-13.922798">
        <ele>92.956556</ele>
        <time>2023-01-08T19:31:50.293Z</time>
      </trkpt>
      <trkpt lat="28.671346" lon="-13.923388">
        <ele>92.356180</ele>
        <time>2023-01-08T19:31:57.690Z</time>
      </trkpt>
      <trkpt lat="28.671661" lon="-13.923962">
        <ele>92.030670</ele>
        <time>2023-01-08T19:32:05.249Z</time>
      </trkpt>
      <trkpt lat="28.671782" lon="-13.924177">
        <ele>91.921881</ele>
        <time>2023-01-08T19:32:08.132Z</time>
      </trkpt>
      <trkpt lat="28.671985" lon="-13.924555">
        <ele>91.733125</ele>
        <time>2023-01-08T19:32:13.349Z</time>
      </trkpt>
      <trkpt lat="28.672231" lon="-13.925238">
        <ele>91.418676</ele>
        <time>2023-01-08T19:32:22.114Z</time>
      </trkpt>
      <trkpt lat="28.672478" lon="-13.926122">
        <ele>91.487523</ele>
        <time>2023-01-08T19:32:33.097Z</time>
      </trkpt>
      <trkpt lat="28.672527" lon="-13.926310">
        <ele>91.503853</ele>
        <time>2023-01-08T19:32:35.717Z</time>
      </trkpt>
      <trkpt lat="28.672570" lon="-13.926474">
        <ele>91.518105</ele>
        <time>2023-01-08T19:32:38.015Z</time>
      </trkpt>
      <trkpt lat="28.672688" lon="-13.926732">
        <ele>91.542332</ele>
        <time>2023-01-08T19:32:42.063Z</time>
      </trkpt>
      <trkpt lat="28.672994" lon="-13.927186">
        <ele>91.477822</ele>
        <time>2023-01-08T19:32:49.959Z</time>
      </trkpt>
      <trkpt lat="28.673131" lon="-13.927433">
        <ele>91.145649</ele>
        <time>2023-01-08T19:32:53.516Z</time>
      </trkpt>
      <trkpt lat="28.673315" lon="-13.927855">
        <ele>90.609978</ele>
        <time>2023-01-08T19:32:58.816Z</time>
      </trkpt>
      <trkpt lat="28.673561" lon="-13.928377">
        <ele>89.936426</ele>
        <time>2023-01-08T19:33:05.049Z</time>
      </trkpt>
      <trkpt lat="28.673816" lon="-13.928764">
        <ele>89.386268</ele>
        <time>2023-01-08T19:33:09.818Z</time>
      </trkpt>
      <trkpt lat="28.674227" lon="-13.929272">
        <ele>87.360315</ele>
        <time>2023-01-08T19:33:16.377Z</time>
      </trkpt>
      <trkpt lat="28.674349" lon="-13.929344">
        <ele>86.843276</ele>
        <time>2023-01-08T19:33:17.800Z</time>
      </trkpt>
      <trkpt lat="28.674791" lon="-13.929266">
        <ele>85.160008</ele>
        <time>2023-01-08T19:33:22.418Z</time>
      </trkpt>
      <trkpt lat="28.674995" lon="-13.929259">
        <ele>84.391916</ele>
        <time>2023-01-08T19:33:24.478Z</time>
      </trkpt>
      <trkpt lat="28.675632" lon="-13.929151">
        <ele>82.123095</ele>
        <time>2023-01-08T19:33:31.086Z</time>
      </trkpt>
      <trkpt lat="28.676364" lon="-13.929028">
        <ele>80.176430</ele>
        <time>2023-01-08T19:33:38.903Z</time>
      </trkpt>
      <trkpt lat="28.676519" lon="-13.928977">
        <ele>79.751982</ele>
        <time>2023-01-08T19:33:40.619Z</time>
      </trkpt>
      <trkpt lat="28.676633" lon="-13.928983">
        <ele>79.451735</ele>
        <time>2023-01-08T19:33:41.930Z</time>
      </trkpt>
      <trkpt lat="28.677202" lon="-13.929269">
        <ele>77.815633</ele>
        <time>2023-01-08T19:33:49.295Z</time>
      </trkpt>
      <trkpt lat="28.677473" lon="-13.929359">
        <ele>77.820018</ele>
        <time>2023-01-08T19:33:53.210Z</time>
      </trkpt>
      <trkpt lat="28.677656" lon="-13.929456">
        <ele>77.874272</ele>
        <time>2023-01-08T19:33:56.280Z</time>
      </trkpt>
      <trkpt lat="28.677799" lon="-13.929595">
        <ele>77.924794</ele>
        <time>2023-01-08T19:33:59.115Z</time>
      </trkpt>
      <trkpt lat="28.678264" lon="-13.929458">
        <ele>78.053905</ele>
        <time>2023-01-08T19:34:11.241Z</time>
      </trkpt>
      <trkpt lat="28.678469" lon="-13.929371">
        <ele>78.112710</ele>
        <time>2023-01-08T19:34:16.225Z</time>
      </trkpt>
      <trkpt lat="28.678551" lon="-13.929257">
        <ele>78.147478</ele>
        <time>2023-01-08T19:34:19.709Z</time>
      </trkpt>
      <trkpt lat="28.678614" lon="-13.929060">
        <ele>78.196930</ele>
        <time>2023-01-08T19:34:23.843Z</time>
      </trkpt>
      <trkpt lat="28.678761" lon="-13.928942">
        <ele>78.222412</ele>
        <time>2023-01-08T19:34:28.331Z</time>
      </trkpt>
      <trkpt lat="28.678814" lon="-13.928940">
        <ele>78.207000</ele>
        <time>2023-01-08T19:34:29.506Z</time>
      </trkpt>
      <trkpt lat="28.678878" lon="-13.928980">
        <ele>78.185786</ele>
        <time>2023-01-08T19:34:30.993Z</time>
      </trkpt>
      <trkpt lat="28.678796" lon="-13.928730">
        <ele>78.117730</ele>
        <time>2023-01-08T19:34:34.583Z</time>
      </trkpt>
      <trkpt lat="28.678891" lon="-13.928686">
        <ele>78.087927</ele>
        <time>2023-01-08T19:34:35.933Z</time>
      </trkpt>
      <trkpt lat="28.678670" lon="-13.928074">
        <ele>77.919173</ele>
        <time>2023-01-08T19:34:43.581Z</time>
      </trkpt>
      <trkpt lat="28.678449" lon="-13.927554">
        <ele>77.771840</ele>
        <time>2023-01-08T19:34:49.526Z</time>
      </trkpt>
      <trkpt lat="28.678128" lon="-13.926896">
        <ele>77.687682</ele>
        <time>2023-01-08T19:34:57.572Z</time>
      </trkpt>
      <trkpt lat="28.677816" lon="-13.926327">
        <ele>77.656700</ele>
        <time>2023-01-08T19:35:05.169Z</time>
      </trkpt>
      <trkpt lat="28.677312" lon="-13.925391">
        <ele>77.768438</ele>
        <time>2023-01-08T19:35:19.759Z</time>
      </trkpt>
      <trkpt lat="28.677080" lon="-13.924568">
        <ele>78.325003</ele>
        <time>2023-01-08T19:35:31.941Z</time>
      </trkpt>
      <trkpt lat="28.676966" lon="-13.923864">
        <ele>78.785926</ele>
        <time>2023-01-08T19:35:41.788Z</time>
      </trkpt>
      <trkpt lat="28.676893" lon="-13.922919">
        <ele>79.674438</ele>
        <time>2023-01-08T19:35:54.306Z</time>
      </trkpt>
      <trkpt lat="28.676755" lon="-13.920713">
        <ele>82.126902</ele>
        <time>2023-01-08T19:36:28.984Z</time>
      </trkpt>
      <trkpt lat="28.676730" lon="-13.920425">
        <ele>82.481488</ele>
        <time>2023-01-08T19:36:33.766Z</time>
      </trkpt>
      <trkpt lat="28.676651" lon="-13.920108">
        <ele>82.885248</ele>
        <time>2023-01-08T19:36:39.039Z</time>
      </trkpt>
      <trkpt lat="28.675386" lon="-13.916441">
        <ele>85.676268</ele>
        <time>2023-01-08T19:37:33.890Z</time>
      </trkpt>
      <trkpt lat="28.674827" lon="-13.915153">
        <ele>85.793823</ele>
        <time>2023-01-08T19:37:50.452Z</time>
      </trkpt>
      <trkpt lat="28.673790" lon="-13.913052">
        <ele>84.874398</ele>
        <time>2023-01-08T19:38:17.270Z</time>
      </trkpt>
      <trkpt lat="28.673632" lon="-13.912650">
        <ele>84.636393</ele>
        <time>2023-01-08T19:38:21.943Z</time>
      </trkpt>
      <trkpt lat="28.673587" lon="-13.912360">
        <ele>84.477270</ele>
        <time>2023-01-08T19:38:25.145Z</time>
      </trkpt>
      <trkpt lat="28.673739" lon="-13.912392">
        <ele>84.382080</ele>
        <time>2023-01-08T19:38:28.230Z</time>
      </trkpt>
      <trkpt lat="28.674031" lon="-13.912511">
        <ele>84.230668</ele>
        <time>2023-01-08T19:38:34.762Z</time>
      </trkpt>
      <trkpt lat="28.674311" lon="-13.912558">
        <ele>84.099365</ele>
        <time>2023-01-08T19:38:40.790Z</time>
      </trkpt>
      <trkpt lat="28.674848" lon="-13.912514">
        <ele>83.849588</ele>
        <time>2023-01-08T19:38:52.131Z</time>
      </trkpt>
      <trkpt lat="28.675245" lon="-13.912311">
        <ele>83.647719</ele>
        <time>2023-01-08T19:39:01.535Z</time>
      </trkpt>
      <trkpt lat="28.675543" lon="-13.912224">
        <ele>83.529588</ele>
        <time>2023-01-08T19:39:08.371Z</time>
      </trkpt>
      <trkpt lat="28.676781" lon="-13.911966">
        <ele>84.137982</ele>
        <time>2023-01-08T19:39:37.720Z</time>
      </trkpt>
      <trkpt lat="28.677495" lon="-13.911864">
        <ele>84.725101</ele>
        <time>2023-01-08T19:39:55.762Z</time>
      </trkpt>
      <trkpt lat="28.677851" lon="-13.911752">
        <ele>85.333784</ele>
        <time>2023-01-08T19:40:05.417Z</time>
      </trkpt>
      <trkpt lat="28.678216" lon="-13.911784">
        <ele>85.937137</ele>
        <time>2023-01-08T19:40:15.299Z</time>
      </trkpt>
      <trkpt lat="28.678349" lon="-13.911774">
        <ele>86.156818</ele>
        <time>2023-01-08T19:40:19.109Z</time>
      </trkpt>
      <trkpt lat="28.678766" lon="-13.911621">
        <ele>86.878828</ele>
        <time>2023-01-08T19:40:31.427Z</time>
      </trkpt>
      <trkpt lat="28.679598" lon="-13.911257">
        <ele>88.704703</ele>
        <time>2023-01-08T19:40:56.963Z</time>
      </trkpt>
      <trkpt lat="28.679818" lon="-13.911187">
        <ele>89.216032</ele>
        <time>2023-01-08T19:41:03.832Z</time>
      </trkpt>
      <trkpt lat="28.680158" lon="-13.911165">
        <ele>89.978395</ele>
        <time>2023-01-08T19:41:13.823Z</time>
      </trkpt>
      <trkpt lat="28.680968" lon="-13.911245">
        <ele>91.834526</ele>
        <time>2023-01-08T19:41:37.292Z</time>
      </trkpt>
      <trkpt lat="28.681186" lon="-13.911183">
        <ele>92.380567</ele>
        <time>2023-01-08T19:41:43.865Z</time>
      </trkpt>
      <trkpt lat="28.681421" lon="-13.911010">
        <ele>93.060437</ele>
        <time>2023-01-08T19:41:51.887Z</time>
      </trkpt>
      <trkpt lat="28.681737" lon="-13.910941">
        <ele>93.842367</ele>
        <time>2023-01-08T19:42:01.137Z</time>
      </trkpt>
      <trkpt lat="28.681842" lon="-13.910896">
        <ele>94.114986</ele>
        <time>2023-01-08T19:42:04.445Z</time>
      </trkpt>
      <trkpt lat="28.682283" lon="-13.910560">
        <ele>95.404111</ele>
        <time>2023-01-08T19:42:20.260Z</time>
      </trkpt>
      <trkpt lat="28.682455" lon="-13.910473">
        <ele>95.870954</ele>
        <time>2023-01-08T19:42:26.207Z</time>
      </trkpt>
      <trkpt lat="28.683697" lon="-13.910171">
        <ele>99.218136</ele>
        <time>2023-01-08T19:43:05.618Z</time>
      </trkpt>
      <trkpt lat="28.684145" lon="-13.910019">
        <ele>100.450123</ele>
        <time>2023-01-08T19:43:19.399Z</time>
      </trkpt>
      <trkpt lat="28.684856" lon="-13.909715">
        <ele>101.090659</ele>
        <time>2023-01-08T19:43:39.650Z</time>
      </trkpt>
      <trkpt lat="28.685182" lon="-13.909463">
        <ele>101.408792</ele>
        <time>2023-01-08T19:43:49.220Z</time>
      </trkpt>
      <trkpt lat="28.685538" lon="-13.909140">
        <ele>101.776285</ele>
        <time>2023-01-08T19:43:59.328Z</time>
      </trkpt>
      <trkpt lat="28.686522" lon="-13.908012">
        <ele>101.720992</ele>
        <time>2023-01-08T19:44:29.371Z</time>
      </trkpt>
      <trkpt lat="28.686569" lon="-13.907970">
        <ele>101.709900</ele>
        <time>2023-01-08T19:44:30.704Z</time>
      </trkpt>
      <trkpt lat="28.686854" lon="-13.907721">
        <ele>101.643203</ele>
        <time>2023-01-08T19:44:38.624Z</time>
      </trkpt>
      <trkpt lat="28.687398" lon="-13.907357">
        <ele>101.920259</ele>
        <time>2023-01-08T19:44:53.150Z</time>
      </trkpt>
      <trkpt lat="28.689015" lon="-13.906436">
        <ele>103.329656</ele>
        <time>2023-01-08T19:45:38.459Z</time>
      </trkpt>
      <trkpt lat="28.692399" lon="-13.904931">
        <ele>107.270784</ele>
        <time>2023-01-08T19:47:10.416Z</time>
      </trkpt>
      <trkpt lat="28.694153" lon="-13.904199">
        <ele>110.166626</ele>
        <time>2023-01-08T19:48:01.560Z</time>
      </trkpt>
      <trkpt lat="28.694907" lon="-13.903921">
        <ele>111.474046</ele>
        <time>2023-01-08T19:48:23.192Z</time>
      </trkpt>
      <trkpt lat="28.696089" lon="-13.903646">
        <ele>113.494262</ele>
        <time>2023-01-08T19:48:55.232Z</time>
      </trkpt>
      <trkpt lat="28.697083" lon="-13.903393">
        <ele>115.214945</ele>
        <time>2023-01-08T19:49:23.408Z</time>
      </trkpt>
      <trkpt lat="28.698424" lon="-13.903124">
        <ele>118.099397</ele>
        <time>2023-01-08T19:50:01.624Z</time>
      </trkpt>
      <trkpt lat="28.698634" lon="-13.903124">
        <ele>118.545986</ele>
        <time>2023-01-08T19:50:07.802Z</time>
      </trkpt>
      <trkpt lat="28.698862" lon="-13.903171">
        <ele>119.038717</ele>
        <time>2023-01-08T19:50:14.761Z</time>
      </trkpt>
      <trkpt lat="28.701541" lon="-13.904099">
        <ele>126.868820</ele>
        <time>2023-01-08T19:51:41.484Z</time>
      </trkpt>
      <trkpt lat="28.702017" lon="-13.904298">
        <ele>128.234082</ele>
        <time>2023-01-08T19:51:56.588Z</time>
      </trkpt>
      <trkpt lat="28.702084" lon="-13.904407">
        <ele>128.548462</ele>
        <time>2023-01-08T19:51:59.832Z</time>
      </trkpt>
      <trkpt lat="28.702122" lon="-13.904548">
        <ele>128.896867</ele>
        <time>2023-01-08T19:52:04.114Z</time>
      </trkpt>
      <trkpt lat="28.702153" lon="-13.905553">
        <ele>131.203889</ele>
        <time>2023-01-08T19:52:29.702Z</time>
      </trkpt>
      <trkpt lat="28.702040" lon="-13.905856">
        <ele>131.957452</ele>
        <time>2023-01-08T19:52:38.350Z</time>
      </trkpt>
      <trkpt lat="28.701738" lon="-13.906413">
        <ele>133.456166</ele>
        <time>2023-01-08T19:52:55.694Z</time>
      </trkpt>
      <trkpt lat="28.701351" lon="-13.907449">
        <ele>137.079614</ele>
        <time>2023-01-08T19:53:27.429Z</time>
      </trkpt>
      <trkpt lat="28.701124" lon="-13.907934">
        <ele>138.918208</ele>
        <time>2023-01-08T19:53:43.815Z</time>
      </trkpt>
      <trkpt lat="28.701017" lon="-13.908519">
        <ele>141.044678</ele>
        <time>2023-01-08T19:54:02.725Z</time>
      </trkpt>
      <trkpt lat="28.700833" lon="-13.908869">
        <ele>143.004371</ele>
        <time>2023-01-08T19:54:16.453Z</time>
      </trkpt>
      <trkpt lat="28.700242" lon="-13.910343">
        <ele>150.907897</ele>
        <time>2023-01-08T19:55:10.932Z</time>
      </trkpt>
      <trkpt lat="28.700068" lon="-13.911093">
        <ele>156.047455</ele>
        <time>2023-01-08T19:55:41.740Z</time>
      </trkpt>
      <trkpt lat="28.700108" lon="-13.911264">
        <ele>157.219911</ele>
        <time>2023-01-08T19:55:48.975Z</time>
      </trkpt>
      <trkpt lat="28.700194" lon="-13.911487">
        <ele>158.833757</ele>
        <time>2023-01-08T19:55:59.461Z</time>
      </trkpt>
      <trkpt lat="28.700507" lon="-13.912063">
        <ele>163.322651</ele>
        <time>2023-01-08T19:56:25.856Z</time>
      </trkpt>
      <trkpt lat="28.700609" lon="-13.912358">
        <ele>165.398999</ele>
        <time>2023-01-08T19:56:38.856Z</time>
      </trkpt>
      <trkpt lat="28.700710" lon="-13.912592">
        <ele>167.095956</ele>
        <time>2023-01-08T19:56:49.824Z</time>
      </trkpt>
      <trkpt lat="28.700830" lon="-13.912797">
        <ele>168.699614</ele>
        <time>2023-01-08T19:56:59.848Z</time>
      </trkpt>
      <trkpt lat="28.701169" lon="-13.913182">
        <ele>172.249224</ele>
        <time>2023-01-08T19:57:23.156Z</time>
      </trkpt>
      <trkpt lat="28.701416" lon="-13.913431">
        <ele>174.695107</ele>
        <time>2023-01-08T19:57:38.431Z</time>
      </trkpt>
      <trkpt lat="28.701819" lon="-13.913653">
        <ele>177.537501</ele>
        <time>2023-01-08T19:57:56.992Z</time>
      </trkpt>
      <trkpt lat="28.701927" lon="-13.913782">
        <ele>177.797763</ele>
        <time>2023-01-08T19:58:02.326Z</time>
      </trkpt>
      <trkpt lat="28.702126" lon="-13.914065">
        <ele>178.327122</ele>
        <time>2023-01-08T19:58:11.186Z</time>
      </trkpt>
      <trkpt lat="28.702315" lon="-13.914217">
        <ele>178.711964</ele>
        <time>2023-01-08T19:58:17.263Z</time>
      </trkpt>
      <trkpt lat="28.702464" lon="-13.914263">
        <ele>178.968811</ele>
        <time>2023-01-08T19:58:21.906Z</time>
      </trkpt>
      <trkpt lat="28.702586" lon="-13.914252">
        <ele>179.172438</ele>
        <time>2023-01-08T19:58:24.867Z</time>
      </trkpt>
      <trkpt lat="28.702736" lon="-13.914298">
        <ele>179.430891</ele>
        <time>2023-01-08T19:58:28.637Z</time>
      </trkpt>
      <trkpt lat="28.702983" lon="-13.914484">
        <ele>179.923425</ele>
        <time>2023-01-08T19:58:35.693Z</time>
      </trkpt>
      <trkpt lat="28.703193" lon="-13.914729">
        <ele>180.346275</ele>
        <time>2023-01-08T19:58:42.217Z</time>
      </trkpt>
      <trkpt lat="28.703281" lon="-13.914747">
        <ele>180.128745</ele>
        <time>2023-01-08T19:58:43.854Z</time>
      </trkpt>
      <trkpt lat="28.703356" lon="-13.914718">
        <ele>179.936054</ele>
        <time>2023-01-08T19:58:45.443Z</time>
      </trkpt>
      <trkpt lat="28.703630" lon="-13.914502">
        <ele>179.125541</ele>
        <time>2023-01-08T19:58:51.822Z</time>
      </trkpt>
      <trkpt lat="28.703836" lon="-13.914405">
        <ele>178.583260</ele>
        <time>2023-01-08T19:58:56.087Z</time>
      </trkpt>
      <trkpt lat="28.704250" lon="-13.914379">
        <ele>177.574436</ele>
        <time>2023-01-08T19:59:03.768Z</time>
      </trkpt>
      <trkpt lat="28.704939" lon="-13.914100">
        <ele>175.757763</ele>
        <time>2023-01-08T19:59:17.373Z</time>
      </trkpt>
      <trkpt lat="28.705873" lon="-13.914103">
        <ele>173.096664</ele>
        <time>2023-01-08T19:59:34.880Z</time>
      </trkpt>
      <trkpt lat="28.706036" lon="-13.914050">
        <ele>172.613738</ele>
        <time>2023-01-08T19:59:38.091Z</time>
      </trkpt>
      <trkpt lat="28.706156" lon="-13.913953">
        <ele>172.194632</ele>
        <time>2023-01-08T19:59:40.894Z</time>
      </trkpt>
      <trkpt lat="28.706538" lon="-13.913512">
        <ele>170.718545</ele>
        <time>2023-01-08T19:59:50.815Z</time>
      </trkpt>
      <trkpt lat="28.707222" lon="-13.912793">
        <ele>168.853885</ele>
        <time>2023-01-08T20:00:08.988Z</time>
      </trkpt>
      <trkpt lat="28.707519" lon="-13.912294">
        <ele>167.793785</ele>
        <time>2023-01-08T20:00:19.569Z</time>
      </trkpt>
      <trkpt lat="28.707653" lon="-13.911610">
        <ele>166.167621</ele>
        <time>2023-01-08T20:00:31.941Z</time>
      </trkpt>
      <trkpt lat="28.707689" lon="-13.911290">
        <ele>165.291974</ele>
        <time>2023-01-08T20:00:37.505Z</time>
      </trkpt>
      <trkpt lat="28.707849" lon="-13.910754">
        <ele>163.755237</ele>
        <time>2023-01-08T20:00:46.648Z</time>
      </trkpt>
      <trkpt lat="28.708511" lon="-13.909605">
        <ele>158.050044</ele>
        <time>2023-01-08T20:01:07.997Z</time>
      </trkpt>
      <trkpt lat="28.708671" lon="-13.909468">
        <ele>156.710287</ele>
        <time>2023-01-08T20:01:11.180Z</time>
      </trkpt>
      <trkpt lat="28.708968" lon="-13.909351">
        <ele>154.606345</ele>
        <time>2023-01-08T20:01:16.229Z</time>
      </trkpt>
      <trkpt lat="28.709660" lon="-13.909217">
        <ele>149.906651</ele>
        <time>2023-01-08T20:01:27.498Z</time>
      </trkpt>
      <trkpt lat="28.710137" lon="-13.909174">
        <ele>146.410328</ele>
        <time>2023-01-08T20:01:35.206Z</time>
      </trkpt>
      <trkpt lat="28.710406" lon="-13.909121">
        <ele>144.402742</ele>
        <time>2023-01-08T20:01:39.701Z</time>
      </trkpt>
      <trkpt lat="28.711671" lon="-13.908705">
        <ele>134.986930</ele>
        <time>2023-01-08T20:02:01.086Z</time>
      </trkpt>
      <trkpt lat="28.712152" lon="-13.908509">
        <ele>131.809162</ele>
        <time>2023-01-08T20:02:09.529Z</time>
      </trkpt>
      <trkpt lat="28.712348" lon="-13.908326">
        <ele>130.233141</ele>
        <time>2023-01-08T20:02:13.825Z</time>
      </trkpt>
      <trkpt lat="28.712594" lon="-13.908096">
        <ele>128.253982</ele>
        <time>2023-01-08T20:02:19.028Z</time>
      </trkpt>
      <trkpt lat="28.713241" lon="-13.907790">
        <ele>124.487931</ele>
        <time>2023-01-08T20:02:30.889Z</time>
      </trkpt>
      <trkpt lat="28.713654" lon="-13.907468">
        <ele>122.725607</ele>
        <time>2023-01-08T20:02:40.252Z</time>
      </trkpt>
      <trkpt lat="28.713779" lon="-13.907323">
        <ele>122.097504</ele>
        <time>2023-01-08T20:02:43.201Z</time>
      </trkpt>
      <trkpt lat="28.713842" lon="-13.907197">
        <ele>121.649447</ele>
        <time>2023-01-08T20:02:46.681Z</time>
      </trkpt>
      <trkpt lat="28.713847" lon="-13.907040">
        <ele>121.164118</ele>
        <time>2023-01-08T20:02:49.059Z</time>
      </trkpt>
      <trkpt lat="28.713785" lon="-13.906862">
        <ele>120.572454</ele>
        <time>2023-01-08T20:02:52.145Z</time>
      </trkpt>
      <trkpt lat="28.713761" lon="-13.906707">
        <ele>120.086216</ele>
        <time>2023-01-08T20:02:54.906Z</time>
      </trkpt>
      <trkpt lat="28.713780" lon="-13.906593">
        <ele>119.727740</ele>
        <time>2023-01-08T20:02:56.586Z</time>
      </trkpt>
      <trkpt lat="28.713962" lon="-13.906099">
        <ele>118.696353</ele>
        <time>2023-01-08T20:03:05.746Z</time>
      </trkpt>
      <trkpt lat="28.714222" lon="-13.905709">
        <ele>118.291029</ele>
        <time>2023-01-08T20:03:14.509Z</time>
      </trkpt>
      <trkpt lat="28.714504" lon="-13.905188">
        <ele>117.784475</ele>
        <time>2023-01-08T20:03:25.377Z</time>
      </trkpt>
      <trkpt lat="28.714648" lon="-13.905086">
        <ele>117.624546</ele>
        <time>2023-01-08T20:03:28.840Z</time>
      </trkpt>
      <trkpt lat="28.714764" lon="-13.904894">
        <ele>117.431643</ele>
        <time>2023-01-08T20:03:33.226Z</time>
      </trkpt>
      <trkpt lat="28.714816" lon="-13.904601">
        <ele>117.328970</ele>
        <time>2023-01-08T20:03:39.512Z</time>
      </trkpt>
      <trkpt lat="28.714734" lon="-13.903906">
        <ele>118.681727</ele>
        <time>2023-01-08T20:03:56.925Z</time>
      </trkpt>
      <trkpt lat="28.714675" lon="-13.903756">
        <ele>118.998850</ele>
        <time>2023-01-08T20:04:01.318Z</time>
      </trkpt>
      <trkpt lat="28.714531" lon="-13.903499">
        <ele>119.587153</ele>
        <time>2023-01-08T20:04:09.439Z</time>
      </trkpt>
      <trkpt lat="28.714216" lon="-13.903095">
        <ele>120.629939</ele>
        <time>2023-01-08T20:04:24.133Z</time>
      </trkpt>
      <trkpt lat="28.714088" lon="-13.902667">
        <ele>121.474859</ele>
        <time>2023-01-08T20:04:36.289Z</time>
      </trkpt>
      <trkpt lat="28.714069" lon="-13.902495">
        <ele>121.780500</ele>
        <time>2023-01-08T20:04:40.773Z</time>
      </trkpt>
      <trkpt lat="28.714083" lon="-13.902351">
        <ele>122.035934</ele>
        <time>2023-01-08T20:04:44.770Z</time>
      </trkpt>
      <trkpt lat="28.714118" lon="-13.902200">
        <ele>122.311296</ele>
        <time>2023-01-08T20:04:48.973Z</time>
      </trkpt>
      <trkpt lat="28.714340" lon="-13.901778">
        <ele>123.178885</ele>
        <time>2023-01-08T20:05:02.086Z</time>
      </trkpt>
      <trkpt lat="28.714477" lon="-13.901440">
        <ele>123.835358</ele>
        <time>2023-01-08T20:05:11.255Z</time>
      </trkpt>
      <trkpt lat="28.714660" lon="-13.900935">
        <ele>124.798704</ele>
        <time>2023-01-08T20:05:23.037Z</time>
      </trkpt>
      <trkpt lat="28.715122" lon="-13.900568">
        <ele>124.963719</ele>
        <time>2023-01-08T20:05:36.246Z</time>
      </trkpt>
      <trkpt lat="28.715300" lon="-13.900336">
        <ele>125.042565</ele>
        <time>2023-01-08T20:05:42.745Z</time>
      </trkpt>
      <trkpt lat="28.715343" lon="-13.900228">
        <ele>125.072903</ele>
        <time>2023-01-08T20:05:45.187Z</time>
      </trkpt>
      <trkpt lat="28.715348" lon="-13.899812">
        <ele>125.179320</ele>
        <time>2023-01-08T20:05:54.050Z</time>
      </trkpt>
      <trkpt lat="28.715426" lon="-13.899684">
        <ele>125.219189</ele>
        <time>2023-01-08T20:05:57.062Z</time>
      </trkpt>
      <trkpt lat="28.715544" lon="-13.899640">
        <ele>125.255398</ele>
        <time>2023-01-08T20:05:59.784Z</time>
      </trkpt>
      <trkpt lat="28.715696" lon="-13.899660">
        <ele>125.300024</ele>
        <time>2023-01-08T20:06:03.092Z</time>
      </trkpt>
      <trkpt lat="28.716152" lon="-13.899859">
        <ele>124.906070</ele>
        <time>2023-01-08T20:06:13.390Z</time>
      </trkpt>
      <trkpt lat="28.716358" lon="-13.899833">
        <ele>124.692246</ele>
        <time>2023-01-08T20:06:17.703Z</time>
      </trkpt>
      <trkpt lat="28.716678" lon="-13.899650">
        <ele>124.322914</ele>
        <time>2023-01-08T20:06:25.026Z</time>
      </trkpt>
      <trkpt lat="28.717001" lon="-13.899534">
        <ele>123.973543</ele>
        <time>2023-01-08T20:06:31.890Z</time>
      </trkpt>
      <trkpt lat="28.717475" lon="-13.899425">
        <ele>123.474681</ele>
        <time>2023-01-08T20:06:41.623Z</time>
      </trkpt>
      <trkpt lat="28.717846" lon="-13.899441">
        <ele>123.322926</ele>
        <time>2023-01-08T20:06:49.132Z</time>
      </trkpt>
      <trkpt lat="28.718004" lon="-13.899376">
        <ele>123.255959</ele>
        <time>2023-01-08T20:06:52.680Z</time>
      </trkpt>
      <trkpt lat="28.718038" lon="-13.899286">
        <ele>123.221695</ele>
        <time>2023-01-08T20:06:54.432Z</time>
      </trkpt>
      <trkpt lat="28.717744" lon="-13.898656">
        <ele>122.972172</ele>
        <time>2023-01-08T20:07:07.943Z</time>
      </trkpt>
      <trkpt lat="28.717606" lon="-13.898470">
        <ele>122.886986</ele>
        <time>2023-01-08T20:07:12.733Z</time>
      </trkpt>
      <trkpt lat="28.717428" lon="-13.898396">
        <ele>122.811450</ele>
        <time>2023-01-08T20:07:17.299Z</time>
      </trkpt>
      <trkpt lat="28.717331" lon="-13.898258">
        <ele>122.757520</ele>
        <time>2023-01-08T20:07:20.842Z</time>
      </trkpt>
      <trkpt lat="28.717279" lon="-13.897989">
        <ele>123.066131</ele>
        <time>2023-01-08T20:07:26.695Z</time>
      </trkpt>
      <trkpt lat="28.717156" lon="-13.897839">
        <ele>123.296202</ele>
        <time>2023-01-08T20:07:31.119Z</time>
      </trkpt>
      <trkpt lat="28.716969" lon="-13.897446">
        <ele>123.797136</ele>
        <time>2023-01-08T20:07:41.337Z</time>
      </trkpt>
      <trkpt lat="28.716783" lon="-13.896812">
        <ele>124.546137</ele>
        <time>2023-01-08T20:07:56.998Z</time>
      </trkpt>
      <trkpt lat="28.716803" lon="-13.896696">
        <ele>124.678587</ele>
        <time>2023-01-08T20:07:59.641Z</time>
      </trkpt>
      <trkpt lat="28.716892" lon="-13.896576">
        <ele>124.854661</ele>
        <time>2023-01-08T20:08:03.504Z</time>
      </trkpt>
      <trkpt lat="28.717195" lon="-13.896176">
        <ele>125.788205</ele>
        <time>2023-01-08T20:08:16.620Z</time>
      </trkpt>
      <trkpt lat="28.717264" lon="-13.896132">
        <ele>125.975916</ele>
        <time>2023-01-08T20:08:18.757Z</time>
      </trkpt>
      <trkpt lat="28.717361" lon="-13.896144">
        <ele>126.207580</ele>
        <time>2023-01-08T20:08:21.458Z</time>
      </trkpt>
      <trkpt lat="28.717702" lon="-13.896186">
        <ele>127.021947</ele>
        <time>2023-01-08T20:08:31.539Z</time>
      </trkpt>
      <trkpt lat="28.718053" lon="-13.896198">
        <ele>127.855723</ele>
        <time>2023-01-08T20:08:42.180Z</time>
      </trkpt>
      <trkpt lat="28.718659" lon="-13.896120">
        <ele>129.303724</ele>
        <time>2023-01-08T20:09:00.774Z</time>
      </trkpt>
      <trkpt lat="28.718857" lon="-13.896018">
        <ele>129.718068</ele>
        <time>2023-01-08T20:09:07.190Z</time>
      </trkpt>
      <trkpt lat="28.719084" lon="-13.895805">
        <ele>130.274259</ele>
        <time>2023-01-08T20:09:16.039Z</time>
      </trkpt>
      <trkpt lat="28.719132" lon="-13.895677">
        <ele>130.505240</ele>
        <time>2023-01-08T20:09:19.836Z</time>
      </trkpt>
      <trkpt lat="28.719202" lon="-13.895297">
        <ele>131.149502</ele>
        <time>2023-01-08T20:09:30.133Z</time>
      </trkpt>
      <trkpt lat="28.719384" lon="-13.894914">
        <ele>131.872275</ele>
        <time>2023-01-08T20:09:40.995Z</time>
      </trkpt>
      <trkpt lat="28.719482" lon="-13.894562">
        <ele>132.485042</ele>
        <time>2023-01-08T20:09:49.397Z</time>
      </trkpt>
      <trkpt lat="28.719591" lon="-13.894343">
        <ele>132.356740</ele>
        <time>2023-01-08T20:09:54.943Z</time>
      </trkpt>
      <trkpt lat="28.719802" lon="-13.894007">
        <ele>130.962410</ele>
        <time>2023-01-08T20:10:02.757Z</time>
      </trkpt>
      <trkpt lat="28.720331" lon="-13.892925">
        <ele>126.782794</ele>
        <time>2023-01-08T20:10:22.570Z</time>
      </trkpt>
      <trkpt lat="28.721276" lon="-13.892260">
        <ele>116.707411</ele>
        <time>2023-01-08T20:10:39.508Z</time>
      </trkpt>
      <trkpt lat="28.721890" lon="-13.891759">
        <ele>108.682947</ele>
        <time>2023-01-08T20:10:50.856Z</time>
      </trkpt>
      <trkpt lat="28.722469" lon="-13.891108">
        <ele>102.598031</ele>
        <time>2023-01-08T20:11:03.317Z</time>
      </trkpt>
      <trkpt lat="28.722546" lon="-13.890836">
        <ele>100.959137</ele>
        <time>2023-01-08T20:11:07.308Z</time>
      </trkpt>
      <trkpt lat="28.722541" lon="-13.890552">
        <ele>99.330355</ele>
        <time>2023-01-08T20:11:11.491Z</time>
      </trkpt>
      <trkpt lat="28.722421" lon="-13.890131">
        <ele>96.792032</ele>
        <time>2023-01-08T20:11:18.614Z</time>
      </trkpt>
      <trkpt lat="28.722449" lon="-13.890000">
        <ele>96.018890</ele>
        <time>2023-01-08T20:11:20.959Z</time>
      </trkpt>
      <trkpt lat="28.722506" lon="-13.889948">
        <ele>95.541600</ele>
        <time>2023-01-08T20:11:22.279Z</time>
      </trkpt>
      <trkpt lat="28.722090" lon="-13.889599">
        <ele>93.934724</ele>
        <time>2023-01-08T20:11:33.124Z</time>
      </trkpt>
      <trkpt lat="28.722039" lon="-13.889450">
        <ele>93.605498</ele>
        <time>2023-01-08T20:11:36.182Z</time>
      </trkpt>
      <trkpt lat="28.721864" lon="-13.889249">
        <ele>93.022502</ele>
        <time>2023-01-08T20:11:41.506Z</time>
      </trkpt>
      <trkpt lat="28.721631" lon="-13.889140">
        <ele>92.431388</ele>
        <time>2023-01-08T20:11:46.128Z</time>
      </trkpt>
      <trkpt lat="28.721664" lon="-13.888937">
        <ele>92.006424</ele>
        <time>2023-01-08T20:11:49.586Z</time>
      </trkpt>
      <trkpt lat="28.721572" lon="-13.888663">
        <ele>91.402511</ele>
        <time>2023-01-08T20:11:54.133Z</time>
      </trkpt>
      <trkpt lat="28.721462" lon="-13.888545">
        <ele>91.048036</ele>
        <time>2023-01-08T20:11:57.130Z</time>
      </trkpt>
      <trkpt lat="28.721365" lon="-13.888360">
        <ele>90.534977</ele>
        <time>2023-01-08T20:12:00.418Z</time>
      </trkpt>
      <trkpt lat="28.721160" lon="-13.888154">
        <ele>89.448049</ele>
        <time>2023-01-08T20:12:05.593Z</time>
      </trkpt>
      <trkpt lat="28.721025" lon="-13.888054">
        <ele>88.807674</ele>
        <time>2023-01-08T20:12:08.474Z</time>
      </trkpt>
      <trkpt lat="28.720920" lon="-13.887926">
        <ele>88.196249</ele>
        <time>2023-01-08T20:12:11.439Z</time>
      </trkpt>
      <trkpt lat="28.721026" lon="-13.887851">
        <ele>87.700015</ele>
        <time>2023-01-08T20:12:13.491Z</time>
      </trkpt>
      <trkpt lat="28.721164" lon="-13.887675">
        <ele>86.876421</ele>
        <time>2023-01-08T20:12:17.389Z</time>
      </trkpt>
      <trkpt lat="28.721188" lon="-13.887607">
        <ele>86.620714</ele>
        <time>2023-01-08T20:12:18.421Z</time>
      </trkpt>
      <trkpt lat="28.721156" lon="-13.887434">
        <ele>86.003928</ele>
        <time>2023-01-08T20:12:21.161Z</time>
      </trkpt>
      <trkpt lat="28.721223" lon="-13.887328">
        <ele>85.548111</ele>
        <time>2023-01-08T20:12:23.301Z</time>
      </trkpt>
      <trkpt lat="28.721295" lon="-13.887047">
        <ele>84.526865</ele>
        <time>2023-01-08T20:12:27.730Z</time>
      </trkpt>
      <trkpt lat="28.721273" lon="-13.886981">
        <ele>84.280554</ele>
        <time>2023-01-08T20:12:28.913Z</time>
      </trkpt>
      <trkpt lat="28.721350" lon="-13.886909">
        <ele>83.884442</ele>
        <time>2023-01-08T20:12:30.647Z</time>
      </trkpt>
      <trkpt lat="28.721369" lon="-13.886427">
        <ele>82.703295</ele>
        <time>2023-01-08T20:12:37.927Z</time>
      </trkpt>
      <trkpt lat="28.721432" lon="-13.886196">
        <ele>82.173625</ele>
        <time>2023-01-08T20:12:41.917Z</time>
      </trkpt>
      <trkpt lat="28.721431" lon="-13.886054">
        <ele>81.862705</ele>
        <time>2023-01-08T20:12:44.171Z</time>
      </trkpt>
      <trkpt lat="28.721473" lon="-13.885882">
        <ele>81.471784</ele>
        <time>2023-01-08T20:12:47.519Z</time>
      </trkpt>
      <trkpt lat="28.721435" lon="-13.885710">
        <ele>81.083422</ele>
        <time>2023-01-08T20:12:50.540Z</time>
      </trkpt>
      <trkpt lat="28.721808" lon="-13.885380">
        <ele>79.904733</ele>
        <time>2023-01-08T20:13:00.084Z</time>
      </trkpt>
      <trkpt lat="28.722384" lon="-13.885342">
        <ele>78.833070</ele>
        <time>2023-01-08T20:13:11.511Z</time>
      </trkpt>
      <trkpt lat="28.722642" lon="-13.885240">
        <ele>78.574230</ele>
        <time>2023-01-08T20:13:16.958Z</time>
      </trkpt>
      <trkpt lat="28.722798" lon="-13.885098">
        <ele>78.385022</ele>
        <time>2023-01-08T20:13:21.149Z</time>
      </trkpt>
      <trkpt lat="28.722864" lon="-13.884907">
        <ele>78.214370</ele>
        <time>2023-01-08T20:13:24.848Z</time>
      </trkpt>
      <trkpt lat="28.722985" lon="-13.884719">
        <ele>78.020519</ele>
        <time>2023-01-08T20:13:29.243Z</time>
      </trkpt>
      <trkpt lat="28.723263" lon="-13.884531">
        <ele>77.714148</ele>
        <time>2023-01-08T20:13:36.058Z</time>
      </trkpt>
      <trkpt lat="28.723379" lon="-13.884345">
        <ele>77.524422</ele>
        <time>2023-01-08T20:13:40.256Z</time>
      </trkpt>
      <trkpt lat="28.723587" lon="-13.883724">
        <ele>76.565350</ele>
        <time>2023-01-08T20:13:48.056Z</time>
      </trkpt>
      <trkpt lat="28.723549" lon="-13.883574">
        <ele>76.297467</ele>
        <time>2023-01-08T20:13:49.810Z</time>
      </trkpt>
      <trkpt lat="28.723434" lon="-13.883443">
        <ele>75.979442</ele>
        <time>2023-01-08T20:13:51.980Z</time>
      </trkpt>
      <trkpt lat="28.723291" lon="-13.883330">
        <ele>75.639055</ele>
        <time>2023-01-08T20:13:54.008Z</time>
      </trkpt>
      <trkpt lat="28.723164" lon="-13.883136">
        <ele>75.223689</ele>
        <time>2023-01-08T20:13:56.488Z</time>
      </trkpt>
      <trkpt lat="28.723115" lon="-13.882979">
        <ele>74.937767</ele>
        <time>2023-01-08T20:13:58.086Z</time>
      </trkpt>
      <trkpt lat="28.723106" lon="-13.882747">
        <ele>74.539327</ele>
        <time>2023-01-08T20:14:00.341Z</time>
      </trkpt>
      <trkpt lat="28.723163" lon="-13.882210">
        <ele>73.206331</ele>
        <time>2023-01-08T20:14:05.340Z</time>
      </trkpt>
      <trkpt lat="28.722975" lon="-13.882127">
        <ele>72.097694</ele>
        <time>2023-01-08T20:14:07.436Z</time>
      </trkpt>
      <trkpt lat="28.722990" lon="-13.881794">
        <ele>70.489662</ele>
        <time>2023-01-08T20:14:10.371Z</time>
      </trkpt>
      <trkpt lat="28.723053" lon="-13.881299">
        <ele>68.077482</ele>
        <time>2023-01-08T20:14:14.678Z</time>
      </trkpt>
      <trkpt lat="28.723084" lon="-13.881010">
        <ele>66.673373</ele>
        <time>2023-01-08T20:14:17.126Z</time>
      </trkpt>
      <trkpt lat="28.723262" lon="-13.880259">
        <ele>62.858420</ele>
        <time>2023-01-08T20:14:23.559Z</time>
      </trkpt>
      <trkpt lat="28.723341" lon="-13.879908">
        <ele>61.002673</ele>
        <time>2023-01-08T20:14:26.565Z</time>
      </trkpt>
      <trkpt lat="28.723643" lon="-13.878491">
        <ele>53.534924</ele>
        <time>2023-01-08T20:14:39.120Z</time>
      </trkpt>
      <trkpt lat="28.723797" lon="-13.877750">
        <ele>50.814421</ele>
        <time>2023-01-08T20:14:45.890Z</time>
      </trkpt>
      <trkpt lat="28.723957" lon="-13.876908">
        <ele>47.769786</ele>
        <time>2023-01-08T20:14:53.841Z</time>
      </trkpt>
      <trkpt lat="28.724116" lon="-13.876846">
        <ele>47.092617</ele>
        <time>2023-01-08T20:14:55.630Z</time>
      </trkpt>
      <trkpt lat="28.724100" lon="-13.876758">
        <ele>46.775017</ele>
        <time>2023-01-08T20:14:56.430Z</time>
      </trkpt>
      <trkpt lat="28.724128" lon="-13.876637">
        <ele>46.332774</ele>
        <time>2023-01-08T20:14:57.567Z</time>
      </trkpt>
      <trkpt lat="28.724233" lon="-13.876526">
        <ele>45.806644</ele>
        <time>2023-01-08T20:14:59.016Z</time>
      </trkpt>
      <trkpt lat="28.724375" lon="-13.876506">
        <ele>45.297266</ele>
        <time>2023-01-08T20:15:00.467Z</time>
      </trkpt>
      <trkpt lat="28.724453" lon="-13.876542">
        <ele>44.997694</ele>
        <time>2023-01-08T20:15:01.336Z</time>
      </trkpt>
      <trkpt lat="28.724633" lon="-13.876560">
        <ele>44.354413</ele>
        <time>2023-01-08T20:15:03.156Z</time>
      </trkpt>
      <trkpt lat="28.724837" lon="-13.876518">
        <ele>43.616407</ele>
        <time>2023-01-08T20:15:05.286Z</time>
      </trkpt>
      <trkpt lat="28.729495" lon="-13.874843">
        <ele>26.578027</ele>
        <time>2023-01-08T20:15:54.423Z</time>
      </trkpt>
      <trkpt lat="28.729540" lon="-13.874799">
        <ele>26.450428</ele>
        <time>2023-01-08T20:15:55.034Z</time>
      </trkpt>
      <trkpt lat="28.729592" lon="-13.874798">
        <ele>26.338476</ele>
        <time>2023-01-08T20:15:55.585Z</time>
      </trkpt>
      <trkpt lat="28.730104" lon="-13.874615">
        <ele>25.183470</ele>
        <time>2023-01-08T20:16:01.370Z</time>
      </trkpt>
      <trkpt lat="28.731974" lon="-13.873949">
        <ele>22.113180</ele>
        <time>2023-01-08T20:16:23.690Z</time>
      </trkpt>
      <trkpt lat="28.732274" lon="-13.873836">
        <ele>21.788335</ele>
        <time>2023-01-08T20:16:27.499Z</time>
      </trkpt>
      <trkpt lat="28.734724" lon="-13.872951">
        <ele>21.095325</ele>
        <time>2023-01-08T20:17:01.400Z</time>
      </trkpt>
      <trkpt lat="28.735389" lon="-13.872803">
        <ele>21.015752</ele>
        <time>2023-01-08T20:17:10.605Z</time>
      </trkpt>
      <trkpt lat="28.735810" lon="-13.872687">
        <ele>20.964886</ele>
        <time>2023-01-08T20:17:16.395Z</time>
      </trkpt>
      <trkpt lat="28.737430" lon="-13.871871">
        <ele>20.339509</ele>
        <time>2023-01-08T20:17:38.848Z</time>
      </trkpt>
      <trkpt lat="28.738446" lon="-13.871345">
        <ele>19.443448</ele>
        <time>2023-01-08T20:17:52.716Z</time>
      </trkpt>
      <trkpt lat="28.738828" lon="-13.871165">
        <ele>19.019943</ele>
        <time>2023-01-08T20:17:57.803Z</time>
      </trkpt>
      <trkpt lat="28.740165" lon="-13.870901">
        <ele>16.644075</ele>
        <time>2023-01-08T20:18:13.072Z</time>
      </trkpt>
      <trkpt lat="28.740762" lon="-13.870856">
        <ele>15.164202</ele>
        <time>2023-01-08T20:18:19.382Z</time>
      </trkpt>
      <trkpt lat="28.741433" lon="-13.870816">
        <ele>13.397640</ele>
        <time>2023-01-08T20:18:26.314Z</time>
      </trkpt>
      <trkpt lat="28.741512" lon="-13.870810">
        <ele>13.147249</ele>
        <time>2023-01-08T20:18:27.138Z</time>
      </trkpt>
      <trkpt lat="28.741520" lon="-13.870903">
        <ele>12.888134</ele>
        <time>2023-01-08T20:18:32.860Z</time>
      </trkpt>
      <trkpt lat="28.741434" lon="-13.870910">
        <ele>12.615467</ele>
        <time>2023-01-08T20:18:33.722Z</time>
      </trkpt>
      <trkpt lat="28.741461" lon="-13.871124">
        <ele>12.015960</ele>
        <time>2023-01-08T20:18:37.116Z</time>
      </trkpt>
      <trkpt lat="28.741735" lon="-13.871301">
        <ele>11.020094</ele>
        <time>2023-01-08T20:18:42.768Z</time>
      </trkpt>
      <trkpt lat="28.741826" lon="-13.871468">
        <ele>10.474883</ele>
        <time>2023-01-08T20:18:45.958Z</time>
      </trkpt>
      <trkpt lat="28.741884" lon="-13.871737">
        <ele>9.706760</ele>
        <time>2023-01-08T20:18:50.449Z</time>
      </trkpt>
      <trkpt lat="28.741857" lon="-13.872154">
        <ele>8.547327</ele>
        <time>2023-01-08T20:18:57.314Z</time>
      </trkpt>
      <trkpt lat="28.741775" lon="-13.872871">
        <ele>7.537827</ele>
        <time>2023-01-08T20:19:09.525Z</time>
      </trkpt>
      <trkpt lat="28.741794" lon="-13.873129">
        <ele>7.253780</ele>
        <time>2023-01-08T20:19:14.092Z</time>
      </trkpt>
      <trkpt lat="28.742079" lon="-13.873760">
        <ele>6.475062</ele>
        <time>2023-01-08T20:19:26.739Z</time>
      </trkpt>
      <trkpt lat="28.742248" lon="-13.874292">
        <ele>5.938991</ele>
        <time>2023-01-08T20:19:37.771Z</time>
      </trkpt>
      <trkpt lat="28.742433" lon="-13.874710">
        <ele>5.938991</ele>
        <time>2023-01-08T20:19:47.846Z</time>
      </trkpt>
      <trkpt lat="28.742609" lon="-13.874902">
        <ele>5.938991</ele>
        <time>2023-01-08T20:19:54.005Z</time>
      </trkpt>
      <trkpt lat="28.742762" lon="-13.874970">
        <ele>5.938991</ele>
        <time>2023-01-08T20:19:58.086Z</time>
      </trkpt>
      <trkpt lat="28.743021" lon="-13.874912">
        <ele>5.938991</ele>
        <time>2023-01-08T20:20:04.775Z</time>
      </trkpt>
      <trkpt lat="28.743205" lon="-13.874801">
        <ele>5.938991</ele>
        <time>2023-01-08T20:20:10.308Z</time>
      </trkpt>
      <trkpt lat="28.743459" lon="-13.874722">
        <ele>5.938991</ele>
        <time>2023-01-08T20:20:16.938Z</time>
      </trkpt>
      <trkpt lat="28.743659" lon="-13.874731">
        <ele>5.938991</ele>
        <time>2023-01-08T20:20:22.084Z</time>
      </trkpt>
      <trkpt lat="28.743761" lon="-13.874759">
        <ele>5.938991</ele>
        <time>2023-01-08T20:20:24.693Z</time>
      </trkpt>
    </trkseg>
  </trk>
</gpx>
